# Wetter Temperatur Luftdruck Luftfeuchtigkeit Sichtweite Windgeschwindigkeit Windrichtung Zeit
1 Rain 4 995 87 9000 10.29 250 16:59 01.02.2023
2 Clouds 6 998 82 10000 8.75 270 14:22 01.02.2023
3 Clouds 6 998 88 10000 9.26 270 13:19 01.02.2023
4 Clouds 5 999 90 10000 8.94 273 12:26 01.02.2023
5 Clouds 4 999 90 10000 9.26 280 11:49 01.02.2023
6 Rain 5 998 83 10000 8.94 249 08:41 01.02.2023
7 Clouds 4 1001 89 10000 9.83 273 23:41 31.01.2023
8 Clouds 5 998 88 10000 10.8 270 21:26 31.01.2023
9 Clouds 5 999 92 10000 8.94 259 19:24 31.01.2023
10 Clouds 5 1000 93 9000 8.94 250 17:54 31.01.2023
11 Drizzle 4 1001 92 4100 9.83 242 15:36 31.01.2023
12 Rain 4 1001 92 10000 9.77 240 15:18 31.01.2023
13 Rain 5 1003 87 10000 7.2 230 13:45 31.01.2023
14 Clouds 5 1005 84 10000 7.15 238 11:41 31.01.2023
15 Clouds 4 1014 87 10000 7.2 260 10:26 31.01.2023
16 Clouds 4 1006 88 10000 7.72 250 09:50 31.01.2023
17 Clouds 4 1014 85 10000 7.72 260 08:58 31.01.2023
18 Clouds 4 1014 85 10000 7.72 270 08:34 31.01.2023
19 Clouds 3 1004 83 10000 7.6 275 05:29 31.01.2023
20 Clouds 4 1010 78 10000 12.07 295 23:54 30.01.2023
21 Clouds 5 1001 76 10000 10.73 310 22:50 30.01.2023
22 Clouds 5 998 78 10000 10.29 290 21:56 30.01.2023
23 Clouds 5 996 79 10000 11.83 290 20:47 30.01.2023
24 Clouds 5 995 85 10000 12.07 291 19:49 30.01.2023
25 Rain 4 994 87 10000 8.49 286 17:28 30.01.2023
26 Clouds 5 992 86 8000 14.31 263 15:35 30.01.2023
27 Clouds 6 991 78 10000 14.4 270 14:26 30.01.2023
28 Clouds 6 994 81 10000 11.18 276 12:26 30.01.2023
29 Rain 4 994 92 10000 6.71 253 10:43 30.01.2023
30 Clouds 4 1003 92 7000 9.26 240 09:54 30.01.2023
31 Rain 3 1004 91 10000 9.83 238 08:41 30.01.2023
32 Clouds 2 1004 88 7000 9.39 229 06:40 30.01.2023
33 Snow 2 1002 82 10000 10.28 240 01:38 30.01.2023
34 Clouds 1 1013 84 10000 8.23 230 23:34 29.01.2023
35 Clouds 2 1014 85 10000 9.39 224 22:37 29.01.2023
36 Clouds 2 1015 85 10000 7.6 211 21:30 29.01.2023
37 Clouds 2 1016 87 10000 8.05 235 20:36 29.01.2023
38 Clouds 2 1017 88 9000 7.6 237 19:33 29.01.2023
39 Clouds 2 1017 88 10000 6.71 239 18:42 29.01.2023
40 Drizzle 2 1018 90 10000 7.2 240 17:31 29.01.2023
41 Drizzle 2 1019 88 7000 7.6 235 16:20 29.01.2023
42 Clouds 3 1012 82 10000 6.17 240 14:43 29.01.2023
43 Clouds 3 1013 83 10000 5.66 240 13:26 29.01.2023
44 Clouds 3 1013 85 10000 5.81 247 12:40 29.01.2023
45 Clouds 2 1014 87 10000 6.17 250 12:21 29.01.2023
46 Clouds 2 1014 90 10000 5.66 240 11:45 29.01.2023
47 Clouds 1 1014 92 9000 5.81 247 11:25 29.01.2023
48 Clouds 0 1015 92 6000 5.14 240 08:56 29.01.2023
49 Drizzle 0 1015 89 4000 4.47 250 07:19 29.01.2023
50 Clouds -1 1024 80 10000 4.02 221 00:59 29.01.2023
51 Clouds 0 1018 74 10000 3.13 241 21:57 28.01.2023
52 Clouds 0 1018 71 10000 4.12 270 20:34 28.01.2023
53 Clouds 0 1018 72 10000 4.63 290 19:47 28.01.2023
54 Clouds 1 1017 69 10000 2.68 270 18:27 28.01.2023
55 Clouds 1 1017 71 10000 3.13 276 16:59 28.01.2023
56 Clouds 2 1018 68 10000 2.68 235 16:20 28.01.2023
57 Clouds 2 1018 68 10000 2.68 235 16:20 28.01.2023
58 Clouds 2 1017 69 10000 2.68 260 15:49 28.01.2023
59 Clouds 2 1024 69 10000 4.02 290 14:26 28.01.2023
60 Clouds 2 1026 71 10000 3.13 332 12:57 28.01.2023
61 Clouds 2 1018 70 10000 2.68 334 11:55 28.01.2023
62 Clouds 2 1018 70 10000 2.68 334 11:54 28.01.2023
63 Clouds 1 1017 72 10000 2.24 40 10:34 28.01.2023
64 Clouds 0 1026 81 10000 1.34 30 08:22 28.01.2023
65 Clear -1 1015 86 10000 2.06 10 01:42 28.01.2023
66 Clouds 0 1015 84 10000 2.68 27 00:25 28.01.2023
67 Clouds 2 1016 82 10000 4.63 30 21:48 27.01.2023
68 Clouds 3 1014 86 10000 4.63 40 18:53 27.01.2023
69 Clouds 3 1014 87 10000 5.14 30 17:58 27.01.2023
70 Clouds 3 1014 88 10000 4.63 30 17:19 27.01.2023
71 Clouds 3 1011 90 10000 5.14 30 16:35 27.01.2023
72 Clouds 3 1013 91 10000 5.14 40 15:24 27.01.2023
73 Clouds 3 1013 92 10000 5.81 28 14:25 27.01.2023
74 Clouds 3 1013 94 10000 6.17 30 13:31 27.01.2023
75 Drizzle 1 1012 95 6000 2.24 23 08:47 27.01.2023
76 Clouds 1 1008 93 10000 2.57 10 06:29 27.01.2023
77 Clouds 0 1008 93 10000 2.68 14 00:27 27.01.2023
78 Clouds -1 1011 92 8000 2.68 357 21:52 26.01.2023
79 Clouds -1 1010 92 8000 2.24 310 20:40 26.01.2023
80 Clouds -1 1010 91 9000 2.57 310 19:57 26.01.2023
81 Clouds -1 1010 91 8000 3.09 290 17:56 26.01.2023
82 Clouds 0 1010 92 10000 2.57 320 16:30 26.01.2023
83 Clouds 0 1010 91 10000 2.68 299 16:00 26.01.2023
84 Clouds 0 1010 91 10000 2.68 286 15:41 26.01.2023
85 Clouds 0 1010 92 10000 3.13 296 15:22 26.01.2023
86 Clouds 0 1010 91 10000 2.68 285 13:50 26.01.2023
87 Clouds -1 1011 93 10000 3.58 295 12:31 26.01.2023
88 Clouds -1 1011 94 7000 3.58 295 10:35 26.01.2023
89 Mist -1 1010 94 5000 2.68 302 09:58 26.01.2023
90 Clouds -1 1011 94 8000 3.13 299 09:34 26.01.2023
91 Drizzle 0 1011 94 3500 1.79 231 06:55 26.01.2023
92 Clouds 0 1015 93 6000 2.68 234 23:42 25.01.2023
93 Mist 0 1015 93 5000 2.57 270 22:51 25.01.2023
94 Mist 0 1016 93 5000 3.09 260 21:43 25.01.2023
95 Mist 0 1016 93 5000 2.57 260 21:20 25.01.2023
96 Clouds 1 1017 92 6000 3.6 220 18:30 25.01.2023
97 Mist 1 1019 92 4100 2.06 240 16:22 25.01.2023
98 Mist 1 1019 92 4100 2.24 180 16:22 25.01.2023
99 Mist 1 1020 93 4300 3.58 196 15:34 25.01.2023
100 Clouds 1 1023 91 6000 3.58 200 12:37 25.01.2023
101 Clouds 1 1023 90 10000 2.57 210 09:54 25.01.2023
102 Clouds 1 1033 89 10000 2.57 230 09:29 25.01.2023
103 Clouds 1 1035 89 9000 1.03 0 06:53 25.01.2023
104 Clouds 1 1027 85 10000 3.09 20 00:42 25.01.2023
105 Clouds 1 1028 84 10000 1.54 20 22:45 24.01.2023
106 Clouds 1 1037 85 10000 2.24 63 21:29 24.01.2023
107 Clouds 1 1038 85 10000 2.24 46 19:53 24.01.2023
108 Clouds 1 1028 84 10000 2.68 358 18:32 24.01.2023
109 Clouds 1 1028 83 10000 2.68 40 17:20 24.01.2023
110 Clouds 2 1029 82 10000 3.09 20 16:52 24.01.2023
111 Clouds 2 1029 80 10000 2.57 40 15:21 24.01.2023
112 Clouds 1 1029 82 10000 3.13 27 12:56 24.01.2023
113 Clouds 1 1039 83 10000 3.58 20 11:20 24.01.2023
114 Clouds 0 1028 84 10000 3.13 20 08:22 24.01.2023
115 Clouds 0 1038 85 10000 2.68 37 07:51 24.01.2023
116 Clouds 0 1039 85 10000 4.92 20 05:31 24.01.2023
117 Clouds 1 1027 89 10000 3.13 52 01:37 24.01.2023
118 Clouds 1 1029 88 10000 3.6 50 23:58 23.01.2023
119 Clouds 1 1028 88 10000 3.13 36 22:27 23.01.2023
120 Clouds 2 1027 90 10000 2.57 50 19:53 23.01.2023
121 Clouds 2 1028 88 10000 2.68 40 18:37 23.01.2023
122 Clouds 2 1036 87 10000 3.13 44 16:21 23.01.2023
123 Clouds 2 1027 88 10000 4.63 50 14:50 23.01.2023
124 Clouds 2 1027 90 10000 4.12 50 13:45 23.01.2023
125 Clouds 2 1027 91 10000 3.6 50 12:55 23.01.2023
126 Clouds 2 1028 91 10000 3.13 50 11:45 23.01.2023
127 Clouds 2 1028 91 8000 3.13 69 10:25 23.01.2023
128 Clouds 1 1026 93 8000 3.58 70 08:23 23.01.2023
129 Clouds 2 1023 93 10000 4.47 80 23:51 22.01.2023
130 Clouds 1 1023 90 10000 4.63 60 21:50 22.01.2023
131 Clouds 2 1022 90 10000 4.63 50 20:58 22.01.2023
132 Clouds 2 1021 94 10000 3.6 50 19:54 22.01.2023
133 Clouds 1 1022 91 10000 4.47 59 19:21 22.01.2023
134 Snow 1 1021 92 10000 4.92 53 18:25 22.01.2023
135 Clouds 2 1021 91 10000 5.36 62 17:55 22.01.2023
136 Clouds 2 1021 91 10000 5.81 55 17:23 22.01.2023
137 Clouds 2 1020 90 10000 5.36 52 15:25 22.01.2023
138 Clouds 2 1027 90 10000 4.12 50 14:25 22.01.2023
139 Drizzle 2 1027 91 10000 4.92 50 13:26 22.01.2023
140 Drizzle 2 1028 92 9000 4.12 50 12:29 22.01.2023
141 Clouds 2 1028 92 10000 4.92 67 11:26 22.01.2023
142 Snow 1 1027 92 10000 4.63 60 09:34 22.01.2023
143 Snow 1 1027 92 10000 3.6 30 04:22 22.01.2023
144 Drizzle 2 1016 90 10000 5.66 40 23:44 21.01.2023
145 Drizzle 2 1023 90 10000 5.14 40 22:55 21.01.2023
146 Rain 2 1015 91 10000 6.26 40 21:29 21.01.2023
147 Snow 2 1015 89 5000 8.49 8 18:55 21.01.2023
148 Snow 3 1014 77 10000 10.73 353 16:40 21.01.2023
149 Clouds 3 1023 75 10000 9.26 10 14:24 21.01.2023
150 Clear 2 1015 84 10000 7.6 355 12:57 21.01.2023
151 Clouds 2 1016 83 10000 7.15 8 11:42 21.01.2023
152 Clouds 1 1016 85 10000 5.66 10 10:49 21.01.2023
153 Clouds 0 1016 87 10000 5.66 20 08:50 21.01.2023
154 Clouds 0 1013 88 10000 4.92 17 04:32 21.01.2023
155 Clouds 0 1012 88 10000 3.6 20 22:29 20.01.2023
156 Clouds 0 1011 88 10000 3.6 20 21:38 20.01.2023
157 Clouds 0 1011 88 7000 3.6 30 20:56 20.01.2023
158 Clouds 0 1010 89 7000 2.06 50 19:31 20.01.2023
159 Clouds 1 1008 83 10000 1.34 18 16:44 20.01.2023
160 Clouds 2 1007 85 10000 2.68 319 14:46 20.01.2023
161 Clouds 1 1007 86 10000 2.68 291 13:51 20.01.2023
162 Mist 0 1012 90 5000 2.24 260 10:24 20.01.2023
163 Clouds 0 1011 90 6000 1.79 247 08:54 20.01.2023
164 Clouds 1 1009 89 10000 2.57 290 05:54 20.01.2023
165 Clouds 1 1008 89 8000 3.58 293 02:30 20.01.2023
166 Snow 1 1005 84 10000 3.13 210 22:36 19.01.2023
167 Snow 1 1005 84 10000 3.13 210 22:36 19.01.2023
168 Snow 1 1004 85 10000 2.06 170 21:20 19.01.2023
169 Clouds 0 1004 84 10000 3.58 178 19:29 19.01.2023
170 Clear 1 994 82 10000 3.6 190 16:56 19.01.2023
171 Clear 2 993 80 10000 5.36 171 13:47 19.01.2023
172 Clear -2 993 87 10000 4.92 191 10:18 19.01.2023
173 Clear -3 989 89 10000 4.02 189 08:49 19.01.2023
174 Clear -1 990 88 10000 2.68 246 22:30 18.01.2023
175 Clouds 1 989 84 10000 1.79 290 20:20 18.01.2023
176 Clouds 0 997 86 10000 2.06 270 19:41 18.01.2023
177 Clear 1 985 86 10000 1.79 310 19:23 18.01.2023
178 Mist 1 994 87 4100 2.06 320 16:19 18.01.2023
179 Snow 2 992 86 10000 3.13 357 14:20 18.01.2023
180 Clouds 2 983 86 10000 2.06 20 12:24 18.01.2023
181 Clear 0 990 87 10000 2.57 30 09:32 18.01.2023
182 Clear -1 978 90 10000 2.57 20 06:44 18.01.2023
183 Clear 0 974 89 10000 1.54 60 00:59 18.01.2023
184 Clear 0 973 88 10000 1.54 130 21:38 17.01.2023
185 Clear 1 975 84 10000 2.06 190 19:43 17.01.2023
186 Clouds 1 975 84 10000 3.09 180 18:51 17.01.2023
187 Clear 3 974 79 10000 3.09 200 17:41 17.01.2023
188 Clouds 4 973 79 10000 6.69 250 15:27 17.01.2023
189 Clouds 4 973 80 10000 5.66 250 14:45 17.01.2023
190 Clouds 4 969 87 10000 5.36 270 13:33 17.01.2023
191 Clouds 5 974 80 10000 9.77 250 11:47 17.01.2023
192 Clouds 5 973 79 10000 9.39 245 10:33 17.01.2023
193 Clouds 4 972 83 10000 9.39 224 08:55 17.01.2023
194 Clouds 5 971 83 10000 10.28 235 07:34 17.01.2023
195 Clouds 4 968 79 10000 5.36 157 03:49 17.01.2023
196 Clear 5 969 76 10000 5.66 140 00:49 17.01.2023
197 Clear 5 969 74 10000 7.2 140 22:39 16.01.2023
198 Clear 5 970 73 10000 7.2 130 21:44 16.01.2023
199 Clear 5 984 74 10000 5.66 140 19:55 16.01.2023
200 Clear 5 972 74 10000 5.14 140 19:25 16.01.2023
201 Clear 5 973 74 10000 6.17 120 18:48 16.01.2023
202 Clear 5 973 73 10000 6.69 130 18:19 16.01.2023
203 Clear 6 974 72 10000 5.66 130 17:20 16.01.2023
204 Clear 7 980 64 10000 5.14 150 14:28 16.01.2023
205 Clear 7 985 67 10000 5.66 160 13:37 16.01.2023
206 Clear 4 985 81 10000 6.71 150 10:27 16.01.2023
207 Clouds 3 984 84 10000 5.36 148 08:44 16.01.2023
208 Clear 5 989 74 10000 10.28 225 22:58 15.01.2023
209 Clear 6 989 73 10000 11.83 230 21:25 15.01.2023
210 Clear 6 989 73 10000 9.77 230 20:32 15.01.2023
211 Clear 5 989 74 10000 11.32 220 19:38 15.01.2023
212 Clear 6 989 75 10000 9.83 228 17:39 15.01.2023
213 Clouds 7 988 75 10000 9.39 231 15:22 15.01.2023
214 Clear 7 988 80 10000 7.2 220 12:30 15.01.2023
215 Clear 7 988 80 10000 7.2 220 12:30 15.01.2023
216 Clear 6 988 86 10000 6.26 214 11:30 15.01.2023
217 Clear 6 987 90 10000 6.71 196 10:28 15.01.2023
218 Clear 5 996 91 10000 4.92 208 09:34 15.01.2023
219 Clouds 8 981 91 10000 8.23 200 01:47 15.01.2023
220 Clouds 7 989 94 10000 9.26 190 22:45 14.01.2023
221 Rain 7 990 93 10000 9.83 198 21:55 14.01.2023
222 Rain 7 990 93 10000 9.83 199 21:36 14.01.2023
223 Rain 7 990 93 10000 9.26 190 21:18 14.01.2023
224 Rain 7 990 93 10000 9.26 190 21:18 14.01.2023
225 Rain 7 988 93 10000 8.05 198 20:31 14.01.2023
226 Rain 7 993 92 10000 7.72 180 18:40 14.01.2023
227 Rain 7 997 84 10000 7.6 184 16:19 14.01.2023
228 Rain 8 998 74 10000 6.71 177 15:27 14.01.2023
229 Clear 8 1007 72 10000 7.2 190 14:25 14.01.2023
230 Clear 8 1001 72 10000 7.2 210 13:41 14.01.2023
231 Clear 8 1003 75 10000 8.05 216 11:39 14.01.2023
232 Clear 8 1004 79 10000 7.72 220 10:46 14.01.2023
233 Clear 8 1004 79 10000 7.72 220 10:46 14.01.2023
234 Clear 8 1004 79 10000 7.72 220 10:46 14.01.2023
235 Clouds 7 1004 83 10000 8.05 227 08:19 14.01.2023
236 Clouds 8 999 75 10000 9.39 242 23:30 13.01.2023
237 Clouds 8 999 74 10000 9.26 230 22:47 13.01.2023
238 Clouds 8 999 74 10000 8.23 230 22:29 13.01.2023
239 Clouds 8 998 74 10000 8.94 232 21:35 13.01.2023
240 Clouds 8 997 75 10000 9.26 230 19:42 13.01.2023
241 Rain 9 996 73 10000 8.49 215 18:21 13.01.2023
242 Clear 9 995 67 10000 8.23 230 16:35 13.01.2023
243 Clouds 10 994 73 10000 9.83 238 13:37 13.01.2023
244 Clear 9 994 81 10000 9.39 222 12:20 13.01.2023
245 Rain 9 993 85 10000 6.69 210 10:27 13.01.2023
246 Clouds 9 993 85 10000 6.69 210 09:46 13.01.2023
247 Rain 9 992 88 10000 8.49 219 08:56 13.01.2023
248 Rain 9 993 88 10000 6.17 220 08:25 13.01.2023
249 Clouds 9 993 86 10000 7.2 220 06:53 13.01.2023
250 Clouds 10 992 86 10000 8.23 210 05:23 13.01.2023
251 Drizzle 9 993 92 10000 9.26 210 00:37 13.01.2023
252 Rain 9 994 91 10000 9.77 220 22:44 12.01.2023
253 Rain 10 995 82 10000 10.73 229 20:55 12.01.2023
254 Clouds 10 996 83 10000 9.39 206 19:54 12.01.2023
255 Clouds 10 994 81 10000 9.39 202 17:53 12.01.2023
256 Clouds 10 996 81 10000 9.26 220 16:47 12.01.2023
257 Clouds 10 995 80 10000 12.52 226 14:45 12.01.2023
258 Clouds 10 995 80 10000 11.32 220 14:45 12.01.2023
259 Clouds 9 995 82 10000 12.96 210 14:23 12.01.2023
260 Clouds 9 997 84 10000 10.8 210 12:56 12.01.2023
261 Clear 9 998 83 10000 9.26 200 10:54 12.01.2023
262 Rain 8 999 84 10000 7.72 200 09:31 12.01.2023
263 Clouds 7 1000 88 10000 8.75 210 05:48 12.01.2023
264 Clear 6 1001 93 10000 5.66 220 00:30 12.01.2023
265 Clear 6 1002 92 10000 5.81 231 23:48 11.01.2023
266 Clear 6 1002 93 10000 5.81 248 23:29 11.01.2023
267 Clear 7 1002 93 10000 4.12 250 22:47 11.01.2023
268 Clouds 8 999 95 10000 4.02 247 20:53 11.01.2023
269 Clouds 8 999 95 10000 5.36 241 18:46 11.01.2023
270 Rain 8 997 95 10000 5.81 225 17:27 11.01.2023
271 Mist 8 999 94 3800 5.81 199 15:31 11.01.2023
272 Rain 7 999 93 10000 5.14 190 13:53 11.01.2023
273 Drizzle 7 999 91 4400 6.17 210 12:21 11.01.2023
274 Rain 7 1001 87 10000 7.2 190 10:53 11.01.2023
275 Clouds 6 1001 83 10000 5.14 180 08:31 11.01.2023
276 Clouds 6 1000 81 10000 5.81 190 07:27 11.01.2023
277 Clouds 5 1000 80 10000 4.47 160 05:55 11.01.2023
278 Clear 4 1007 85 10000 4.92 176 22:54 10.01.2023
279 Clear 4 1008 85 10000 5.14 180 22:18 10.01.2023
280 Clear 5 1008 87 10000 5.36 191 21:18 10.01.2023
281 Clear 6 1008 86 10000 4.12 200 19:53 10.01.2023
282 Clear 6 1008 86 10000 4.63 200 19:21 10.01.2023
283 Clouds 6 1008 85 10000 4.92 207 18:31 10.01.2023
284 Clouds 6 1007 82 10000 3.6 220 17:20 10.01.2023
285 Clouds 8 1008 81 10000 5.14 250 15:33 10.01.2023
286 Clouds 8 1016 81 10000 4.63 240 14:47 10.01.2023
287 Clouds 8 1006 85 10000 5.66 270 12:54 10.01.2023
288 Clouds 7 1006 87 10000 5.81 278 10:36 10.01.2023
289 Clouds 6 1004 89 10000 4.47 267 08:37 10.01.2023
290 Clouds 6 1003 88 10000 4.63 270 07:56 10.01.2023
291 Clouds 6 1003 88 10000 4.63 260 07:24 10.01.2023
292 Clouds 6 995 86 10000 5.36 244 00:29 10.01.2023
293 Clouds 7 993 86 10000 5.66 230 22:41 09.01.2023
294 Clear 6 992 86 10000 5.14 230 20:55 09.01.2023
295 Clear 6 992 85 10000 4.63 220 20:18 09.01.2023
296 Clouds 7 991 85 10000 5.14 230 18:40 09.01.2023
297 Clouds 7 990 86 10000 4.12 220 17:50 09.01.2023
298 Clouds 7 990 85 10000 3.09 250 16:34 09.01.2023
299 Clouds 8 989 84 10000 3.6 260 15:43 09.01.2023
300 Clouds 8 989 84 10000 4.12 270 15:22 09.01.2023
301 Clouds 8 988 86 10000 4.63 280 14:42 09.01.2023
302 Clouds 7 987 92 10000 5.81 256 12:54 09.01.2023
303 Clouds 7 987 94 10000 4.63 220 11:54 09.01.2023
304 Clouds 6 986 94 10000 4.92 200 11:19 09.01.2023
305 Rain 5 987 93 10000 4.47 144 07:20 09.01.2023
306 Clear 4 986 93 10000 3.6 140 04:46 09.01.2023
307 Clear 4 987 92 10000 3.6 140 02:52 09.01.2023
308 Clear 6 991 90 10000 5.36 150 22:29 08.01.2023
309 Clear 7 992 92 10000 5.81 178 21:22 08.01.2023
310 Clouds 7 992 92 10000 6.26 161 20:54 08.01.2023
311 Clouds 7 992 89 10000 4.63 170 19:19 08.01.2023
312 Drizzle 8 993 91 10000 4.63 180 17:37 08.01.2023
313 Drizzle 8 993 91 10000 4.63 180 17:18 08.01.2023
314 Rain 8 993 89 10000 5.66 190 15:37 08.01.2023
315 Rain 8 994 89 10000 6.17 190 14:18 08.01.2023
316 Clouds 8 994 91 10000 6.17 190 13:32 08.01.2023
317 Clouds 8 994 91 10000 5.36 195 12:58 08.01.2023
318 Rain 8 995 89 10000 3.13 185 11:22 08.01.2023
319 Drizzle 7 996 88 10000 4.63 190 09:37 08.01.2023
320 Clear 7 996 84 10000 4.12 180 08:27 08.01.2023
321 Clear 7 997 82 10000 5.14 150 02:25 08.01.2023
322 Clouds 9 1001 80 10000 5.81 160 22:49 07.01.2023
323 Clouds 9 1002 80 10000 5.66 150 22:26 07.01.2023
324 Clouds 9 1002 81 10000 4.63 150 21:51 07.01.2023
325 Clouds 9 999 84 10000 4.63 140 20:58 07.01.2023
326 Clouds 9 1001 83 10000 4.92 148 20:25 07.01.2023
327 Clouds 9 1004 84 10000 3.6 150 19:19 07.01.2023
328 Clouds 9 1004 85 10000 3.58 179 18:18 07.01.2023
329 Clouds 9 1004 85 10000 3.6 180 17:40 07.01.2023
330 Clouds 9 1004 83 10000 3.6 180 16:41 07.01.2023
331 Clear 10 1005 82 10000 3.6 180 16:20 07.01.2023
332 Clear 10 1004 87 10000 2.57 190 15:38 07.01.2023
333 Clouds 10 1005 86 10000 4.47 181 15:18 07.01.2023
334 Clouds 10 1005 84 10000 3.6 180 13:58 07.01.2023
335 Clouds 10 1006 86 10000 3.6 180 13:40 07.01.2023
336 Clouds 9 1006 92 10000 4.12 190 12:44 07.01.2023
337 Clouds 9 1007 90 10000 4.47 188 11:59 07.01.2023
338 Clouds 8 1007 93 10000 3.6 190 10:27 07.01.2023
339 Drizzle 7 1008 92 5000 3.6 180 08:52 07.01.2023
340 Clouds 7 1007 92 10000 3.13 188 07:58 07.01.2023
341 Clouds 7 1007 92 10000 2.57 180 07:40 07.01.2023
342 Clouds 6 1007 93 10000 3.13 185 05:21 07.01.2023
343 Clouds 7 1008 89 10000 4.47 227 22:58 06.01.2023
344 Clouds 7 1008 90 10000 4.47 244 22:21 06.01.2023
345 Clouds 7 1008 90 10000 4.47 244 22:21 06.01.2023
346 Clouds 8 1008 90 10000 4.12 230 21:44 06.01.2023
347 Clouds 8 1008 88 10000 3.58 246 20:33 06.01.2023
348 Clouds 8 1007 88 10000 2.68 260 19:54 06.01.2023
349 Clouds 8 1007 87 10000 3.6 260 19:36 06.01.2023
350 Clouds 9 1007 87 10000 3.6 260 19:18 06.01.2023
351 Clouds 9 1006 88 10000 4.12 240 17:44 06.01.2023
352 Clouds 9 1005 88 10000 5.81 243 16:52 06.01.2023
353 Clouds 10 1005 90 10000 6.17 250 16:22 06.01.2023
354 Clouds 10 1005 89 10000 6.26 254 15:51 06.01.2023
355 Clouds 10 1005 90 10000 6.17 240 15:28 06.01.2023
356 Rain 9 1005 93 10000 6.71 225 13:38 06.01.2023
357 Clouds 7 1006 93 10000 3.6 170 11:49 06.01.2023
358 Clouds 6 1007 92 10000 3.6 140 10:33 06.01.2023
359 Drizzle 5 1007 93 10000 5.14 150 08:42 06.01.2023
360 Clouds 4 1008 85 10000 4.02 139 05:20 06.01.2023
361 Clouds 5 1010 83 10000 3.58 330 22:56 05.01.2023
362 Clouds 5 1010 82 10000 3.13 320 22:20 05.01.2023
363 Clouds 7 1009 77 10000 4.12 310 20:24 05.01.2023
364 Clouds 7 1007 77 10000 8.23 310 17:30 05.01.2023
365 Clouds 8 1006 77 10000 7.72 310 16:38 05.01.2023
366 Clouds 8 1004 76 10000 7.72 290 15:48 05.01.2023
367 Clouds 9 1004 74 10000 8.75 300 15:20 05.01.2023
368 Clouds 9 1002 76 10000 12.86 280 13:34 05.01.2023
369 Clouds 9 1001 76 10000 12.52 273 12:39 05.01.2023
370 Clouds 9 999 84 10000 11.62 273 10:19 05.01.2023
371 Clouds 9 999 85 10000 10.29 290 09:36 05.01.2023
372 Clouds 9 997 91 10000 9.83 271 07:28 05.01.2023
373 Rain 9 997 88 9000 8.75 270 06:38 05.01.2023
374 Clouds 9 993 92 8000 8.94 262 00:32 05.01.2023
375 Clouds 10 997 89 10000 9.77 230 22:23 04.01.2023
376 Clouds 10 997 89 10000 10.29 220 21:30 04.01.2023
377 Clouds 10 997 89 10000 11.18 231 19:58 04.01.2023
378 Clouds 10 998 90 10000 10.8 220 19:37 04.01.2023
379 Clouds 10 998 90 10000 10.8 220 19:18 04.01.2023
380 Clouds 9 1000 91 10000 11.18 226 17:38 04.01.2023
381 Rain 8 1000 92 10000 11.62 231 16:30 04.01.2023
382 Rain 8 1002 92 10000 10.29 230 14:50 04.01.2023
383 Rain 7 1003 93 10000 9.77 210 12:19 04.01.2023
384 Rain 7 1005 92 10000 9.26 210 11:23 04.01.2023
385 Rain 6 1013 92 10000 10.29 220 10:44 04.01.2023
386 Rain 6 1013 90 10000 9.26 210 10:24 04.01.2023
387 Rain 6 1014 89 10000 8.75 210 09:40 04.01.2023
388 Clear 4 1010 89 10000 4.92 166 05:39 04.01.2023
389 Clear 4 1023 84 10000 3.6 180 01:40 04.01.2023
390 Clear 5 1016 85 10000 2.68 185 23:42 03.01.2023
391 Clouds 4 1017 84 10000 2.06 170 22:56 03.01.2023
392 Clouds 5 1017 81 10000 1.79 120 21:39 03.01.2023
393 Clear 5 1025 77 10000 1.54 140 20:50 03.01.2023
394 Clear 4 1018 84 10000 2.57 170 18:40 03.01.2023
395 Clear 5 1018 80 10000 3.58 253 16:40 03.01.2023
396 Clear 7 1017 77 10000 3.6 280 15:28 03.01.2023
397 Clouds 7 1017 78 10000 5.81 275 13:43 03.01.2023
398 Clouds 7 1018 75 10000 5.36 293 13:24 03.01.2023
399 Clouds 7 1025 79 10000 4.47 273 12:57 03.01.2023
400 Clouds 7 1018 77 10000 5.36 264 12:21 03.01.2023
401 Clear 5 1016 87 10000 4.12 230 09:50 03.01.2023
402 Clouds 7 1022 76 10000 5.14 270 04:28 03.01.2023
403 Clouds 7 1021 77 10000 5.36 280 03:52 03.01.2023
404 Clouds 8 1021 77 10000 5.66 270 03:32 03.01.2023
405 Rain 10 1017 80 10000 5.36 268 23:19 02.01.2023
406 Rain 10 1016 79 10000 5.36 255 22:40 02.01.2023
407 Rain 11 1015 75 10000 6.17 280 21:26 02.01.2023
408 Rain 11 1008 72 10000 5.36 270 20:31 02.01.2023
409 Clouds 12 1015 74 10000 8.49 273 18:52 02.01.2023
410 Clouds 14 1002 65 10000 6.71 231 16:53 02.01.2023
411 Rain 15 1004 63 10000 8.05 214 14:26 02.01.2023
412 Rain 15 1003 62 10000 7.15 219 12:57 02.01.2023
413 Rain 15 1004 60 10000 7.72 210 11:39 02.01.2023
414 Clouds 14 1003 67 10000 5.81 211 08:55 02.01.2023
415 Clear 13 1003 73 10000 5.14 190 05:43 02.01.2023
416 Clear 12 1006 79 10000 4.02 187 00:22 02.01.2023
417 Clear 12 1008 79 10000 4.47 182 21:55 01.01.2023
418 Clear 12 1008 80 10000 3.6 200 20:50 01.01.2023
419 Clear 11 1008 81 10000 3.6 210 20:31 01.01.2023
420 Clear 12 1008 77 10000 4.63 220 18:54 01.01.2023
421 Clear 14 1008 69 10000 5.66 230 17:39 01.01.2023
422 Clear 14 1007 68 10000 6.26 221 17:19 01.01.2023
423 Clear 15 1006 65 10000 7.15 238 15:53 01.01.2023
424 Clear 16 1005 62 10000 7.72 230 14:18 01.01.2023
425 Clear 16 1005 62 10000 7.72 230 13:18 01.01.2023
426 Clear 16 1005 62 10000 9.26 230 12:24 01.01.2023
427 Clear 15 1005 62 10000 9.77 220 11:35 01.01.2023
428 Clear 15 1003 63 10000 10.73 226 09:39 01.01.2023
429 Clear 15 1003 62 10000 10.29 210 08:45 01.01.2023
430 Clear 15 1002 62 10000 10.29 220 08:18 01.01.2023
431 Clear 15 1002 61 10000 8.23 210 06:51 01.01.2023
432 Clear 16 999 68 10000 10.8 220 00:19 01.01.2023
433 Clear 16 1000 68 10000 9.39 211 23:39 31.12.2022
434 Clear 16 999 70 10000 9.39 229 22:30 31.12.2022
435 Clear 16 1000 73 10000 8.75 220 21:25 31.12.2022
436 Clear 16 999 72 10000 10.73 224 20:34 31.12.2022
437 Clear 17 999 72 10000 12.35 220 18:59 31.12.2022
438 Clear 17 999 74 10000 12.52 215 18:39 31.12.2022
439 Clear 17 999 75 10000 9.77 210 18:18 31.12.2022
440 Clear 16 999 76 10000 9.26 210 17:42 31.12.2022
441 Clouds 16 998 76 10000 10.8 240 16:32 31.12.2022
442 Clouds 17 998 75 10000 11.83 230 15:59 31.12.2022
443 Clear 17 997 74 10000 12.07 228 14:35 31.12.2022
444 Clouds 16 997 81 10000 10.8 230 13:28 31.12.2022
445 Clouds 15 997 81 10000 9.26 220 12:39 31.12.2022
446 Clouds 15 997 81 10000 11.18 227 12:19 31.12.2022
447 Rain 15 997 80 10000 12.52 213 11:45 31.12.2022
448 Clouds 14 996 83 10000 10.73 219 10:28 31.12.2022
449 Clouds 14 996 84 10000 9.39 200 09:52 31.12.2022
450 Clouds 13 995 88 10000 9.83 205 08:59 31.12.2022
451 Rain 11 996 89 10000 7.15 194 06:52 31.12.2022
452 Clouds 8 995 92 10000 8.23 190 00:35 31.12.2022
453 Drizzle 8 996 89 10000 7.72 190 23:44 30.12.2022
454 Rain 8 994 84 10000 7.6 186 22:41 30.12.2022
455 Rain 8 997 78 10000 8.23 170 21:42 30.12.2022
456 Rain 8 997 74 10000 8.49 159 21:21 30.12.2022
457 Clear 7 999 78 10000 5.66 160 18:57 30.12.2022
458 Clear 7 1000 78 10000 5.66 160 17:35 30.12.2022
459 Clear 7 1001 77 10000 5.81 177 16:52 30.12.2022
460 Clear 9 1001 72 10000 5.36 186 15:22 30.12.2022
461 Clear 9 1003 71 10000 6.71 212 13:36 30.12.2022
462 Clear 6 1004 83 10000 4.63 210 09:51 30.12.2022
463 Clouds 6 1001 82 10000 4.92 216 06:55 30.12.2022
464 Clouds 8 1007 77 10000 4.63 220 02:41 30.12.2022
465 Clouds 9 997 79 10000 7.6 217 00:53 30.12.2022
466 Clear 9 996 81 10000 6.71 224 22:46 29.12.2022
467 Clear 9 997 82 10000 4.63 210 21:29 29.12.2022
468 Clear 9 997 81 10000 6.26 207 20:54 29.12.2022
469 Clouds 9 996 80 10000 4.63 210 20:21 29.12.2022
470 Clear 10 995 85 10000 5.81 249 17:57 29.12.2022
471 Clouds 10 994 86 10000 7.2 240 17:29 29.12.2022
472 Clear 10 994 86 10000 8.05 221 16:55 29.12.2022
473 Clear 10 993 86 10000 5.81 225 15:58 29.12.2022
474 Clear 11 993 86 10000 6.26 224 15:18 29.12.2022
475 Rain 11 993 82 10000 10.73 227 13:20 29.12.2022
476 Clear 12 993 77 10000 11.62 201 11:19 29.12.2022
477 Clouds 10 993 80 10000 7.2 210 07:43 29.12.2022
478 Rain 8 998 86 10000 6.17 180 23:45 28.12.2022
479 Clouds 7 998 88 10000 5.81 175 23:26 28.12.2022
480 Rain 7 999 90 10000 7.15 238 21:21 28.12.2022
481 Rain 8 1000 85 10000 6.71 214 20:25 28.12.2022
482 Clouds 8 1001 86 10000 7.2 210 19:23 28.12.2022
483 Clouds 8 1000 86 10000 7.2 220 16:56 28.12.2022
484 Clouds 8 1001 85 10000 7.72 220 14:39 28.12.2022
485 Clouds 7 1002 87 10000 7.72 220 12:54 28.12.2022
486 Clouds 6 1003 88 10000 9.26 220 11:53 28.12.2022
487 Clouds 5 1004 89 10000 9.83 214 10:39 28.12.2022
488 Clouds 4 1005 88 10000 7.2 210 08:42 28.12.2022
489 Clear 4 1006 86 10000 6.71 191 06:50 28.12.2022
490 Clouds 4 1008 87 10000 7.15 209 03:46 28.12.2022
491 Clouds 3 1012 87 10000 4.12 210 23:36 27.12.2022
492 Clear 3 1020 87 10000 4.63 220 20:23 27.12.2022
493 Clear 3 1013 86 10000 4.92 228 19:31 27.12.2022
494 Clear 4 1013 82 10000 4.63 250 17:26 27.12.2022
495 Clouds 5 1013 82 10000 5.14 240 16:42 27.12.2022
496 Clouds 6 1012 78 10000 7.72 260 15:28 27.12.2022
497 Clouds 6 1012 80 10000 10.29 260 12:34 27.12.2022
498 Clouds 5 1019 83 10000 7.2 240 11:28 27.12.2022
499 Clouds 4 1010 85 10000 6.69 230 09:46 27.12.2022
500 Clouds 4 1009 85 10000 6.26 238 09:23 27.12.2022
501 Clouds 3 1009 86 10000 6.71 234 06:50 27.12.2022
502 Clear 3 1008 87 10000 4.92 248 04:30 27.12.2022
503 Clouds 6 1004 81 10000 6.26 290 22:26 26.12.2022
504 Clouds 7 1003 81 10000 6.71 290 20:56 26.12.2022
505 Clouds 8 1002 83 10000 7.2 270 20:34 26.12.2022
506 Clouds 9 1001 88 10000 7.6 238 18:44 26.12.2022
507 Clear 9 1001 91 10000 7.2 220 17:46 26.12.2022
508 Clouds 10 1001 91 10000 5.36 231 16:20 26.12.2022
509 Clouds 10 1001 91 10000 5.14 230 13:54 26.12.2022
510 Clouds 10 1001 89 10000 6.17 250 12:45 26.12.2022
511 Clouds 10 999 93 10000 7.15 236 07:59 26.12.2022
512 Clouds 8 1000 97 10000 3.6 180 23:56 25.12.2022
513 Rain 8 1000 96 10000 4.63 170 23:38 25.12.2022
514 Rain 8 1000 96 10000 6.26 177 22:29 25.12.2022
515 Clouds 8 1001 96 10000 6.17 160 21:48 25.12.2022
516 Rain 6 1003 96 10000 5.36 131 18:50 25.12.2022
517 Rain 6 1005 94 10000 3.6 130 17:52 25.12.2022
518 Rain 6 1005 94 10000 3.6 130 17:34 25.12.2022
519 Clouds 5 1006 94 10000 3.13 103 15:23 25.12.2022
520 Clouds 4 1005 94 10000 2.57 120 12:42 25.12.2022
521 Fog 2 1009 94 650 1.54 180 08:44 25.12.2022
522 Clouds 7 1006 94 10000 4.12 240 23:40 24.12.2022
523 Clouds 6 1005 95 10000 4.12 230 21:50 24.12.2022
524 Clear 6 1003 94 10000 4.12 230 18:32 24.12.2022
525 Clear 7 1002 94 10000 2.57 240 16:45 24.12.2022
526 Clouds 8 1001 93 10000 4.92 259 14:54 24.12.2022
527 Drizzle 7 1000 94 7000 6.26 281 12:43 24.12.2022
528 Rain 6 999 94 8000 2.68 223 11:26 24.12.2022
529 Mist 5 996 94 3800 1.54 110 10:22 24.12.2022
530 Drizzle 5 998 93 3100 1.54 80 09:36 24.12.2022
531 Clouds 5 996 96 8000 1.79 80 06:56 24.12.2022
532 Rain 5 991 97 5000 4.12 50 02:50 24.12.2022
533 Drizzle 6 992 94 4700 4.12 70 23:47 23.12.2022
534 Rain 6 992 94 3800 3.09 60 22:28 23.12.2022
535 Rain 6 993 96 6000 1.03 0 20:41 23.12.2022
536 Clouds 6 993 93 9000 2.68 65 19:39 23.12.2022
537 Clouds 6 993 96 9000 1.54 70 19:21 23.12.2022
538 Clouds 6 994 96 10000 0.89 135 18:46 23.12.2022
539 Clouds 6 994 96 10000 0.89 231 18:20 23.12.2022
540 Clouds 7 994 95 10000 1.79 234 16:35 23.12.2022
541 Clouds 7 992 96 10000 2.06 250 15:43 23.12.2022
542 Clouds 7 993 96 10000 3.6 290 12:18 23.12.2022
543 Mist 7 992 97 3500 4.47 278 09:42 23.12.2022
544 Clouds 7 992 97 8000 3.6 280 09:23 23.12.2022
545 Mist 6 990 93 4000 2.24 231 07:20 23.12.2022
546 Mist 6 990 96 3100 2.24 180 06:48 23.12.2022
547 Clouds 6 994 94 8000 4.12 220 23:24 22.12.2022
548 Clouds 5 994 94 7000 4.92 224 22:58 22.12.2022
549 Clouds 5 994 94 6000 4.02 240 21:48 22.12.2022
550 Clouds 7 994 93 9000 3.6 260 19:46 22.12.2022
551 Clouds 7 994 93 10000 4.92 253 19:18 22.12.2022
552 Clouds 8 992 94 10000 4.92 290 17:33 22.12.2022
553 Drizzle 9 992 93 5000 5.81 270 16:42 22.12.2022
554 Clouds 9 991 94 9000 3.09 240 15:35 22.12.2022
555 Mist 8 990 94 10000 3.13 227 14:58 22.12.2022
556 Clouds 8 991 94 6000 3.13 231 13:54 22.12.2022
557 Clouds 8 991 95 10000 3.13 219 13:19 22.12.2022
558 Drizzle 8 992 94 7000 3.6 180 11:36 22.12.2022
559 Rain 7 992 94 5000 4.12 170 10:31 22.12.2022
560 Rain 7 993 94 10000 4.47 157 09:22 22.12.2022
561 Clouds 7 993 94 6000 4.63 160 08:36 22.12.2022
562 Clouds 6 992 94 6000 4.12 150 07:28 22.12.2022
563 Clouds 6 995 94 10000 2.68 167 04:19 22.12.2022
564 Clouds 5 997 95 7000 3.13 203 00:25 22.12.2022
565 Clouds 7 999 94 10000 4.47 220 22:29 21.12.2022
566 Clouds 7 999 94 10000 3.13 214 21:35 21.12.2022
567 Clouds 7 999 94 10000 4.12 210 20:59 21.12.2022
568 Clouds 7 999 94 10000 4.12 220 20:31 21.12.2022
569 Clouds 7 999 94 10000 3.6 200 19:47 21.12.2022
570 Clouds 7 999 94 9000 3.6 200 19:28 21.12.2022
571 Clouds 7 999 94 7000 2.68 198 18:54 21.12.2022
572 Clouds 7 999 94 7000 3.13 195 18:35 21.12.2022
573 Clouds 7 1000 93 10000 3.6 180 16:19 21.12.2022
574 Drizzle 8 1000 94 10000 3.6 200 14:18 21.12.2022
575 Clouds 7 1001 95 9000 4.47 190 11:50 21.12.2022
576 Clouds 7 1001 95 8000 4.12 200 11:20 21.12.2022
577 Clouds 6 1001 94 7000 4.02 227 10:29 21.12.2022
578 Clouds 6 1001 96 6000 3.13 182 08:48 21.12.2022
579 Clouds 5 999 94 7000 4.12 200 06:30 21.12.2022
580 Rain 6 1002 87 10000 3.58 135 00:26 21.12.2022
581 Rain 6 1002 86 10000 4.47 184 21:47 20.12.2022
582 Rain 6 1003 87 10000 4.63 190 20:58 20.12.2022
583 Clear 6 1003 86 10000 3.13 168 19:55 20.12.2022
584 Clouds 6 1003 86 10000 4.47 155 18:48 20.12.2022
585 Rain 6 1004 86 10000 5.36 153 18:23 20.12.2022
586 Clear 6 1004 86 10000 4.12 160 17:50 20.12.2022
587 Rain 6 1004 87 10000 4.12 160 17:25 20.12.2022
588 Clear 7 1005 87 10000 5.36 182 15:58 20.12.2022
589 Clear 7 1005 88 10000 6.26 187 14:56 20.12.2022
590 Clear 8 1005 87 10000 6.26 187 14:36 20.12.2022
591 Clouds 8 1004 90 10000 5.66 190 13:30 20.12.2022
592 Clear 7 1004 92 10000 4.63 190 12:37 20.12.2022
593 Rain 7 1007 91 10000 6.26 187 11:54 20.12.2022
594 Rain 5 1007 93 10000 4.12 200 10:21 20.12.2022
595 Rain 5 1006 89 10000 6.26 205 07:25 20.12.2022
596 Clear 4 1008 94 10000 5.81 190 00:20 20.12.2022
597 Clear 4 1009 94 10000 3.6 180 22:22 19.12.2022
598 Clear 4 1009 95 10000 6.26 188 21:24 19.12.2022
599 Rain 3 1010 94 7000 6.69 200 19:41 19.12.2022
600 Rain 3 1010 95 8000 6.71 193 18:57 19.12.2022
601 Rain 3 1010 95 7000 6.71 186 17:38 19.12.2022
602 Rain 2 1010 94 5000 4.92 174 16:20 19.12.2022
603 Rain 1 1012 83 10000 6.17 170 13:20 19.12.2022
604 Clouds 0 1013 77 10000 7.2 170 11:37 19.12.2022
605 Clouds 0 1014 78 10000 7.2 170 11:37 19.12.2022
606 Clear -3 1015 84 10000 6.17 150 08:23 19.12.2022
607 Clear -4 1015 85 10000 4.63 150 06:58 19.12.2022
608 Clear -5 1019 88 10000 4.47 121 00:50 19.12.2022
609 Clear -5 1022 91 10000 4.02 120 21:49 18.12.2022
610 Clear -5 1022 91 10000 3.6 120 21:31 18.12.2022
611 Clouds -5 1022 92 9000 3.6 120 20:56 18.12.2022
612 Clouds -5 1023 92 9000 3.13 106 19:44 18.12.2022
613 Clear -5 1023 92 10000 3.13 119 19:23 18.12.2022
614 Clouds -5 1024 92 10000 4.02 140 17:52 18.12.2022
615 Clouds -4 1024 93 6000 3.13 133 15:43 18.12.2022
616 Mist -4 1024 93 4600 3.13 113 15:25 18.12.2022
617 Clouds -4 1024 92 7000 3.13 148 14:59 18.12.2022
618 Clouds -4 1025 91 6000 3.6 140 13:29 18.12.2022
619 Mist -5 1024 92 4800 4.02 126 12:51 18.12.2022
620 Mist -5 1025 90 3900 3.58 150 11:51 18.12.2022
621 Mist -6 1024 92 2500 2.68 150 10:18 18.12.2022
622 Mist -6 1025 90 3400 2.68 147 08:46 18.12.2022
623 Mist -7 1024 90 3200 2.24 168 07:20 18.12.2022
624 Mist -6 1023 89 2500 2.24 188 06:19 18.12.2022
625 Mist -6 1022 90 2000 2.24 200 01:57 18.12.2022
626 Fog -5 1022 91 1000 2.24 156 23:39 17.12.2022
627 Fog -5 1021 90 1200 2.57 220 21:33 17.12.2022
628 Mist -4 1020 90 2500 2.24 226 18:50 17.12.2022
629 Mist -3 1018 92 4400 2.06 260 15:51 17.12.2022
630 Mist -3 1017 89 5000 3.13 274 13:57 17.12.2022
631 Clouds -3 1016 92 7000 2.06 290 11:24 17.12.2022
632 Clouds -3 1016 92 7000 2.06 290 10:44 17.12.2022
633 Clouds -3 1014 93 6000 1.34 350 09:41 17.12.2022
634 Clouds -3 1023 94 6000 1.54 300 07:26 17.12.2022
635 Mist -3 1022 94 5000 2.57 320 06:45 17.12.2022
636 Clouds -2 1010 90 6000 1.54 340 23:39 16.12.2022
637 Clouds -3 1009 88 7000 1.79 26 20:55 16.12.2022
638 Clouds -3 1018 86 9000 1.03 40 19:36 16.12.2022
639 Clouds -2 1011 85 10000 3.09 10 15:43 16.12.2022
640 Clouds -2 1005 87 10000 2.68 20 14:47 16.12.2022
641 Clouds -2 1005 87 10000 2.57 340 13:44 16.12.2022
642 Clouds -4 1003 87 7000 1.54 360 11:58 16.12.2022
643 Clouds -6 1004 91 8000 1.34 80 09:53 16.12.2022
644 Clouds -7 1004 87 8000 1.34 55 09:24 16.12.2022
645 Clouds -7 1002 84 7000 1.79 80 07:55 16.12.2022
646 Clouds -7 1002 84 8000 1.79 80 07:32 16.12.2022
647 Clear -7 1001 90 6000 1.54 90 23:30 15.12.2022
648 Clear -6 1001 89 6000 1.54 130 22:27 15.12.2022
649 Mist -6 1001 89 5000 1.54 170 20:36 15.12.2022
650 Clear -5 1001 89 6000 2.68 166 19:37 15.12.2022
651 Clear -5 1000 88 8000 2.24 181 18:24 15.12.2022
652 Clear -4 999 87 10000 2.68 156 17:25 15.12.2022
653 Clear -3 998 87 10000 1.54 180 15:36 15.12.2022
654 Clouds -3 998 87 10000 2.06 220 13:52 15.12.2022
655 Clouds -4 998 85 10000 2.06 190 12:34 15.12.2022
656 Clouds -8 999 83 8000 2.57 200 09:42 15.12.2022
657 Clouds -9 998 88 9000 3.6 180 08:54 15.12.2022
658 Clouds -8 994 86 9000 2.68 160 06:25 15.12.2022
659 Clouds -8 994 85 8000 1.03 220 05:18 15.12.2022
660 Clouds -7 992 85 7000 1.79 3 21:25 14.12.2022
661 Mist -7 992 85 5000 1.79 13 20:59 14.12.2022
662 Clouds -7 992 86 7000 1.79 80 20:31 14.12.2022
663 Clear -6 992 82 10000 3.13 76 18:31 14.12.2022
664 Clear -5 992 84 10000 3.6 60 16:58 14.12.2022
665 Clear -4 990 82 10000 3.6 70 15:40 14.12.2022
666 Clear -3 994 85 10000 3.09 110 14:22 14.12.2022
667 Clear -4 994 86 10000 2.57 90 12:21 14.12.2022
668 Clear -5 993 82 10000 2.24 120 10:39 14.12.2022
669 Clear -7 997 85 10000 2.24 101 09:25 14.12.2022
670 Clear -6 998 87 10000 2.06 120 00:51 14.12.2022
671 Clear -5 1002 84 10000 3.58 184 21:49 13.12.2022
672 Clear -4 1002 84 10000 3.6 180 21:27 13.12.2022
673 Clear -4 1002 83 10000 3.13 171 20:46 13.12.2022
674 Clouds -4 1007 82 10000 2.06 170 18:40 13.12.2022
675 Clouds -1 1008 70 10000 2.57 180 16:22 13.12.2022
676 Clouds -1 1002 79 10000 2.57 240 14:53 13.12.2022
677 Clouds -1 1003 79 10000 3.6 260 12:44 13.12.2022
678 Clouds -1 1003 80 10000 3.58 263 10:39 13.12.2022
679 Clouds -2 1002 84 10000 4.12 260 09:45 13.12.2022
680 Clouds -2 1012 79 10000 3.09 250 07:52 13.12.2022
681 Clouds -2 1003 85 10000 5.14 300 22:23 12.12.2022
682 Clouds -2 1002 83 10000 4.63 290 21:46 12.12.2022
683 Clouds -2 1009 79 10000 4.92 300 19:33 12.12.2022
684 Clouds -2 1009 81 10000 4.63 290 17:39 12.12.2022
685 Clouds -1 1001 79 10000 5.81 310 15:23 12.12.2022
686 Clouds 0 1000 84 10000 5.14 320 12:50 12.12.2022
687 Clouds 0 1000 89 10000 5.14 340 09:20 12.12.2022
688 Clouds 0 999 90 10000 3.58 330 07:37 12.12.2022
689 Clouds -1 998 91 7000 4.02 293 03:53 12.12.2022
690 Clouds -1 998 92 10000 2.24 315 00:18 12.12.2022
691 Clouds -2 999 88 10000 2.68 303 22:18 11.12.2022
692 Clouds -2 999 87 10000 3.13 287 20:29 11.12.2022
693 Clouds -2 999 89 10000 2.68 292 19:37 11.12.2022
694 Clouds -1 999 85 10000 3.58 330 18:29 11.12.2022
695 Clouds -1 999 84 10000 3.13 320 17:33 11.12.2022
696 Clouds -1 999 84 10000 3.58 300 16:52 11.12.2022
697 Clouds -1 999 83 10000 3.13 285 16:20 11.12.2022
698 Clouds -1 999 83 10000 3.13 320 15:43 11.12.2022
699 Clouds -2 999 85 10000 3.58 338 13:35 11.12.2022
700 Clouds -2 1000 86 10000 3.09 340 12:41 11.12.2022
701 Clouds -2 1001 85 10000 3.6 350 10:19 11.12.2022
702 Clouds -2 1000 89 10000 2.06 330 00:57 11.12.2022
703 Clouds -2 1000 88 10000 3.6 350 00:22 11.12.2022
704 Clouds -1 1002 89 10000 3.13 320 22:34 10.12.2022
705 Clouds -1 1002 89 10000 2.68 360 21:52 10.12.2022
706 Clouds -1 1001 91 10000 2.24 360 20:57 10.12.2022
707 Clouds -1 1001 91 10000 2.24 30 20:19 10.12.2022
708 Clouds -1 1001 90 10000 3.58 23 17:50 10.12.2022
709 Clouds -1 1001 89 10000 3.58 0 16:38 10.12.2022
710 Clouds -1 1000 89 10000 4.02 0 15:41 10.12.2022
711 Clouds -1 1000 89 10000 3.6 20 15:20 10.12.2022
712 Clouds 0 1000 90 10000 3.58 10 13:38 10.12.2022
713 Clouds 0 1001 90 10000 3.6 20 12:21 10.12.2022
714 Clouds -1 1001 91 10000 2.06 30 10:52 10.12.2022
715 Clouds -1 1000 92 10000 2.24 20 09:44 10.12.2022
716 Clouds -2 998 94 10000 2.68 351 07:22 10.12.2022
717 Clouds -2 998 94 10000 2.06 350 06:51 10.12.2022
718 Clouds -2 999 95 8000 2.24 60 23:38 09.12.2022
719 Clouds -2 999 95 8000 3.13 37 22:42 09.12.2022
720 Clouds -2 998 95 7000 2.68 41 21:34 09.12.2022
721 Clouds -2 998 95 7000 2.68 58 20:59 09.12.2022
722 Clouds -2 998 95 8000 2.68 80 19:46 09.12.2022
723 Clouds -1 998 96 8000 3.13 55 17:56 09.12.2022
724 Clouds -1 998 96 10000 2.57 110 17:18 09.12.2022
725 Clouds -1 998 96 6000 2.24 72 16:26 09.12.2022
726 Fog -1 997 96 1000 2.68 118 15:29 09.12.2022
727 Clouds 1 995 95 10000 1.79 96 12:41 09.12.2022
728 Fog 0 998 96 400 1.79 126 10:50 09.12.2022
729 Fog 0 998 96 400 1.54 160 10:22 09.12.2022
730 Mist -1 997 94 6000 1.79 134 05:38 09.12.2022
731 Fog -1 997 94 350 1.54 240 03:18 09.12.2022
732 Mist 1 997 93 5000 2.68 244 22:51 08.12.2022
733 Clear 1 997 94 10000 3.13 230 20:56 08.12.2022
734 Clouds 2 996 94 10000 3.09 230 18:57 08.12.2022
735 Clouds 3 994 94 10000 5.14 220 16:38 08.12.2022
736 Rain 3 994 94 10000 5.66 230 14:30 08.12.2022
737 Rain 3 994 93 10000 6.17 230 13:29 08.12.2022
738 Clouds 2 996 95 10000 4.92 204 10:37 08.12.2022
739 Clouds 2 996 95 10000 4.92 209 09:31 08.12.2022
740 Clouds 1 996 95 10000 4.92 226 07:39 08.12.2022
741 Clouds 1 999 93 10000 4.92 237 22:44 07.12.2022
742 Clouds 1 999 93 10000 4.12 240 22:18 07.12.2022
743 Clouds 1 999 92 10000 3.13 240 21:47 07.12.2022
744 Clouds 2 999 90 10000 4.47 270 20:35 07.12.2022
745 Clouds 3 999 89 10000 6.71 276 18:33 07.12.2022
746 Clouds 4 998 86 10000 7.6 265 15:44 07.12.2022
747 Clouds 4 999 88 10000 8.23 280 13:36 07.12.2022
748 Clouds 3 999 88 10000 9.83 288 10:55 07.12.2022
749 Clouds 3 999 92 10000 7.72 280 10:26 07.12.2022
750 Clouds 3 999 95 9000 5.14 250 09:31 07.12.2022
751 Clouds 2 998 95 6000 5.81 228 07:41 07.12.2022
752 Clouds 1 999 94 10000 4.92 225 05:26 07.12.2022
753 Clouds 2 1001 94 10000 3.6 250 02:57 07.12.2022
754 Clouds 3 1003 96 10000 4.47 273 21:59 06.12.2022
755 Clouds 3 1004 96 10000 3.6 290 19:38 06.12.2022
756 Clouds 2 1004 95 6000 3.6 270 17:20 06.12.2022
757 Clouds 2 1003 94 10000 3.6 260 16:30 06.12.2022
758 Clouds 3 1004 94 10000 4.47 272 15:37 06.12.2022
759 Clouds 3 1004 94 10000 4.63 280 14:40 06.12.2022
760 Clouds 3 1004 94 10000 4.47 279 14:19 06.12.2022
761 Clouds 2 1004 95 10000 3.6 270 12:42 06.12.2022
762 Clouds 2 1004 95 10000 4.47 266 11:59 06.12.2022
763 Clouds 2 1005 95 10000 3.58 264 07:51 06.12.2022
764 Clouds 2 1005 95 10000 3.58 264 07:51 06.12.2022
765 Clouds 3 1006 96 10000 3.13 246 03:26 06.12.2022
766 Clouds 3 1006 96 10000 4.12 240 00:50 06.12.2022
767 Clouds 3 1007 97 10000 4.12 230 22:22 05.12.2022
768 Mist 4 1008 96 5000 4.12 250 20:55 05.12.2022
769 Fog 4 1007 97 1100 3.09 230 20:23 05.12.2022
770 Mist 4 1007 96 3000 4.02 239 19:42 05.12.2022
771 Mist 4 1008 96 1300 1.54 130 16:57 05.12.2022
772 Mist 4 1008 96 1300 1.54 130 16:57 05.12.2022
773 Mist 4 1008 96 1900 1.79 140 15:49 05.12.2022
774 Mist 3 1008 96 2600 2.68 120 15:22 05.12.2022
775 Rain 3 1008 96 2700 3.58 105 12:59 05.12.2022
776 Mist 3 1008 96 2700 3.58 105 12:40 05.12.2022
777 Mist 3 1008 96 4000 3.13 120 11:46 05.12.2022
778 Mist 3 1008 96 5000 4.47 77 10:53 05.12.2022
779 Mist 2 1008 96 1500 5.81 66 00:19 05.12.2022
780 Mist 3 1009 95 2200 4.63 60 22:44 04.12.2022
781 Mist 3 1009 95 2800 4.63 60 22:20 04.12.2022
782 Mist 2 1009 95 2700 4.47 53 21:53 04.12.2022
783 Mist 2 1009 95 2500 5.36 50 20:30 04.12.2022
784 Mist 2 1009 95 2100 4.63 60 19:27 04.12.2022
785 Mist 2 1009 95 1800 4.12 70 18:59 04.12.2022
786 Mist 2 1009 94 3200 5.36 73 17:23 04.12.2022
787 Mist 2 1009 94 3500 5.66 70 16:54 04.12.2022
788 Mist 2 1009 94 3400 5.81 58 16:36 04.12.2022
789 Mist 2 1009 94 3400 6.26 54 16:18 04.12.2022
790 Mist 1 1010 94 3600 4.47 69 14:43 04.12.2022
791 Mist 1 1010 93 4600 4.92 45 13:37 04.12.2022
792 Mist 1 1010 93 3900 4.12 60 12:44 04.12.2022
793 Mist 1 1011 93 3300 4.47 70 11:58 04.12.2022
794 Mist 0 1011 94 3100 4.12 60 09:33 04.12.2022
795 Mist 0 1010 93 4000 3.6 70 07:31 04.12.2022
796 Mist 0 1011 93 4900 3.6 60 00:59 04.12.2022
797 Mist 0 1013 91 5000 4.02 65 23:43 03.12.2022
798 Mist 0 1013 92 5000 3.13 90 22:22 03.12.2022
799 Clouds -1 1013 92 6000 3.58 70 21:21 03.12.2022
800 Clouds -1 1013 92 6000 4.12 80 20:34 03.12.2022
801 Clouds -1 1013 92 6000 3.6 90 18:40 03.12.2022
802 Clouds -1 1013 91 6000 4.12 80 16:57 03.12.2022
803 Clouds -1 1013 90 6000 3.6 70 14:28 03.12.2022
804 Clouds -1 1014 90 6000 4.12 70 12:55 03.12.2022
805 Clouds -1 1014 90 6000 4.12 70 12:55 03.12.2022
806 Clouds -1 1014 90 6000 4.12 80 12:24 03.12.2022
807 Mist -1 1015 91 2800 4.12 70 10:26 03.12.2022
808 Snow -1 1015 89 3600 4.47 80 07:58 03.12.2022
809 Clouds -1 1015 86 8000 5.36 88 01:31 03.12.2022
810 Clouds -1 1017 86 8000 5.14 70 23:25 02.12.2022
811 Clouds -1 1016 89 7000 7.2 80 20:59 02.12.2022
812 Clouds 0 1017 88 9000 5.14 100 19:34 02.12.2022
813 Clouds 1 1016 87 10000 5.81 77 15:59 02.12.2022
814 Clouds 1 1016 87 9000 6.69 80 14:46 02.12.2022
815 Clouds 1 1016 88 9000 6.69 80 14:27 02.12.2022
816 Clouds 1 1016 88 10000 5.66 90 13:36 02.12.2022
817 Clouds 2 1015 90 10000 8.05 76 11:46 02.12.2022
818 Clouds 1 1017 90 10000 5.36 64 09:52 02.12.2022
819 Clouds 1 1016 90 10000 4.47 60 07:25 02.12.2022
820 Mist 1 1016 91 5000 3.13 55 06:23 02.12.2022
821 Clouds 1 1018 92 6000 2.57 50 22:40 01.12.2022
822 Mist 1 1018 92 5000 2.68 66 21:40 01.12.2022
823 Mist 1 1018 93 4500 2.68 80 20:36 01.12.2022
824 Mist 1 1018 92 4100 2.68 62 18:58 01.12.2022
825 Clouds 1 1018 87 8000 2.68 90 16:31 01.12.2022
826 Clouds 1 1019 88 6000 3.6 80 14:21 01.12.2022
827 Mist 1 1019 91 3300 4.02 68 10:56 01.12.2022
828 Mist 0 1019 91 3900 3.6 80 09:54 01.12.2022
829 Mist 0 1019 91 4400 3.6 90 09:36 01.12.2022
830 Mist 0 1017 93 4700 5.36 78 06:19 01.12.2022
831 Mist 1 1018 92 4900 4.92 93 22:41 30.11.2022
832 Mist 1 1018 92 5000 4.92 101 21:40 30.11.2022
833 Mist 1 1018 92 5000 4.92 101 21:18 30.11.2022
834 Mist 1 1017 92 5000 3.6 80 20:23 30.11.2022
835 Mist 2 1017 91 5000 5.14 100 18:39 30.11.2022
836 Mist 2 1017 91 5000 4.63 100 18:21 30.11.2022
837 Mist 2 1016 91 3800 5.81 81 16:26 30.11.2022
838 Clouds 5 1016 86 7000 6.26 106 14:46 30.11.2022
839 Clear 5 1015 85 10000 6.26 106 14:26 30.11.2022
840 Clear 5 1015 85 10000 3.6 70 12:21 30.11.2022
841 Clouds 4 1015 89 9000 3.13 89 09:44 30.11.2022
842 Clouds 3 1014 90 7000 3.13 100 08:30 30.11.2022
843 Clouds 3 1013 91 7000 4.02 104 06:43 30.11.2022
844 Clouds 4 1012 92 7000 3.6 90 23:30 29.11.2022
845 Clouds 4 1012 92 7000 4.02 96 22:19 29.11.2022
846 Clouds 4 1012 92 9000 4.02 88 20:52 29.11.2022
847 Clouds 4 1012 92 9000 3.6 90 20:32 29.11.2022
848 Clouds 4 1011 93 7000 4.02 81 18:56 29.11.2022
849 Clouds 5 1010 90 7000 3.6 80 16:57 29.11.2022
850 Clouds 5 1010 89 10000 3.6 90 16:20 29.11.2022
851 Clouds 5 1010 89 10000 3.6 80 14:49 29.11.2022
852 Clouds 5 1009 89 10000 4.02 100 12:45 29.11.2022
853 Clouds 5 1009 90 10000 3.6 100 11:32 29.11.2022
854 Drizzle 4 1009 91 10000 3.6 100 10:41 29.11.2022
855 Clouds 3 1008 93 8000 3.6 100 09:37 29.11.2022
856 Clouds 3 1007 92 8000 4.02 100 07:48 29.11.2022
857 Clouds 3 1005 92 9000 3.58 93 00:36 29.11.2022
858 Clouds 3 1006 91 9000 4.47 88 23:34 28.11.2022
859 Clouds 3 1006 91 8000 4.47 73 22:32 28.11.2022
860 Clouds 4 1006 91 8000 3.13 100 21:43 28.11.2022
861 Clouds 3 1006 91 8000 4.12 90 20:33 28.11.2022
862 Clouds 3 1006 90 8000 5.14 100 19:38 28.11.2022
863 Clouds 4 1006 90 10000 4.12 100 18:29 28.11.2022
864 Clouds 4 1006 89 10000 4.63 100 17:50 28.11.2022
865 Clouds 5 1006 87 10000 6.26 92 15:31 28.11.2022
866 Clear 5 1006 84 10000 5.36 103 14:24 28.11.2022
867 Clear 6 1006 84 10000 4.12 120 13:46 28.11.2022
868 Clear 5 1007 86 10000 6.17 120 12:35 28.11.2022
869 Clouds 3 1007 91 10000 6.26 112 09:27 28.11.2022
870 Clear 3 1006 92 10000 5.36 112 06:29 28.11.2022
871 Clear 3 1008 92 10000 5.66 110 04:42 28.11.2022
872 Clear 3 1009 92 10000 5.81 127 03:23 28.11.2022
873 Clear 4 1010 91 10000 4.47 117 01:27 28.11.2022
874 Clear 5 1012 91 10000 5.36 120 22:35 27.11.2022
875 Clear 5 1020 91 10000 4.47 124 21:27 27.11.2022
876 Clear 5 1013 92 10000 4.47 127 19:30 27.11.2022
877 Clear 6 1015 88 10000 3.13 107 16:47 27.11.2022
878 Clear 7 1016 85 10000 3.13 141 14:33 27.11.2022
879 Clear 7 1015 88 10000 4.02 165 12:32 27.11.2022
880 Clear 5 1025 92 10000 3.6 150 10:44 27.11.2022
881 Clouds 3 1018 95 7000 3.09 190 07:57 27.11.2022
882 Clouds 7 1030 96 9000 2.06 220 00:36 27.11.2022
883 Clouds 7 1027 95 8000 3.13 186 21:58 26.11.2022
884 Clouds 7 1028 95 10000 2.06 170 20:51 26.11.2022
885 Clouds 7 1018 94 10000 1.79 280 19:23 26.11.2022
886 Clouds 7 1027 94 10000 2.06 250 17:29 26.11.2022
887 Clouds 8 1019 93 10000 2.68 270 15:39 26.11.2022
888 Drizzle 8 1018 94 10000 3.6 290 13:31 26.11.2022
889 Clouds 8 1018 91 10000 4.63 290 11:36 26.11.2022
890 Clouds 8 1016 96 10000 3.6 290 09:45 26.11.2022
891 Clouds 8 1015 97 10000 4.63 290 08:49 26.11.2022
892 Mist 7 1011 94 4100 3.13 260 01:30 26.11.2022
893 Rain 6 1009 94 6000 1.34 89 21:42 25.11.2022
894 Rain 6 1009 93 6000 0.51 0 21:21 25.11.2022
895 Rain 6 1008 93 5000 1.03 0 19:56 25.11.2022
896 Fog 6 1007 94 3200 1.54 70 16:46 25.11.2022
897 Clouds 6 1006 93 10000 3.58 80 14:21 25.11.2022
898 Fog 3 1006 97 300 2.06 130 09:21 25.11.2022
899 Fog 3 1005 97 450 2.24 140 08:40 25.11.2022
900 Mist 4 1004 97 5000 1.79 114 06:54 25.11.2022
901 Mist 4 1004 93 5000 1.03 0 05:40 25.11.2022
902 Clouds 4 998 88 10000 1.34 94 23:54 24.11.2022
903 Fog 4 1004 90 400 1.03 220 22:50 24.11.2022
904 Clouds 3 1001 90 10000 2.24 54 21:58 24.11.2022
905 Fog 4 1004 93 3600 1.34 120 20:30 24.11.2022
906 Clouds 4 1003 92 6000 2.06 150 18:30 24.11.2022
907 Clouds 4 1003 92 6000 2.68 105 17:40 24.11.2022
908 Mist 4 1003 92 5000 2.06 100 17:20 24.11.2022
909 Clouds 5 1001 90 9000 2.06 100 15:18 24.11.2022
910 -273 0 0 0 0 0 13:48 24.11.2022
911 Clouds 3 1000 97 6000 1.79 160 11:55 24.11.2022
912 Mist 2 1000 94 3500 2.06 130 10:35 24.11.2022
913 Fog 1 1000 93 450 2.57 120 07:53 24.11.2022
914 Fog 1 997 95 500 3.58 119 03:22 24.11.2022
915 Fog 1 997 92 1300 2.24 120 23:45 23.11.2022
916 Mist 2 996 95 3900 2.24 110 21:57 23.11.2022
917 Clouds 2 996 94 6000 2.24 120 21:24 23.11.2022
918 Clouds 3 995 93 8000 3.13 117 20:21 23.11.2022
919 Clear 3 995 92 10000 3.58 90 19:27 23.11.2022
920 Clear 3 994 91 10000 3.13 108 18:41 23.11.2022
921 Clear 5 993 85 10000 4.47 105 16:33 23.11.2022
922 Clear 6 993 85 10000 3.58 122 13:40 23.11.2022
923 Clear 6 993 86 10000 3.58 122 13:20 23.11.2022
924 Clear 5 994 89 10000 2.68 117 12:21 23.11.2022
925 Clouds 5 993 90 10000 3.13 116 11:41 23.11.2022
926 Clouds 3 994 90 10000 2.24 100 10:42 23.11.2022
927 Clouds 2 994 92 7000 3.58 123 09:43 23.11.2022
928 Mist 1 993 92 5000 3.09 110 09:25 23.11.2022
929 Clouds 1 993 91 6000 2.06 120 08:37 23.11.2022
930 Clouds 1 992 92 6000 2.57 120 05:22 23.11.2022
931 Mist 1 991 91 5000 2.24 116 04:32 23.11.2022
932 Clouds 1 992 91 6000 3.13 103 23:23 22.11.2022
933 Clouds 1 992 93 7000 3.6 110 22:33 22.11.2022
934 Clouds 1 992 93 7000 3.6 120 21:34 22.11.2022
935 Clouds 1 992 93 7000 4.12 120 20:49 22.11.2022
936 Clouds 1 992 93 7000 4.63 120 19:57 22.11.2022
937 Clouds 1 991 93 8000 4.12 110 17:56 22.11.2022
938 Clouds 1 991 93 8000 4.12 110 17:28 22.11.2022
939 Rain 1 990 90 10000 4.92 104 15:56 22.11.2022
940 Clouds 1 1001 91 9000 4.63 110 13:47 22.11.2022
941 Clouds 2 1002 93 7000 5.66 120 11:57 22.11.2022
942 Clouds -1 990 92 7000 5.81 98 09:26 22.11.2022
943 Clouds -2 990 93 6000 5.36 92 07:58 22.11.2022
944 Clouds -2 989 93 6000 5.36 94 06:36 22.11.2022
945 Clouds -2 992 89 10000 3.13 98 23:42 21.11.2022
946 Clouds -2 992 89 10000 2.57 110 22:50 21.11.2022
947 Clouds -2 992 89 10000 3.13 88 21:59 21.11.2022
948 Clouds -2 993 90 10000 2.57 120 20:56 21.11.2022
949 Clouds -2 993 89 10000 2.24 110 19:49 21.11.2022
950 Clouds -2 993 89 8000 3.13 104 19:30 21.11.2022
951 Clouds -2 994 89 8000 2.57 90 18:46 21.11.2022
952 Clouds -1 995 88 10000 2.24 135 16:58 21.11.2022
953 Clouds -1 995 88 10000 2.24 180 16:40 21.11.2022
954 Clouds -1 993 88 10000 1.34 218 15:54 21.11.2022
955 Clouds -1 995 86 10000 2.24 216 15:23 21.11.2022
956 Clouds -1 995 87 7000 2.06 250 13:53 21.11.2022
957 Clouds -1 992 88 6000 3.6 270 12:47 21.11.2022
958 Clouds -1 993 92 7000 1.79 330 09:31 21.11.2022
959 Clouds -1 993 92 6000 2.68 10 07:43 21.11.2022
960 Clear -2 996 88 10000 3.09 180 23:47 20.11.2022
961 Clear -1 997 86 10000 3.6 220 21:36 20.11.2022
962 Clouds -1 997 89 10000 3.09 210 20:47 20.11.2022
963 Clouds 0 998 86 10000 3.6 220 18:58 20.11.2022
964 Clouds 0 998 90 10000 4.02 260 17:18 20.11.2022
965 Clouds 1 999 88 10000 4.12 240 15:43 20.11.2022
966 Snow 1 998 89 10000 5.66 240 14:55 20.11.2022
967 Clouds 1 999 88 10000 5.14 230 13:58 20.11.2022
968 Snow 1 999 88 10000 5.36 213 13:25 20.11.2022
969 Clouds 0 1000 88 10000 5.66 230 11:41 20.11.2022
970 Clouds 0 1000 91 10000 4.12 200 10:57 20.11.2022
971 Clouds 0 1000 91 10000 4.12 210 09:43 20.11.2022
972 Clear 0 1000 91 10000 4.63 220 08:53 20.11.2022
973 Clouds -1 1000 89 10000 5.36 219 08:20 20.11.2022
974 Clouds -1 1000 89 10000 4.12 220 07:26 20.11.2022
975 Clouds 0 1001 91 10000 4.92 233 01:26 20.11.2022
976 Snow 0 1001 91 9000 4.63 230 00:46 20.11.2022
977 Snow 0 1002 91 6000 5.81 225 00:27 20.11.2022
978 Mist 0 1002 94 4700 4.63 230 23:59 19.11.2022
979 Snow 0 1002 90 4600 4.47 243 23:26 19.11.2022
980 Snow 0 1002 91 5000 5.36 251 22:44 19.11.2022
981 Snow 0 1002 91 5000 4.63 250 22:44 19.11.2022
982 Snow 0 1002 91 6000 4.92 235 21:51 19.11.2022
983 Snow 0 1000 90 10000 4.63 240 21:25 19.11.2022
984 Clouds 0 1002 89 10000 5.36 258 20:41 19.11.2022
985 Clouds 0 1002 90 7000 5.36 253 19:48 19.11.2022
986 Snow 0 1002 88 7000 5.81 260 18:53 19.11.2022
987 Snow 0 1002 89 7000 5.66 260 17:38 19.11.2022
988 Snow 0 1002 88 10000 5.36 253 17:18 19.11.2022
989 Clouds 1 1002 82 10000 6.69 250 14:54 19.11.2022
990 Snow 1 1002 74 10000 6.69 250 13:29 19.11.2022
991 Snow 0 1003 75 10000 4.47 257 11:54 19.11.2022
992 Clear -2 1004 80 10000 3.13 247 09:45 19.11.2022
993 Clear -3 1004 79 10000 2.57 240 07:53 19.11.2022
994 Clear -3 1003 79 10000 1.03 230 04:45 19.11.2022
995 Clear -3 1003 77 10000 1.54 360 00:50 19.11.2022
996 Clear -2 1003 77 10000 1.79 6 23:34 18.11.2022
997 Clear -2 1003 77 10000 1.79 6 23:34 18.11.2022
998 Clear -2 1003 77 10000 1.79 6 23:34 18.11.2022
999 Clear -2 1003 77 10000 1.54 10 22:24 18.11.2022
1000 Clear -2 1002 79 10000 1.79 11 21:35 18.11.2022
1001 Clear -2 1002 78 10000 1.03 30 20:58 18.11.2022
1002 Clear -2 1002 77 10000 1.79 28 20:25 18.11.2022
1003 Clear -2 1001 79 10000 1.54 40 19:37 18.11.2022
1004 Clear -1 1001 75 10000 2.68 70 17:45 18.11.2022
1005 Clear 0 1000 75 10000 5.36 68 16:37 18.11.2022
1006 Clouds 0 998 81 10000 8.05 80 12:53 18.11.2022
1007 Clouds 0 997 82 10000 8.94 76 10:45 18.11.2022
1008 Clouds 0 995 88 9000 5.36 61 07:53 18.11.2022
1009 Clouds 0 992 89 10000 7.72 70 05:45 18.11.2022
1010 Clouds 1 991 88 10000 7.72 80 04:53 18.11.2022
1011 Clouds 2 991 86 10000 7.6 82 23:52 17.11.2022
1012 Drizzle 3 991 88 10000 7.72 100 20:48 17.11.2022
1013 Drizzle 3 991 88 10000 7.72 90 20:25 17.11.2022
1014 Drizzle 3 991 88 10000 6.69 90 19:49 17.11.2022
1015 Rain 4 991 87 10000 7.72 100 18:34 17.11.2022
1016 Rain 4 991 84 10000 9.39 90 17:32 17.11.2022
1017 Rain 5 991 83 10000 8.94 91 16:42 17.11.2022
1018 Clouds 5 992 82 10000 8.23 110 12:29 17.11.2022
1019 Clouds 5 992 83 10000 8.49 116 11:20 17.11.2022
1020 Clouds 4 993 85 10000 7.72 100 08:19 17.11.2022
1021 Clouds 4 994 85 10000 8.75 80 02:35 17.11.2022
1022 Clouds 5 995 84 10000 7.2 80 00:20 17.11.2022
1023 Clouds 6 996 84 10000 7.6 95 22:27 16.11.2022
1024 Drizzle 6 996 84 10000 5.81 94 20:35 16.11.2022
1025 Drizzle 6 996 87 10000 5.14 90 19:30 16.11.2022
1026 Drizzle 6 996 87 7000 5.36 71 18:33 16.11.2022
1027 Clouds 6 996 90 10000 4.63 80 16:37 16.11.2022
1028 Clouds 6 996 92 10000 6.26 82 13:30 16.11.2022
1029 Fog 6 997 93 900 3.13 94 08:45 16.11.2022
1030 Fog 5 998 92 900 5.66 80 01:54 16.11.2022
1031 Fog 6 999 91 700 4.92 62 00:40 16.11.2022
1032 Fog 7 1000 93 1300 3.13 65 21:55 15.11.2022
1033 Fog 7 1000 92 3300 3.6 70 20:32 15.11.2022
1034 Clear 9 1000 85 6000 3.58 64 19:33 15.11.2022
1035 Clear 10 1000 85 10000 3.13 65 17:39 15.11.2022
1036 Clear 11 1001 84 10000 2.68 96 16:53 15.11.2022
1037 Clear 12 1000 81 10000 2.57 80 16:18 15.11.2022
1038 Clear 13 1000 78 10000 2.68 79 14:42 15.11.2022
1039 Clear 12 1001 77 10000 2.57 170 12:59 15.11.2022
1040 Clear 11 1002 80 10000 2.24 185 11:43 15.11.2022
1041 Clear 11 1003 83 10000 2.06 160 10:41 15.11.2022
1042 Mist 5 1002 93 3900 3.13 121 06:57 15.11.2022
1043 Mist 6 1004 94 5000 2.68 130 00:35 15.11.2022
1044 Clear 6 1006 92 8000 3.13 115 22:59 14.11.2022
1045 Clear 7 1006 90 10000 3.6 120 21:19 14.11.2022
1046 Clear 7 1006 90 10000 3.6 120 20:38 14.11.2022
1047 Clear 8 1007 87 10000 3.13 100 18:37 14.11.2022
1048 Clear 11 1008 78 10000 4.02 112 15:45 14.11.2022
1049 Clear 10 1006 79 10000 4.12 90 12:54 14.11.2022
1050 Clear 10 1003 82 8000 4.47 95 11:42 14.11.2022
1051 Mist 6 1011 93 3200 5.81 89 09:28 14.11.2022
1052 Mist 6 1011 93 3500 5.36 104 07:54 14.11.2022
1053 Mist 6 1010 93 4100 3.6 100 06:19 14.11.2022
1054 Clouds 7 1013 91 6000 5.14 80 00:18 14.11.2022
1055 Clouds 7 1015 89 9000 4.47 94 21:53 13.11.2022
1056 Clouds 7 1015 89 10000 4.92 116 21:27 13.11.2022
1057 Clouds 8 1016 88 10000 5.14 100 19:44 13.11.2022
1058 Clear 8 1023 86 10000 5.14 100 18:23 13.11.2022
1059 Clear 9 1016 84 10000 3.58 79 17:22 13.11.2022
1060 Clear 12 1016 78 10000 5.81 92 14:58 13.11.2022
1061 Clear 11 1016 77 10000 4.12 100 14:23 13.11.2022
1062 Clouds 11 1017 81 10000 5.66 100 12:38 13.11.2022
1063 Clouds 10 1018 86 10000 4.02 108 11:20 13.11.2022
1064 Clouds 10 1018 86 10000 4.02 120 11:20 13.11.2022
1065 Clouds 10 1019 89 10000 4.02 94 08:55 13.11.2022
1066 Clouds 8 1020 92 8000 2.24 91 01:35 13.11.2022
1067 Fog 8 1020 93 5000 0.51 0 22:57 12.11.2022
1068 Fog 8 1022 91 4500 2.57 130 21:24 12.11.2022
1069 Fog 9 1021 89 600 2.24 115 20:21 12.11.2022
1070 Fog 9 1022 86 800 1.03 100 18:18 12.11.2022
1071 Clear 11 1021 82 10000 1.34 157 16:27 12.11.2022
1072 Clear 13 1022 76 10000 0.51 0 15:23 12.11.2022
1073 Clear 13 1022 77 10000 0.51 0 12:38 12.11.2022
1074 Clear 7 1021 91 10000 1.79 185 09:29 12.11.2022
1075 Clouds 6 1020 84 10000 0.45 168 06:55 12.11.2022
1076 Clear 9 1021 83 10000 3.09 240 22:51 11.11.2022
1077 Clouds 10 1019 82 10000 2.24 220 20:52 11.11.2022
1078 Clear 10 1020 80 10000 2.57 230 19:50 11.11.2022
1079 Clear 10 1020 79 10000 2.68 222 19:23 11.11.2022
1080 Clear 10 1020 80 10000 3.13 226 17:58 11.11.2022
1081 Clear 11 1019 81 10000 2.68 222 16:55 11.11.2022
1082 Clear 13 1019 72 10000 4.12 230 14:29 11.11.2022
1083 Clear 13 1020 72 10000 5.36 223 13:31 11.11.2022
1084 Clear 12 1020 77 10000 6.26 226 11:38 11.11.2022
1085 Clear 9 1019 87 10000 5.36 220 08:43 11.11.2022
1086 Clear 9 1019 87 10000 3.6 230 07:41 11.11.2022
1087 Clear 10 1017 84 10000 4.92 220 00:30 11.11.2022
1088 Clouds 12 1017 79 10000 5.36 250 22:51 10.11.2022
1089 Clouds 12 1017 77 10000 5.66 220 21:44 10.11.2022
1090 Clouds 12 1017 78 10000 4.63 230 21:25 10.11.2022
1091 Clouds 12 1017 79 10000 5.36 213 20:24 10.11.2022
1092 Clouds 12 1016 79 10000 3.6 230 19:56 10.11.2022
1093 Clear 11 1016 81 10000 3.13 183 18:45 10.11.2022
1094 Clear 13 1015 76 10000 4.12 230 16:55 10.11.2022
1095 Clouds 14 1014 75 10000 6.26 242 16:25 10.11.2022
1096 Clouds 14 1012 74 10000 6.17 260 13:34 10.11.2022
1097 Clear 11 1019 84 10000 5.14 250 09:38 10.11.2022
1098 Clear 10 1008 86 10000 4.12 230 07:57 10.11.2022
1099 Clouds 11 1003 86 10000 4.47 240 01:18 10.11.2022
1100 Clear 11 1002 92 10000 3.13 206 23:20 09.11.2022
1101 Clear 11 1002 91 10000 3.6 190 21:57 09.11.2022
1102 Clouds 12 1002 89 10000 2.24 260 20:46 09.11.2022
1103 Clouds 12 1002 89 10000 5.14 310 20:28 09.11.2022
1104 Clear 12 1000 88 10000 6.69 180 19:26 09.11.2022
1105 Clear 13 1001 87 10000 4.12 160 17:49 09.11.2022
1106 Clouds 15 1000 81 10000 6.17 220 14:59 09.11.2022
1107 Clouds 15 1000 80 10000 6.17 220 14:41 09.11.2022
1108 Clear 15 1000 81 10000 6.26 214 14:22 09.11.2022
1109 Clear 14 1000 82 10000 6.17 190 12:57 09.11.2022
1110 Rain 11 1000 88 10000 4.63 200 09:45 09.11.2022
1111 Rain 12 999 82 10000 4.12 180 07:47 09.11.2022
1112 Clouds 11 998 84 10000 3.58 197 06:55 09.11.2022
1113 Clear 12 1000 75 10000 3.6 170 22:50 08.11.2022
1114 Clear 12 1000 75 10000 3.6 170 21:43 08.11.2022
1115 Clear 13 1000 74 10000 3.6 170 21:21 08.11.2022
1116 Clear 13 1000 74 10000 5.36 157 20:39 08.11.2022
1117 Clear 13 1000 76 10000 5.36 169 19:35 08.11.2022
1118 Clear 13 1000 75 10000 5.66 170 19:35 08.11.2022
1119 Clear 13 1000 77 10000 5.14 160 18:20 08.11.2022
1120 Clear 15 1000 72 10000 4.12 170 16:19 08.11.2022
1121 Clear 16 1001 69 10000 6.17 190 14:52 08.11.2022
1122 Clear 16 1001 71 10000 5.36 184 13:35 08.11.2022
1123 Clear 15 1002 72 10000 5.81 215 12:38 08.11.2022
1124 Clear 9 1004 91 10000 3.6 180 08:32 08.11.2022
1125 Clear 9 1003 90 10000 3.6 190 06:53 08.11.2022
1126 Clear 11 1003 83 10000 5.81 218 00:22 08.11.2022
1127 Clear 12 1004 80 10000 7.15 212 22:24 07.11.2022
1128 Clouds 12 1003 80 10000 5.36 216 21:21 07.11.2022
1129 Clouds 12 1003 80 10000 5.66 220 20:18 07.11.2022
1130 Clear 13 1003 77 10000 6.17 210 17:51 07.11.2022
1131 Clear 13 1003 77 10000 5.66 200 16:32 07.11.2022
1132 Clouds 14 1003 74 10000 4.63 210 15:34 07.11.2022
1133 Clouds 14 1002 71 10000 8.49 229 14:31 07.11.2022
1134 Clear 14 1002 73 10000 7.6 227 12:35 07.11.2022
1135 Clouds 12 1003 78 10000 8.49 210 10:55 07.11.2022
1136 Clouds 10 1003 82 10000 6.71 218 09:29 07.11.2022
1137 Clouds 8 1001 84 10000 4.92 219 07:41 07.11.2022
1138 Clear 8 1000 88 10000 3.13 179 04:18 07.11.2022
1139 Rain 7 1000 86 10000 4.12 170 01:20 07.11.2022
1140 Clear 7 1002 87 10000 5.14 150 22:21 06.11.2022
1141 Clear 7 1003 85 10000 5.14 160 21:20 06.11.2022
1142 Clear 8 1003 83 10000 4.63 150 20:32 06.11.2022
1143 Clear 8 1003 83 10000 3.6 140 19:34 06.11.2022
1144 Clear 8 1003 82 10000 4.47 150 18:40 06.11.2022
1145 Clear 8 1003 81 10000 4.12 140 18:19 06.11.2022
1146 Clear 9 1004 80 10000 4.02 168 17:21 06.11.2022
1147 Clear 10 1004 77 10000 4.92 179 16:40 06.11.2022
1148 Clear 11 1004 74 10000 5.14 190 15:43 06.11.2022
1149 Clear 12 1004 74 10000 7.15 194 14:24 06.11.2022
1150 Clear 11 1005 74 10000 6.26 183 12:39 06.11.2022
1151 Clear 9 1014 83 10000 7.15 198 10:48 06.11.2022
1152 Clear 6 1008 90 10000 5.14 190 09:30 06.11.2022
1153 Clear 5 1006 92 10000 4.63 180 06:39 06.11.2022
1154 Clear 7 1009 88 10000 3.58 209 23:22 05.11.2022
1155 Clear 8 1008 83 10000 3.6 230 19:57 05.11.2022
1156 Clear 8 1008 85 10000 3.58 213 18:20 05.11.2022
1157 Clear 11 1007 76 10000 3.13 280 16:21 05.11.2022
1158 Clear 12 1006 71 10000 6.26 265 14:34 05.11.2022
1159 Clear 12 1005 72 10000 4.63 280 13:18 05.11.2022
1160 Clouds 9 1013 91 10000 4.92 269 10:38 05.11.2022
1161 Clear 7 1004 93 10000 3.13 280 08:48 05.11.2022
1162 Clear 7 1002 93 10000 3.13 275 07:22 05.11.2022
1163 Clear 7 1002 93 10000 3.13 274 06:54 05.11.2022
1164 Rain 9 999 92 10000 2.68 299 23:35 04.11.2022
1165 -273 0 0 0 0 0 22:34 04.11.2022
1166 -273 0 0 0 0 0 20:29 04.11.2022
1167 Clouds 9 998 92 10000 2.68 283 20:27 04.11.2022
1168 Clouds 9 998 92 10000 2.68 283 20:26 04.11.2022
1169 Clouds 10 998 92 10000 2.68 283 20:26 04.11.2022
1170 Clouds 10 996 92 10000 2.57 270 17:46 04.11.2022
1171 Clear 10 996 91 10000 2.24 290 16:46 04.11.2022
1172 Clouds 11 995 90 10000 2.24 270 13:39 04.11.2022
1173 Rain 11 994 92 10000 4.47 296 12:26 04.11.2022
1174 Clouds 11 994 93 10000 3.58 282 10:38 04.11.2022
1175 Rain 9 994 91 10000 3.6 190 08:39 04.11.2022
1176 Clear 9 992 92 10000 3.6 180 07:42 04.11.2022
1177 Clear 8 992 88 10000 3.13 101 02:29 04.11.2022
1178 Clear 9 995 83 10000 3.13 113 22:47 03.11.2022
1179 Clear 10 997 76 10000 5.66 120 20:50 03.11.2022
1180 Clear 10 999 73 10000 5.36 116 19:53 03.11.2022
1181 Clear 11 999 73 10000 4.63 120 19:27 03.11.2022
1182 Clear 11 1001 76 10000 4.63 90 17:43 03.11.2022
1183 Clear 11 1002 75 10000 4.12 110 16:52 03.11.2022
1184 Clear 12 1005 71 10000 3.58 150 14:19 03.11.2022
1185 Clear 12 1005 70 10000 5.36 152 12:38 03.11.2022
1186 Clear 12 1006 73 10000 5.14 160 11:44 03.11.2022
1187 Clear 8 1008 82 10000 3.6 150 09:25 03.11.2022
1188 Clear 6 1005 82 10000 4.47 146 07:43 03.11.2022
1189 Clear 10 1012 71 10000 2.57 230 21:29 02.11.2022
1190 Clear 11 1012 65 10000 2.24 246 20:39 02.11.2022
1191 Clear 10 1011 67 10000 3.6 230 19:56 02.11.2022
1192 Clear 13 1010 61 10000 5.81 266 16:51 02.11.2022
1193 Clear 14 1009 58 10000 8.94 243 15:50 02.11.2022
1194 Clouds 15 1008 58 10000 7.72 260 14:47 02.11.2022
1195 Clear 15 1008 66 10000 9.39 241 12:44 02.11.2022
1196 Clear 15 1009 68 10000 6.69 240 11:39 02.11.2022
1197 Clear 10 1009 89 10000 4.12 200 08:52 02.11.2022
1198 Clear 9 1008 88 10000 4.02 198 05:30 02.11.2022
1199 Mist 11 1008 88 10000 2.06 220 00:21 02.11.2022
1200 Clear 12 1009 88 10000 1.54 230 22:19 01.11.2022
1201 Clear 13 1009 88 10000 2.06 210 21:38 01.11.2022
1202 Clear 13 1008 86 10000 3.58 220 20:26 01.11.2022
1203 Clear 13 1008 88 10000 3.09 220 19:43 01.11.2022
1204 Clouds 14 1008 88 10000 4.02 213 18:53 01.11.2022
1205 Clear 15 1007 85 10000 3.6 220 17:31 01.11.2022
1206 Clouds 16 1006 84 10000 4.63 220 16:20 01.11.2022
1207 Clear 17 1006 87 10000 5.66 230 14:25 01.11.2022
1208 Clear 16 1005 82 10000 4.02 211 12:28 01.11.2022
1209 Rain 15 1005 85 10000 3.6 200 11:24 01.11.2022
1210 Clear 15 1003 88 10000 3.6 190 10:56 01.11.2022
1211 Clouds 12 1004 91 6000 3.6 160 08:43 01.11.2022
1212 Mist 12 1003 92 3900 2.57 140 07:30 01.11.2022
1213 Fog 12 1004 92 1300 3.13 122 06:48 01.11.2022
1214 Fog 12 1004 91 300 1.79 103 05:58 01.11.2022
1215 Fog 13 1004 94 1900 1.79 73 03:38 01.11.2022
1216 Fog 13 1007 93 1900 2.06 50 21:57 31.10.2022
1217 Fog 13 1008 92 4000 1.79 36 20:53 31.10.2022
1218 Mist 13 1007 94 5000 1.79 21 19:55 31.10.2022
1219 Clouds 14 1008 91 7000 1.03 0 17:58 31.10.2022
1220 Clear 16 1010 81 10000 1.34 330 16:43 31.10.2022
1221 Clear 18 1010 82 10000 1.54 250 13:49 31.10.2022
1222 Clear 16 1010 86 10000 2.57 270 11:54 31.10.2022
1223 Clear 13 1010 94 10000 2.68 315 09:18 31.10.2022
1224 Clear 12 1008 96 10000 2.68 261 05:39 31.10.2022
1225 Clouds 14 1004 78 10000 1.34 220 02:30 31.10.2022
1226 Fog 13 1007 90 500 1.34 190 00:34 31.10.2022
1227 Clouds 15 1003 90 10000 1.34 191 21:45 30.10.2022
1228 Clear 15 1006 88 10000 1.79 179 20:37 30.10.2022
1229 Clear 16 1006 82 10000 1.34 156 18:56 30.10.2022
1230 Clear 20 1007 71 10000 2.06 230 16:26 30.10.2022
1231 Clear 22 1006 61 10000 2.57 240 14:23 30.10.2022
1232 Clear 21 1007 62 10000 3.13 257 13:33 30.10.2022
1233 Clear 20 1007 69 10000 1.79 259 11:56 30.10.2022
1234 Clear 16 1008 82 10000 1.03 0 09:51 30.10.2022
1235 Clear 14 1007 91 10000 2.06 170 08:40 30.10.2022
1236 Clear 13 1007 89 10000 3.13 138 07:27 30.10.2022
1237 Clouds 15 1008 91 8000 1.54 170 00:29 30.10.2022
1238 Clouds 15 1008 91 9000 1.03 130 23:45 29.10.2022
1239 Clear 16 1010 88 10000 1.54 160 21:44 29.10.2022
1240 Clear 18 1010 79 10000 2.68 188 18:35 29.10.2022
1241 Clear 19 1010 78 10000 2.57 200 17:22 29.10.2022
1242 Clear 20 1010 75 10000 3.6 230 15:38 29.10.2022
1243 Clear 20 1010 77 10000 2.06 220 14:52 29.10.2022
1244 Clear 19 1011 76 10000 2.24 246 13:29 29.10.2022
1245 Clear 18 1020 84 10000 4.02 280 12:32 29.10.2022
1246 Clear 14 1011 86 10000 3.6 230 08:56 29.10.2022
1247 Clear 15 1011 85 10000 3.13 230 06:50 29.10.2022
1248 Clouds 15 1010 83 10000 2.68 233 05:53 29.10.2022
1249 Clear 17 1009 82 10000 2.57 220 23:44 28.10.2022
1250 Clear 17 1009 79 10000 3.13 197 21:33 28.10.2022
1251 Clear 18 1009 77 10000 2.57 180 19:59 28.10.2022
1252 Clear 19 1009 74 10000 3.6 170 18:33 28.10.2022
1253 Clear 20 1008 72 10000 3.6 190 17:52 28.10.2022
1254 Clear 22 1009 64 10000 4.47 191 15:18 28.10.2022
1255 Clear 21 1009 68 10000 4.63 180 13:43 28.10.2022
1256 Clear 19 1011 79 10000 3.58 189 11:55 28.10.2022
1257 Clear 18 1011 82 10000 3.09 190 11:33 28.10.2022
1258 Rain 16 1011 83 10000 3.13 191 10:45 28.10.2022
1259 Clear 14 1011 88 10000 4.02 182 09:44 28.10.2022
1260 Clear 13 1011 90 10000 2.06 170 07:51 28.10.2022
1261 Clear 13 1011 88 10000 2.24 170 02:58 28.10.2022
1262 Clear 14 1013 87 10000 4.63 150 23:47 27.10.2022
1263 Clear 14 1013 86 10000 4.47 154 22:39 27.10.2022
1264 Clear 14 1014 87 10000 3.09 140 21:33 27.10.2022
1265 Clear 17 1013 80 10000 2.24 150 18:34 27.10.2022
1266 Clear 19 1015 76 10000 3.6 180 17:28 27.10.2022
1267 Clear 19 1015 74 10000 3.58 195 13:34 27.10.2022
1268 Clouds 12 1014 88 10000 1.79 191 08:59 27.10.2022
1269 Clear 12 1012 90 10000 3.13 228 03:40 27.10.2022
1270 Clear 12 1010 88 10000 2.06 210 23:54 26.10.2022
1271 Clear 13 1011 86 10000 2.57 200 22:47 26.10.2022
1272 Clear 13 1010 85 10000 3.09 200 22:22 26.10.2022
1273 Clear 14 1008 84 10000 2.57 180 19:34 26.10.2022
1274 Clear 18 1007 74 10000 3.6 170 16:35 26.10.2022
1275 Clear 18 1007 70 10000 3.13 140 14:36 26.10.2022
1276 Clouds 15 1017 81 10000 3.13 152 12:37 26.10.2022
1277 Clear 11 1007 93 10000 2.68 110 10:24 26.10.2022
1278 Clouds 9 1008 88 10000 1.79 92 08:54 26.10.2022
1279 Fog 9 1007 89 600 1.34 182 08:24 26.10.2022
1280 Mist 10 1007 89 10000 1.54 180 00:46 26.10.2022
1281 Mist 11 1007 87 10000 1.54 210 00:23 26.10.2022
1282 Clear 11 1007 87 10000 3.58 232 21:54 25.10.2022
1283 Clear 11 1007 87 10000 3.58 233 21:24 25.10.2022
1284 Clear 12 1006 88 10000 3.13 240 19:57 25.10.2022
1285 Clouds 14 1006 84 10000 2.06 250 18:28 25.10.2022
1286 Clouds 17 1004 74 10000 7.6 243 14:58 25.10.2022
1287 Clouds 15 1004 87 10000 4.63 240 11:39 25.10.2022
1288 Clouds 14 1004 87 10000 4.47 239 10:44 25.10.2022
1289 Clouds 14 1011 86 10000 4.63 240 10:25 25.10.2022
1290 Clouds 13 1003 86 10000 4.63 220 08:19 25.10.2022
1291 Clouds 13 1002 88 10000 4.63 220 07:54 25.10.2022
1292 Clouds 13 1002 88 10000 4.63 220 07:54 25.10.2022
1293 Clouds 13 1002 87 10000 4.63 220 07:26 25.10.2022
1294 Clouds 13 1001 88 10000 4.12 220 04:26 25.10.2022
1295 Clear 14 1001 84 10000 6.17 230 00:40 25.10.2022
1296 Clear 15 1001 84 10000 5.14 220 23:50 24.10.2022
1297 Clear 16 1000 83 10000 6.69 220 22:24 24.10.2022
1298 Clear 16 999 82 10000 7.15 230 21:34 24.10.2022
1299 Clear 16 999 82 10000 7.15 230 21:34 24.10.2022
1300 Clear 16 999 81 10000 5.66 220 20:44 24.10.2022
1301 Clear 16 999 81 10000 5.66 220 20:44 24.10.2022
1302 Clear 17 1000 77 10000 5.66 210 19:36 24.10.2022
1303 Clear 18 998 80 10000 5.14 220 17:53 24.10.2022
1304 Clear 19 999 74 10000 6.71 212 16:54 24.10.2022
1305 Clear 18 999 79 10000 6.26 210 14:50 24.10.2022
1306 Clear 18 999 82 10000 7.15 203 13:53 24.10.2022
1307 Clear 17 999 86 10000 5.81 207 12:26 24.10.2022
1308 Clear 13 999 90 10000 2.06 170 08:51 24.10.2022
1309 Rain 14 1001 83 10000 5.14 160 00:58 24.10.2022
1310 Clear 15 1001 81 10000 4.12 130 22:19 23.10.2022
1311 Clear 16 1001 82 10000 5.36 136 20:25 23.10.2022
1312 Clear 16 999 81 10000 2.57 130 18:26 23.10.2022
1313 Clear 17 1002 79 10000 3.13 147 17:27 23.10.2022
1314 Clear 18 1003 76 10000 3.6 160 15:24 23.10.2022
1315 Clear 19 1003 75 10000 4.47 180 14:46 23.10.2022
1316 Clear 15 1005 88 10000 2.24 172 11:25 23.10.2022
1317 Clear 12 1005 96 10000 1.54 170 09:54 23.10.2022
1318 Clouds 12 1006 89 10000 2.57 230 04:29 23.10.2022
1319 Clear 15 1005 86 10000 5.36 233 22:48 22.10.2022
1320 Clear 14 1005 85 10000 3.09 220 21:43 22.10.2022
1321 Clear 15 1005 85 10000 3.58 209 20:57 22.10.2022
1322 Clear 15 1004 88 10000 2.57 210 19:57 22.10.2022
1323 Clear 15 1003 87 10000 2.68 198 19:30 22.10.2022
1324 Clear 18 997 81 10000 3.09 260 17:39 22.10.2022
1325 Clouds 19 1001 79 10000 4.47 262 15:59 22.10.2022
1326 Clouds 18 1001 86 10000 4.12 260 14:48 22.10.2022
1327 Clouds 17 1001 90 10000 3.6 270 13:58 22.10.2022
1328 Clouds 14 1002 92 10000 3.58 220 11:22 22.10.2022
1329 Clouds 13 1002 91 7000 2.24 211 09:43 22.10.2022
1330 Mist 13 1001 91 5000 2.68 190 08:37 22.10.2022
1331 Clouds 13 1000 91 6000 2.68 224 04:25 22.10.2022
1332 Clouds 14 1000 91 7000 2.68 220 00:19 22.10.2022
1333 Clouds 14 1000 90 10000 3.09 190 22:37 21.10.2022
1334 Rain 14 1000 89 9000 4.12 210 21:32 21.10.2022
1335 Drizzle 14 1000 88 6000 3.6 190 20:25 21.10.2022
1336 Clear 14 999 78 10000 3.09 150 17:50 21.10.2022
1337 Clear 15 1000 75 10000 4.92 154 14:38 21.10.2022
1338 Clear 16 999 78 10000 3.58 144 13:39 21.10.2022
1339 Clear 13 997 80 10000 3.09 150 11:46 21.10.2022
1340 Clear 10 1002 86 10000 4.92 157 10:23 21.10.2022
1341 Rain 9 1002 89 10000 3.6 140 08:44 21.10.2022
1342 Clear 9 1001 87 10000 4.12 140 08:19 21.10.2022
1343 Rain 8 1004 86 10000 3.6 150 03:52 21.10.2022
1344 Clear 9 1006 80 10000 3.13 128 23:18 20.10.2022
1345 Clear 10 1007 79 10000 6.26 122 20:57 20.10.2022
1346 Clear 10 1008 75 10000 6.26 116 19:43 20.10.2022
1347 Clear 12 1008 70 10000 5.36 112 18:34 20.10.2022
1348 Clear 13 1009 63 10000 6.17 110 17:38 20.10.2022
1349 Clear 14 1010 64 10000 7.6 127 13:47 20.10.2022
1350 Clear 12 1011 71 10000 6.26 130 12:32 20.10.2022
1351 Clear 11 1022 73 10000 5.14 130 11:29 20.10.2022
1352 Clear 9 1013 78 10000 5.14 120 10:51 20.10.2022
1353 Clear 5 1014 85 10000 3.6 90 09:22 20.10.2022
1354 Clear 5 1015 84 10000 3.6 100 06:24 20.10.2022
1355 Clear 7 1016 78 10000 1.54 110 02:22 20.10.2022
1356 Clear 8 1017 83 10000 2.68 82 23:39 19.10.2022
1357 Clouds 8 1016 84 10000 2.06 90 22:23 19.10.2022
1358 Clouds 9 1016 83 10000 1.54 90 21:20 19.10.2022
1359 Clouds 9 1015 82 10000 1.03 350 19:55 19.10.2022
1360 Clear 13 1015 67 10000 1.79 349 17:47 19.10.2022
1361 Clouds 15 1015 62 10000 2.57 360 16:24 19.10.2022
1362 Clouds 14 1016 64 10000 4.92 352 14:27 19.10.2022
1363 Clouds 13 1016 76 10000 4.12 310 12:20 19.10.2022
1364 Clouds 11 1015 87 10000 3.58 289 08:49 19.10.2022
1365 Clouds 11 1015 85 10000 3.09 260 07:24 19.10.2022
1366 Clouds 11 1015 88 10000 2.68 268 01:33 19.10.2022
1367 Clouds 11 1015 89 10000 3.58 273 23:25 18.10.2022
1368 Fog 12 1015 91 600 3.13 264 21:49 18.10.2022
1369 Fog 12 1014 92 500 2.68 270 21:31 18.10.2022
1370 Fog 12 1014 93 4000 2.68 258 20:27 18.10.2022
1371 Clouds 14 1014 92 10000 3.09 270 18:59 18.10.2022
1372 Clouds 16 1013 93 10000 4.63 270 16:57 18.10.2022
1373 Clouds 16 1014 91 10000 4.12 270 15:22 18.10.2022
1374 Rain 15 1014 94 9000 1.79 247 13:39 18.10.2022
1375 Rain 16 1014 93 10000 2.68 247 11:47 18.10.2022
1376 Rain 16 1014 93 7000 1.79 278 10:36 18.10.2022
1377 Rain 15 1014 93 6000 1.79 201 09:26 18.10.2022
1378 Rain 16 1014 91 10000 2.06 280 06:56 18.10.2022
1379 Clear 16 1013 85 10000 1.79 193 23:40 17.10.2022
1380 Clear 18 1013 76 10000 1.79 228 21:35 17.10.2022
1381 Clear 19 1012 75 10000 3.6 180 20:49 17.10.2022
1382 Clear 19 1012 75 10000 3.6 170 20:29 17.10.2022
1383 Clear 20 1012 71 10000 3.09 170 19:46 17.10.2022
1384 Clear 23 1011 61 10000 4.02 199 17:54 17.10.2022
1385 Clear 24 1010 56 10000 5.66 200 16:34 17.10.2022
1386 Clear 25 1010 56 10000 5.36 184 15:27 17.10.2022
1387 Clear 23 1010 62 10000 6.26 161 13:36 17.10.2022
1388 Clear 15 1011 85 10000 3.6 160 09:46 17.10.2022
1389 Clear 13 1011 86 10000 1.79 61 03:21 17.10.2022
1390 Clear 14 1009 87 10000 1.34 157 22:59 16.10.2022
1391 Clear 14 1010 82 10000 2.06 170 21:46 16.10.2022
1392 Clear 15 1009 78 10000 1.34 271 20:28 16.10.2022
1393 Clear 15 1009 73 10000 2.68 288 19:45 16.10.2022
1394 Clear 19 1006 65 10000 2.57 260 17:47 16.10.2022
1395 Clouds 20 1005 62 10000 4.92 246 16:32 16.10.2022
1396 Clouds 20 1005 62 10000 4.63 250 15:56 16.10.2022
1397 Clouds 19 1004 74 10000 6.17 240 13:27 16.10.2022
1398 Clear 18 1015 80 10000 6.26 235 12:21 16.10.2022
1399 Clouds 16 1003 91 10000 4.92 186 10:27 16.10.2022
1400 Clear 14 1001 94 10000 2.68 178 08:35 16.10.2022
1401 Clouds 15 999 92 10000 4.12 180 23:50 15.10.2022
1402 Clouds 15 998 91 10000 4.63 160 22:38 15.10.2022
1403 Clouds 14 998 92 10000 4.47 166 21:23 15.10.2022
1404 Clear 14 998 92 10000 4.02 154 20:25 15.10.2022
1405 Clear 16 997 87 10000 3.09 140 18:43 15.10.2022
1406 Clouds 18 997 78 10000 4.02 202 15:46 15.10.2022
1407 Clouds 18 994 78 10000 2.24 219 14:24 15.10.2022
1408 Clouds 17 1008 84 10000 2.57 220 11:54 15.10.2022
1409 Clouds 15 993 92 10000 2.24 203 10:32 15.10.2022
1410 Clouds 13 995 96 6000 2.24 199 08:34 15.10.2022
1411 Rain 13 997 90 10000 4.12 160 02:35 15.10.2022
1412 Clouds 13 999 89 10000 4.92 155 23:31 14.10.2022
1413 Clouds 13 999 88 10000 4.63 150 22:23 14.10.2022
1414 Clouds 13 1000 88 10000 4.47 151 21:28 14.10.2022
1415 Clear 14 1000 85 10000 3.13 145 19:54 14.10.2022
1416 Clouds 17 1002 72 10000 3.6 200 16:38 14.10.2022
1417 Clouds 17 1003 75 10000 3.09 190 13:28 14.10.2022
1418 Clear 15 1015 81 10000 2.24 204 12:19 14.10.2022
1419 Clear 15 1015 82 10000 2.24 204 12:19 14.10.2022
1420 Clear 10 1004 93 10000 1.79 156 09:40 14.10.2022
1421 Clouds 9 1004 93 8000 2.06 190 07:47 14.10.2022
1422 Clouds 9 1005 88 8000 1.03 180 06:18 14.10.2022
1423 Clouds 9 1005 92 7000 1.03 150 05:42 14.10.2022
1424 Fog 9 1006 87 5000 2.57 190 04:42 14.10.2022
1425 Clouds 10 1006 91 9000 1.03 190 00:41 14.10.2022
1426 Clear 11 1006 87 10000 1.54 150 22:31 13.10.2022
1427 Clear 12 1006 84 10000 2.24 141 21:26 13.10.2022
1428 Clear 12 1006 82 10000 1.54 180 20:18 13.10.2022
1429 Clear 13 1006 82 10000 2.24 190 19:38 13.10.2022
1430 Clouds 14 1007 74 10000 3.13 240 18:43 13.10.2022
1431 Clouds 16 1007 67 10000 4.12 230 17:24 13.10.2022
1432 Clouds 16 1007 68 10000 5.66 220 15:48 13.10.2022
1433 Clouds 17 1007 72 10000 4.12 220 14:25 13.10.2022
1434 Clouds 15 1009 73 10000 3.13 180 12:50 13.10.2022
1435 Clear 13 1008 80 10000 3.13 197 11:37 13.10.2022
1436 Clouds 9 1007 81 10000 2.06 150 09:46 13.10.2022
1437 Clouds 7 1007 85 10000 2.06 120 08:32 13.10.2022
1438 Clear 7 1010 82 10000 2.24 137 07:35 13.10.2022
1439 Clear 8 1011 81 10000 2.24 109 01:53 13.10.2022
1440 Clear 9 1012 77 10000 3.13 100 00:59 13.10.2022
1441 Clear 10 1012 73 10000 2.68 124 22:57 12.10.2022
1442 Clear 10 1013 73 10000 2.57 110 22:36 12.10.2022
1443 Clear 11 1013 74 10000 3.13 90 21:22 12.10.2022
1444 Clear 11 1013 73 10000 2.57 100 20:52 12.10.2022
1445 Clear 12 1014 68 10000 2.24 113 20:23 12.10.2022
1446 Clear 14 1014 60 10000 2.06 130 18:26 12.10.2022
1447 Clear 14 1013 60 10000 2.57 140 17:50 12.10.2022
1448 Clouds 16 1013 58 10000 2.24 150 15:50 12.10.2022
1449 Clear 16 1014 60 10000 2.06 150 13:57 12.10.2022
1450 Clear 16 1014 58 10000 3.09 150 13:29 12.10.2022
1451 Clear 9 1015 83 10000 1.34 71 09:48 12.10.2022
1452 Clouds 8 1012 75 10000 1.79 135 08:37 12.10.2022
1453 Clouds 8 1012 76 10000 0.89 115 07:41 12.10.2022
1454 Clear 8 1013 78 10000 0.51 0 06:43 12.10.2022
1455 Clear 8 1015 83 10000 1.54 170 01:34 12.10.2022
1456 Clear 10 1015 78 10000 1.03 0 22:40 11.10.2022
1457 Clear 10 1015 76 10000 1.34 236 20:55 11.10.2022
1458 Clear 11 1015 74 10000 1.54 260 19:56 11.10.2022
1459 Clouds 14 1013 60 10000 3.13 330 17:38 11.10.2022
1460 Clouds 15 1013 59 10000 4.63 260 15:32 11.10.2022
1461 Clouds 15 1025 64 10000 4.63 290 13:28 11.10.2022
1462 Clouds 12 1014 84 10000 3.13 283 10:31 11.10.2022
1463 Clouds 12 1014 84 10000 3.13 283 10:31 11.10.2022
1464 Clouds 10 1013 91 10000 3.13 280 09:55 11.10.2022
1465 Clear 8 1013 92 10000 3.58 231 08:25 11.10.2022
1466 Clear 11 1009 82 10000 5.36 294 02:46 11.10.2022
1467 Clouds 14 1007 79 10000 6.71 286 00:34 11.10.2022
1468 Clear 13 1005 79 10000 5.36 193 21:47 10.10.2022
1469 Clear 13 1005 77 10000 3.6 170 20:32 10.10.2022
1470 Clear 15 1005 72 10000 2.68 187 18:50 10.10.2022
1471 Clear 17 1002 61 10000 5.66 200 17:24 10.10.2022
1472 Clear 17 1004 66 10000 5.66 190 16:22 10.10.2022
1473 Clear 16 1005 63 10000 5.36 164 13:53 10.10.2022
1474 Clear 14 1014 67 10000 5.66 180 12:22 10.10.2022
1475 Clear 8 1007 79 10000 1.79 162 09:26 10.10.2022
1476 Clear 7 1009 84 10000 4.47 129 05:53 10.10.2022
1477 Clear 7 1010 84 10000 4.12 120 05:33 10.10.2022
1478 Clear 9 1011 80 10000 3.09 100 01:25 10.10.2022
1479 Clear 9 1013 79 10000 3.6 110 23:37 09.10.2022
1480 Clear 10 1013 75 10000 3.6 100 22:26 09.10.2022
1481 Clear 10 1014 77 10000 3.13 107 21:30 09.10.2022
1482 Clear 11 1014 76 10000 2.57 110 20:43 09.10.2022
1483 Clear 11 1014 73 10000 3.58 101 19:49 09.10.2022
1484 Clear 13 1014 70 10000 2.24 130 18:50 09.10.2022
1485 Clear 15 1014 64 10000 4.02 160 17:44 09.10.2022
1486 Clouds 16 1013 63 10000 2.06 170 16:55 09.10.2022
1487 Clouds 16 1014 63 10000 1.79 180 16:20 09.10.2022
1488 Clouds 16 1014 64 10000 2.68 153 14:56 09.10.2022
1489 Clouds 16 1014 66 10000 2.57 180 14:26 09.10.2022
1490 Clear 15 1027 71 10000 2.24 192 12:50 09.10.2022
1491 Clear 13 1025 80 10000 1.54 220 11:28 09.10.2022
1492 Clear 8 1015 91 10000 1.79 200 08:41 09.10.2022
1493 Clear 6 1015 92 10000 2.68 233 06:46 09.10.2022
1494 Clear 8 1014 87 10000 3.13 267 03:29 09.10.2022
1495 Clear 8 1013 89 10000 4.02 257 02:22 09.10.2022
1496 Clear 9 1013 85 10000 4.47 252 23:56 08.10.2022
1497 Clear 10 1012 83 10000 3.6 270 22:52 08.10.2022
1498 Clear 11 1011 81 10000 4.02 266 20:52 08.10.2022
1499 Clear 11 1007 79 10000 3.6 270 19:51 08.10.2022
1500 Rain 13 1006 71 9000 8.75 280 17:55 08.10.2022
1501 Clouds 16 1001 71 10000 5.66 260 15:41 08.10.2022
1502 Clouds 15 1005 76 10000 7.2 260 14:24 08.10.2022
1503 Clouds 16 1013 68 10000 7.2 240 12:31 08.10.2022
1504 Clouds 14 1004 75 10000 4.63 230 10:36 08.10.2022
1505 Clouds 13 1002 79 10000 4.12 230 09:50 08.10.2022
1506 Clear 10 1003 86 10000 2.57 220 08:38 08.10.2022
1507 Clear 10 1003 79 10000 2.57 190 03:50 08.10.2022
1508 Clear 12 1007 74 10000 1.03 0 00:34 08.10.2022
1509 Clear 12 1008 71 10000 1.79 189 23:21 07.10.2022
1510 Clear 12 1008 70 10000 2.24 188 22:39 07.10.2022
1511 Clear 12 1008 70 10000 3.13 164 20:50 07.10.2022
1512 Clear 14 1009 64 10000 2.57 190 19:32 07.10.2022
1513 Clear 17 1008 50 10000 5.36 237 17:47 07.10.2022
1514 Clear 18 1009 54 10000 4.63 200 16:40 07.10.2022
1515 Clear 18 1011 53 10000 4.63 220 14:55 07.10.2022
1516 Clear 16 1024 62 10000 2.57 210 12:37 07.10.2022
1517 Clear 10 1016 86 10000 1.34 146 09:37 07.10.2022
1518 Clear 10 1017 77 10000 1.79 125 09:19 07.10.2022
1519 Clear 8 1015 75 10000 1.54 160 07:51 07.10.2022
1520 Clear 10 1019 73 10000 1.34 191 01:37 07.10.2022
1521 Clear 12 1019 75 10000 2.06 220 22:51 06.10.2022
1522 Clear 12 1019 76 10000 2.68 233 21:48 06.10.2022
1523 Clear 14 1019 66 10000 2.68 195 21:25 06.10.2022
1524 Clear 13 1019 68 10000 1.54 230 20:34 06.10.2022
1525 Clear 16 1018 58 10000 4.47 256 18:46 06.10.2022
1526 Clear 17 1018 54 10000 4.63 260 18:19 06.10.2022
1527 Clear 18 1016 52 10000 7.72 270 15:33 06.10.2022
1528 Clouds 17 1024 57 10000 8.49 277 12:22 06.10.2022
1529 Clouds 15 1011 74 10000 6.69 270 07:55 06.10.2022
1530 Clouds 15 1007 84 10000 6.71 240 03:39 06.10.2022
1531 Clear 15 1007 80 10000 5.81 211 00:39 06.10.2022
1532 Clear 15 1005 80 10000 4.12 190 21:52 05.10.2022
1533 Clear 16 1005 71 10000 4.47 204 19:31 05.10.2022
1534 Clear 19 1005 68 10000 7.2 210 17:36 05.10.2022
1535 Clear 20 1005 63 10000 8.94 229 16:22 05.10.2022
1536 Clear 19 1005 67 10000 4.63 230 14:52 05.10.2022
1537 Clear 19 1006 65 10000 4.63 240 14:19 05.10.2022
1538 Clear 16 1006 73 10000 8.49 222 12:28 05.10.2022
1539 Clear 14 1006 80 10000 6.26 213 10:36 05.10.2022
1540 Clear 10 1007 86 10000 4.12 190 08:19 05.10.2022
1541 Clear 10 1008 88 10000 2.57 190 06:24 05.10.2022
1542 Clear 10 1008 86 10000 2.24 202 05:27 05.10.2022
1543 Clear 11 1009 83 10000 4.02 191 02:29 05.10.2022
1544 Clear 12 1010 83 10000 4.63 180 00:28 05.10.2022
1545 Clear 12 1010 83 10000 3.6 180 22:54 04.10.2022
1546 Clear 13 1010 82 10000 4.02 174 20:44 04.10.2022
1547 Clear 14 1010 80 10000 3.13 186 19:47 04.10.2022
1548 Clear 16 1010 74 10000 3.6 200 18:51 04.10.2022
1549 Clouds 17 1010 70 10000 5.36 201 17:53 04.10.2022
1550 Clouds 18 1009 68 10000 3.09 230 16:51 04.10.2022
1551 Clouds 17 1012 72 10000 4.47 265 13:59 04.10.2022
1552 Clouds 13 1011 87 10000 4.12 270 09:57 04.10.2022
1553 Clouds 11 1018 86 10000 4.02 295 07:48 04.10.2022
1554 Clouds 12 1019 88 10000 4.63 290 04:43 04.10.2022
1555 Clouds 13 1019 89 10000 5.81 285 23:49 03.10.2022
1556 Clouds 13 1019 89 10000 4.12 270 22:28 03.10.2022
1557 Clouds 13 1010 86 10000 4.63 300 21:27 03.10.2022
1558 Clouds 14 1010 84 10000 4.92 292 20:35 03.10.2022
1559 Clouds 15 1010 78 10000 5.81 288 18:52 03.10.2022
1560 Clouds 16 1019 72 10000 6.71 288 17:32 03.10.2022
1561 Clouds 16 1021 71 10000 6.26 299 15:59 03.10.2022
1562 Clouds 16 1019 76 10000 7.2 300 14:26 03.10.2022
1563 Clouds 15 1019 77 10000 8.49 300 12:46 03.10.2022
1564 Clouds 14 1011 76 10000 6.69 300 11:21 03.10.2022
1565 Clouds 12 1010 81 10000 8.49 294 09:56 03.10.2022
1566 Clouds 12 1010 84 10000 8.49 307 08:47 03.10.2022
1567 Clouds 11 1008 86 10000 6.69 290 04:45 03.10.2022
1568 Clear 11 1006 84 10000 6.71 271 23:51 02.10.2022
1569 Clear 12 1005 84 10000 5.81 270 22:19 02.10.2022
1570 Clear 13 1004 80 10000 4.12 250 19:52 02.10.2022
1571 Clear 15 1002 74 10000 8.05 276 17:58 02.10.2022
1572 Clear 16 1001 75 10000 8.23 270 17:20 02.10.2022
1573 Clouds 16 1000 75 10000 6.71 275 16:33 02.10.2022
1574 Clouds 16 1000 80 10000 7.72 280 15:39 02.10.2022
1575 Clouds 15 1002 83 10000 7.2 270 13:46 02.10.2022
1576 Clouds 15 1002 79 10000 6.71 263 12:42 02.10.2022
1577 Rain 15 1011 81 10000 6.69 260 12:23 02.10.2022
1578 Clouds 15 1003 78 10000 8.94 259 11:34 02.10.2022
1579 Clear 13 1002 85 10000 6.26 248 10:29 02.10.2022
1580 Clear 11 1002 90 10000 5.66 250 08:31 02.10.2022
1581 Clouds 10 1002 91 10000 5.66 240 05:32 02.10.2022
1582 Clear 11 1001 90 10000 4.92 250 02:49 02.10.2022
1583 Clouds 10 1006 89 10000 5.81 262 00:39 02.10.2022
1584 Clouds 11 998 90 10000 6.17 260 23:36 01.10.2022
1585 Clouds 12 996 90 10000 7.2 270 22:31 01.10.2022
1586 Clear 11 993 90 10000 4.47 202 19:58 01.10.2022
1587 Clouds 12 992 91 10000 6.26 229 17:46 01.10.2022
1588 Clouds 12 992 92 10000 6.71 203 16:28 01.10.2022
1589 Clouds 11 993 90 10000 8.23 200 14:19 01.10.2022
1590 Rain 11 993 85 10000 8.94 185 12:57 01.10.2022
1591 Rain 12 993 79 10000 9.39 188 12:29 01.10.2022
1592 Clear 12 995 80 10000 6.71 176 11:19 01.10.2022
1593 Clear 11 996 84 10000 4.92 171 10:30 01.10.2022
1594 Clear 10 997 82 10000 4.47 180 09:27 01.10.2022
1595 Clear 9 997 86 10000 4.12 170 08:41 01.10.2022
1596 Clear 9 1000 81 10000 1.34 135 03:55 01.10.2022
1597 Clear 9 1000 80 10000 0.51 0 03:28 01.10.2022
1598 Clear 11 1001 73 10000 3.58 174 23:33 30.09.2022
1599 Clear 11 1001 78 10000 2.68 174 22:32 30.09.2022
1600 Clear 12 1001 72 10000 4.02 176 21:22 30.09.2022
1601 Clear 11 1000 78 10000 3.13 179 20:43 30.09.2022
1602 Clear 13 1000 72 10000 2.68 186 19:32 30.09.2022
1603 Clear 16 1011 55 10000 4.47 238 17:27 30.09.2022
1604 Clouds 17 1011 53 10000 3.58 212 15:32 30.09.2022
1605 Clear 17 1011 60 10000 2.68 195 13:29 30.09.2022
1606 Clear 15 1010 67 10000 1.54 180 11:57 30.09.2022
1607 Clear 12 1011 84 10000 1.34 179 10:23 30.09.2022
1608 Mist 7 1007 82 6000 1.03 0 08:23 30.09.2022
1609 Fog 7 1006 81 2300 2.06 100 05:47 30.09.2022
1610 Clear 8 1005 80 10000 1.03 90 02:31 30.09.2022
1611 Clear 10 1004 69 10000 1.54 150 22:26 29.09.2022
1612 Clear 11 1004 69 10000 1.54 150 21:26 29.09.2022
1613 Clear 11 1004 67 10000 2.24 125 20:44 29.09.2022
1614 Clear 13 1004 73 10000 2.57 140 18:34 29.09.2022
1615 Clear 14 1004 67 10000 2.68 153 17:23 29.09.2022
1616 Clouds 14 1004 61 10000 2.68 150 16:28 29.09.2022
1617 Clouds 14 1003 67 10000 1.54 0 15:35 29.09.2022
1618 Clouds 14 1003 69 10000 2.68 143 14:29 29.09.2022
1619 Clouds 9 1002 87 9000 2.57 210 09:57 29.09.2022
1620 Clear 7 1001 90 10000 2.06 190 06:46 29.09.2022
1621 Fog 8 999 88 9000 2.57 230 02:47 29.09.2022
1622 Clouds 8 999 91 10000 3.13 244 23:55 28.09.2022
1623 Clear 9 999 86 10000 3.13 213 22:42 28.09.2022
1624 Clear 9 998 90 10000 3.6 230 21:29 28.09.2022
1625 Clouds 10 997 88 10000 3.13 258 20:22 28.09.2022
1626 Clouds 11 997 81 10000 3.58 222 18:31 28.09.2022
1627 Drizzle 12 996 75 10000 3.09 240 14:52 28.09.2022
1628 Clouds 12 996 75 10000 4.12 180 12:56 28.09.2022
1629 Clouds 11 996 80 10000 3.13 188 10:59 28.09.2022
1630 Clear 9 995 90 10000 2.06 190 09:18 28.09.2022
1631 Clouds 8 996 88 10000 3.58 190 07:19 28.09.2022
1632 Clouds 8 997 88 10000 3.09 190 03:18 28.09.2022
1633 Clouds 8 997 87 10000 3.13 182 01:35 28.09.2022
1634 Clear 9 997 86 10000 3.6 220 23:20 27.09.2022
1635 Clouds 9 997 86 10000 4.92 233 21:47 27.09.2022
1636 Clouds 10 996 86 10000 4.12 220 20:39 27.09.2022
1637 Clouds 11 996 85 10000 4.12 220 19:48 27.09.2022
1638 Clear 11 996 84 10000 4.92 240 18:49 27.09.2022
1639 Clouds 12 995 86 10000 6.17 240 17:46 27.09.2022
1640 Clouds 12 994 91 10000 5.66 250 15:58 27.09.2022
1641 Rain 11 994 90 10000 5.81 269 14:58 27.09.2022
1642 Clouds 12 994 90 10000 5.14 190 12:53 27.09.2022
1643 Clouds 12 994 87 10000 4.92 174 12:21 27.09.2022
1644 Rain 11 994 86 10000 5.14 160 09:34 27.09.2022
1645 Drizzle 11 994 83 10000 4.12 170 07:28 27.09.2022
1646 Clear 12 996 76 10000 4.63 150 02:51 27.09.2022
1647 Clear 12 997 75 10000 4.12 170 01:35 27.09.2022
1648 Rain 12 999 72 10000 4.47 168 23:38 26.09.2022
1649 Clear 12 999 71 10000 4.47 168 23:18 26.09.2022
1650 Clear 13 1000 66 10000 4.92 170 20:47 26.09.2022
1651 Clear 14 1001 65 10000 4.02 175 19:34 26.09.2022
1652 Clouds 15 1001 62 10000 5.14 200 18:35 26.09.2022
1653 Clear 16 1002 59 10000 5.36 210 16:58 26.09.2022
1654 Clouds 17 1003 60 10000 7.72 200 14:46 26.09.2022
1655 Clouds 16 1005 67 10000 5.14 200 11:37 26.09.2022
1656 Clear 14 1005 73 10000 5.36 217 10:41 26.09.2022
1657 Clear 14 1005 76 10000 4.12 200 10:22 26.09.2022
1658 Clear 14 1005 80 10000 4.12 180 09:56 26.09.2022
1659 Clear 12 1006 82 10000 4.02 194 09:25 26.09.2022
1660 Clear 12 1006 85 10000 3.09 180 08:58 26.09.2022
1661 Clear 11 1007 90 10000 2.57 270 03:48 26.09.2022
1662 Clear 12 1008 89 10000 3.6 290 01:52 26.09.2022
1663 Clear 13 1007 84 10000 3.58 265 23:23 25.09.2022
1664 Clear 14 1009 81 10000 3.6 270 21:44 25.09.2022
1665 Clouds 14 1009 82 10000 3.6 280 20:57 25.09.2022
1666 Clouds 15 1009 81 10000 3.09 270 20:33 25.09.2022
1667 Clouds 17 1009 71 10000 3.09 300 18:49 25.09.2022
1668 Clouds 17 1009 69 10000 3.13 277 18:24 25.09.2022
1669 Clear 18 1010 68 10000 1.54 230 17:22 25.09.2022
1670 Clouds 19 1010 64 10000 2.24 274 15:59 25.09.2022
1671 Clear 18 1011 67 10000 1.79 271 14:37 25.09.2022
1672 Clear 18 1011 65 10000 2.24 225 14:18 25.09.2022
1673 Clear 14 1012 80 10000 1.34 113 10:40 25.09.2022
1674 Clear 13 1012 84 10000 1.34 113 09:37 25.09.2022
1675 Clear 11 1012 87 10000 2.06 60 07:41 25.09.2022
1676 Clear 12 1012 85 10000 1.79 69 05:22 25.09.2022
1677 Clear 13 1013 85 10000 3.13 47 23:37 24.09.2022
1678 Clear 13 1013 83 10000 4.02 38 21:20 24.09.2022
1679 Clear 14 1013 83 10000 3.09 20 19:45 24.09.2022
1680 Clear 14 1013 82 10000 2.68 38 19:20 24.09.2022
1681 Clear 17 1011 69 10000 2.57 40 16:56 24.09.2022
1682 Clouds 17 1011 67 10000 1.34 114 15:29 24.09.2022
1683 Rain 17 1011 67 10000 1.54 0 14:47 24.09.2022
1684 Clear 16 1011 65 10000 4.02 99 13:22 24.09.2022
1685 Clear 15 1011 70 10000 2.06 90 12:25 24.09.2022
1686 Clear 12 1010 79 10000 2.24 124 09:59 24.09.2022
1687 Clear 11 1011 80 10000 1.03 0 08:58 24.09.2022
1688 Clear 10 1011 82 10000 1.79 100 07:42 24.09.2022
1689 Clear 10 1013 86 10000 2.06 110 04:55 24.09.2022
1690 Clear 10 1014 85 10000 1.54 110 04:25 24.09.2022
1691 Clear 11 1014 77 10000 2.06 120 23:18 23.09.2022
1692 Clear 12 1014 73 10000 3.13 130 21:41 23.09.2022
1693 Clear 13 1013 69 10000 3.13 130 21:22 23.09.2022
1694 Clear 13 1016 75 10000 2.57 120 20:54 23.09.2022
1695 Clear 14 1016 69 10000 2.24 111 19:20 23.09.2022
1696 Clear 16 1016 59 10000 2.68 149 17:42 23.09.2022
1697 Clear 17 1017 58 10000 2.68 196 13:40 23.09.2022
1698 Clear 13 1017 74 10000 2.68 170 10:22 23.09.2022
1699 Clouds 8 1016 72 10000 0.89 63 07:43 23.09.2022
1700 Clear 9 1019 75 10000 1.03 90 02:32 23.09.2022
1701 Clear 10 1020 75 10000 0.89 132 23:29 22.09.2022
1702 Clear 10 1023 84 10000 2.24 65 22:28 22.09.2022
1703 Clear 10 1023 81 10000 1.03 0 21:35 22.09.2022
1704 Clear 12 1021 73 10000 1.34 129 20:25 22.09.2022
1705 Clear 14 1021 65 10000 2.57 140 18:58 22.09.2022
1706 Clouds 17 1024 57 10000 2.68 28 15:39 22.09.2022
1707 Clear 15 1023 77 10000 2.24 104 10:55 22.09.2022
1708 Clear 13 1023 83 10000 2.06 110 10:19 22.09.2022
1709 Clear 9 1025 90 10000 1.03 20 08:20 22.09.2022
1710 Clouds 8 1023 88 10000 2.24 10 06:18 22.09.2022
1711 Clear 11 1025 86 10000 1.54 350 01:27 22.09.2022
1712 Clear 12 1023 76 10000 1.54 360 22:29 21.09.2022
1713 Clear 13 1023 72 10000 2.68 290 21:24 21.09.2022
1714 Clear 14 1024 73 10000 3.6 310 19:22 21.09.2022
1715 Clear 16 1024 65 10000 3.6 290 17:45 21.09.2022
1716 Clouds 17 1025 63 10000 4.92 301 16:20 21.09.2022
1717 Clouds 17 1024 71 10000 3.58 333 13:56 21.09.2022
1718 Clear 14 1024 83 10000 3.13 308 11:44 21.09.2022
1719 Clear 13 1023 87 10000 2.57 300 11:21 21.09.2022
1720 Clear 10 1023 90 10000 2.57 270 09:44 21.09.2022
1721 Clear 9 1023 93 10000 1.79 247 08:50 21.09.2022
1722 Mist 8 1024 94 8000 2.68 263 05:53 21.09.2022
1723 Mist 8 1024 94 9000 2.68 264 02:42 21.09.2022
1724 Mist 8 1024 94 10000 1.79 250 02:19 21.09.2022
1725 Clear 8 1021 91 10000 2.06 280 00:20 21.09.2022
1726 Clear 10 1020 91 10000 2.68 285 21:55 20.09.2022
1727 Clear 10 1021 92 10000 3.13 306 20:34 20.09.2022
1728 Clouds 11 1021 88 10000 3.6 330 19:24 20.09.2022
1729 Clouds 13 1020 78 10000 5.36 290 15:58 20.09.2022
1730 Clouds 15 1016 86 10000 6.69 350 14:34 20.09.2022
1731 Clouds 15 1016 74 10000 6.26 299 12:41 20.09.2022
1732 Clear 10 1018 94 10000 4.63 280 08:51 20.09.2022
1733 Clear 9 1017 95 10000 3.09 270 08:25 20.09.2022
1734 Clear 8 1016 95 10000 3.09 280 04:44 20.09.2022
1735 Clear 9 1014 89 10000 3.09 280 02:37 20.09.2022
1736 Clear 10 1015 92 10000 2.06 300 22:51 19.09.2022
1737 Clouds 11 1014 92 10000 3.58 271 21:39 19.09.2022
1738 Clear 11 1012 86 10000 4.12 270 20:47 19.09.2022
1739 Clear 11 1011 85 10000 5.81 280 19:42 19.09.2022
1740 Clouds 13 1008 79 10000 3.6 260 17:39 19.09.2022
1741 Rain 16 1010 80 10000 3.13 272 14:18 19.09.2022
1742 Rain 14 1009 74 10000 7.15 293 12:56 19.09.2022
1743 Clouds 13 1009 89 10000 5.66 290 10:48 19.09.2022
1744 Clouds 10 1006 88 10000 4.12 290 08:51 19.09.2022
1745 Clouds 9 1008 94 10000 5.14 280 05:53 19.09.2022
1746 Clouds 9 1007 95 10000 2.57 260 01:54 19.09.2022
1747 Clouds 9 1004 87 10000 5.14 250 23:22 18.09.2022
1748 Clouds 9 1004 86 10000 4.47 234 21:43 18.09.2022
1749 Rain 9 1004 83 10000 1.79 262 20:25 18.09.2022
1750 Clear 12 1006 75 10000 5.66 250 18:18 18.09.2022
1751 Clouds 13 1006 74 10000 4.63 250 17:37 18.09.2022
1752 Clouds 14 1006 68 10000 4.12 260 15:46 18.09.2022
1753 Clouds 14 1005 70 10000 7.2 280 13:51 18.09.2022
1754 Clouds 14 1005 73 10000 10.29 270 12:35 18.09.2022
1755 Clouds 13 1005 77 10000 9.26 280 11:24 18.09.2022
1756 Rain 10 1005 94 10000 5.14 300 04:28 18.09.2022
1757 Clouds 11 1005 90 10000 3.13 273 01:26 18.09.2022
1758 Clouds 10 1004 92 10000 3.09 260 00:24 18.09.2022
1759 Drizzle 11 1005 85 5000 3.6 240 21:44 17.09.2022
1760 Clouds 12 1005 76 10000 7.72 270 19:51 17.09.2022
1761 Clouds 13 1005 72 10000 9.39 263 18:59 17.09.2022
1762 Clouds 15 1004 63 10000 6.69 270 16:52 17.09.2022
1763 Clouds 15 1005 74 10000 9.39 277 13:57 17.09.2022
1764 Clouds 15 1004 78 10000 8.94 270 11:55 17.09.2022
1765 Mist 12 1004 91 10000 6.26 273 09:40 17.09.2022
1766 Clouds 12 1003 92 10000 4.63 260 06:27 17.09.2022
1767 Drizzle 11 1002 95 10000 6.69 270 02:34 17.09.2022
1768 Rain 11 1002 86 10000 7.2 260 22:58 16.09.2022
1769 Rain 14 1003 66 10000 7.2 250 21:32 16.09.2022
1770 Clear 14 1003 63 10000 8.05 254 20:31 16.09.2022
1771 Clear 17 1003 52 10000 8.23 260 17:52 16.09.2022
1772 Clear 17 1003 52 10000 8.23 260 17:52 16.09.2022
1773 Clouds 18 1003 48 10000 9.77 260 15:57 16.09.2022
1774 Clouds 17 1004 53 10000 9.26 280 14:32 16.09.2022
1775 Clouds 16 1005 70 10000 8.05 270 11:56 16.09.2022
1776 Clouds 12 1005 85 10000 7.2 260 09:21 16.09.2022
1777 Clouds 10 1005 91 10000 5.66 250 07:21 16.09.2022
1778 Clouds 11 1005 90 10000 5.66 250 06:47 16.09.2022
1779 Clouds 11 1005 92 10000 4.63 250 04:42 16.09.2022
1780 Clear 13 1004 84 10000 3.6 260 23:50 15.09.2022
1781 Clear 14 1004 81 10000 5.66 270 21:24 15.09.2022
1782 Clear 14 1003 77 10000 5.14 260 20:25 15.09.2022
1783 Clouds 15 1003 74 10000 8.23 300 18:53 15.09.2022
1784 Clouds 18 1003 65 10000 8.49 255 17:34 15.09.2022
1785 Clouds 18 1003 66 10000 8.23 260 16:54 15.09.2022
1786 Clouds 18 1003 66 10000 7.72 280 14:58 15.09.2022
1787 Clouds 18 1003 70 10000 6.17 260 12:49 15.09.2022
1788 Clouds 15 1003 84 10000 6.71 287 10:34 15.09.2022
1789 Clouds 14 1003 87 10000 5.66 260 09:42 15.09.2022
1790 Clear 12 1002 94 10000 3.09 250 04:46 15.09.2022
1791 Clear 13 1003 91 10000 2.68 275 02:18 15.09.2022
1792 Clear 15 1003 83 10000 1.54 270 22:26 14.09.2022
1793 Clear 16 1003 79 10000 2.68 254 20:24 14.09.2022
1794 Clear 17 1004 77 10000 3.09 250 19:32 14.09.2022
1795 Clear 18 1004 71 10000 3.58 245 17:28 14.09.2022
1796 Clear 19 1004 69 10000 3.6 250 16:36 14.09.2022
1797 Clouds 19 1005 66 10000 3.6 260 14:46 14.09.2022
1798 Clouds 18 1006 67 10000 4.47 264 12:24 14.09.2022
1799 Clear 15 1006 87 10000 2.24 270 09:50 14.09.2022
1800 Clear 12 1006 91 10000 2.68 264 07:47 14.09.2022
1801 Clear 12 1005 92 10000 2.06 260 06:48 14.09.2022
1802 Clear 12 1005 90 10000 2.68 278 06:23 14.09.2022
1803 Clear 13 1007 91 10000 3.58 274 01:55 14.09.2022
1804 Clear 13 1007 90 10000 3.58 274 01:30 14.09.2022
1805 Clear 14 1007 91 10000 2.68 278 00:52 14.09.2022
1806 Clear 15 1005 88 10000 2.57 260 23:54 13.09.2022
1807 Clear 15 1005 88 10000 2.68 273 23:36 13.09.2022
1808 Clear 15 1005 89 10000 2.68 276 23:18 13.09.2022
1809 Clear 16 1007 92 10000 2.68 260 22:22 13.09.2022
1810 Clear 17 1005 88 10000 3.6 240 20:41 13.09.2022
1811 Clouds 19 1005 82 10000 4.12 250 18:37 13.09.2022
1812 Clouds 19 1006 85 10000 4.47 272 15:58 13.09.2022
1813 Clouds 18 1006 86 10000 4.12 250 14:50 13.09.2022
1814 Clouds 19 1006 80 10000 5.81 227 13:31 13.09.2022
1815 Clouds 15 1005 89 10000 3.6 210 09:51 13.09.2022
1816 Rain 13 1007 89 10000 3.58 170 07:47 13.09.2022
1817 Clear 13 1014 90 10000 2.57 150 00:58 13.09.2022
1818 Clear 14 1014 87 10000 2.24 157 23:21 12.09.2022
1819 Clear 15 1014 85 10000 2.57 140 22:26 12.09.2022
1820 Clear 16 1015 79 10000 1.79 180 20:54 12.09.2022
1821 Clear 18 1015 74 10000 2.06 180 19:31 12.09.2022
1822 Clear 20 1016 63 10000 1.79 265 17:47 12.09.2022
1823 Clouds 21 1016 61 10000 2.06 0 15:48 12.09.2022
1824 Clouds 20 1017 68 10000 1.34 339 12:26 12.09.2022
1825 Clear 17 1018 81 10000 1.54 310 10:27 12.09.2022
1826 Clear 11 1017 96 10000 1.54 290 07:21 12.09.2022
1827 Clear 12 1017 95 10000 1.54 290 04:35 12.09.2022
1828 Clear 13 1017 92 10000 2.24 324 01:53 12.09.2022
1829 Clouds 14 1017 93 10000 1.54 270 22:46 11.09.2022
1830 Clear 15 1017 92 10000 1.34 63 21:26 11.09.2022
1831 Clouds 16 1017 90 10000 2.24 59 20:44 11.09.2022
1832 Clear 17 1015 85 10000 1.79 44 19:39 11.09.2022
1833 Clear 18 1014 84 10000 1.79 44 19:18 11.09.2022
1834 Rain 20 1016 75 10000 4.12 320 17:29 11.09.2022
1835 Clouds 20 1014 71 10000 4.63 300 15:51 11.09.2022
1836 Clouds 19 1014 78 10000 4.47 314 13:26 11.09.2022
1837 Clouds 18 1014 83 10000 3.6 340 11:35 11.09.2022
1838 Clouds 14 1014 94 8000 2.68 293 08:25 11.09.2022
1839 Mist 14 1013 94 10000 2.24 338 05:49 11.09.2022
1840 Clear 15 1012 90 10000 2.24 258 00:23 11.09.2022
1841 Clear 16 1012 86 10000 2.24 283 22:23 10.09.2022
1842 Clouds 18 1012 83 10000 3.13 278 20:35 10.09.2022
1843 Clear 18 1012 82 10000 3.13 278 20:35 10.09.2022
1844 Clear 19 1011 77 10000 4.02 270 19:45 10.09.2022
1845 Clouds 19 1011 75 10000 3.09 280 19:25 10.09.2022
1846 Clouds 20 1011 73 10000 5.36 269 17:51 10.09.2022
1847 Clouds 22 1011 60 10000 2.68 252 15:44 10.09.2022
1848 Clouds 22 1012 66 10000 3.13 280 14:34 10.09.2022
1849 Clouds 22 1009 65 10000 3.13 267 12:52 10.09.2022
1850 Clear 19 1010 77 10000 2.06 250 10:35 10.09.2022
1851 Clear 15 1010 90 10000 3.58 202 08:42 10.09.2022
1852 Clear 13 1010 92 10000 2.57 190 08:23 10.09.2022
1853 Clear 13 1010 90 10000 2.68 189 05:25 10.09.2022
1854 Clear 16 1010 84 10000 3.6 170 23:52 09.09.2022
1855 Clear 16 1010 82 10000 3.6 160 23:19 09.09.2022
1856 Clear 17 1010 81 10000 4.47 145 21:24 09.09.2022
1857 Clouds 19 1009 76 10000 3.58 129 20:28 09.09.2022
1858 Clear 20 1009 75 10000 3.58 117 19:23 09.09.2022
1859 Clear 21 1008 69 10000 3.58 120 18:33 09.09.2022
1860 Rain 23 1009 66 10000 3.58 229 16:18 09.09.2022
1861 Clouds 23 1010 68 10000 3.6 170 13:47 09.09.2022
1862 Clear 20 1010 77 10000 4.02 196 11:52 09.09.2022
1863 Clear 16 1009 92 10000 3.6 210 09:21 09.09.2022
1864 Clear 13 1010 97 10000 2.57 170 03:48 09.09.2022
1865 Clear 15 1008 94 10000 2.57 190 00:46 09.09.2022
1866 Rain 16 1007 93 10000 4.63 220 21:52 08.09.2022
1867 Rain 17 1006 93 10000 4.63 230 20:51 08.09.2022
1868 Clouds 17 1006 93 10000 4.63 230 20:29 08.09.2022
1869 Clouds 17 1005 92 10000 5.14 220 19:39 08.09.2022
1870 Rain 17 1005 92 5000 2.57 150 17:44 08.09.2022
1871 Rain 17 1005 91 8000 2.57 100 16:19 08.09.2022
1872 Clouds 17 1007 90 10000 2.68 77 14:37 08.09.2022
1873 Rain 17 1007 86 10000 4.02 186 13:23 08.09.2022
1874 Clouds 17 1007 76 10000 3.13 60 11:37 08.09.2022
1875 Clear 17 1007 72 10000 3.6 90 10:23 08.09.2022
1876 Clear 15 1007 68 10000 4.63 80 07:57 08.09.2022
1877 Clear 15 1009 70 10000 4.12 70 06:41 08.09.2022
1878 Clear 17 1011 73 10000 3.09 70 02:36 08.09.2022
1879 Clear 17 1011 73 10000 4.12 60 02:18 08.09.2022
1880 Clear 18 1012 74 10000 3.6 50 00:27 08.09.2022
1881 Clear 19 1012 74 10000 3.58 75 22:42 07.09.2022
1882 Clear 20 1013 76 10000 3.13 78 21:42 07.09.2022
1883 Clear 20 1012 76 10000 2.68 64 20:42 07.09.2022
1884 Clouds 23 1012 73 2300 11.62 210 19:36 07.09.2022
1885 Clear 25 1010 57 10000 6.26 102 17:49 07.09.2022
1886 Clear 24 1012 61 10000 5.81 112 12:52 07.09.2022
1887 Clear 20 1015 64 10000 4.12 100 10:47 07.09.2022
1888 Clear 16 1013 66 10000 4.63 90 08:38 07.09.2022
1889 Clear 14 1014 68 10000 4.92 73 07:23 07.09.2022
1890 Clear 16 1015 62 10000 3.6 90 03:19 07.09.2022
1891 Clear 19 1016 58 10000 4.47 85 22:59 06.09.2022
1892 Clear 19 1016 55 10000 4.47 109 21:41 06.09.2022
1893 Clear 20 1016 58 10000 4.63 100 20:24 06.09.2022
1894 Clear 22 1016 57 10000 7.15 108 18:45 06.09.2022
1895 Clear 22 1018 57 10000 7.15 108 18:22 06.09.2022
1896 Clear 23 1019 56 10000 6.17 110 17:22 06.09.2022
1897 Clear 23 1019 55 10000 6.71 108 16:37 06.09.2022
1898 Clear 22 1018 51 10000 5.14 110 15:22 06.09.2022
1899 Clouds 21 1018 57 10000 7.2 90 13:45 06.09.2022
1900 Clouds 21 1018 56 10000 7.2 90 13:45 06.09.2022
1901 Clear 21 1018 57 10000 6.71 109 13:24 06.09.2022
1902 Clear 20 1019 59 10000 5.81 93 11:59 06.09.2022
1903 Clear 19 1019 56 10000 6.26 76 10:41 06.09.2022
1904 Clear 16 1020 63 10000 6.71 78 08:50 06.09.2022
1905 Clear 14 1020 61 10000 5.14 80 07:45 06.09.2022
1906 Clear 15 1020 55 10000 5.14 80 03:31 06.09.2022
1907 Clear 18 1021 57 10000 4.47 81 23:27 05.09.2022
1908 Clear 19 1021 58 10000 4.02 79 22:21 05.09.2022
1909 Clear 20 1021 60 10000 4.12 90 20:43 05.09.2022
1910 Clear 22 1023 57 10000 6.26 86 19:26 05.09.2022
1911 Clear 23 1022 58 10000 6.17 90 18:46 05.09.2022
1912 Clear 23 1023 55 10000 6.17 90 18:21 05.09.2022
1913 Clear 25 1023 52 10000 6.26 102 16:43 05.09.2022
1914 Clouds 25 1024 48 10000 6.26 92 15:50 05.09.2022
1915 Clear 24 1022 52 10000 6.26 100 13:26 05.09.2022
1916 Clear 23 1023 54 10000 7.2 100 12:28 05.09.2022
1917 Clear 19 1025 66 10000 5.66 90 10:24 05.09.2022
1918 Clear 14 1022 71 10000 4.12 70 06:46 05.09.2022
1919 Clear 16 1022 64 10000 4.12 70 02:49 05.09.2022
1920 Clear 18 1022 60 10000 4.12 80 23:28 04.09.2022
1921 Clear 18 1021 59 10000 3.6 70 22:28 04.09.2022
1922 Clear 18 1023 60 10000 3.09 70 21:40 04.09.2022
1923 Clear 22 1020 48 10000 4.63 90 19:39 04.09.2022
1924 Clear 23 1021 45 10000 4.63 90 18:21 04.09.2022
1925 Clear 24 1021 43 10000 4.63 110 17:22 04.09.2022
1926 Clear 24 1021 46 10000 4.63 100 14:56 04.09.2022
1927 Clear 24 1019 49 10000 6.17 110 14:21 04.09.2022
1928 Clear 23 1020 52 10000 5.81 113 12:24 04.09.2022
1929 Clear 20 1020 56 10000 4.63 90 10:57 04.09.2022
1930 Clear 17 1021 61 10000 5.36 80 09:23 04.09.2022
1931 Clear 14 1017 64 10000 4.12 80 06:24 04.09.2022
1932 Clear 17 1017 57 10000 3.6 70 01:56 04.09.2022
1933 Clear 18 1016 52 10000 3.6 80 22:26 03.09.2022
1934 Clear 18 1016 52 10000 3.6 80 22:26 03.09.2022
1935 Clear 18 1016 52 10000 3.6 80 22:26 03.09.2022
1936 Clear 19 1015 55 10000 3.13 88 21:24 03.09.2022
1937 Clear 19 1015 53 10000 4.47 102 20:51 03.09.2022
1938 Clear 22 1015 43 10000 7.72 130 17:37 03.09.2022
1939 Clear 23 1015 42 10000 7.2 130 16:49 03.09.2022
1940 Clear 22 1016 45 10000 6.69 90 14:47 03.09.2022
1941 Clear 22 1016 44 10000 6.69 110 14:28 03.09.2022
1942 Clear 22 1016 44 10000 7.72 120 13:44 03.09.2022
1943 Clear 20 1017 57 10000 6.26 93 11:31 03.09.2022
1944 Clear 14 1017 70 10000 5.81 90 08:57 03.09.2022
1945 Clear 12 1017 72 10000 5.14 70 07:23 03.09.2022
1946 Clear 12 1017 70 10000 4.47 77 04:48 03.09.2022
1947 Clear 13 1017 66 10000 4.12 80 02:35 03.09.2022
1948 Clear 16 1017 60 10000 4.02 93 23:35 02.09.2022
1949 Clear 17 1017 57 10000 4.63 80 21:57 02.09.2022
1950 Clear 18 1017 57 10000 4.12 80 20:42 02.09.2022
1951 Clear 20 1016 48 10000 4.92 107 19:47 02.09.2022
1952 Clear 21 1017 47 10000 4.63 100 18:50 02.09.2022
1953 Clear 21 1019 48 10000 3.6 80 18:24 02.09.2022
1954 Clear 22 1019 47 10000 5.14 110 17:23 02.09.2022
1955 Clear 23 1016 41 10000 5.81 83 16:31 02.09.2022
1956 Clear 23 1016 41 10000 5.81 83 16:31 02.09.2022
1957 Clouds 21 1019 46 10000 4.12 120 13:25 02.09.2022
1958 Clear 20 1019 60 10000 3.6 100 10:43 02.09.2022
1959 Clear 17 1019 66 10000 3.13 71 09:42 02.09.2022
1960 Clear 14 1020 78 10000 4.02 71 08:45 02.09.2022
1961 Clear 12 1020 80 10000 2.68 73 06:46 02.09.2022
1962 Clear 13 1020 79 10000 2.57 70 06:21 02.09.2022
1963 Clear 15 1021 71 10000 2.68 58 00:20 02.09.2022
1964 Clear 16 1022 69 10000 2.24 59 21:56 01.09.2022
1965 Clear 17 1022 69 10000 2.57 50 21:37 01.09.2022
1966 Clear 17 1022 67 10000 2.68 52 21:18 01.09.2022
1967 Clear 18 1022 63 10000 3.6 70 20:23 01.09.2022
1968 Clear 21 1022 56 10000 5.36 34 18:20 01.09.2022
1969 Clear 21 1022 51 10000 4.63 50 16:54 01.09.2022
1970 Clear 21 1023 48 10000 4.12 30 15:22 01.09.2022
1971 Clear 21 1022 55 10000 4.63 50 13:27 01.09.2022
1972 Clouds 21 1023 54 10000 5.14 50 12:55 01.09.2022
1973 Clear 21 1020 56 10000 5.36 64 11:51 01.09.2022
1974 Clear 20 1020 59 10000 4.12 50 11:20 01.09.2022
1975 Clear 17 1023 71 10000 3.6 50 09:32 01.09.2022
1976 Clear 13 1021 83 10000 4.02 24 07:31 01.09.2022
1977 Clear 15 1021 76 10000 4.02 47 03:59 01.09.2022
1978 Clear 15 1021 74 10000 4.92 43 01:30 01.09.2022
1979 Clear 15 1021 74 10000 4.92 43 01:30 01.09.2022
1980 Clear 15 1021 74 10000 4.92 43 01:30 01.09.2022
1981 Clear 15 1021 74 10000 4.92 43 01:30 01.09.2022
1982 Clear 17 1021 67 10000 4.12 40 22:50 31.08.2022
1983 Clear 19 1022 66 10000 4.12 20 20:45 31.08.2022
1984 Clear 21 1022 52 10000 3.6 60 18:47 31.08.2022
1985 Clear 22 1022 52 10000 4.92 41 16:47 31.08.2022
1986 Clear 22 1022 53 10000 3.6 30 15:28 31.08.2022
1987 Clouds 21 1023 60 10000 4.92 58 13:37 31.08.2022
1988 Clouds 21 1022 60 10000 5.14 40 11:55 31.08.2022
1989 Clear 17 1021 76 10000 5.14 50 09:36 31.08.2022
1990 Clouds 15 1021 86 10000 3.09 40 08:26 31.08.2022
1991 Clear 14 1021 85 10000 3.6 20 02:58 31.08.2022
1992 Clear 17 1020 78 10000 4.02 52 22:29 30.08.2022
1993 Clear 17 1020 78 10000 4.02 52 22:29 30.08.2022
1994 Clouds 18 1020 76 10000 3.09 30 21:29 30.08.2022
1995 Clear 19 1019 75 10000 3.58 22 20:35 30.08.2022
1996 Clear 21 1021 74 10000 6.17 30 17:24 30.08.2022
1997 Clouds 22 1020 66 10000 3.6 30 14:19 30.08.2022
1998 Clouds 19 1020 79 10000 2.68 66 12:25 30.08.2022
1999 Clouds 19 1020 83 10000 1.34 40 11:20 30.08.2022
2000 Clouds 18 1020 88 10000 1.54 70 10:20 30.08.2022
2001 Clouds 15 1019 90 10000 1.34 36 06:49 30.08.2022
2002 Clear 16 1019 88 10000 1.54 20 01:44 30.08.2022
2003 Clouds 17 1018 84 10000 1.79 0 22:44 29.08.2022
2004 Clear 18 1018 83 10000 1.34 338 21:55 29.08.2022
2005 Clear 18 1017 80 10000 1.54 360 21:23 29.08.2022
2006 Clear 18 1017 79 10000 1.54 360 21:23 29.08.2022
2007 Clouds 21 1017 69 10000 4.02 333 19:42 29.08.2022
2008 Clouds 22 1019 71 10000 4.92 280 17:42 29.08.2022
2009 Clouds 23 1018 69 10000 4.63 260 17:24 29.08.2022
2010 Clouds 23 1014 60 10000 5.66 260 15:41 29.08.2022
2011 Clouds 21 1014 61 10000 5.66 260 14:18 29.08.2022
2012 Clouds 20 1020 76 10000 6.17 260 12:42 29.08.2022
2013 Clouds 17 1015 78 10000 5.14 250 10:51 29.08.2022
2014 Clouds 16 1016 79 10000 4.63 250 09:41 29.08.2022
2015 Clouds 14 1015 84 10000 3.6 260 08:27 29.08.2022
2016 Clear 14 1016 82 10000 3.58 260 02:42 29.08.2022
2017 Clear 16 1016 75 10000 3.6 300 23:52 28.08.2022
2018 Clear 17 1015 72 10000 4.12 320 22:22 28.08.2022
2019 Clear 18 1014 68 10000 2.68 309 21:40 28.08.2022
2020 Clear 19 1015 74 10000 3.13 299 20:43 28.08.2022
2021 Clouds 21 1014 70 10000 4.12 290 18:51 28.08.2022
2022 Clouds 22 1014 71 10000 3.09 320 18:20 28.08.2022
2023 Clouds 23 1013 67 10000 5.14 320 16:57 28.08.2022
2024 Clouds 22 1011 51 10000 5.14 290 15:55 28.08.2022
2025 Clouds 21 1017 61 10000 5.66 300 14:21 28.08.2022
2026 Clouds 21 1011 61 10000 5.14 310 12:31 28.08.2022
2027 Clouds 18 1013 83 10000 5.66 280 10:42 28.08.2022
2028 Clouds 17 1010 86 10000 5.14 280 09:41 28.08.2022
2029 Clouds 16 1012 90 10000 4.92 295 08:36 28.08.2022
2030 Clouds 17 1012 90 10000 3.6 300 07:42 28.08.2022
2031 Rain 18 1011 92 10000 4.02 306 02:31 28.08.2022
2032 Rain 19 1011 90 10000 4.47 334 00:25 28.08.2022
2033 Clouds 20 1011 87 10000 5.66 340 22:32 27.08.2022
2034 Clouds 20 1010 87 10000 5.66 330 21:28 27.08.2022
2035 Clouds 21 1009 87 10000 5.36 320 19:40 27.08.2022
2036 Clouds 24 1009 82 10000 3.58 315 16:48 27.08.2022
2037 Clouds 24 1009 82 10000 2.68 330 15:52 27.08.2022
2038 Clouds 23 1009 84 10000 2.24 315 15:23 27.08.2022
2039 Clouds 22 1009 82 10000 3.6 330 12:23 27.08.2022
2040 Rain 21 1008 93 10000 3.6 310 11:25 27.08.2022
2041 Clouds 20 1009 94 10000 2.68 340 09:42 27.08.2022
2042 Fog 19 1008 95 1000 3.13 308 07:37 27.08.2022
2043 Clear 19 1009 96 10000 2.68 36 02:34 27.08.2022
2044 Clouds 20 1009 93 9000 2.24 356 23:56 26.08.2022
2045 Clouds 20 1009 93 6000 2.06 280 22:37 26.08.2022
2046 Clear 20 1008 92 10000 2.06 290 20:42 26.08.2022
2047 Rain 22 1006 81 10000 3.09 90 19:23 26.08.2022
2048 Rain 26 1010 77 10000 0.67 41 16:50 26.08.2022
2049 Rain 22 1011 78 4700 7.2 270 15:31 26.08.2022
2050 Rain 32 1012 54 10000 2.24 102 14:30 26.08.2022
2051 Clouds 29 1011 66 10000 3.13 93 12:49 26.08.2022
2052 Clear 28 1011 69 10000 2.24 73 11:27 26.08.2022
2053 Clouds 27 1010 67 10000 2.06 80 10:46 26.08.2022
2054 Clouds 20 1012 88 10000 2.06 30 07:28 26.08.2022
2055 Clear 21 1013 84 10000 2.68 50 02:30 26.08.2022
2056 Clear 22 1013 81 10000 2.68 40 23:41 25.08.2022
2057 Clear 24 1014 76 10000 3.09 70 21:37 25.08.2022
2058 Clear 25 1014 73 10000 3.58 79 20:30 25.08.2022
2059 Clouds 27 1014 65 10000 5.14 80 18:55 25.08.2022
2060 Clouds 27 1015 65 10000 5.14 70 17:59 25.08.2022
2061 Clouds 28 1015 65 10000 4.92 53 17:31 25.08.2022
2062 Clouds 28 1016 67 10000 4.47 40 15:43 25.08.2022
2063 Clouds 27 1016 69 10000 4.47 40 15:25 25.08.2022
2064 Clouds 26 1014 67 10000 4.63 60 12:40 25.08.2022
2065 Clouds 27 1012 46 10000 3.09 50 10:48 25.08.2022
2066 Clouds 20 1018 91 7000 4.63 60 09:20 25.08.2022
2067 Clear 19 1018 90 10000 3.13 24 05:39 25.08.2022
2068 Clear 20 1018 87 10000 2.57 40 01:43 25.08.2022
2069 Clear 21 1019 82 10000 3.6 40 23:27 24.08.2022
2070 Clear 22 1019 80 10000 3.13 40 22:41 24.08.2022
2071 Clear 23 1019 78 10000 3.13 59 21:36 24.08.2022
2072 Clear 24 1019 75 10000 3.58 70 20:55 24.08.2022
2073 Clouds 26 1018 66 10000 4.63 70 19:24 24.08.2022
2074 Clouds 27 1018 64 10000 2.68 1 16:47 24.08.2022
2075 Clouds 27 1018 61 10000 4.47 63 15:52 24.08.2022
2076 Clouds 26 1019 71 10000 2.68 36 13:48 24.08.2022
2077 Clouds 23 1017 69 10000 3.09 360 11:59 24.08.2022
2078 Clouds 22 1019 80 10000 2.68 6 11:18 24.08.2022
2079 Clouds 18 1018 91 6000 0.89 272 08:28 24.08.2022
2080 Clear 17 1018 91 10000 1.79 42 03:44 24.08.2022
2081 Clear 19 1018 81 10000 2.68 35 23:47 23.08.2022
2082 Clear 20 1018 77 10000 2.68 40 22:35 23.08.2022
2083 Clear 21 1017 76 10000 3.58 45 21:46 23.08.2022
2084 Clear 23 1016 65 10000 3.13 50 20:33 23.08.2022
2085 Clouds 24 1016 60 10000 3.6 60 18:55 23.08.2022
2086 Clouds 25 1016 57 10000 4.63 40 17:53 23.08.2022
2087 Clouds 26 1016 56 10000 4.12 20 17:18 23.08.2022
2088 Clouds 25 1016 60 10000 5.14 20 15:52 23.08.2022
2089 Clouds 24 1016 65 10000 5.66 30 13:50 23.08.2022
2090 Clear 23 1016 66 10000 5.14 10 12:46 23.08.2022
2091 Clear 21 1016 77 10000 4.47 21 10:57 23.08.2022
2092 Clear 21 1016 79 10000 4.47 21 10:32 23.08.2022
2093 Clear 19 1016 84 10000 4.47 7 08:55 23.08.2022
2094 Clear 18 1016 85 10000 3.6 10 08:22 23.08.2022
2095 Clear 18 1015 83 10000 3.6 20 07:52 23.08.2022
2096 Clear 18 1015 83 10000 3.58 13 07:25 23.08.2022
2097 Clear 18 1015 84 10000 2.57 360 06:22 23.08.2022
2098 Clouds 18 1016 83 10000 2.57 30 01:44 23.08.2022
2099 Clear 19 1015 76 10000 2.68 70 00:26 23.08.2022
2100 Clear 19 1016 74 10000 2.68 62 23:32 22.08.2022
2101 Clear 20 1015 69 10000 2.68 80 22:24 22.08.2022
2102 Clear 21 1014 61 10000 4.12 90 20:29 22.08.2022
2103 Clear 22 1015 63 10000 5.14 90 19:41 22.08.2022
2104 Clouds 23 1015 58 10000 4.47 77 18:37 22.08.2022
2105 Clouds 24 1015 50 10000 4.92 64 15:46 22.08.2022
2106 Clouds 24 1015 50 10000 5.36 63 15:18 22.08.2022
2107 Clear 23 1015 63 10000 4.63 50 11:45 22.08.2022
2108 Clear 19 1015 79 10000 0.89 45 09:24 22.08.2022
2109 Clear 15 1013 85 10000 0.51 320 05:51 22.08.2022
2110 Clear 16 1013 83 10000 1.79 41 02:28 22.08.2022
2111 Clear 16 1014 83 10000 1.34 29 00:36 22.08.2022
2112 Clear 18 1014 76 10000 1.03 100 23:32 21.08.2022
2113 Clear 19 1013 72 10000 2.57 90 21:56 21.08.2022
2114 Clear 20 1013 70 10000 1.34 41 21:20 21.08.2022
2115 Clear 22 1012 61 10000 1.34 30 20:20 21.08.2022
2116 Clear 23 1012 59 10000 3.13 344 18:49 21.08.2022
2117 Clear 24 1013 52 10000 3.6 350 16:52 21.08.2022
2118 Clear 24 1013 51 10000 4.92 293 15:52 21.08.2022
2119 Clear 25 1014 48 10000 4.02 320 14:57 21.08.2022
2120 Clear 23 1014 55 10000 4.92 313 13:51 21.08.2022
2121 Clear 23 1013 61 10000 4.92 332 12:56 21.08.2022
2122 Clear 20 1013 74 10000 4.47 318 10:41 21.08.2022
2123 Clear 18 1013 84 10000 3.58 298 09:21 21.08.2022
2124 Clear 17 1013 85 10000 3.13 283 08:56 21.08.2022
2125 Clear 17 1013 86 10000 2.68 297 08:38 21.08.2022
2126 Clouds 17 1013 88 10000 2.68 294 06:59 21.08.2022
2127 Clouds 19 1012 89 10000 2.24 330 02:35 21.08.2022
2128 Clear 19 1014 91 10000 1.54 270 23:44 20.08.2022
2129 Clouds 19 1013 89 10000 1.79 284 22:23 20.08.2022
2130 Clouds 20 1012 90 10000 3.09 280 21:22 20.08.2022
2131 Clouds 20 1013 92 10000 2.57 290 19:58 20.08.2022
2132 Rain 20 1013 91 10000 2.57 290 19:39 20.08.2022
2133 Clouds 21 1013 89 10000 3.13 279 18:27 20.08.2022
2134 Rain 20 1013 88 10000 3.58 286 17:38 20.08.2022
2135 Rain 21 1013 83 10000 3.6 290 16:35 20.08.2022
2136 Rain 22 1012 74 10000 4.12 300 14:55 20.08.2022
2137 Clouds 21 1012 86 10000 4.63 300 12:46 20.08.2022
2138 Clouds 20 1012 90 10000 3.13 302 11:47 20.08.2022
2139 Clouds 20 1011 91 10000 3.6 340 09:29 20.08.2022
2140 Rain 20 1011 93 10000 3.13 324 08:29 20.08.2022
2141 Drizzle 20 1010 92 10000 4.92 319 05:49 20.08.2022
2142 Clouds 21 1009 88 10000 2.68 310 00:58 20.08.2022
2143 Clouds 21 1010 90 10000 2.68 320 00:30 20.08.2022
2144 Clouds 21 1010 89 10000 3.58 286 22:53 19.08.2022
2145 Clouds 21 1010 88 10000 4.02 292 21:38 19.08.2022
2146 Clouds 22 1009 85 10000 5.36 283 19:43 19.08.2022
2147 Clouds 24 1008 82 10000 5.14 290 16:40 19.08.2022
2148 Clouds 23 1007 82 10000 5.66 290 14:51 19.08.2022
2149 Clouds 24 1007 83 10000 5.36 307 12:49 19.08.2022
2150 Clouds 22 1007 87 10000 4.02 356 10:44 19.08.2022
2151 Clouds 21 1007 91 10000 3.09 20 09:59 19.08.2022
2152 Clear 20 1007 95 10000 5.14 360 05:58 19.08.2022
2153 Clear 21 1008 90 10000 3.6 20 00:48 19.08.2022
2154 Clouds 21 1008 90 10000 5.66 50 00:23 19.08.2022
2155 Rain 22 1008 84 10000 3.13 342 23:28 18.08.2022
2156 Clouds 22 1008 81 10000 4.12 40 22:38 18.08.2022
2157 Clouds 22 1008 80 10000 4.92 55 21:55 18.08.2022
2158 Clouds 23 1008 79 10000 5.81 47 21:26 18.08.2022
2159 Clear 23 1007 78 10000 5.66 30 19:55 18.08.2022
2160 Clouds 23 1010 79 10000 7.2 50 19:25 18.08.2022
2161 Clear 28 1008 31 10000 2.06 290 17:49 18.08.2022
2162 Clear 32 1008 37 10000 3.09 280 16:55 18.08.2022
2163 Clear 33 1006 44 10000 4.12 300 14:42 18.08.2022
2164 Clear 33 1008 43 10000 3.09 290 14:19 18.08.2022
2165 Clear 30 1008 52 10000 2.24 329 12:55 18.08.2022
2166 Clear 27 1009 61 10000 1.03 0 11:31 18.08.2022
2167 Clear 26 1007 56 10000 1.54 190 09:43 18.08.2022
2168 Clear 23 1007 67 10000 1.54 80 08:37 18.08.2022
2169 Clear 22 1006 70 10000 1.79 42 07:19 18.08.2022
2170 Clear 23 1007 67 10000 3.58 64 03:53 18.08.2022
2171 Clear 25 1008 59 10000 3.09 60 23:30 17.08.2022
2172 Clear 26 1008 55 10000 3.13 76 21:39 17.08.2022
2173 Clear 29 1008 46 10000 3.13 43 20:18 17.08.2022
2174 Clear 30 1008 43 10000 3.09 60 19:28 17.08.2022
2175 Clear 32 1009 38 10000 2.06 80 17:35 17.08.2022
2176 Clear 32 1009 39 10000 2.57 110 16:22 17.08.2022
2177 Clear 32 1009 39 10000 2.57 110 16:22 17.08.2022
2178 Clear 32 1009 38 10000 1.79 66 15:22 17.08.2022
2179 Clear 32 1009 39 10000 2.06 0 12:54 17.08.2022
2180 Clear 31 1008 42 10000 3.58 66 11:37 17.08.2022
2181 Clouds 26 1008 59 10000 1.03 0 09:31 17.08.2022
2182 Clear 23 1008 76 10000 1.03 0 08:23 17.08.2022
2183 Clear 21 1008 78 10000 1.54 250 03:27 17.08.2022
2184 Clear 22 1007 72 10000 0.89 128 00:19 17.08.2022
2185 Clear 23 1008 67 10000 0.89 330 22:35 16.08.2022
2186 Clear 26 1008 60 10000 1.79 290 20:52 16.08.2022
2187 Clear 28 1007 48 10000 2.06 250 19:53 16.08.2022
2188 Clear 29 1006 46 10000 4.63 280 18:43 16.08.2022
2189 Clear 30 1006 44 10000 2.68 234 17:43 16.08.2022
2190 Clear 30 1005 48 10000 3.09 240 15:52 16.08.2022
2191 Clear 30 1006 51 10000 4.02 213 14:55 16.08.2022
2192 Clouds 29 1006 50 10000 4.02 213 14:37 16.08.2022
2193 Clouds 29 1005 53 10000 4.92 220 13:40 16.08.2022
2194 Clear 26 1005 64 10000 2.06 0 11:30 16.08.2022
2195 Clear 24 1005 77 10000 2.68 184 09:51 16.08.2022
2196 Clear 21 1005 85 10000 2.06 190 08:47 16.08.2022
2197 Clouds 20 1005 90 6000 1.54 190 08:18 16.08.2022
2198 Mist 19 1004 91 5000 1.34 278 04:25 16.08.2022
2199 Clouds 20 1004 89 10000 1.54 170 22:55 15.08.2022
2200 Clear 20 1003 92 10000 3.13 320 21:56 15.08.2022
2201 Clear 20 1003 92 10000 3.13 320 21:36 15.08.2022
2202 Rain 22 1004 81 10000 4.92 304 20:29 15.08.2022
2203 Rain 22 1004 81 10000 4.92 304 20:29 15.08.2022
2204 Clouds 29 1000 52 10000 10.29 210 18:46 15.08.2022
2205 Clear 31 1000 46 10000 5.14 140 17:47 15.08.2022
2206 Clear 31 1001 46 10000 5.66 110 16:22 15.08.2022
2207 Clouds 30 1002 49 10000 4.63 130 14:40 15.08.2022
2208 Clouds 29 1003 56 10000 5.66 140 13:18 15.08.2022
2209 Clear 26 1004 66 10000 2.68 120 10:36 15.08.2022
2210 Clear 23 1004 72 10000 3.09 100 08:53 15.08.2022
2211 Clear 20 1004 85 10000 2.24 74 06:39 15.08.2022
2212 Clear 21 1005 77 10000 2.57 110 03:56 15.08.2022
2213 Clear 24 1004 61 10000 2.57 110 23:38 14.08.2022
2214 Clouds 26 1007 52 10000 6.17 110 21:48 14.08.2022
2215 Clouds 27 1007 46 10000 7.72 130 20:41 14.08.2022
2216 Clear 31 1002 32 10000 4.63 50 19:45 14.08.2022
2217 Clear 31 1005 33 10000 6.26 53 18:32 14.08.2022
2218 Clear 32 1006 33 10000 4.47 37 17:41 14.08.2022
2219 Clear 32 1007 35 10000 4.12 50 16:25 14.08.2022
2220 Clear 32 1007 36 10000 4.12 40 15:43 14.08.2022
2221 Clear 31 1007 43 10000 5.36 82 13:52 14.08.2022
2222 Clear 31 1008 43 10000 5.36 85 13:33 14.08.2022
2223 Clear 31 1008 42 10000 5.66 80 12:54 14.08.2022
2224 Clear 29 1010 50 10000 4.02 77 11:31 14.08.2022
2225 Clear 27 1011 65 10000 2.68 41 10:18 14.08.2022
2226 Clear 22 1011 76 10000 1.34 23 08:18 14.08.2022
2227 Clear 20 1012 83 10000 1.54 40 06:18 14.08.2022
2228 Clear 21 1013 80 10000 1.79 79 02:35 14.08.2022
2229 Clouds 22 1016 79 10000 2.06 30 23:23 13.08.2022
2230 Clouds 23 1016 76 10000 1.54 160 22:28 13.08.2022
2231 Clear 26 1015 53 10000 1.54 170 20:58 13.08.2022
2232 Clear 26 1015 47 10000 2.06 190 19:50 13.08.2022
2233 Clouds 27 1016 50 10000 2.06 160 19:20 13.08.2022
2234 Clear 28 1014 49 10000 4.47 92 17:36 13.08.2022
2235 Clear 26 1014 55 10000 6.17 60 15:18 13.08.2022
2236 Clouds 25 1016 61 10000 4.02 78 14:24 13.08.2022
2237 Clouds 25 1016 61 10000 4.02 78 14:24 13.08.2022
2238 Clouds 26 1015 56 10000 5.66 90 13:37 13.08.2022
2239 Clear 25 1016 54 10000 1.54 40 11:51 13.08.2022
2240 Clear 23 1016 59 10000 4.02 59 09:50 13.08.2022
2241 Clear 20 1016 65 10000 1.03 30 07:51 13.08.2022
2242 Clear 20 1017 60 10000 3.13 29 02:56 13.08.2022
2243 Clear 22 1018 54 10000 2.57 70 23:47 12.08.2022
2244 Clear 24 1017 48 10000 1.79 70 21:42 12.08.2022
2245 Clear 27 1017 40 10000 4.47 72 20:40 12.08.2022
2246 Clear 28 1016 34 10000 5.36 72 19:36 12.08.2022
2247 Clear 29 1016 33 10000 4.63 50 18:38 12.08.2022
2248 Clear 29 1018 33 10000 6.26 106 16:37 12.08.2022
2249 Clear 29 1016 32 10000 4.63 100 15:40 12.08.2022
2250 Clear 30 1017 31 10000 5.36 101 14:27 12.08.2022
2251 Clear 29 1018 32 10000 5.66 110 12:53 12.08.2022
2252 Clear 25 1018 45 10000 3.09 110 09:52 12.08.2022
2253 Clear 19 1020 56 10000 2.68 65 07:47 12.08.2022
2254 Clear 17 1020 63 10000 2.06 70 06:38 12.08.2022
2255 Clear 19 1020 58 10000 3.13 80 02:33 12.08.2022
2256 Clear 21 1020 49 10000 3.58 63 00:26 12.08.2022
2257 Clear 22 1020 44 10000 3.58 41 23:35 11.08.2022
2258 Clear 23 1020 41 10000 2.24 90 22:27 11.08.2022
2259 Clear 24 1020 37 10000 3.13 79 21:43 11.08.2022
2260 Clear 25 1019 33 10000 3.6 60 20:59 11.08.2022
2261 Clear 27 1018 31 10000 4.63 50 20:20 11.08.2022
2262 Clear 28 1018 28 10000 4.63 40 19:32 11.08.2022
2263 Clear 30 1020 27 10000 5.14 40 17:48 11.08.2022
2264 Clear 30 1020 28 10000 3.6 100 16:38 11.08.2022
2265 Clear 30 1021 30 10000 4.63 0 15:25 11.08.2022
2266 Clear 29 1021 32 10000 4.92 113 13:37 11.08.2022
2267 Clear 27 1021 41 10000 3.09 120 11:26 11.08.2022
2268 Clear 19 1021 58 10000 1.54 80 07:49 11.08.2022
2269 Clear 18 1022 60 10000 2.68 52 03:57 11.08.2022
2270 Clear 19 1023 59 10000 3.09 50 01:54 11.08.2022
2271 Clear 22 1023 50 10000 3.13 44 22:38 10.08.2022
2272 Clear 23 1022 45 10000 3.13 29 21:44 10.08.2022
2273 Clear 25 1022 39 10000 2.68 2 20:55 10.08.2022
2274 Clear 27 1022 33 10000 1.34 45 19:44 10.08.2022
2275 Clear 28 1023 31 10000 2.24 20 18:45 10.08.2022
2276 Clear 29 1023 30 10000 3.09 20 17:19 10.08.2022
2277 Clear 27 1025 35 10000 3.58 63 13:36 10.08.2022
2278 Clear 27 1025 36 10000 3.6 10 12:48 10.08.2022
2279 Clear 22 1026 60 10000 3.6 20 10:21 10.08.2022
2280 Clear 18 1025 71 10000 4.02 25 08:37 10.08.2022
2281 Clear 16 1025 78 10000 2.24 54 07:21 10.08.2022
2282 Clear 16 1025 74 10000 2.68 48 04:49 10.08.2022
2283 Clear 19 1026 63 10000 4.47 44 00:50 10.08.2022
2284 Clear 20 1025 57 10000 3.6 40 23:27 09.08.2022
2285 Clear 23 1016 48 10000 4.63 30 21:38 09.08.2022
2286 Clear 24 1016 44 10000 4.92 25 20:56 09.08.2022
2287 Clear 26 1015 37 10000 4.12 20 18:56 09.08.2022
2288 Clear 27 1016 36 10000 3.6 30 17:31 09.08.2022
2289 Clear 27 1012 34 10000 4.63 300 16:46 09.08.2022
2290 Clear 27 1012 35 10000 3.09 350 16:22 09.08.2022
2291 Clear 27 1013 35 10000 3.13 350 14:50 09.08.2022
2292 Clear 24 1027 46 10000 4.63 70 11:29 09.08.2022
2293 Clear 20 1017 61 10000 4.12 20 08:52 09.08.2022
2294 Clear 19 1024 63 10000 2.68 16 07:58 09.08.2022
2295 Clear 19 1016 63 10000 2.24 43 05:24 09.08.2022
2296 Clear 19 1024 58 10000 3.6 50 00:59 09.08.2022
2297 Clear 21 1015 52 10000 5.36 28 23:25 08.08.2022
2298 Clear 21 1015 52 10000 4.12 30 22:42 08.08.2022
2299 Clear 22 1014 46 10000 5.66 30 21:44 08.08.2022
2300 Clear 25 1014 38 10000 3.58 20 20:39 08.08.2022
2301 Clear 26 1013 35 10000 4.12 50 19:39 08.08.2022
2302 Clear 26 1013 33 10000 3.6 50 18:18 08.08.2022
2303 Clear 28 1013 30 10000 3.13 17 15:54 08.08.2022
2304 Clear 28 1013 31 10000 3.58 25 15:36 08.08.2022
2305 Clear 26 1021 32 10000 3.09 0 12:31 08.08.2022
2306 Clear 23 1022 48 10000 1.54 310 10:37 08.08.2022
2307 Clear 18 1013 52 10000 1.03 0 07:59 08.08.2022
2308 Clear 16 1013 59 10000 1.03 70 04:45 08.08.2022
2309 Clear 17 1013 56 10000 2.57 70 01:29 08.08.2022
2310 Clear 21 1013 45 10000 2.68 17 21:42 07.08.2022
2311 Clear 22 1012 41 10000 2.24 360 21:24 07.08.2022
2312 Clear 23 1012 38 10000 1.79 352 20:24 07.08.2022
2313 Clear 23 1012 36 10000 1.34 350 19:52 07.08.2022
2314 Clear 24 1013 35 10000 2.06 30 19:24 07.08.2022
2315 Clear 25 1013 34 10000 4.02 345 17:58 07.08.2022
2316 Clear 25 1013 34 10000 2.06 60 16:53 07.08.2022
2317 Clear 24 1013 34 10000 3.13 347 15:45 07.08.2022
2318 Clear 24 1014 36 10000 3.09 360 14:32 07.08.2022
2319 Clear 24 1022 36 10000 2.24 134 12:50 07.08.2022
2320 Clear 24 1022 36 10000 2.24 134 12:50 07.08.2022
2321 Clear 22 1023 44 10000 3.13 150 10:54 07.08.2022
2322 Clear 21 1017 44 10000 2.06 0 10:21 07.08.2022
2323 Clear 15 1016 65 10000 1.03 0 04:42 07.08.2022
2324 Clear 15 1016 61 10000 1.34 77 02:37 07.08.2022
2325 Clear 17 1024 55 10000 2.24 350 22:57 06.08.2022
2326 Clear 18 1016 52 10000 2.68 4 22:19 06.08.2022
2327 Clear 21 1015 42 10000 3.13 330 20:20 06.08.2022
2328 Clear 22 1015 40 10000 4.02 320 19:38 06.08.2022
2329 Clear 23 1015 38 10000 5.66 320 18:19 06.08.2022
2330 Clear 23 1015 38 10000 7.15 300 16:33 06.08.2022
2331 Clear 22 1015 48 10000 4.63 320 13:52 06.08.2022
2332 Clouds 22 1023 47 10000 5.66 290 12:50 06.08.2022
2333 Clouds 19 1024 56 10000 4.12 310 11:21 06.08.2022
2334 Clear 19 1015 65 10000 3.13 289 09:50 06.08.2022
2335 Clear 14 1014 76 10000 3.6 280 07:51 06.08.2022
2336 Clear 15 1019 74 10000 6.26 291 03:24 06.08.2022
2337 Clear 18 1017 69 10000 6.71 315 23:27 05.08.2022
2338 Clouds 19 1016 71 10000 5.81 293 21:51 05.08.2022
2339 Clouds 23 1006 68 10000 8.05 305 19:32 05.08.2022
2340 Clouds 25 1004 69 10000 6.17 330 18:44 05.08.2022
2341 Clouds 28 1004 56 10000 5.81 282 17:27 05.08.2022
2342 Clouds 29 1004 55 10000 5.36 282 16:48 05.08.2022
2343 Clear 28 1003 59 10000 1.79 330 15:21 05.08.2022
2344 Clouds 26 1003 71 10000 3.09 350 13:59 05.08.2022
2345 Clouds 25 1003 73 10000 2.24 70 13:23 05.08.2022
2346 Clouds 24 1011 70 10000 5.81 311 12:24 05.08.2022
2347 Clear 25 1011 67 10000 8.05 344 10:44 05.08.2022
2348 Clear 24 1010 66 10000 4.02 328 07:58 05.08.2022
2349 Clear 22 1009 67 10000 2.68 23 06:41 05.08.2022
2350 Clear 28 1009 45 10000 3.09 130 00:30 05.08.2022
2351 Clear 29 1000 41 10000 2.68 154 22:29 04.08.2022
2352 Clear 30 999 41 10000 3.13 156 21:26 04.08.2022
2353 Clear 32 1009 38 10000 2.57 190 20:43 04.08.2022
2354 Clear 34 999 27 10000 5.36 225 19:40 04.08.2022
2355 Clear 36 1001 26 10000 5.14 220 18:36 04.08.2022
2356 Clear 36 1001 26 10000 5.36 225 18:18 04.08.2022
2357 Clear 36 1003 28 10000 4.92 150 14:23 04.08.2022
2358 Clear 35 1004 30 10000 4.63 190 13:18 04.08.2022
2359 Clear 33 1010 37 10000 2.24 135 11:20 04.08.2022
2360 Clear 25 1002 53 10000 1.54 110 07:54 04.08.2022
2361 Clouds 23 1003 57 10000 1.34 119 06:41 04.08.2022
2362 Clear 24 1005 57 10000 1.03 70 02:35 04.08.2022
2363 Clear 25 1004 56 10000 1.03 0 23:46 03.08.2022
2364 Clear 26 1004 51 10000 1.34 123 22:59 03.08.2022
2365 Clear 29 1004 42 10000 2.57 190 20:57 03.08.2022
2366 Clear 32 1004 34 10000 3.09 230 19:54 03.08.2022
2367 Clear 33 1004 32 10000 3.09 190 18:40 03.08.2022
2368 Clear 34 1004 31 10000 3.6 250 16:26 03.08.2022
2369 Clear 33 1005 31 10000 3.6 0 15:47 03.08.2022
2370 Clear 32 1006 29 10000 4.47 203 13:24 03.08.2022
2371 Clear 27 1007 44 10000 3.58 210 09:55 03.08.2022
2372 Clear 20 1006 59 10000 0.51 0 06:46 03.08.2022
2373 Clear 20 1006 63 10000 1.34 173 04:22 03.08.2022
2374 Clear 20 1007 62 10000 1.34 136 03:22 03.08.2022
2375 Clear 22 1007 53 10000 2.68 99 23:54 02.08.2022
2376 Clear 23 1006 54 10000 2.68 71 22:33 02.08.2022
2377 Clear 23 1006 51 10000 0.89 336 21:50 02.08.2022
2378 Clear 26 1006 49 10000 2.06 260 20:27 02.08.2022
2379 Clear 28 1006 38 10000 2.68 271 16:52 02.08.2022
2380 Clear 27 1008 42 10000 2.68 45 14:39 02.08.2022
2381 Clouds 23 1015 56 10000 1.79 225 10:49 02.08.2022
2382 Clouds 20 1017 66 10000 0.51 0 08:54 02.08.2022
2383 Clouds 18 1016 71 10000 2.24 57 07:52 02.08.2022
2384 Clear 18 1016 76 10000 1.79 54 04:59 02.08.2022
2385 Clouds 18 1016 77 10000 1.54 10 03:36 02.08.2022
2386 Clouds 20 1015 70 10000 3.58 21 23:32 01.08.2022
2387 Clouds 21 1014 66 10000 2.68 340 21:54 01.08.2022
2388 Clear 23 1014 67 10000 3.09 320 20:40 01.08.2022
2389 Clouds 24 1005 63 10000 3.6 320 19:22 01.08.2022
2390 Clouds 25 1005 64 10000 6.71 300 17:27 01.08.2022
2391 Clouds 24 1005 67 10000 5.14 300 16:50 01.08.2022
2392 Clouds 24 1005 69 10000 5.81 308 15:51 01.08.2022
2393 Clouds 25 1004 67 10000 3.13 309 15:28 01.08.2022
2394 Clouds 23 1005 69 10000 5.66 290 13:45 01.08.2022
2395 Clouds 22 1004 74 10000 4.12 320 11:49 01.08.2022
2396 Clouds 21 1010 80 10000 5.14 290 09:39 01.08.2022
2397 Clouds 20 1010 82 10000 5.36 282 08:21 01.08.2022
2398 Clouds 20 1009 75 10000 3.6 260 04:47 01.08.2022
2399 Clear 20 1008 73 10000 4.63 290 02:32 01.08.2022
2400 Rain 23 1010 57 10000 1.03 0 23:54 31.07.2022
2401 Clear 24 1011 52 10000 1.34 256 22:36 31.07.2022
2402 Clear 24 1011 52 10000 1.34 256 22:36 31.07.2022
2403 Clear 25 1002 45 10000 1.79 300 21:24 31.07.2022
2404 Clear 27 1003 41 10000 4.12 280 19:41 31.07.2022
2405 Clear 28 1002 39 10000 4.12 270 17:47 31.07.2022
2406 Clear 28 1004 45 10000 4.47 319 15:35 31.07.2022
2407 Clear 28 1004 44 10000 3.58 266 13:42 31.07.2022
2408 Clear 25 1014 50 10000 2.68 310 11:55 31.07.2022
2409 Clear 23 1006 59 10000 1.79 293 09:36 31.07.2022
2410 Clear 19 1006 65 10000 1.03 0 07:38 31.07.2022
2411 Clear 18 1007 72 10000 0.89 154 02:58 31.07.2022
2412 Clear 20 1006 61 10000 2.24 185 23:36 30.07.2022
2413 Clear 22 1006 55 10000 2.68 157 22:19 30.07.2022
2414 Clear 22 1006 52 10000 3.09 150 21:48 30.07.2022
2415 Clear 23 1006 45 10000 2.24 70 20:57 30.07.2022
2416 Clear 25 1006 41 10000 2.57 100 19:59 30.07.2022
2417 Clear 26 1005 41 10000 2.68 41 18:53 30.07.2022
2418 Clear 26 1006 40 10000 6.26 61 17:44 30.07.2022
2419 Clear 26 1002 41 10000 4.63 50 15:54 30.07.2022
2420 Clear 26 1004 39 10000 4.63 70 15:24 30.07.2022
2421 Clear 25 1006 49 10000 2.68 10 13:18 30.07.2022
2422 Clear 23 1014 57 10000 3.09 10 12:19 30.07.2022
2423 Clear 21 1014 58 10000 2.57 40 10:31 30.07.2022
2424 Clear 21 1014 58 10000 2.57 40 10:31 30.07.2022
2425 Clear 21 1014 58 10000 2.57 40 10:31 30.07.2022
2426 Clear 20 1014 62 10000 3.09 50 09:56 30.07.2022
2427 Clear 19 1006 61 10000 2.57 30 07:55 30.07.2022
2428 Clear 19 1006 53 10000 4.12 70 03:55 30.07.2022
2429 Clear 20 1006 50 10000 4.63 70 02:25 30.07.2022
2430 Clear 23 1006 43 10000 5.81 62 22:46 29.07.2022
2431 Clear 25 1006 40 10000 5.66 70 21:24 29.07.2022
2432 Clear 25 1006 38 10000 5.36 80 20:41 29.07.2022
2433 Clear 28 1006 37 10000 5.81 66 18:26 29.07.2022
2434 Clear 29 1007 36 10000 5.14 100 16:32 29.07.2022
2435 Clear 27 1008 36 10000 6.26 95 13:45 29.07.2022
2436 Clear 24 1008 45 10000 6.69 90 11:33 29.07.2022
2437 Clear 18 1009 62 10000 4.47 78 08:51 29.07.2022
2438 Clear 17 1008 67 10000 3.6 70 08:20 29.07.2022
2439 Clear 15 1017 66 10000 3.6 60 02:52 29.07.2022
2440 Clear 18 1009 58 10000 3.13 40 23:20 28.07.2022
2441 Clear 20 1008 49 10000 2.68 40 21:31 28.07.2022
2442 Clear 21 1008 45 10000 3.58 25 20:50 28.07.2022
2443 Clear 23 1009 40 10000 2.68 45 19:58 28.07.2022
2444 Clear 23 1009 41 10000 1.79 68 19:26 28.07.2022
2445 Clear 24 1008 41 10000 2.24 300 17:46 28.07.2022
2446 Clear 24 1009 41 10000 2.68 330 17:20 28.07.2022
2447 Clear 24 1009 39 10000 2.24 304 16:40 28.07.2022
2448 Clear 23 1010 46 10000 2.24 247 13:56 28.07.2022
2449 Clouds 21 1018 52 10000 2.24 282 12:39 28.07.2022
2450 Clear 14 1017 77 10000 0.51 0 07:46 28.07.2022
2451 Clear 12 1010 74 10000 0.51 0 05:41 28.07.2022
2452 Clear 12 1010 73 10000 0.51 0 05:20 28.07.2022
2453 Clear 16 1009 59 10000 2.68 310 23:20 27.07.2022
2454 Clear 19 1007 49 10000 2.68 310 21:31 27.07.2022
2455 Clear 21 1007 50 10000 4.12 290 19:53 27.07.2022
2456 Clear 21 1008 44 10000 4.02 280 19:20 27.07.2022
2457 Clear 22 1005 43 10000 5.14 270 16:32 27.07.2022
2458 Clear 22 1001 48 10000 6.17 290 15:51 27.07.2022
2459 Clear 22 1001 45 10000 5.14 300 14:41 27.07.2022
2460 Clouds 21 1004 50 10000 5.14 280 13:45 27.07.2022
2461 Clouds 18 1014 58 10000 4.63 300 10:39 27.07.2022
2462 Clear 14 1014 71 10000 3.13 271 07:53 27.07.2022
2463 Clear 13 1014 70 10000 2.68 300 04:54 27.07.2022
2464 Clear 18 1006 61 10000 3.09 290 23:29 26.07.2022
2465 Clear 18 1012 64 10000 3.58 300 22:19 26.07.2022
2466 Clear 20 1011 62 10000 5.36 307 20:58 26.07.2022
2467 Clouds 22 1004 62 10000 5.81 298 19:33 26.07.2022
2468 Clouds 22 1004 67 10000 6.69 290 18:41 26.07.2022
2469 Clouds 21 1011 73 10000 5.36 294 17:54 26.07.2022
2470 Clouds 21 997 69 10000 8.75 290 15:46 26.07.2022
2471 Rain 23 1009 60 10000 8.05 259 14:43 26.07.2022
2472 Clouds 24 1008 55 10000 6.71 254 12:35 26.07.2022
2473 Clouds 22 1008 66 10000 6.71 261 10:32 26.07.2022
2474 Clear 19 1009 82 10000 4.92 270 08:29 26.07.2022
2475 Clouds 19 1008 85 10000 3.58 320 02:25 26.07.2022
2476 Clouds 21 1007 78 10000 4.63 340 00:22 26.07.2022
2477 Clouds 22 1005 80 10000 2.06 330 22:41 25.07.2022
2478 Clouds 22 1005 83 10000 4.12 140 22:21 25.07.2022
2479 Clear 23 1005 77 10000 1.79 176 21:31 25.07.2022
2480 Clouds 25 991 67 10000 10.8 280 20:39 25.07.2022
2481 Rain 32 995 34 10000 4.63 200 19:25 25.07.2022
2482 Clear 34 995 30 10000 5.14 210 18:18 25.07.2022
2483 Clear 34 997 30 10000 6.71 218 17:24 25.07.2022
2484 Clear 34 999 34 10000 5.66 170 14:19 25.07.2022
2485 Clear 29 1000 44 10000 5.14 170 10:56 25.07.2022
2486 Clear 22 1010 53 10000 4.12 140 08:22 25.07.2022
2487 Clear 20 1007 57 10000 2.68 121 01:49 25.07.2022
2488 Clear 21 1007 54 10000 3.09 110 23:49 24.07.2022
2489 Clear 22 1007 52 10000 3.09 100 22:54 24.07.2022
2490 Clear 22 1007 52 10000 2.68 116 22:24 24.07.2022
2491 Clear 24 1006 48 10000 2.24 128 21:18 24.07.2022
2492 Clear 26 1006 44 10000 2.24 139 20:46 24.07.2022
2493 Clear 27 1007 38 10000 2.68 268 19:54 24.07.2022
2494 Clear 28 1008 36 10000 3.09 270 18:30 24.07.2022
2495 Clear 28 1009 37 10000 2.68 152 16:28 24.07.2022
2496 Clear 28 1009 37 10000 2.57 0 15:45 24.07.2022
2497 Clear 26 1010 42 10000 2.68 265 14:19 24.07.2022
2498 Clear 26 1011 46 10000 3.6 260 12:52 24.07.2022
2499 Clear 23 1018 53 10000 3.13 295 11:38 24.07.2022
2500 Clear 22 1018 55 10000 3.6 290 10:59 24.07.2022
2501 Clear 16 1018 72 10000 2.68 282 08:32 24.07.2022
2502 Clear 15 1018 74 10000 2.57 270 07:52 24.07.2022
2503 Clear 12 1017 79 10000 3.13 262 05:44 24.07.2022
2504 Clear 16 1017 65 10000 3.13 312 00:29 24.07.2022
2505 Clear 20 1016 53 10000 4.92 330 21:37 23.07.2022
2506 Clear 23 1007 52 10000 5.36 309 20:19 23.07.2022
2507 Clear 24 1007 52 10000 6.17 280 18:50 23.07.2022
2508 Clouds 25 1006 54 10000 5.66 280 17:28 23.07.2022
2509 Clouds 24 1008 52 10000 5.36 279 16:35 23.07.2022
2510 Clouds 24 1007 59 10000 5.81 306 15:31 23.07.2022
2511 Clouds 23 1008 61 10000 4.63 260 14:59 23.07.2022
2512 Clouds 22 1015 64 10000 5.14 280 14:28 23.07.2022
2513 Clouds 22 1015 66 10000 4.12 280 13:36 23.07.2022
2514 Clouds 17 1015 84 10000 2.06 30 10:49 23.07.2022
2515 Clouds 16 1015 90 10000 2.24 293 10:22 23.07.2022
2516 Rain 15 1014 87 10000 3.13 351 08:50 23.07.2022
2517 Clear 17 1007 78 10000 1.34 221 03:40 23.07.2022
2518 Clear 18 1008 77 10000 2.68 271 01:58 23.07.2022
2519 Clear 19 1008 72 10000 2.68 330 23:19 22.07.2022
2520 Clear 22 1008 64 10000 3.6 310 20:57 22.07.2022
2521 Clear 23 1008 60 10000 4.12 310 19:47 22.07.2022
2522 Clouds 25 1007 57 10000 4.47 281 18:29 22.07.2022
2523 Clouds 25 1008 57 10000 5.36 309 17:28 22.07.2022
2524 Clouds 25 1009 64 10000 4.02 290 14:57 22.07.2022
2525 Clouds 22 1015 71 10000 5.14 250 12:23 22.07.2022
2526 Clouds 21 1015 78 10000 4.12 260 09:43 22.07.2022
2527 Clear 21 1015 79 10000 3.09 250 09:18 22.07.2022
2528 Clouds 19 1015 83 10000 3.6 240 07:21 22.07.2022
2529 Clear 20 1014 81 10000 3.13 266 04:18 22.07.2022
2530 Clear 22 1008 81 10000 1.03 270 22:56 21.07.2022
2531 Rain 24 1007 69 10000 2.24 294 21:35 21.07.2022
2532 Clear 26 1007 62 10000 4.12 180 19:35 21.07.2022
2533 Clear 26 1007 61 10000 5.14 170 18:29 21.07.2022
2534 Clouds 25 1016 69 10000 4.47 180 17:20 21.07.2022
2535 Rain 25 1015 64 10000 5.36 211 15:49 21.07.2022
2536 Rain 28 1015 48 10000 6.71 256 14:46 21.07.2022
2537 Rain 29 1007 43 10000 7.72 250 13:22 21.07.2022
2538 Clear 28 1014 48 10000 5.66 250 11:43 21.07.2022
2539 Clear 27 1004 52 10000 4.12 230 09:51 21.07.2022
2540 Clear 25 1012 56 10000 6.17 230 08:53 21.07.2022
2541 Clear 24 1012 55 10000 5.66 230 07:50 21.07.2022
2542 Clear 24 1005 52 10000 5.36 156 06:27 21.07.2022
2543 Clear 26 1005 46 10000 3.6 110 02:35 21.07.2022
2544 Clear 28 1013 43 10000 2.68 103 22:47 20.07.2022
2545 Clear 29 1013 40 10000 2.68 97 22:19 20.07.2022
2546 Clear 33 1013 30 10000 2.57 140 20:46 20.07.2022
2547 Clear 35 1006 25 10000 5.14 120 19:46 20.07.2022
2548 Clear 36 1006 24 10000 4.63 110 18:54 20.07.2022
2549 Clear 36 1006 23 10000 6.17 100 18:31 20.07.2022
2550 Clear 37 1007 23 10000 3.58 90 17:28 20.07.2022
2551 Clear 37 1007 22 10000 4.63 0 15:33 20.07.2022
2552 Clear 37 1008 23 10000 5.66 110 14:49 20.07.2022
2553 Clear 36 1009 26 10000 3.6 150 13:21 20.07.2022
2554 Clear 33 1007 35 10000 2.06 0 10:59 20.07.2022
2555 Clear 23 1008 55 10000 1.54 0 06:49 20.07.2022
2556 Clear 24 1009 48 10000 3.09 90 01:56 20.07.2022
2557 Clear 25 1016 46 10000 3.6 70 00:42 20.07.2022
2558 Clear 26 1016 43 10000 3.09 70 22:38 19.07.2022
2559 Clear 27 1009 39 10000 3.13 86 22:20 19.07.2022
2560 Clear 30 1007 33 10000 2.06 50 20:50 19.07.2022
2561 Clear 33 1008 24 10000 2.24 35 19:38 19.07.2022
2562 Clear 34 1008 23 10000 2.68 360 18:43 19.07.2022
2563 Clear 34 1008 23 10000 3.13 331 17:56 19.07.2022
2564 Clear 35 1008 22 10000 2.68 321 16:25 19.07.2022
2565 Clear 34 1009 23 10000 2.24 263 14:31 19.07.2022
2566 Clear 31 1017 34 10000 1.54 0 11:35 19.07.2022
2567 Clear 28 1018 41 10000 2.24 356 10:31 19.07.2022
2568 Clear 24 1009 49 10000 2.06 260 08:48 19.07.2022
2569 Clear 22 1018 54 10000 1.54 230 08:22 19.07.2022
2570 Clear 20 1010 59 10000 0.89 116 07:18 19.07.2022
2571 Clear 18 1009 63 10000 1.03 110 05:26 19.07.2022
2572 Clear 18 1011 62 10000 1.34 110 04:48 19.07.2022
2573 Clear 22 1011 51 10000 2.57 140 00:35 19.07.2022
2574 Clear 23 1011 46 10000 3.13 136 23:31 18.07.2022
2575 Clear 23 1011 51 10000 2.68 130 22:58 18.07.2022
2576 Clear 24 1011 49 10000 1.54 100 21:58 18.07.2022
2577 Clear 27 1011 41 10000 2.24 188 20:51 18.07.2022
2578 Clear 28 1012 35 10000 2.57 230 19:26 18.07.2022
2579 Clear 29 1013 34 10000 3.58 319 17:24 18.07.2022
2580 Clear 28 1013 36 10000 1.79 242 15:52 18.07.2022
2581 Clear 28 1013 36 10000 3.13 189 14:34 18.07.2022
2582 Clear 26 1022 40 10000 2.24 300 12:58 18.07.2022
2583 Clear 25 1022 46 10000 3.09 260 11:31 18.07.2022
2584 Clear 21 1022 56 10000 2.06 220 08:57 18.07.2022
2585 Clear 17 1022 66 10000 2.24 230 07:38 18.07.2022
2586 Clear 16 1015 65 10000 1.54 180 01:43 18.07.2022
2587 Clear 18 1015 57 10000 1.34 308 22:46 17.07.2022
2588 Clear 19 1015 54 10000 2.24 296 22:22 17.07.2022
2589 Clear 21 1015 53 10000 2.68 310 21:24 17.07.2022
2590 Clear 22 1015 44 10000 2.68 301 20:44 17.07.2022
2591 Clear 23 1015 40 10000 3.6 290 19:34 17.07.2022
2592 Clear 23 1015 41 10000 4.12 310 18:56 17.07.2022
2593 Clear 24 1016 42 10000 3.13 276 17:39 17.07.2022
2594 Clear 24 1014 41 10000 2.68 293 16:51 17.07.2022
2595 Clear 24 1016 41 10000 3.6 300 16:27 17.07.2022
2596 Clouds 23 1016 45 10000 4.63 290 15:27 17.07.2022
2597 Clouds 20 1017 51 10000 5.36 275 13:34 17.07.2022
2598 Clouds 19 1024 55 10000 5.81 283 12:32 17.07.2022
2599 Clear 16 1024 66 10000 7.15 290 09:31 17.07.2022
2600 Clear 11 1023 75 10000 2.68 265 06:58 17.07.2022
2601 Clear 13 1015 64 10000 4.63 290 02:33 17.07.2022
2602 Clear 16 1021 54 10000 4.92 300 23:23 16.07.2022
2603 Clear 18 1020 48 10000 5.36 300 21:57 16.07.2022
2604 Clear 20 1011 43 10000 7.6 308 20:28 16.07.2022
2605 Clear 22 1011 41 10000 11.18 297 18:43 16.07.2022
2606 Clear 22 1010 39 10000 8.75 320 17:25 16.07.2022
2607 Clear 22 1009 39 10000 9.83 288 15:50 16.07.2022
2608 Clouds 19 1014 61 10000 9.39 306 11:55 16.07.2022
2609 Clouds 16 1013 77 10000 6.69 270 10:18 16.07.2022
2610 Clouds 15 1007 79 10000 8.23 270 09:25 16.07.2022
2611 Rain 16 1007 73 10000 6.69 240 08:40 16.07.2022
2612 Clouds 15 1007 68 10000 4.92 221 06:57 16.07.2022
2613 Clear 16 1014 66 10000 3.6 240 03:32 16.07.2022
2614 Clear 16 1016 60 10000 3.13 280 00:23 16.07.2022
2615 Clear 17 1015 53 10000 4.47 276 22:54 15.07.2022
2616 Clear 18 1016 53 10000 4.63 270 21:55 15.07.2022
2617 Clear 19 1015 47 10000 4.47 279 20:40 15.07.2022
2618 Clear 20 1017 48 10000 6.17 260 18:55 15.07.2022
2619 Clear 20 1016 51 10000 6.17 290 18:22 15.07.2022
2620 Clear 21 1010 44 10000 6.69 290 16:53 15.07.2022
2621 Clouds 19 1010 52 10000 7.6 287 14:19 15.07.2022
2622 Clouds 18 1015 51 10000 6.69 280 12:28 15.07.2022
2623 Clouds 17 1015 58 10000 8.23 280 10:52 15.07.2022
2624 Clear 14 1015 69 10000 7.6 272 07:48 15.07.2022
2625 Clear 14 1015 69 10000 3.13 280 03:41 15.07.2022
2626 Clear 16 1014 60 10000 4.92 313 00:43 15.07.2022
2627 Clear 18 1014 53 10000 6.71 308 23:24 14.07.2022
2628 Clear 19 1006 49 10000 6.17 310 22:32 14.07.2022
2629 Clear 19 1013 47 10000 6.26 313 21:41 14.07.2022
2630 Clear 20 1006 45 10000 6.71 298 21:23 14.07.2022
2631 Clear 21 1012 47 10000 7.6 296 20:43 14.07.2022
2632 Clear 22 1005 46 10000 8.05 334 20:19 14.07.2022
2633 Clear 23 1005 38 10000 5.36 315 18:38 14.07.2022
2634 Clear 25 1005 34 10000 5.36 287 16:20 14.07.2022
2635 Clear 25 1005 34 10000 3.13 254 15:26 14.07.2022
2636 Clear 24 1007 39 10000 3.6 340 13:52 14.07.2022
2637 Clear 22 1015 44 10000 4.47 297 12:39 14.07.2022
2638 Clouds 22 1015 48 10000 4.12 330 11:41 14.07.2022
2639 Clouds 21 1016 50 10000 4.47 319 11:21 14.07.2022
2640 Clouds 19 1016 64 10000 3.6 320 09:49 14.07.2022
2641 Clear 17 1016 71 10000 4.47 310 05:20 14.07.2022
2642 Clear 22 1013 57 10000 4.12 310 01:22 14.07.2022
2643 Clear 22 1013 55 10000 5.14 320 00:52 14.07.2022
2644 Clear 25 1015 49 10000 6.69 330 22:32 13.07.2022
2645 Clear 26 1011 54 10000 6.17 320 21:54 13.07.2022
2646 Clear 27 1010 49 10000 3.6 260 20:45 13.07.2022
2647 Clear 29 1005 37 10000 6.69 280 19:19 13.07.2022
2648 Clear 30 1006 34 10000 4.92 277 17:35 13.07.2022
2649 Clear 29 1006 34 10000 5.81 271 16:23 13.07.2022
2650 Clear 28 1007 36 10000 5.66 270 15:24 13.07.2022
2651 Clear 27 1014 49 10000 5.14 250 12:55 13.07.2022
2652 Clear 23 1015 59 10000 4.92 241 10:45 13.07.2022
2653 Clear 23 1016 64 10000 3.58 249 09:58 13.07.2022
2654 Clear 22 1010 64 10000 3.09 260 09:21 13.07.2022
2655 Clear 17 1017 72 10000 2.57 240 06:19 13.07.2022
2656 Clear 17 1018 67 10000 2.24 263 02:21 13.07.2022
2657 Clear 19 1019 59 10000 2.57 300 23:45 12.07.2022
2658 Clear 22 1017 48 10000 3.58 310 21:57 12.07.2022
2659 Clear 24 1010 48 10000 5.14 300 21:32 12.07.2022
2660 Clear 25 1017 52 10000 6.17 290 20:41 12.07.2022
2661 Clear 26 1012 38 10000 5.14 300 19:28 12.07.2022
2662 Clear 27 1012 40 10000 5.14 300 17:50 12.07.2022
2663 Clear 26 1011 42 10000 5.36 320 16:20 12.07.2022
2664 Clear 26 1012 43 10000 6.26 306 14:31 12.07.2022
2665 Clear 25 1013 40 10000 5.36 326 12:48 12.07.2022
2666 Clear 24 1019 43 10000 4.92 311 11:37 12.07.2022
2667 Clear 21 1019 54 10000 4.63 320 10:18 12.07.2022
2668 Clear 21 1019 54 10000 4.63 320 10:18 12.07.2022
2669 Clear 17 1020 62 10000 3.6 330 08:24 12.07.2022
2670 Clear 15 1020 69 10000 2.24 293 07:38 12.07.2022
2671 Clear 13 1013 77 10000 2.24 279 05:42 12.07.2022
2672 Clear 13 1019 76 10000 1.34 290 03:29 12.07.2022
2673 Clear 16 1019 67 10000 1.79 359 23:43 11.07.2022
2674 Clear 17 1019 66 10000 2.24 340 22:36 11.07.2022
2675 Clear 22 1014 59 10000 4.12 350 20:54 11.07.2022
2676 Clear 22 1018 52 10000 6.26 321 20:26 11.07.2022
2677 Clear 22 1018 46 10000 5.36 341 18:39 11.07.2022
2678 Clear 23 1018 45 10000 4.12 330 17:57 11.07.2022
2679 Clear 23 1018 43 10000 4.12 300 16:22 11.07.2022
2680 Clear 22 1017 54 10000 5.14 310 14:58 11.07.2022
2681 Clouds 21 1019 57 10000 4.92 294 12:38 11.07.2022
2682 Clouds 19 1017 64 10000 4.63 280 10:56 11.07.2022
2683 Clear 18 1017 68 10000 5.36 292 09:54 11.07.2022
2684 Clear 16 1017 71 10000 5.14 290 09:21 11.07.2022
2685 Clear 14 1018 76 10000 5.81 291 08:30 11.07.2022
2686 Clear 14 1018 68 10000 3.6 290 00:56 11.07.2022
2687 Clear 15 1010 64 10000 3.6 290 23:53 10.07.2022
2688 Clear 17 1010 62 10000 4.02 300 22:37 10.07.2022
2689 Clear 18 1009 56 10000 5.14 300 20:55 10.07.2022
2690 Clear 19 1009 55 10000 5.81 297 20:34 10.07.2022
2691 Clear 20 1009 53 10000 5.81 295 19:29 10.07.2022
2692 Clear 20 1009 53 10000 5.36 320 18:23 10.07.2022
2693 Clouds 20 1009 52 10000 7.15 297 17:20 10.07.2022
2694 Clouds 20 1006 56 10000 6.17 310 16:21 10.07.2022
2695 Clouds 19 1010 57 10000 6.71 296 14:47 10.07.2022
2696 Clouds 18 1009 58 10000 8.05 303 13:30 10.07.2022
2697 Clouds 17 1016 64 10000 8.23 300 11:44 10.07.2022
2698 Clouds 16 1009 71 10000 8.49 293 09:46 10.07.2022
2699 Clouds 15 1010 73 10000 6.17 290 08:44 10.07.2022
2700 Clouds 13 1016 76 10000 7.2 290 07:20 10.07.2022
2701 Clear 15 1011 65 10000 6.17 310 23:53 09.07.2022
2702 Clouds 17 1017 72 10000 3.13 300 22:26 09.07.2022
2703 Clouds 17 1017 76 10000 3.13 282 21:49 09.07.2022
2704 Clouds 19 1009 73 10000 6.26 280 19:57 09.07.2022
2705 Clouds 20 1010 69 10000 5.14 310 18:32 09.07.2022
2706 Clouds 20 1008 70 10000 6.69 280 17:32 09.07.2022
2707 Clouds 20 1010 70 10000 3.6 300 16:44 09.07.2022
2708 Clouds 20 996 69 10000 5.75 286 15:40 09.07.2022
2709 Clouds 21 1012 63 10000 6.69 270 14:27 09.07.2022
2710 Clouds 21 1011 69 10000 5.66 270 13:49 09.07.2022
2711 Clouds 19 1005 78 10000 3.6 290 12:45 09.07.2022
2712 Clouds 17 1019 73 10000 6.26 275 11:22 09.07.2022
2713 Clouds 17 1019 71 10000 4.63 270 10:22 09.07.2022
2714 Clouds 15 1014 80 10000 4.12 300 07:45 09.07.2022
2715 Clear 13 1021 82 10000 3.6 300 04:57 09.07.2022
2716 Clear 15 1022 77 10000 3.58 270 01:50 09.07.2022
2717 Clear 17 1023 71 10000 3.6 260 22:54 08.07.2022
2718 Clear 19 1021 68 10000 3.13 261 21:43 08.07.2022
2719 Clouds 20 1015 65 10000 4.63 270 20:40 08.07.2022
2720 Clouds 20 1021 67 10000 5.81 279 19:52 08.07.2022
2721 Clouds 19 1016 68 10000 6.26 297 18:24 08.07.2022
2722 Clouds 19 1017 64 10000 7.72 280 16:40 08.07.2022
2723 Clouds 20 1016 57 10000 6.26 307 14:53 08.07.2022
2724 Clouds 21 1008 60 10000 6.69 270 13:41 08.07.2022
2725 Clouds 18 1009 66 10000 6.17 290 11:51 08.07.2022
2726 Clouds 17 1016 77 10000 6.17 280 10:29 08.07.2022
2727 Clouds 15 1015 86 10000 6.71 296 08:33 08.07.2022
2728 Clouds 15 1021 87 10000 5.36 284 06:50 08.07.2022
2729 Clouds 14 1019 86 10000 4.47 276 01:31 08.07.2022
2730 Clouds 15 1011 91 10000 4.12 290 23:22 07.07.2022
2731 Clouds 15 1010 92 10000 5.66 310 22:35 07.07.2022
2732 Rain 17 1008 91 10000 6.26 349 20:36 07.07.2022
2733 Clouds 19 1007 86 10000 3.58 230 18:20 07.07.2022
2734 Clouds 20 1006 80 10000 4.63 240 16:57 07.07.2022
2735 Clouds 18 1007 84 10000 5.36 223 14:56 07.07.2022
2736 Clouds 16 1006 90 10000 5.66 230 13:25 07.07.2022
2737 Clouds 16 1007 88 10000 5.66 230 12:37 07.07.2022
2738 Clouds 16 1006 91 10000 5.66 230 12:18 07.07.2022
2739 Drizzle 15 1006 91 3100 6.69 220 11:29 07.07.2022
2740 Clouds 14 1006 91 10000 6.69 220 10:42 07.07.2022
2741 Clouds 14 1006 92 10000 7.2 220 10:24 07.07.2022
2742 Rain 13 1007 87 4900 5.81 212 07:22 07.07.2022
2743 Clear 15 1009 60 10000 4.63 220 02:55 07.07.2022
2744 Clouds 15 1009 63 10000 2.68 250 23:37 06.07.2022
2745 Clear 15 1017 62 10000 2.57 250 23:18 06.07.2022
2746 Clear 16 1017 61 10000 2.57 250 22:56 06.07.2022
2747 Clear 16 1017 60 10000 2.57 250 22:38 06.07.2022
2748 Clouds 18 1017 57 10000 4.63 300 21:27 06.07.2022
2749 Clouds 20 1011 46 10000 5.66 300 19:38 06.07.2022
2750 Clear 20 1018 54 10000 6.69 280 18:21 06.07.2022
2751 Clouds 20 1019 51 10000 5.36 285 16:19 06.07.2022
2752 Clear 20 1019 52 10000 7.2 280 14:55 06.07.2022
2753 Clouds 19 1019 53 10000 8.94 282 12:40 06.07.2022
2754 Clouds 19 1018 51 10000 6.71 289 11:49 06.07.2022
2755 Clouds 19 1018 57 10000 6.26 300 10:18 06.07.2022
2756 Clear 16 1018 70 10000 5.36 308 07:47 06.07.2022
2757 Clear 16 1018 70 10000 4.47 293 07:23 06.07.2022
2758 Clouds 16 1012 69 10000 5.14 320 05:28 06.07.2022
2759 Clear 19 1018 50 10000 3.13 339 22:45 05.07.2022
2760 Clear 20 1017 48 10000 4.47 320 21:53 05.07.2022
2761 Clear 22 1017 42 10000 4.92 307 20:39 05.07.2022
2762 Clear 24 1010 40 10000 5.14 310 19:43 05.07.2022
2763 Clear 24 1010 40 10000 5.36 297 19:22 05.07.2022
2764 Clear 25 1010 42 10000 5.66 280 17:48 05.07.2022
2765 Clear 25 1006 44 10000 6.17 270 16:55 05.07.2022
2766 Clear 24 1017 42 10000 6.17 300 15:31 05.07.2022
2767 Clear 24 1018 42 10000 6.26 261 14:28 05.07.2022
2768 Clear 24 1017 47 10000 5.81 289 12:47 05.07.2022
2769 Clouds 24 1018 50 10000 3.58 300 11:49 05.07.2022
2770 Clear 22 1019 55 10000 3.09 0 10:40 05.07.2022
2771 Clear 20 1018 60 10000 4.02 15 09:23 05.07.2022
2772 Clear 18 1017 66 10000 5.36 0 07:52 05.07.2022
2773 Clear 16 1009 72 10000 1.79 340 05:29 05.07.2022
2774 Clear 17 1009 65 10000 2.06 300 04:24 05.07.2022
2775 Clear 17 1009 63 10000 2.68 187 00:37 05.07.2022
2776 Clear 19 1008 59 10000 1.03 0 23:34 04.07.2022
2777 Clear 19 1016 56 10000 1.79 338 22:47 04.07.2022
2778 Clear 22 1015 51 10000 2.68 320 21:46 04.07.2022
2779 Clear 23 1006 44 10000 3.6 310 20:53 04.07.2022
2780 Clear 24 1007 43 10000 4.12 300 20:34 04.07.2022
2781 Clear 24 1008 41 10000 5.66 300 19:55 04.07.2022
2782 Clear 25 1008 41 10000 5.81 308 19:36 04.07.2022
2783 Clear 25 1008 39 10000 5.81 281 18:18 04.07.2022
2784 Clear 25 1008 42 10000 4.63 280 15:58 04.07.2022
2785 Clear 25 1008 44 10000 5.36 276 15:34 04.07.2022
2786 Clear 25 1009 48 10000 6.26 293 13:33 04.07.2022
2787 Clouds 24 1015 51 10000 5.36 263 12:33 04.07.2022
2788 Clouds 21 1016 63 10000 4.92 310 10:34 04.07.2022
2789 Clouds 21 1016 67 10000 6.26 313 09:53 04.07.2022
2790 Clouds 19 1015 74 10000 5.66 280 08:31 04.07.2022
2791 Clear 18 1014 82 10000 4.47 315 05:18 04.07.2022
2792 Clear 22 1012 56 10000 2.68 116 00:42 04.07.2022
2793 Clear 24 1009 47 10000 4.12 110 22:59 03.07.2022
2794 Clear 28 1004 38 10000 3.13 125 20:59 03.07.2022
2795 Clear 28 1002 36 10000 3.13 127 20:41 03.07.2022
2796 Clear 29 1006 34 10000 1.79 135 19:42 03.07.2022
2797 Clear 29 1006 34 10000 2.24 135 19:23 03.07.2022
2798 Clear 30 1006 32 10000 2.24 135 17:45 03.07.2022
2799 Clear 30 1006 33 10000 1.79 120 16:54 03.07.2022
2800 Clear 30 1007 33 10000 2.24 45 15:24 03.07.2022
2801 Clear 30 1007 34 10000 2.68 101 14:37 03.07.2022
2802 Clear 29 1008 38 10000 4.02 190 13:49 03.07.2022
2803 Clear 28 1008 40 10000 4.92 118 12:41 03.07.2022
2804 Clear 26 1009 42 10000 5.66 150 11:39 03.07.2022
2805 Clear 26 1008 44 10000 7.2 140 10:39 03.07.2022
2806 Clear 24 1016 51 10000 5.81 131 09:59 03.07.2022
2807 Clear 19 1016 64 10000 4.12 140 07:37 03.07.2022
2808 Clear 16 1011 66 10000 2.06 120 05:22 03.07.2022
2809 Clear 19 1011 54 10000 3.13 102 00:24 03.07.2022
2810 Clear 21 1011 54 10000 3.58 105 22:36 02.07.2022
2811 Clear 23 1011 47 10000 3.13 100 21:43 02.07.2022
2812 Clear 25 1010 37 10000 2.06 150 20:20 02.07.2022
2813 Clear 25 1012 36 10000 3.58 139 19:49 02.07.2022
2814 Clear 26 1012 37 10000 2.68 271 17:58 02.07.2022
2815 Clear 26 1013 35 10000 2.68 267 17:37 02.07.2022
2816 Clear 27 1013 36 10000 2.68 136 15:37 02.07.2022
2817 Clear 25 1015 42 10000 2.57 280 12:49 02.07.2022
2818 Clear 23 1020 49 10000 3.6 240 11:28 02.07.2022
2819 Clouds 22 1021 53 10000 4.02 224 10:48 02.07.2022
2820 Clear 21 1015 64 10000 1.54 0 09:49 02.07.2022
2821 Clear 21 1015 64 10000 1.54 0 09:49 02.07.2022
2822 Clear 18 1020 76 10000 2.68 215 08:37 02.07.2022
2823 Clear 17 1021 82 10000 2.68 220 08:19 02.07.2022
2824 Clear 14 1019 87 10000 3.13 244 02:53 02.07.2022
2825 Clear 16 1018 82 10000 2.68 248 00:27 02.07.2022
2826 Clouds 17 1018 82 10000 4.12 280 22:59 01.07.2022
2827 Clouds 17 1017 82 10000 4.63 260 22:29 01.07.2022
2828 Clouds 17 1009 81 10000 4.63 290 21:37 01.07.2022
2829 Clouds 17 1009 82 10000 5.66 280 20:58 01.07.2022
2830 Clouds 17 1009 81 10000 6.71 299 20:20 01.07.2022
2831 Clouds 17 1008 84 10000 7.72 280 19:36 01.07.2022
2832 Rain 18 1012 82 10000 7.72 280 16:41 01.07.2022
2833 Rain 19 1012 85 10000 9.83 282 14:29 01.07.2022
2834 Clouds 19 1011 80 10000 9.77 280 13:33 01.07.2022
2835 Clouds 26 1012 65 10000 3.09 350 10:54 01.07.2022
2836 Clouds 25 1010 70 10000 3.6 330 10:19 01.07.2022
2837 Clear 21 1008 83 10000 2.06 80 06:31 01.07.2022
2838 Clear 21 1002 78 10000 3.6 80 02:43 01.07.2022
2839 Clear 23 1002 71 10000 2.68 68 23:44 30.06.2022
2840 Clear 24 1002 65 10000 4.47 83 22:50 30.06.2022
2841 Clear 24 1002 65 10000 4.02 70 22:31 30.06.2022
2842 Clear 25 1002 66 10000 3.13 78 21:53 30.06.2022
2843 Clouds 26 1002 60 10000 3.13 110 20:49 30.06.2022
2844 Clouds 27 1002 58 10000 3.6 90 20:21 30.06.2022
2845 Clouds 27 1002 54 10000 3.13 91 19:48 30.06.2022
2846 Clouds 28 1002 55 10000 3.6 80 18:54 30.06.2022
2847 Clouds 28 1002 58 10000 3.13 70 18:22 30.06.2022
2848 Clouds 28 1003 57 10000 2.68 20 17:34 30.06.2022
2849 Clouds 28 1002 61 10000 2.24 61 16:20 30.06.2022
2850 Clouds 27 1003 59 10000 2.68 43 14:20 30.06.2022
2851 Clouds 28 999 60 10000 1.34 61 13:21 30.06.2022
2852 Clouds 26 1003 63 10000 2.57 60 12:34 30.06.2022
2853 Clouds 25 1004 65 10000 3.13 26 11:21 30.06.2022
2854 Clouds 23 1004 70 10000 2.68 65 09:52 30.06.2022
2855 Clouds 22 1004 69 10000 2.68 60 09:26 30.06.2022
2856 Clouds 21 1003 72 10000 4.47 74 07:41 30.06.2022
2857 Clouds 20 1005 69 10000 3.58 40 05:46 30.06.2022
2858 Clouds 21 1013 61 10000 2.68 65 00:26 30.06.2022
2859 Clouds 21 1005 60 10000 3.13 70 22:58 29.06.2022
2860 Clouds 21 1012 58 10000 3.13 90 22:37 29.06.2022
2861 Clouds 22 1006 56 10000 4.63 90 21:31 29.06.2022
2862 Clear 23 1011 50 10000 4.47 112 20:33 29.06.2022
2863 Clear 23 1011 50 10000 4.47 112 20:33 29.06.2022
2864 Clouds 24 1004 43 10000 2.68 93 19:34 29.06.2022
2865 Clear 25 1006 38 10000 5.36 85 17:40 29.06.2022
2866 Clear 25 1006 43 10000 6.71 86 16:35 29.06.2022
2867 Clear 26 1007 42 10000 4.92 89 14:50 29.06.2022
2868 Rain 24 1015 42 10000 4.47 86 12:39 29.06.2022
2869 Clear 23 1014 53 10000 5.14 60 10:37 29.06.2022
2870 Clear 22 1015 61 10000 4.92 74 09:32 29.06.2022
2871 Clear 19 1016 73 10000 4.12 90 07:36 29.06.2022
2872 Clear 17 1017 79 10000 3.13 70 04:51 29.06.2022
2873 Clear 19 1017 66 10000 3.13 72 00:57 29.06.2022
2874 Clear 19 1018 68 10000 3.09 70 00:35 29.06.2022
2875 Clear 21 1018 62 10000 2.68 80 22:54 28.06.2022
2876 Clear 21 1018 61 10000 3.6 70 22:24 28.06.2022
2877 Clear 22 1017 60 10000 3.6 80 21:54 28.06.2022
2878 Clear 23 1009 58 10000 3.6 80 21:32 28.06.2022
2879 Clear 24 1009 47 10000 3.13 50 20:35 28.06.2022
2880 Clear 25 1010 45 10000 2.57 130 19:34 28.06.2022
2881 Clear 25 1010 41 10000 2.68 108 18:53 28.06.2022
2882 Clear 26 1010 41 10000 4.47 73 17:40 28.06.2022
2883 Clear 26 1011 44 10000 3.13 320 15:59 28.06.2022
2884 Clear 26 1011 45 10000 3.13 320 15:38 28.06.2022
2885 Clear 25 1011 50 10000 2.57 310 14:21 28.06.2022
2886 Clouds 25 1011 52 10000 3.6 340 13:54 28.06.2022
2887 Clouds 24 1011 57 10000 5.14 310 12:57 28.06.2022
2888 Clouds 22 1018 65 10000 4.92 314 11:18 28.06.2022
2889 Clouds 19 1017 78 10000 6.17 300 09:36 28.06.2022
2890 Clouds 18 1017 81 10000 8.75 300 08:44 28.06.2022
2891 Rain 18 1017 86 10000 6.17 290 07:43 28.06.2022
2892 Rain 18 1018 86 10000 6.69 290 07:19 28.06.2022
2893 Rain 21 1014 72 10000 7.72 300 01:33 28.06.2022
2894 Clouds 23 1015 67 10000 5.66 270 23:44 27.06.2022
2895 Clear 25 1014 61 10000 3.09 270 22:55 27.06.2022
2896 Clear 26 1014 50 10000 3.6 280 21:38 27.06.2022
2897 Clear 27 1013 47 10000 6.17 280 21:38 27.06.2022
2898 Clear 29 1007 47 10000 6.17 280 20:54 27.06.2022
2899 Clear 31 1009 44 10000 5.81 281 19:40 27.06.2022
2900 Clouds 33 1002 38 10000 4.63 230 18:40 27.06.2022
2901 Clear 35 1002 30 10000 5.14 160 16:44 27.06.2022
2902 Clear 35 1002 30 10000 5.36 150 15:42 27.06.2022
2903 Clear 34 1002 35 10000 6.71 155 13:44 27.06.2022
2904 Clear 33 1003 39 10000 5.66 150 12:57 27.06.2022
2905 Clear 31 1004 49 10000 6.17 150 10:43 27.06.2022
2906 Clear 28 1004 53 10000 3.6 140 09:37 27.06.2022
2907 Clear 27 1005 59 10000 3.6 110 08:38 27.06.2022
2908 Clear 24 1010 67 10000 3.58 103 07:39 27.06.2022
2909 Clear 20 1011 77 10000 2.24 100 04:40 27.06.2022
2910 Clear 22 1011 70 10000 3.13 117 01:21 27.06.2022
2911 Clear 24 1012 66 10000 2.68 92 22:48 26.06.2022
2912 Clear 27 1003 55 10000 1.79 65 21:23 26.06.2022
2913 Clear 29 1003 47 10000 2.68 111 20:28 26.06.2022
2914 Clear 32 1004 41 10000 1.54 0 18:33 26.06.2022
2915 Clear 32 1004 42 10000 1.79 135 17:38 26.06.2022
2916 Clear 31 1001 42 10000 3.09 0 15:36 26.06.2022
2917 Clouds 31 1005 49 10000 3.6 160 14:22 26.06.2022
2918 Clouds 30 1005 47 10000 4.12 180 13:23 26.06.2022
2919 Clouds 28 1011 54 10000 4.02 113 11:39 26.06.2022
2920 Clouds 28 1005 54 10000 5.66 120 10:42 26.06.2022
2921 Clear 27 1005 59 10000 3.09 130 09:58 26.06.2022
2922 Clear 22 1004 83 10000 1.03 0 07:47 26.06.2022
2923 Clear 19 1012 92 10000 1.79 124 06:19 26.06.2022
2924 Clear 21 1003 84 10000 2.68 151 00:37 26.06.2022
2925 Clear 21 1003 84 10000 1.54 120 00:18 26.06.2022
2926 Clear 21 1011 81 10000 0.89 30 23:31 25.06.2022
2927 Clear 22 1011 79 10000 1.54 250 22:48 25.06.2022
2928 Clear 22 1010 78 10000 1.79 310 22:25 25.06.2022
2929 Clouds 24 1003 72 10000 2.24 270 21:21 25.06.2022
2930 Clear 25 1002 71 10000 2.68 293 20:48 25.06.2022
2931 Clear 26 1002 67 10000 3.09 250 20:25 25.06.2022
2932 Clear 26 1002 67 10000 3.09 250 20:25 25.06.2022
2933 Clouds 27 1001 66 10000 3.6 180 18:24 25.06.2022
2934 Clear 27 1008 56 10000 2.68 293 17:27 25.06.2022
2935 Clouds 28 1009 54 10000 1.54 110 16:28 25.06.2022
2936 Clouds 28 1009 60 10000 2.24 203 14:41 25.06.2022
2937 Clouds 26 1008 68 10000 2.57 0 12:51 25.06.2022
2938 Clouds 26 1008 66 10000 2.57 0 12:31 25.06.2022
2939 Clouds 23 1009 75 10000 1.54 40 09:35 25.06.2022
2940 Clear 23 1007 73 10000 2.24 138 08:54 25.06.2022
2941 Clear 22 1008 77 10000 2.06 140 08:20 25.06.2022
2942 Clear 20 1007 85 10000 2.24 144 06:36 25.06.2022
2943 Clouds 21 1006 76 10000 1.79 120 00:50 25.06.2022
2944 Clouds 21 1009 75 10000 2.57 100 23:57 24.06.2022
2945 Clouds 23 1004 66 10000 2.57 150 22:29 24.06.2022
2946 Clear 22 1007 79 10000 2.06 270 21:28 24.06.2022
2947 Clouds 24 1007 66 10000 5.14 230 20:24 24.06.2022
2948 Clear 27 1004 45 10000 7.2 250 19:37 24.06.2022
2949 Clear 27 1007 44 10000 7.2 250 19:18 24.06.2022
2950 Clear 29 1002 38 10000 6.17 230 18:44 24.06.2022
2951 Clear 30 996 38 10000 8.75 210 18:24 24.06.2022
2952 Clear 32 996 28 10000 7.15 144 16:47 24.06.2022
2953 Clear 31 998 28 10000 8.49 148 14:50 24.06.2022
2954 Clear 31 998 29 10000 6.26 143 14:23 24.06.2022
2955 Clear 31 998 32 10000 7.72 140 13:46 24.06.2022
2956 Clear 30 999 36 10000 5.66 130 11:42 24.06.2022
2957 Clear 28 1000 42 10000 6.26 119 10:39 24.06.2022
2958 Clear 26 1001 45 10000 6.71 133 09:42 24.06.2022
2959 Clear 26 1001 45 10000 6.71 133 09:42 24.06.2022
2960 Clear 24 1002 48 10000 7.15 127 08:54 24.06.2022
2961 Clear 23 1007 52 10000 5.14 130 08:19 24.06.2022
2962 Clear 20 1002 58 10000 4.02 121 06:44 24.06.2022
2963 Clear 19 1002 60 10000 4.02 117 06:25 24.06.2022
2964 Clear 19 1009 63 10000 4.47 117 04:50 24.06.2022
2965 Clear 23 1009 50 10000 4.63 70 23:43 23.06.2022
2966 Clear 24 1010 46 10000 3.6 60 22:43 23.06.2022
2967 Clear 27 1002 37 10000 3.6 70 21:22 23.06.2022
2968 Clear 28 999 32 10000 4.12 70 20:37 23.06.2022
2969 Clear 29 1003 31 10000 3.13 100 19:54 23.06.2022
2970 Clear 29 1003 29 10000 3.13 90 18:38 23.06.2022
2971 Clear 30 1004 30 10000 4.12 110 17:34 23.06.2022
2972 Clear 30 1001 30 10000 4.63 80 16:32 23.06.2022
2973 Clear 30 1001 30 10000 4.12 90 15:26 23.06.2022
2974 Clear 30 1002 31 10000 3.09 110 14:36 23.06.2022
2975 Clear 27 1012 44 10000 2.68 81 11:42 23.06.2022
2976 Clear 25 1013 50 10000 2.06 70 10:41 23.06.2022
2977 Clear 22 1013 54 10000 2.24 60 09:19 23.06.2022
2978 Clear 21 1014 57 10000 2.68 30 09:19 23.06.2022
2979 Clear 15 1005 77 10000 3.13 31 05:37 23.06.2022
2980 Clear 19 1011 64 10000 4.63 40 00:28 23.06.2022
2981 Clear 19 1010 59 10000 5.14 30 23:59 22.06.2022
2982 Clear 20 1002 56 10000 2.57 350 23:18 22.06.2022
2983 Clear 22 993 46 10000 2.68 320 21:44 22.06.2022
2984 Clear 25 1009 36 10000 3.6 350 20:52 22.06.2022
2985 Clear 26 1001 32 10000 3.13 350 20:20 22.06.2022
2986 Clear 26 1009 31 10000 2.68 340 19:43 22.06.2022
2987 Clear 28 1001 29 10000 2.68 294 17:40 22.06.2022
2988 Clear 28 999 27 10000 2.24 270 16:41 22.06.2022
2989 Clear 28 1002 29 10000 1.79 240 15:29 22.06.2022
2990 Clear 28 1002 30 10000 2.68 302 14:51 22.06.2022
2991 Clear 27 1002 32 10000 2.57 0 13:48 22.06.2022
2992 Clear 27 1002 33 10000 2.57 0 13:24 22.06.2022
2993 Clear 26 1009 36 10000 3.58 143 12:18 22.06.2022
2994 Clear 25 1008 37 10000 2.24 315 11:45 22.06.2022
2995 Clear 24 1009 40 10000 2.57 180 10:47 22.06.2022
2996 Clear 23 1009 46 10000 1.34 6 09:40 22.06.2022
2997 Clear 16 1009 74 10000 1.03 0 07:22 22.06.2022
2998 Clear 14 1011 78 10000 0.89 82 02:39 22.06.2022
2999 Clear 15 1011 74 10000 1.03 0 00:57 22.06.2022
3000 Clear 18 1011 63 10000 2.06 260 22:57 21.06.2022
3001 Clear 22 1002 47 10000 3.09 260 21:21 21.06.2022
3002 Clear 24 1003 40 10000 2.68 340 19:43 21.06.2022
3003 Clear 25 1003 38 10000 3.13 340 17:56 21.06.2022
3004 Clear 25 1004 38 10000 3.6 300 16:49 21.06.2022
3005 Clear 22 1005 47 10000 5.14 290 12:36 21.06.2022
3006 Clouds 19 1010 58 10000 5.14 280 10:55 21.06.2022
3007 Clouds 17 1005 68 10000 5.66 320 09:39 21.06.2022
3008 Clouds 13 1011 86 10000 7.15 292 07:56 21.06.2022
3009 Clear 11 1010 87 10000 5.36 274 05:33 21.06.2022
3010 Clear 12 1010 79 10000 4.02 290 00:35 21.06.2022
3011 Clear 15 1002 77 10000 3.13 300 22:23 20.06.2022
3012 Clouds 15 1002 74 10000 4.47 293 21:49 20.06.2022
3013 Clouds 17 1002 74 10000 5.81 244 20:30 20.06.2022
3014 Clouds 17 1001 75 10000 8.05 231 19:38 20.06.2022
3015 Clouds 18 1001 71 10000 5.66 260 18:44 20.06.2022
3016 Clouds 17 1002 73 10000 5.14 260 17:50 20.06.2022
3017 Clouds 16 1002 82 10000 5.36 242 16:55 20.06.2022
3018 Rain 15 1002 83 10000 4.12 270 15:53 20.06.2022
3019 Rain 15 1009 92 10000 0.89 293 12:41 20.06.2022
3020 Rain 14 1009 92 10000 2.57 110 10:32 20.06.2022
3021 Clouds 15 1000 90 10000 4.02 60 09:30 20.06.2022
3022 Thunderstorm 14 1001 89 6000 5.36 47 08:44 20.06.2022
3023 Rain 14 1009 90 10000 3.13 23 05:35 20.06.2022
3024 Rain 15 1011 80 10000 3.58 25 01:44 20.06.2022
3025 Clear 16 1010 77 10000 4.47 24 00:26 20.06.2022
3026 Clear 18 1008 77 10000 6.17 30 22:53 19.06.2022
3027 Clouds 19 1008 72 10000 7.2 20 21:57 19.06.2022
3028 Clouds 19 1008 72 10000 7.2 20 21:39 19.06.2022
3029 Clear 22 999 64 10000 6.71 355 20:39 19.06.2022
3030 Clear 24 1006 65 10000 7.72 350 19:47 19.06.2022
3031 Clouds 26 1005 60 10000 6.26 357 18:46 19.06.2022
3032 Clouds 27 997 56 10000 5.36 330 18:26 19.06.2022
3033 Clear 30 996 47 10000 8.49 307 17:22 19.06.2022
3034 Clear 31 995 40 10000 9.26 310 16:35 19.06.2022
3035 Clear 32 995 40 10000 10.73 313 15:42 19.06.2022
3036 Clear 35 992 34 10000 9.77 250 14:58 19.06.2022
3037 Clear 35 1002 35 10000 9.26 250 14:20 19.06.2022
3038 Clear 36 995 30 10000 9.77 230 13:36 19.06.2022
3039 Clear 34 995 34 10000 10.73 216 11:38 19.06.2022
3040 Clear 31 995 45 10000 8.05 198 10:31 19.06.2022
3041 Clear 27 991 53 10000 5.66 170 08:54 19.06.2022
3042 Clear 25 998 57 10000 4.63 170 08:22 19.06.2022
3043 Clear 20 1008 75 10000 3.13 110 05:44 19.06.2022
3044 Clear 21 1011 72 10000 2.68 50 02:59 19.06.2022
3045 Clear 24 1010 63 10000 3.09 50 00:26 19.06.2022
3046 Clear 25 1011 60 10000 3.58 53 23:36 18.06.2022
3047 Clear 25 1010 55 10000 4.63 40 22:55 18.06.2022
3048 Clear 28 1009 54 10000 3.6 330 21:52 18.06.2022
3049 Clouds 30 1002 45 10000 4.47 298 20:50 18.06.2022
3050 Clear 32 1003 39 10000 5.66 290 19:48 18.06.2022
3051 Clear 32 1003 35 10000 5.66 300 18:54 18.06.2022
3052 Clear 34 1010 33 10000 5.81 268 17:54 18.06.2022
3053 Clear 34 1009 30 10000 5.81 310 17:23 18.06.2022
3054 Clear 34 1010 29 10000 7.15 287 15:39 18.06.2022
3055 Clear 34 1004 30 10000 6.26 256 14:50 18.06.2022
3056 Clear 33 1005 32 10000 7.15 248 13:54 18.06.2022
3057 Clear 32 1005 35 10000 4.47 235 12:25 18.06.2022
3058 Clear 29 1006 37 10000 3.6 230 10:59 18.06.2022
3059 Clear 26 1007 40 10000 5.66 230 09:31 18.06.2022
3060 Clear 23 1013 48 10000 4.92 217 08:40 18.06.2022
3061 Clear 20 1014 53 10000 4.47 200 07:34 18.06.2022
3062 Clear 19 1009 55 10000 3.13 200 05:20 18.06.2022
3063 Clear 20 1011 56 10000 1.79 120 01:47 18.06.2022
3064 Clear 20 1011 55 10000 1.79 145 01:21 18.06.2022
3065 Clear 20 1011 54 10000 2.06 130 00:23 18.06.2022
3066 Clear 21 1012 52 10000 2.06 90 23:36 17.06.2022
3067 Clear 22 1012 50 10000 2.24 88 22:27 17.06.2022
3068 Clear 24 1012 39 10000 2.57 320 20:29 17.06.2022
3069 Clear 25 1012 37 10000 3.13 326 19:24 17.06.2022
3070 Clear 25 1012 37 10000 3.13 326 19:24 17.06.2022
3071 Clear 26 1012 35 10000 5.36 319 17:56 17.06.2022
3072 Clear 27 1013 34 10000 4.92 292 16:44 17.06.2022
3073 Clear 27 1013 34 10000 3.6 290 16:25 17.06.2022
3074 Clear 26 1013 34 10000 3.13 318 15:40 17.06.2022
3075 Clear 26 1013 37 10000 4.47 288 14:23 17.06.2022
3076 Clear 25 1014 38 10000 3.58 271 13:58 17.06.2022
3077 Clear 25 1014 39 10000 3.09 0 13:38 17.06.2022
3078 Clouds 24 1022 42 10000 4.63 290 12:28 17.06.2022
3079 Clouds 23 1021 42 10000 3.13 315 11:55 17.06.2022
3080 Clouds 22 1021 49 10000 5.14 270 11:33 17.06.2022
3081 Clear 20 1020 57 10000 4.12 280 09:36 17.06.2022
3082 Clear 18 1021 66 10000 3.13 300 08:26 17.06.2022
3083 Clear 14 1021 73 10000 2.24 265 06:45 17.06.2022
3084 Clear 13 1020 75 10000 2.68 283 04:19 17.06.2022
3085 Clear 15 1021 66 10000 2.24 320 01:56 17.06.2022
3086 Clear 16 1022 61 10000 3.09 340 00:24 17.06.2022
3087 Clear 18 1019 50 10000 5.81 3 22:42 16.06.2022
3088 Clear 20 1018 48 10000 5.14 330 21:23 16.06.2022
3089 Clear 21 1017 48 10000 5.66 350 20:55 16.06.2022
3090 Clear 21 1017 49 10000 5.81 340 20:35 16.06.2022
3091 Clear 22 1017 49 10000 6.26 331 19:45 16.06.2022
3092 Clear 24 1010 42 10000 7.2 330 18:26 16.06.2022
3093 Clear 24 1009 41 10000 6.71 311 17:43 16.06.2022
3094 Clear 24 1009 41 10000 6.17 320 17:43 16.06.2022
3095 Clear 25 1009 41 10000 5.66 320 16:39 16.06.2022
3096 Clear 25 1009 43 10000 5.36 2 15:22 16.06.2022
3097 Clear 25 1009 44 10000 5.81 354 14:37 16.06.2022
3098 Clear 24 1008 44 10000 4.63 30 13:22 16.06.2022
3099 Clear 24 1008 45 10000 4.02 347 12:36 16.06.2022
3100 Clear 23 1016 48 10000 5.14 10 11:52 16.06.2022
3101 Clear 22 1015 54 10000 4.47 3 10:56 16.06.2022
3102 Clear 21 1008 54 10000 4.47 18 10:20 16.06.2022
3103 Clear 20 1008 61 10000 3.09 10 09:21 16.06.2022
3104 Clear 18 1007 68 10000 3.6 20 08:30 16.06.2022
3105 Clear 16 1007 75 10000 3.6 30 07:26 16.06.2022
3106 Clear 14 1007 74 10000 2.57 30 04:50 16.06.2022
3107 Clear 16 1007 67 10000 3.09 30 02:50 16.06.2022
3108 Clear 16 1015 67 10000 3.13 59 01:42 16.06.2022
3109 Clear 16 1015 64 10000 3.09 60 01:21 16.06.2022
3110 Clear 16 1015 63 10000 3.58 60 01:21 16.06.2022
3111 Clear 18 1015 58 10000 2.68 80 23:47 15.06.2022
3112 Clear 19 1015 59 10000 3.13 80 22:42 15.06.2022
3113 Clear 22 1007 48 10000 4.02 51 21:23 15.06.2022
3114 Clear 24 1006 41 10000 4.63 60 20:45 15.06.2022
3115 Clear 24 1007 38 10000 3.6 70 20:27 15.06.2022
3116 Clear 25 1008 35 10000 2.24 7 19:30 15.06.2022
3117 Clear 26 1008 36 10000 3.09 360 17:56 15.06.2022
3118 Clear 26 1008 35 10000 2.24 343 17:33 15.06.2022
3119 Clear 26 1006 35 10000 2.68 20 15:46 15.06.2022
3120 Clear 25 1008 38 10000 2.24 9 14:26 15.06.2022
3121 Clear 24 1011 40 10000 1.79 73 12:56 15.06.2022
3122 Clear 24 1011 39 10000 3.09 0 12:32 15.06.2022
3123 Clear 20 1012 50 10000 2.68 80 10:28 15.06.2022
3124 Clear 20 1012 51 10000 2.24 120 09:53 15.06.2022
3125 Clear 18 1017 58 10000 2.24 99 08:57 15.06.2022
3126 Clear 13 1019 77 10000 2.24 72 07:21 15.06.2022
3127 Clear 12 1011 79 10000 1.34 116 04:51 15.06.2022
3128 Clear 13 1012 73 10000 1.79 116 02:28 15.06.2022
3129 Clouds 13 1012 73 10000 1.03 100 01:33 15.06.2022
3130 Clear 13 1011 70 10000 1.54 140 23:55 14.06.2022
3131 Clear 14 1011 71 10000 1.54 140 23:37 14.06.2022
3132 Clear 15 1011 64 10000 1.79 85 22:33 14.06.2022
3133 Clear 17 1011 56 10000 2.57 30 21:42 14.06.2022
3134 Clear 18 1011 55 10000 4.12 340 20:57 14.06.2022
3135 Clear 18 1011 55 10000 4.92 336 20:36 14.06.2022
3136 Clear 20 1011 50 10000 5.36 354 19:32 14.06.2022
3137 Clear 20 1011 46 10000 5.36 322 18:33 14.06.2022
3138 Clear 21 1012 43 10000 4.47 320 16:50 14.06.2022
3139 Clear 21 1012 44 10000 5.14 310 16:25 14.06.2022
3140 Clear 20 1012 46 10000 6.26 283 15:36 14.06.2022
3141 Clear 19 1012 47 10000 6.71 298 14:53 14.06.2022
3142 Clouds 18 1012 53 10000 6.71 287 13:57 14.06.2022
3143 Clouds 18 1018 49 10000 4.12 300 12:58 14.06.2022
3144 Clouds 17 1019 55 10000 5.81 308 11:54 14.06.2022
3145 Clouds 17 1013 57 10000 6.17 310 10:51 14.06.2022
3146 Clouds 15 1020 63 10000 7.2 290 10:25 14.06.2022
3147 Clouds 14 1019 66 10000 6.69 290 09:18 14.06.2022
3148 Clear 13 1019 72 10000 4.12 280 08:24 14.06.2022
3149 Clear 11 1019 79 10000 2.68 273 06:20 14.06.2022
3150 Clouds 11 1019 76 10000 4.12 290 03:45 14.06.2022
3151 Clouds 12 1018 82 10000 3.6 280 01:37 14.06.2022
3152 Clouds 13 1018 75 10000 3.09 270 00:21 14.06.2022
3153 Clouds 15 1018 69 10000 6.17 290 22:45 13.06.2022
3154 Clouds 16 1017 67 10000 4.02 293 22:22 13.06.2022
3155 Clouds 16 1016 65 10000 4.02 308 21:26 13.06.2022
3156 Clouds 18 1009 59 10000 8.94 287 19:59 13.06.2022
3157 Clouds 18 1015 59 10000 8.05 290 18:54 13.06.2022
3158 Clear 19 1016 54 10000 7.6 299 17:56 13.06.2022
3159 Clear 20 1008 48 10000 6.71 278 17:25 13.06.2022
3160 Clear 20 1008 48 10000 8.75 280 16:31 13.06.2022
3161 Clear 20 1014 47 10000 8.94 301 14:51 13.06.2022
3162 Clear 20 1014 45 10000 7.2 280 14:31 13.06.2022
3163 Clear 21 1015 43 10000 8.23 270 13:33 13.06.2022
3164 Clouds 19 1014 50 10000 7.15 306 12:23 13.06.2022
3165 Clear 18 1014 48 10000 5.36 290 10:56 13.06.2022
3166 Clear 17 1015 57 10000 5.81 316 10:26 13.06.2022
3167 Clear 16 1015 60 10000 6.71 308 08:59 13.06.2022
3168 Clear 15 1014 70 10000 4.92 315 06:53 13.06.2022
3169 Clear 15 1015 74 10000 3.13 315 05:35 13.06.2022
3170 Clear 17 1015 66 10000 5.14 340 02:27 13.06.2022
3171 Clear 17 1015 62 10000 4.92 2 01:36 13.06.2022
3172 Clear 18 1013 57 10000 1.54 260 23:50 12.06.2022
3173 Clear 19 1013 59 10000 3.13 330 22:44 12.06.2022
3174 Clear 19 1017 59 10000 3.6 330 21:58 12.06.2022
3175 Clear 23 1014 41 10000 4.12 310 20:58 12.06.2022
3176 Clear 24 1007 38 10000 6.71 314 20:19 12.06.2022
3177 Clear 25 1007 34 10000 5.36 293 19:30 12.06.2022
3178 Clear 26 1008 36 10000 6.26 271 17:47 12.06.2022
3179 Clear 26 1006 39 10000 6.17 280 15:58 12.06.2022
3180 Clear 26 1009 46 10000 4.12 270 14:57 12.06.2022
3181 Clouds 25 1009 49 10000 4.12 330 14:21 12.06.2022
3182 Clouds 25 1010 52 10000 3.58 315 13:51 12.06.2022
3183 Clouds 23 1018 58 10000 2.68 340 12:37 12.06.2022
3184 Clouds 23 1018 63 10000 2.68 9 11:39 12.06.2022
3185 Clouds 21 1010 72 10000 2.06 360 10:22 12.06.2022
3186 Clear 20 1009 79 10000 2.57 60 08:55 12.06.2022
3187 Clear 19 1011 78 10000 2.57 60 08:36 12.06.2022
3188 Clouds 17 1018 86 10000 0.89 132 07:32 12.06.2022
3189 Clear 16 1011 83 10000 1.34 120 04:45 12.06.2022
3190 Clear 17 1012 77 10000 1.79 83 03:24 12.06.2022
3191 Clear 18 1012 71 10000 3.09 80 01:42 12.06.2022
3192 Clear 18 1019 70 10000 1.54 280 00:58 12.06.2022
3193 Clear 18 1019 67 10000 2.68 248 00:21 12.06.2022
3194 Clear 19 1019 64 10000 2.06 280 23:44 11.06.2022
3195 Clear 19 1018 60 10000 2.24 310 22:39 11.06.2022
3196 Clouds 21 1021 68 10000 1.26 305 21:53 11.06.2022
3197 Clear 25 1016 54 10000 3.58 270 20:38 11.06.2022
3198 Clear 25 1020 45 10000 5.66 290 19:46 11.06.2022
3199 Clear 25 1020 54 10000 7.2 280 19:26 11.06.2022
3200 Clear 26 1016 48 10000 4.12 270 18:34 11.06.2022
3201 Clear 26 1016 50 10000 3.58 240 17:51 11.06.2022
3202 Clear 26 1018 41 10000 4.47 281 17:27 11.06.2022
3203 Clear 26 1017 44 10000 6.17 290 16:56 11.06.2022
3204 Clear 26 1011 44 10000 5.36 270 16:29 11.06.2022
3205 Clear 26 1011 48 10000 5.81 254 15:42 11.06.2022
3206 Clear 26 1017 40 10000 5.14 260 13:53 11.06.2022
3207 Clear 26 1018 38 10000 5.36 222 12:57 11.06.2022
3208 Clear 24 1018 48 10000 4.12 230 10:55 11.06.2022
3209 Clear 23 1018 50 10000 4.92 230 10:19 11.06.2022
3210 Clear 21 1018 57 10000 3.13 220 09:19 11.06.2022
3211 Clear 20 1012 64 10000 1.54 200 07:43 11.06.2022
3212 Clear 18 1012 70 10000 1.54 230 06:30 11.06.2022
3213 Clear 17 1011 72 10000 2.24 269 05:19 11.06.2022
3214 Clear 18 1019 68 10000 2.24 179 01:53 11.06.2022
3215 Clear 18 1019 66 10000 0.89 121 01:33 11.06.2022
3216 Clear 19 1019 63 10000 0.89 39 00:21 11.06.2022
3217 Clear 20 1011 57 10000 1.54 290 22:33 10.06.2022
3218 Clear 21 1019 55 10000 2.68 301 21:53 10.06.2022
3219 Clear 23 1007 45 10000 3.6 290 20:43 10.06.2022
3220 Clear 24 1011 42 10000 3.6 290 20:23 10.06.2022
3221 Clear 24 1011 41 10000 3.6 300 19:48 10.06.2022
3222 Clear 24 1011 39 10000 3.13 278 19:18 10.06.2022
3223 Clear 25 1011 37 10000 5.14 310 18:19 10.06.2022
3224 Clear 25 1011 36 10000 3.13 342 17:36 10.06.2022
3225 Clear 25 1008 34 10000 4.02 280 16:56 10.06.2022
3226 Clear 25 1011 36 10000 5.81 306 15:50 10.06.2022
3227 Clear 25 1012 35 10000 5.81 270 15:30 10.06.2022
3228 Clear 24 1013 42 10000 4.63 300 13:49 10.06.2022
3229 Clouds 22 1018 47 10000 5.66 320 12:35 10.06.2022
3230 Clouds 22 1018 52 10000 6.71 282 11:40 10.06.2022
3231 Clouds 21 1018 53 10000 8.94 296 10:43 10.06.2022
3232 Clouds 19 1018 61 10000 5.81 296 09:44 10.06.2022
3233 Clear 17 1019 74 10000 5.14 310 08:28 10.06.2022
3234 Clear 15 1019 81 10000 3.13 310 07:20 10.06.2022
3235 Clear 13 1018 84 10000 3.09 300 06:43 10.06.2022
3236 Clear 13 1018 84 10000 2.68 270 06:24 10.06.2022
3237 Clear 14 1017 80 10000 3.58 330 03:50 10.06.2022
3238 Clouds 16 1015 77 10000 2.68 320 01:41 10.06.2022
3239 Clear 17 1007 73 10000 3.58 296 00:27 10.06.2022
3240 Clear 18 1007 70 10000 2.06 290 23:29 09.06.2022
3241 Clear 20 1006 66 10000 3.13 320 21:58 09.06.2022
3242 Clear 20 1006 64 10000 3.13 304 21:32 09.06.2022
3243 Clear 21 1005 63 10000 3.13 320 20:54 09.06.2022
3244 Clear 21 1005 63 10000 3.13 320 20:54 09.06.2022
3245 Clouds 21 1004 60 10000 3.13 293 19:59 09.06.2022
3246 Clouds 22 1004 62 10000 3.58 285 18:54 09.06.2022
3247 Clouds 22 1003 61 10000 3.13 283 18:21 09.06.2022
3248 Rain 21 1000 64 10000 2.57 270 16:50 09.06.2022
3249 Clouds 22 993 61 10000 2.57 230 15:48 09.06.2022
3250 Clouds 20 1002 70 10000 3.09 280 14:35 09.06.2022
3251 Clouds 20 1003 68 10000 3.09 290 13:51 09.06.2022
3252 Clouds 20 1002 68 10000 4.12 270 13:27 09.06.2022
3253 Clouds 20 993 76 10000 3.6 300 11:54 09.06.2022
3254 Clouds 20 1001 69 10000 3.6 290 11:18 09.06.2022
3255 Clouds 19 1005 72 10000 4.63 270 09:44 09.06.2022
3256 Clear 19 1006 72 10000 5.14 280 09:23 09.06.2022
3257 Clear 18 1005 73 10000 4.92 282 07:45 09.06.2022
3258 Clear 18 1005 73 10000 4.63 290 07:45 09.06.2022
3259 Clear 16 1004 81 10000 2.68 300 06:28 09.06.2022
3260 Clouds 18 1005 78 10000 3.13 170 02:38 09.06.2022
3261 Clear 18 1005 74 10000 2.06 120 23:39 08.06.2022
3262 Clear 19 1004 70 10000 2.24 111 22:58 08.06.2022
3263 Clouds 21 1004 61 10000 3.13 113 22:27 08.06.2022
3264 Clouds 21 1004 68 10000 3.13 108 21:54 08.06.2022
3265 Clouds 22 1006 61 10000 3.6 110 21:21 08.06.2022
3266 Clouds 22 1006 61 10000 3.6 110 21:21 08.06.2022
3267 Clouds 24 1004 57 10000 3.58 114 20:21 08.06.2022
3268 Clouds 24 1004 51 10000 3.13 129 19:38 08.06.2022
3269 Clear 25 1004 51 10000 3.58 135 18:45 08.06.2022
3270 Clear 25 1005 45 10000 4.02 209 17:18 08.06.2022
3271 Clear 25 998 51 10000 4.63 190 15:44 08.06.2022
3272 Clear 24 999 52 10000 5.36 196 13:51 08.06.2022
3273 Clouds 24 1005 49 10000 3.6 210 12:20 08.06.2022
3274 Clouds 23 1006 52 10000 4.12 180 11:33 08.06.2022
3275 Clouds 22 1000 60 10000 2.06 230 09:59 08.06.2022
3276 Clear 21 1001 61 10000 2.57 240 09:22 08.06.2022
3277 Clear 20 1000 66 10000 2.06 220 08:40 08.06.2022
3278 Clear 14 1008 83 10000 1.34 196 05:55 08.06.2022
3279 Clear 15 1009 79 10000 1.54 170 03:55 08.06.2022
3280 Clear 16 1009 71 10000 1.03 100 00:45 08.06.2022
3281 Clear 17 1009 66 10000 2.68 293 23:29 07.06.2022
3282 Clear 18 1007 69 10000 2.06 260 22:45 07.06.2022
3283 Clear 18 1009 63 10000 2.68 225 22:26 07.06.2022
3284 Clear 20 1009 58 10000 2.68 235 21:34 07.06.2022
3285 Clear 20 1011 54 10000 2.06 250 20:58 07.06.2022
3286 Clear 22 1010 46 10000 2.57 270 20:32 07.06.2022
3287 Clear 23 997 45 10000 3.58 262 19:38 07.06.2022
3288 Clear 24 1000 40 10000 5.36 256 18:24 07.06.2022
3289 Clear 24 1009 42 10000 5.36 230 17:27 07.06.2022
3290 Clear 24 1008 45 10000 5.81 193 16:43 07.06.2022
3291 Clear 23 1001 45 10000 4.92 215 15:56 07.06.2022
3292 Clear 23 1002 46 10000 3.58 210 15:26 07.06.2022
3293 Clear 23 1002 47 10000 4.12 220 14:52 07.06.2022
3294 Clear 23 1002 48 10000 4.47 224 14:32 07.06.2022
3295 Clear 23 1003 50 10000 3.6 180 13:32 07.06.2022
3296 Clear 23 1010 54 10000 4.12 190 12:52 07.06.2022
3297 Clouds 22 1010 51 10000 3.13 234 11:48 07.06.2022
3298 Clear 21 1011 59 10000 1.79 315 10:27 07.06.2022
3299 Clear 18 1011 72 10000 1.54 310 08:51 07.06.2022
3300 Clear 15 1010 84 10000 3.13 308 07:35 07.06.2022
3301 Clear 14 1010 89 10000 2.24 279 06:38 07.06.2022
3302 Clear 14 1010 89 10000 2.24 283 06:38 07.06.2022
3303 Clear 14 1012 93 10000 1.79 150 04:20 07.06.2022
3304 Clear 16 1011 87 10000 1.79 107 01:27 07.06.2022
3305 Clear 15 1012 90 10000 1.54 100 01:27 07.06.2022
3306 Clear 16 1011 87 10000 1.54 170 23:52 06.06.2022
3307 Clear 17 1012 87 10000 2.06 240 22:54 06.06.2022
3308 Clear 17 1012 85 10000 1.79 236 22:29 06.06.2022
3309 Clear 19 1012 80 10000 1.79 244 20:47 06.06.2022
3310 Clouds 20 1011 75 10000 5.14 280 19:28 06.06.2022
3311 Clouds 21 1003 68 10000 7.2 290 18:49 06.06.2022
3312 Clouds 22 1004 66 10000 10.8 270 18:21 06.06.2022
3313 Clouds 24 1011 61 10000 4.02 202 17:24 06.06.2022
3314 Clouds 25 1004 50 10000 4.63 210 16:18 06.06.2022
3315 Clouds 24 1004 56 10000 4.63 210 15:23 06.06.2022
3316 Clouds 24 1014 56 10000 4.12 220 14:29 06.06.2022
3317 Clouds 23 1011 56 10000 4.63 260 13:22 06.06.2022
3318 Clouds 23 1012 58 10000 4.12 240 12:36 06.06.2022
3319 Clouds 23 1012 64 10000 4.63 270 11:53 06.06.2022
3320 Clouds 21 1013 70 10000 5.14 260 10:21 06.06.2022
3321 Clear 20 1012 80 10000 4.92 277 09:33 06.06.2022
3322 Clouds 18 1012 88 10000 4.47 237 08:32 06.06.2022
3323 Clouds 18 1004 90 10000 2.24 260 07:28 06.06.2022
3324 Rain 18 1010 84 10000 4.47 209 05:27 06.06.2022
3325 Rain 22 1012 49 10000 4.63 120 02:55 06.06.2022
3326 Clear 22 1003 54 10000 5.81 116 01:18 06.06.2022
3327 Clear 22 1004 54 10000 5.81 115 00:38 06.06.2022
3328 Clear 23 1004 56 10000 4.47 94 23:34 05.06.2022
3329 Clear 23 1012 50 10000 4.02 103 22:45 05.06.2022
3330 Clear 25 1011 45 10000 4.47 97 20:47 05.06.2022
3331 Clear 27 999 41 10000 5.14 110 19:41 05.06.2022
3332 Clear 27 1005 38 10000 6.26 111 18:30 05.06.2022
3333 Clear 28 1005 38 10000 5.14 100 17:54 05.06.2022
3334 Clear 28 1005 38 10000 7.15 113 17:25 05.06.2022
3335 Clear 28 1006 38 10000 5.81 106 16:51 05.06.2022
3336 Clear 28 1006 38 10000 4.47 107 16:32 05.06.2022
3337 Clear 27 1006 40 10000 4.63 100 14:25 05.06.2022
3338 Clear 25 1009 42 10000 3.6 90 12:55 05.06.2022
3339 Clear 25 1009 42 10000 3.6 90 12:55 05.06.2022
3340 Clear 24 1017 44 10000 3.6 90 11:47 05.06.2022
3341 Clear 21 1017 53 10000 2.68 61 10:38 05.06.2022
3342 Clear 21 1017 55 10000 2.06 90 10:20 05.06.2022
3343 Clear 16 1018 66 10000 3.09 70 08:34 05.06.2022
3344 Clear 14 1018 73 10000 3.09 60 07:48 05.06.2022
3345 Clear 11 1012 81 10000 3.58 49 05:22 05.06.2022
3346 Clear 12 1019 78 10000 3.09 40 04:19 05.06.2022
3347 Clear 14 1020 64 10000 4.47 46 01:32 05.06.2022
3348 Clear 14 1020 64 10000 4.47 46 01:32 05.06.2022
3349 Clear 15 1020 60 10000 4.02 51 00:39 05.06.2022
3350 Clear 18 1019 56 10000 4.63 40 22:36 04.06.2022
3351 Clear 22 1014 59 10000 4.12 50 20:42 04.06.2022
3352 Clear 24 1010 45 10000 3.6 40 18:51 04.06.2022
3353 Clear 25 1010 42 10000 5.36 17 16:47 04.06.2022
3354 Clear 24 1010 43 10000 4.92 41 16:19 04.06.2022
3355 Clear 24 1010 48 10000 4.47 48 14:54 04.06.2022
3356 Clouds 23 1008 50 10000 6.26 25 13:37 04.06.2022
3357 Clear 20 1010 56 10000 5.14 360 11:23 04.06.2022
3358 Clear 19 1010 57 10000 4.63 20 10:50 04.06.2022
3359 Clear 19 1009 59 10000 3.6 20 09:45 04.06.2022
3360 Clear 17 1016 58 10000 5.36 30 08:44 04.06.2022
3361 Clear 16 1015 64 10000 5.36 20 07:51 04.06.2022
3362 Clear 16 1007 67 10000 4.02 21 05:38 04.06.2022
3363 Clear 17 1015 65 10000 3.13 40 02:36 04.06.2022
3364 Clear 19 1008 54 10000 5.14 50 00:20 04.06.2022
3365 Clear 20 1008 48 10000 5.14 50 22:49 03.06.2022
3366 Clear 21 1007 48 10000 4.12 40 21:43 03.06.2022
3367 Clear 23 1007 40 10000 4.63 40 20:38 03.06.2022
3368 Clear 25 1008 37 10000 1.79 143 19:19 03.06.2022
3369 Clear 26 1008 32 10000 2.57 0 16:54 03.06.2022
3370 Clear 25 1006 32 10000 2.57 130 15:51 03.06.2022
3371 Clear 24 1008 38 10000 2.24 90 13:51 03.06.2022
3372 Clear 22 1019 43 10000 3.58 130 11:51 03.06.2022
3373 Clear 19 1019 51 10000 3.6 100 09:56 03.06.2022
3374 Clear 18 1019 55 10000 3.09 100 09:29 03.06.2022
3375 Clear 13 1020 76 10000 1.34 135 07:43 03.06.2022
3376 Clear 11 1020 82 10000 1.03 0 06:49 03.06.2022
3377 Clear 11 1012 82 10000 1.03 110 06:27 03.06.2022
3378 Clear 11 1013 79 10000 1.03 340 02:58 03.06.2022
3379 Clear 12 1020 77 10000 1.03 270 23:52 02.06.2022
3380 Clear 14 1020 68 10000 2.57 310 22:23 02.06.2022
3381 Clear 17 1019 58 10000 3.6 300 20:56 02.06.2022
3382 Clear 18 1018 53 10000 5.36 317 19:56 02.06.2022
3383 Clear 18 1019 49 10000 6.26 297 19:38 02.06.2022
3384 Clear 19 1012 46 10000 5.14 280 18:41 02.06.2022
3385 Clear 20 1011 46 10000 5.66 280 16:28 02.06.2022
3386 Clear 20 1011 44 10000 5.14 280 15:47 02.06.2022
3387 Clouds 19 1011 50 10000 6.71 280 13:31 02.06.2022
3388 Clouds 19 1011 52 10000 6.17 270 12:49 02.06.2022
3389 Clouds 16 1016 64 10000 5.14 290 10:45 02.06.2022
3390 Clouds 14 1016 74 10000 5.81 289 09:30 02.06.2022
3391 Clouds 13 1015 77 10000 4.63 260 08:45 02.06.2022
3392 Clouds 12 1015 78 10000 4.47 255 08:23 02.06.2022
3393 Clear 10 1015 85 10000 2.57 250 06:21 02.06.2022
3394 Clear 11 1014 81 10000 3.09 240 03:51 02.06.2022
3395 Clear 12 1006 76 10000 3.6 220 01:33 02.06.2022
3396 Rain 13 1012 73 10000 4.47 229 23:22 01.06.2022
3397 Clear 14 1012 69 10000 4.02 224 22:18 01.06.2022
3398 Clouds 16 1011 63 10000 4.12 230 21:24 01.06.2022
3399 Clouds 16 1012 57 10000 4.12 260 20:39 01.06.2022
3400 Clouds 18 1004 53 10000 5.81 302 19:52 01.06.2022
3401 Clear 19 1004 50 10000 4.92 280 18:52 01.06.2022
3402 Clouds 18 1010 57 10000 5.36 293 17:38 01.06.2022
3403 Rain 18 1002 64 10000 9.83 235 15:56 01.06.2022
3404 Clouds 20 1001 47 10000 8.49 239 14:51 01.06.2022
3405 Clouds 20 1003 53 10000 5.66 230 13:44 01.06.2022
3406 Clouds 18 1009 60 10000 2.68 272 11:32 01.06.2022
3407 Clear 16 1009 70 10000 2.68 204 09:34 01.06.2022
3408 Clouds 14 1010 81 10000 3.6 240 08:28 01.06.2022
3409 Clear 13 1009 83 10000 3.09 220 07:21 01.06.2022
3410 Clear 12 1009 92 10000 2.24 270 04:58 01.06.2022
3411 Rain 13 1012 81 10000 4.92 190 23:57 31.05.2022
3412 Rain 14 1013 77 10000 2.57 140 22:51 31.05.2022
3413 Rain 15 1013 73 10000 3.19 140 22:29 31.05.2022
3414 Rain 16 1008 62 10000 2.57 20 21:45 31.05.2022
3415 Clear 18 1010 53 10000 2.06 90 20:45 31.05.2022
3416 Clear 19 1002 48 10000 0.89 0 19:52 31.05.2022
3417 Clear 20 1003 43 10000 2.06 130 18:45 31.05.2022
3418 Clouds 20 1004 39 10000 2.24 190 17:49 31.05.2022
3419 Clouds 20 1004 38 10000 2.24 190 17:49 31.05.2022
3420 Clear 20 1004 43 10000 3.13 175 16:48 31.05.2022
3421 Clear 20 1004 43 10000 2.68 158 15:40 31.05.2022
3422 Clear 19 1005 44 10000 3.13 203 13:38 31.05.2022
3423 Clear 18 1006 45 10000 3.13 218 12:19 31.05.2022
3424 Clouds 17 1012 53 10000 3.13 189 10:52 31.05.2022
3425 Clear 13 1012 69 10000 1.79 165 08:41 31.05.2022
3426 Clear 9 1013 86 10000 1.54 170 06:57 31.05.2022
3427 Clear 8 1013 89 10000 0.51 250 04:53 31.05.2022
3428 Clear 9 1013 81 10000 1.54 270 00:26 31.05.2022
3429 Clouds 10 1013 79 10000 4.47 260 23:26 30.05.2022
3430 Clouds 11 1013 78 10000 3.13 259 22:48 30.05.2022
3431 Clouds 12 1012 72 10000 3.13 293 21:52 30.05.2022
3432 Clouds 13 1012 72 10000 4.12 300 21:32 30.05.2022
3433 Clouds 14 1011 65 10000 6.26 270 19:57 30.05.2022
3434 Clouds 15 1004 58 10000 6.26 281 18:40 30.05.2022
3435 Clouds 16 1003 60 10000 6.26 294 17:35 30.05.2022
3436 Clouds 16 1003 57 10000 5.14 280 16:41 30.05.2022
3437 Clouds 16 1010 54 10000 5.36 277 14:35 30.05.2022
3438 Clouds 15 1002 62 10000 5.14 290 12:24 30.05.2022
3439 Clouds 13 1002 72 10000 4.63 280 10:41 30.05.2022
3440 Clouds 11 1002 81 10000 4.12 280 09:21 30.05.2022
3441 Clouds 10 1008 89 10000 3.13 260 07:18 30.05.2022
3442 Clouds 10 1007 88 10000 1.79 267 05:48 30.05.2022
3443 Clouds 10 1006 85 10000 1.79 290 01:48 30.05.2022
3444 Clouds 12 1008 79 10000 1.03 0 23:19 29.05.2022
3445 Clouds 12 1008 78 10000 0.51 0 22:37 29.05.2022
3446 Clouds 14 1008 73 10000 1.54 230 20:55 29.05.2022
3447 Clouds 15 1001 61 10000 3.6 270 19:33 29.05.2022
3448 Clouds 15 1001 64 10000 2.06 270 18:53 29.05.2022
3449 Clouds 15 1001 67 10000 6.69 260 17:31 29.05.2022
3450 Clouds 15 1002 63 10000 5.81 235 15:48 29.05.2022
3451 Clouds 15 1002 68 10000 3.6 280 15:23 29.05.2022
3452 Clouds 14 1002 72 10000 5.36 220 13:59 29.05.2022
3453 Clouds 13 1009 76 10000 4.12 200 11:42 29.05.2022
3454 Clouds 13 1002 73 10000 4.47 244 10:40 29.05.2022
3455 Clouds 12 1002 77 10000 4.12 250 09:31 29.05.2022
3456 Clouds 9 1010 83 10000 3.13 238 06:24 29.05.2022
3457 Clouds 9 1009 83 10000 3.58 270 04:45 29.05.2022
3458 Clear 10 1010 79 10000 3.58 270 04:19 29.05.2022
3459 Clear 11 1011 71 10000 5.66 290 23:53 28.05.2022
3460 Clear 12 1004 70 10000 5.81 286 23:34 28.05.2022
3461 Clear 12 1004 71 10000 7.2 290 22:40 28.05.2022
3462 Clear 12 1004 70 10000 5.81 299 21:38 28.05.2022
3463 Clear 14 1004 66 10000 7.2 290 19:51 28.05.2022
3464 Clouds 14 1004 67 10000 9.83 284 18:58 28.05.2022
3465 Clouds 15 1003 60 10000 11.32 270 17:38 28.05.2022
3466 Clouds 15 1003 61 10000 11.62 290 16:50 28.05.2022
3467 Clouds 16 1002 57 10000 12.35 280 15:43 28.05.2022
3468 Clouds 16 1002 57 10000 10.29 280 14:35 28.05.2022
3469 Clouds 15 1003 60 10000 9.77 280 13:21 28.05.2022
3470 Clouds 15 1003 64 10000 11.32 270 12:39 28.05.2022
3471 Clouds 13 1003 65 10000 10.29 280 11:26 28.05.2022
3472 Clouds 12 1010 69 10000 10.73 277 10:25 28.05.2022
3473 Clouds 11 1009 78 10000 10.73 269 09:30 28.05.2022
3474 Clouds 9 1009 82 10000 8.23 280 07:47 28.05.2022
3475 Clouds 9 1009 81 10000 8.49 250 06:32 28.05.2022
3476 Clear 9 1003 83 10000 6.17 270 03:53 28.05.2022
3477 Clouds 10 1005 83 10000 10.8 300 00:50 28.05.2022
3478 Clear 11 1005 78 10000 6.69 270 23:42 27.05.2022
3479 Rain 12 1005 75 10000 7.6 310 22:24 27.05.2022
3480 Clouds 13 1011 68 10000 9.83 282 20:58 27.05.2022
3481 Clouds 13 1011 64 10000 7.72 290 20:40 27.05.2022
3482 Rain 15 1005 56 10000 8.23 290 19:56 27.05.2022
3483 Clouds 15 1004 59 10000 7.6 290 19:34 27.05.2022
3484 Clear 16 1004 56 10000 9.39 301 18:37 27.05.2022
3485 Clouds 18 1004 48 10000 10.73 292 16:42 27.05.2022
3486 Clear 18 1002 49 10000 10.73 299 15:46 27.05.2022
3487 Clouds 17 1002 51 10000 12.07 289 14:45 27.05.2022
3488 Clear 18 1004 51 10000 7.2 280 13:36 27.05.2022
3489 Clouds 17 1011 57 10000 12.86 280 11:48 27.05.2022
3490 Clouds 17 1011 59 10000 9.39 285 11:26 27.05.2022
3491 Clouds 16 1011 62 10000 9.77 290 10:35 27.05.2022
3492 Clouds 15 1004 77 10000 6.69 280 09:52 27.05.2022
3493 Clouds 15 1003 81 10000 8.94 286 09:28 27.05.2022
3494 Rain 14 1011 90 10000 4.63 260 06:58 27.05.2022
3495 Drizzle 14 1005 87 10000 5.14 300 02:57 27.05.2022
3496 Rain 16 1013 77 10000 2.68 255 00:57 27.05.2022
3497 Clouds 17 1007 70 10000 4.92 280 23:23 26.05.2022
3498 Clouds 18 1007 64 10000 5.66 260 21:48 26.05.2022
3499 Clear 18 1013 60 10000 4.92 257 20:59 26.05.2022
3500 Clear 19 1014 57 10000 5.36 280 19:30 26.05.2022
3501 Clear 20 1007 49 10000 9.83 288 18:24 26.05.2022
3502 Clear 20 1007 50 10000 8.23 280 17:34 26.05.2022
3503 Clouds 20 1007 47 10000 8.94 276 15:58 26.05.2022
3504 Clouds 21 1007 50 10000 9.26 280 15:19 26.05.2022
3505 Clouds 20 1007 57 10000 8.94 268 13:56 26.05.2022
3506 Clouds 18 1014 66 10000 8.94 251 11:49 26.05.2022
3507 Clouds 16 1007 77 7000 7.15 290 10:39 26.05.2022
3508 Rain 16 1013 75 10000 8.49 263 09:38 26.05.2022
3509 Clouds 16 1012 64 10000 8.49 259 08:38 26.05.2022
3510 Clear 15 1005 63 10000 4.12 260 05:30 26.05.2022
3511 Clear 13 1013 69 10000 3.6 220 02:20 26.05.2022
3512 Clear 14 1013 68 10000 4.12 240 23:50 25.05.2022
3513 Clear 15 1012 70 10000 3.6 230 22:52 25.05.2022
3514 Clear 17 1012 59 10000 3.6 230 21:42 25.05.2022
3515 Clear 19 1009 60 10000 4.12 230 20:49 25.05.2022
3516 Clear 19 1012 59 10000 6.17 230 19:42 25.05.2022
3517 Clear 20 1004 49 10000 6.17 230 18:47 25.05.2022
3518 Clouds 20 1004 47 10000 6.17 220 17:24 25.05.2022
3519 Clouds 20 1004 48 10000 5.81 205 16:33 25.05.2022
3520 Clouds 21 1004 48 10000 3.13 250 15:36 25.05.2022
3521 Clouds 21 1002 50 10000 2.68 307 14:50 25.05.2022
3522 Clouds 21 1004 50 10000 4.63 290 14:32 25.05.2022
3523 Clouds 20 1011 49 10000 3.6 270 13:23 25.05.2022
3524 Clouds 20 1010 49 10000 3.6 270 13:23 25.05.2022
3525 Clouds 18 1012 58 10000 3.58 239 11:50 25.05.2022
3526 Clouds 17 1012 63 10000 3.09 240 10:42 25.05.2022
3527 Clear 17 1012 64 10000 2.68 158 09:45 25.05.2022
3528 Clouds 15 1010 77 10000 2.68 293 08:21 25.05.2022
3529 Clear 11 1010 86 10000 1.79 202 05:57 25.05.2022
3530 Clouds 11 1007 82 10000 1.34 210 02:46 25.05.2022
3531 Clear 14 1008 76 10000 2.24 267 23:52 24.05.2022
3532 Clear 14 1008 76 10000 2.57 250 23:23 24.05.2022
3533 Clear 15 1008 73 10000 2.68 260 22:18 24.05.2022
3534 Clear 16 1007 71 10000 1.79 278 21:38 24.05.2022
3535 Clear 17 1007 68 10000 2.68 280 21:19 24.05.2022
3536 Clouds 19 998 64 10000 4.63 290 19:28 24.05.2022
3537 Clouds 19 1005 60 10000 4.92 295 18:40 24.05.2022
3538 Rain 19 1006 69 10000 7.2 220 16:40 24.05.2022
3539 Clouds 21 999 53 10000 6.17 210 15:54 24.05.2022
3540 Clouds 22 1003 59 10000 4.63 200 14:45 24.05.2022
3541 Clouds 22 995 52 10000 7.15 236 13:48 24.05.2022
3542 Clouds 22 993 56 10000 6.26 253 12:42 24.05.2022
3543 Clouds 18 993 77 10000 5.36 247 10:18 24.05.2022
3544 Clouds 18 993 80 10000 4.63 260 09:41 24.05.2022
3545 Clouds 17 992 84 10000 4.02 280 08:43 24.05.2022
3546 Clouds 16 991 83 10000 3.6 180 06:56 24.05.2022
3547 Clouds 17 1000 75 10000 5.66 140 03:48 24.05.2022
3548 Clear 18 995 51 10000 6.17 130 01:49 24.05.2022
3549 Clear 18 988 56 10000 7.15 118 01:18 24.05.2022
3550 Clear 19 993 55 10000 6.26 101 22:50 23.05.2022
3551 Clear 20 993 55 10000 6.26 105 21:54 23.05.2022
3552 Clear 20 993 55 10000 5.14 120 21:26 23.05.2022
3553 Clear 21 994 52 10000 6.69 120 20:26 23.05.2022
3554 Clear 22 994 47 10000 6.71 140 19:31 23.05.2022
3555 Clear 22 995 49 10000 6.71 131 18:57 23.05.2022
3556 Clear 22 995 48 10000 6.17 130 18:29 23.05.2022
3557 Clear 23 996 45 10000 7.6 141 17:20 23.05.2022
3558 Clear 22 998 46 10000 6.71 116 14:52 23.05.2022
3559 Clear 21 999 45 10000 5.66 130 12:56 23.05.2022
3560 Clear 20 1008 53 10000 6.69 130 11:31 23.05.2022
3561 Clear 18 1002 59 10000 6.71 126 09:50 23.05.2022
3562 Clear 17 1002 60 10000 5.81 111 09:30 23.05.2022
3563 Clear 15 1009 73 10000 5.36 111 08:31 23.05.2022
3564 Clear 12 1004 84 10000 2.68 96 06:46 23.05.2022
3565 Clear 10 1010 85 10000 3.13 94 05:31 23.05.2022
3566 Clear 11 1011 80 10000 3.09 100 02:32 23.05.2022
3567 Clear 11 1011 83 10000 3.09 60 01:37 23.05.2022
3568 Clear 11 1011 81 10000 3.13 80 00:20 23.05.2022
3569 Clear 13 1011 75 10000 1.54 30 22:40 22.05.2022
3570 Clear 14 1014 77 10000 1.03 0 21:55 22.05.2022
3571 Clouds 14 1015 77 10000 1.54 353 21:32 22.05.2022
3572 Clear 17 1012 61 10000 2.57 260 20:32 22.05.2022
3573 Clear 18 1012 59 10000 1.54 250 19:56 22.05.2022
3574 Clear 19 1002 49 10000 3.58 280 18:56 22.05.2022
3575 Clear 19 1002 49 10000 2.57 280 18:25 22.05.2022
3576 Clear 18 1012 48 10000 2.57 310 17:37 22.05.2022
3577 Clear 19 1015 48 10000 1.54 0 16:39 22.05.2022
3578 Clouds 18 1015 52 10000 3.6 310 14:53 22.05.2022
3579 Clouds 18 1007 58 10000 4.92 293 13:56 22.05.2022
3580 Clouds 17 1007 62 10000 5.14 280 12:52 22.05.2022
3581 Clouds 16 1014 63 10000 3.13 307 11:52 22.05.2022
3582 Clouds 15 1014 72 10000 4.63 300 10:27 22.05.2022
3583 Clouds 14 1015 77 10000 3.6 300 09:19 22.05.2022
3584 Clear 12 1015 82 10000 4.47 292 07:22 22.05.2022
3585 Clouds 11 1014 83 10000 3.13 270 06:40 22.05.2022
3586 Clear 11 1015 77 10000 4.02 299 03:20 22.05.2022
3587 Clouds 13 1015 69 10000 4.92 310 00:48 22.05.2022
3588 Clouds 13 1015 69 10000 4.92 310 23:56 21.05.2022
3589 Clouds 14 1015 69 10000 5.66 310 23:22 21.05.2022
3590 Clouds 15 1014 69 10000 5.81 306 21:59 21.05.2022
3591 Clouds 16 1014 68 10000 5.81 320 21:30 21.05.2022
3592 Clouds 17 1006 64 10000 5.36 290 20:34 21.05.2022
3593 Clouds 18 1007 64 10000 6.26 290 19:43 21.05.2022
3594 Clouds 18 1007 63 10000 7.72 290 18:45 21.05.2022
3595 Clouds 18 1007 70 10000 12.07 282 16:57 21.05.2022
3596 Clouds 17 1007 70 10000 12.35 270 14:39 21.05.2022
3597 Clouds 18 1006 65 10000 10.73 256 13:55 21.05.2022
3598 Clouds 17 1014 67 10000 9.39 271 13:25 21.05.2022
3599 Clouds 16 1014 70 10000 10.73 263 12:38 21.05.2022
3600 Clouds 16 1013 74 10000 9.83 255 11:25 21.05.2022
3601 Clouds 16 1014 68 10000 8.94 257 10:21 21.05.2022
3602 Clouds 14 1013 74 10000 8.94 274 08:59 21.05.2022
3603 Clouds 14 1013 73 10000 9.39 286 08:38 21.05.2022
3604 Clouds 14 1011 76 10000 10.73 274 06:20 21.05.2022
3605 Clouds 17 1005 91 10000 9.77 270 01:42 21.05.2022
3606 Clear 17 1007 89 10000 2.06 70 23:35 20.05.2022
3607 Clear 17 1001 87 10000 2.06 70 22:40 20.05.2022
3608 Clouds 17 1009 90 10000 4.12 20 21:58 20.05.2022
3609 Rain 18 1011 88 10000 4.02 178 21:19 20.05.2022
3610 Rain 20 1008 83 10000 2.57 160 20:47 20.05.2022
3611 Clouds 22 1010 70 10000 2.57 200 19:47 20.05.2022
3612 Clear 25 1003 43 10000 1.54 230 18:53 20.05.2022
3613 Clear 25 1004 45 10000 2.24 297 18:18 20.05.2022
3614 Clear 26 1006 39 10000 3.13 270 16:27 20.05.2022
3615 Clear 26 1004 40 10000 3.6 290 15:54 20.05.2022
3616 Clear 26 1005 40 10000 4.47 290 15:20 20.05.2022
3617 Clear 26 1008 45 10000 5.81 271 14:27 20.05.2022
3618 Clouds 24 1016 51 10000 5.81 280 12:37 20.05.2022
3619 Clouds 21 1016 62 10000 6.71 258 10:47 20.05.2022
3620 Clouds 20 1017 70 10000 6.26 253 09:31 20.05.2022
3621 Clouds 19 1017 78 10000 4.47 259 08:27 20.05.2022
3622 Clouds 18 1018 82 10000 4.12 280 06:43 20.05.2022
3623 Clouds 17 1017 83 10000 5.14 280 05:52 20.05.2022
3624 Clear 19 1016 77 10000 4.47 257 02:52 20.05.2022
3625 Clear 21 1014 62 10000 3.13 280 23:47 19.05.2022
3626 Clear 21 1017 61 10000 2.68 204 22:39 19.05.2022
3627 Clouds 20 1017 66 10000 2.71 187 21:52 19.05.2022
3628 Clear 22 1017 60 10000 3.09 180 21:24 19.05.2022
3629 Clouds 22 1017 61 10000 3.35 188 20:53 19.05.2022
3630 Clear 26 1013 40 10000 4.12 170 19:57 19.05.2022
3631 Clear 27 1017 42 10000 4.63 180 19:25 19.05.2022
3632 Clear 28 1008 37 10000 5.14 180 17:47 19.05.2022
3633 Clear 28 1008 37 10000 5.36 179 17:47 19.05.2022
3634 Clear 29 1009 38 10000 5.36 206 16:22 19.05.2022
3635 Clear 28 1010 42 10000 5.66 200 14:50 19.05.2022
3636 Clear 28 1011 41 10000 5.14 190 14:21 19.05.2022
3637 Clear 28 1011 41 10000 5.14 190 14:21 19.05.2022
3638 Clear 26 1017 47 10000 5.36 202 12:20 19.05.2022
3639 Clear 23 1012 54 10000 4.02 160 10:35 19.05.2022
3640 Clear 19 1013 62 10000 3.58 152 08:51 19.05.2022
3641 Clear 16 1019 66 10000 3.58 146 07:41 19.05.2022
3642 Clear 14 1013 69 10000 2.68 140 04:38 19.05.2022
3643 Clear 16 1020 69 10000 3.09 140 01:57 19.05.2022
3644 Clear 16 1023 69 10000 3.6 140 23:49 18.05.2022
3645 Clear 18 1019 68 10000 2.57 130 22:46 18.05.2022
3646 Clear 20 1019 63 10000 3.09 130 21:47 18.05.2022
3647 Clear 20 1023 59 10000 3.09 140 21:24 18.05.2022
3648 Clear 23 1013 46 10000 3.6 140 20:24 18.05.2022
3649 Clear 23 1019 47 10000 4.12 130 19:37 18.05.2022
3650 Clear 24 1015 48 10000 3.6 150 18:21 18.05.2022
3651 Clear 24 1015 45 10000 5.36 138 17:41 18.05.2022
3652 Clear 25 1015 45 10000 3.6 160 17:23 18.05.2022
3653 Clear 24 1015 43 10000 4.63 170 16:23 18.05.2022
3654 Clear 25 1015 45 10000 4.63 150 15:39 18.05.2022
3655 Clear 24 1014 48 10000 5.66 160 14:34 18.05.2022
3656 Clear 23 1014 45 10000 5.14 120 13:20 18.05.2022
3657 Clear 22 1022 45 10000 4.63 120 12:40 18.05.2022
3658 Clear 19 1022 47 10000 5.81 138 11:34 18.05.2022
3659 Clear 18 1017 50 10000 5.14 130 10:52 18.05.2022
3660 Clear 14 1017 49 10000 5.36 137 08:53 18.05.2022
3661 Clear 12 1023 58 10000 5.36 115 07:29 18.05.2022
3662 Clear 11 1022 53 10000 4.63 110 05:34 18.05.2022
3663 Clear 15 1021 73 10000 4.12 60 00:52 18.05.2022
3664 Clear 15 1020 75 10000 3.09 50 00:21 18.05.2022
3665 Clouds 17 1018 84 10000 2.06 270 21:39 17.05.2022
3666 Clouds 18 1021 82 10000 2.57 240 21:19 17.05.2022
3667 Clouds 19 1020 78 10000 3.6 260 19:59 17.05.2022
3668 Clouds 20 1020 78 10000 3.6 260 19:27 17.05.2022
3669 Clouds 20 1020 76 10000 3.09 280 17:50 17.05.2022
3670 Clouds 20 1020 74 10000 3.09 270 16:59 17.05.2022
3671 Clouds 20 1020 76 10000 2.57 290 16:29 17.05.2022
3672 Clouds 20 1021 77 10000 1.54 250 15:25 17.05.2022
3673 Clouds 19 1021 83 10000 2.57 270 14:30 17.05.2022
3674 Clouds 19 1020 68 10000 1.54 0 13:35 17.05.2022
3675 Clouds 16 1018 84 10000 3.13 277 11:43 17.05.2022
3676 Clear 15 1010 86 10000 3.6 10 09:35 17.05.2022
3677 Clouds 14 1010 88 10000 2.68 123 08:33 17.05.2022
3678 Rain 13 1016 88 10000 3.58 340 06:48 17.05.2022
3679 Rain 16 1015 66 10000 3.58 53 03:45 17.05.2022
3680 Clear 18 1015 49 10000 4.92 63 00:45 17.05.2022
3681 Clear 19 1014 49 10000 4.63 60 22:44 16.05.2022
3682 Clear 20 1010 38 10000 5.14 60 21:45 16.05.2022
3683 Clear 21 1009 34 10000 4.12 70 20:48 16.05.2022
3684 Clear 23 1010 34 10000 5.66 70 19:49 16.05.2022
3685 Clear 24 998 36 10000 3.6 100 18:21 16.05.2022
3686 Clear 25 1004 30 10000 2.57 130 16:24 16.05.2022
3687 Clear 25 1005 33 10000 4.12 90 14:38 16.05.2022
3688 Clear 24 1006 36 10000 3.6 100 13:23 16.05.2022
3689 Clear 21 1016 45 10000 4.47 106 11:31 16.05.2022
3690 Clear 18 1011 53 10000 4.12 120 09:58 16.05.2022
3691 Clear 12 1016 69 10000 3.09 80 07:21 16.05.2022
3692 Clear 11 1018 76 10000 4.02 67 04:41 16.05.2022
3693 Clear 13 1017 70 10000 3.13 70 23:56 15.05.2022
3694 Clear 14 1016 68 10000 3.09 50 22:34 15.05.2022
3695 Clear 15 1016 58 10000 2.06 60 21:48 15.05.2022
3696 Clear 17 1016 55 10000 2.24 40 21:19 15.05.2022
3697 Clear 20 1017 45 10000 3.58 80 19:56 15.05.2022
3698 Clear 22 1010 35 10000 2.68 270 17:56 15.05.2022
3699 Clear 22 1008 36 10000 2.24 315 16:36 15.05.2022
3700 Clear 21 1007 40 10000 2.06 0 14:18 15.05.2022
3701 Clear 21 1012 42 10000 2.68 293 13:27 15.05.2022
3702 Clouds 19 1020 47 10000 3.6 320 11:55 15.05.2022
3703 Clouds 17 1019 53 10000 3.58 312 10:40 15.05.2022
3704 Clear 14 1014 69 10000 2.24 316 08:52 15.05.2022
3705 Clear 10 1019 82 10000 1.79 247 06:59 15.05.2022
3706 Clear 10 1019 76 10000 1.34 239 06:39 15.05.2022
3707 Clear 10 1019 81 10000 2.24 347 02:24 15.05.2022
3708 Clear 11 1016 76 10000 2.24 320 23:59 14.05.2022
3709 Clear 12 1016 77 10000 2.24 310 23:35 14.05.2022
3710 Clear 16 1016 66 10000 4.47 330 21:45 14.05.2022
3711 Clear 16 1019 65 10000 5.14 330 21:24 14.05.2022
3712 Clear 19 1015 60 10000 5.14 330 19:54 14.05.2022
3713 Clear 19 1017 55 10000 5.81 311 19:20 14.05.2022
3714 Clear 20 1017 49 10000 6.17 300 18:51 14.05.2022
3715 Clear 20 1017 49 10000 6.17 300 18:51 14.05.2022
3716 Clear 20 1018 54 10000 6.17 300 17:43 14.05.2022
3717 Clouds 20 1016 50 10000 7.15 318 15:58 14.05.2022
3718 Clear 20 1017 53 10000 8.05 287 14:38 14.05.2022
3719 Clouds 20 1009 49 10000 10.29 280 13:24 14.05.2022
3720 Clouds 19 1016 58 10000 8.05 283 11:45 14.05.2022
3721 Clouds 17 1010 62 10000 7.6 260 10:43 14.05.2022
3722 Clouds 16 1015 64 10000 7.6 279 10:18 14.05.2022
3723 Clouds 15 1015 66 10000 5.66 260 09:23 14.05.2022
3724 Clear 13 1015 69 10000 4.92 258 07:32 14.05.2022
3725 Clear 12 1014 71 10000 3.09 260 04:35 14.05.2022
3726 Clear 12 1015 71 10000 4.92 231 00:27 14.05.2022
3727 Clear 13 1016 70 10000 4.02 250 23:25 13.05.2022
3728 Clear 13 1014 69 10000 3.09 240 22:55 13.05.2022
3729 Clear 14 1016 64 10000 4.02 233 22:21 13.05.2022
3730 Clear 16 1016 61 10000 4.02 262 20:59 13.05.2022
3731 Clear 17 1008 59 10000 4.02 263 20:38 13.05.2022
3732 Clear 16 1014 57 10000 4.47 275 20:20 13.05.2022
3733 Clear 17 1008 53 10000 6.26 297 19:18 13.05.2022
3734 Clear 18 1014 50 10000 8.23 300 17:47 13.05.2022
3735 Clear 18 1013 50 10000 10.28 274 17:23 13.05.2022
3736 Clear 18 1007 50 10000 9.26 290 15:47 13.05.2022
3737 Clear 18 1007 48 10000 9.26 270 14:39 13.05.2022
3738 Clear 19 1006 50 10000 8.05 272 12:54 13.05.2022
3739 Clear 18 1012 54 10000 7.6 278 11:56 13.05.2022
3740 Clear 17 1012 58 10000 6.17 250 10:19 13.05.2022
3741 Clear 17 1012 60 10000 4.63 220 09:29 13.05.2022
3742 Clear 14 1012 70 10000 3.58 222 07:59 13.05.2022
3743 Clear 12 1012 74 10000 3.09 220 07:26 13.05.2022
3744 Clear 10 1013 76 10000 2.06 220 05:31 13.05.2022
3745 Clear 12 1013 69 10000 3.09 210 01:21 13.05.2022
3746 Clear 14 1015 67 10000 3.13 237 23:34 12.05.2022
3747 Clear 15 1014 62 10000 3.13 236 22:35 12.05.2022
3748 Clear 16 1015 60 10000 2.57 240 21:35 12.05.2022
3749 Clear 18 1013 43 10000 5.36 275 19:55 12.05.2022
3750 Clear 20 1007 41 10000 5.36 269 18:29 12.05.2022
3751 Clear 21 1007 45 10000 7.72 270 16:48 12.05.2022
3752 Clouds 19 1008 47 10000 6.17 290 15:22 12.05.2022
3753 Clouds 20 1008 45 10000 8.49 299 13:58 12.05.2022
3754 Clouds 19 1008 48 10000 8.23 280 12:46 12.05.2022
3755 Clouds 16 1011 64 10000 11.62 280 10:34 12.05.2022
3756 Clouds 15 1009 69 10000 13.38 280 08:58 12.05.2022
3757 Clouds 15 1009 72 10000 14.31 275 08:37 12.05.2022
3758 Clouds 15 1007 79 10000 9.77 270 07:36 12.05.2022
3759 Rain 16 1005 85 10000 4.12 290 04:50 12.05.2022
3760 Clear 17 1004 81 10000 3.58 305 02:21 12.05.2022
3761 Clear 19 1004 76 10000 4.92 240 23:55 11.05.2022
3762 Rain 20 1005 71 10000 4.02 180 22:29 11.05.2022
3763 Clouds 21 1006 69 10000 7.15 217 21:29 11.05.2022
3764 Rain 22 1007 53 10000 5.66 230 20:52 11.05.2022
3765 Clear 25 1008 24 10000 9.26 240 17:56 11.05.2022
3766 Clear 27 1003 26 10000 9.77 240 16:49 11.05.2022
3767 Clear 28 996 36 10000 10.8 250 14:50 11.05.2022
3768 Clear 28 999 37 10000 10.8 220 14:26 11.05.2022
3769 Clear 27 997 41 10000 10.29 220 13:44 11.05.2022
3770 Clear 23 1002 58 10000 5.66 150 11:51 11.05.2022
3771 Clear 19 1004 71 10000 4.47 107 09:54 11.05.2022
3772 Rain 18 1005 78 10000 2.68 55 08:33 11.05.2022
3773 Clear 17 1010 74 10000 4.12 80 04:44 11.05.2022
3774 Clear 20 1012 54 10000 4.12 200 00:42 11.05.2022
3775 Clear 20 1009 45 10000 3.09 190 22:30 10.05.2022
3776 Clear 21 1009 45 10000 3.6 220 21:47 10.05.2022
3777 Clear 22 1008 30 10000 4.63 230 20:54 10.05.2022
3778 Clear 25 1011 36 10000 5.14 210 19:26 10.05.2022
3779 Clear 26 1005 34 10000 5.36 211 17:49 10.05.2022
3780 Clear 26 1007 33 10000 4.47 203 16:49 10.05.2022
3781 Clear 26 1008 35 10000 3.13 158 14:48 10.05.2022
3782 Clear 25 1010 35 10000 3.13 151 12:39 10.05.2022
3783 Clear 23 1016 37 10000 4.02 182 11:49 10.05.2022
3784 Clear 22 1017 39 10000 3.13 175 11:18 10.05.2022
3785 Clear 20 1011 47 10000 2.57 150 10:22 10.05.2022
3786 Clear 17 1012 52 10000 2.06 140 09:25 10.05.2022
3787 Clear 11 1012 63 10000 2.24 113 06:46 10.05.2022
3788 Clear 11 1021 67 10000 2.68 110 03:30 10.05.2022
3789 Clear 13 1022 57 10000 3.6 110 00:38 10.05.2022
3790 Clear 14 1022 63 10000 3.09 80 22:52 09.05.2022
3791 Clear 15 1021 58 10000 3.09 80 21:50 09.05.2022
3792 Clear 18 1020 44 10000 3.6 80 20:52 09.05.2022
3793 Clear 21 1016 34 10000 2.57 90 18:43 09.05.2022
3794 Clear 22 1016 35 10000 2.06 160 17:51 09.05.2022
3795 Clear 21 1014 34 10000 3.6 170 16:33 09.05.2022
3796 Clear 22 1014 33 10000 2.68 30 15:52 09.05.2022
3797 Clear 21 1014 34 10000 4.12 160 15:24 09.05.2022
3798 Clear 21 1015 34 10000 4.63 130 14:29 09.05.2022
3799 Clear 20 1015 36 10000 3.09 120 13:49 09.05.2022
3800 Clear 19 1026 41 10000 3.6 120 12:26 09.05.2022
3801 Clear 18 1027 48 10000 2.57 40 11:32 09.05.2022
3802 Clear 17 1026 55 10000 2.24 338 10:42 09.05.2022
3803 Clear 12 1020 69 10000 3.6 90 08:51 09.05.2022
3804 Clear 10 1025 76 10000 4.02 80 07:54 09.05.2022
3805 Clear 8 1028 80 10000 2.68 54 03:36 09.05.2022
3806 Clear 12 1027 66 10000 5.14 40 23:37 08.05.2022
3807 Clear 13 1027 65 10000 4.63 40 22:56 08.05.2022
3808 Clear 13 1026 52 10000 3.09 50 21:55 08.05.2022
3809 Clear 17 1025 34 10000 3.58 359 20:35 08.05.2022
3810 Clear 18 1025 32 10000 4.12 360 19:45 08.05.2022
3811 Clear 19 1010 29 10000 4.63 320 18:54 08.05.2022
3812 Clear 20 1014 29 10000 3.6 320 18:18 08.05.2022
3813 Clear 20 1010 25 10000 5.66 290 16:56 08.05.2022
3814 Clear 20 1012 29 10000 4.63 310 15:40 08.05.2022
3815 Clear 20 1013 34 10000 5.14 320 14:57 08.05.2022
3816 Clouds 18 1024 46 10000 4.02 293 12:39 08.05.2022
3817 Clear 15 1023 63 10000 3.13 308 10:32 08.05.2022
3818 Clear 15 1023 66 10000 1.54 290 09:58 08.05.2022
3819 Clear 15 1023 66 10000 1.54 290 09:58 08.05.2022
3820 Clear 14 1023 72 10000 2.24 318 09:31 08.05.2022
3821 Clouds 12 1022 81 10000 2.68 13 07:31 08.05.2022
3822 Clear 13 1021 78 10000 4.02 24 03:55 08.05.2022
3823 Clear 13 1021 78 10000 3.58 3 02:51 08.05.2022
3824 Clear 13 1019 79 10000 3.09 360 00:28 08.05.2022
3825 Clear 13 1019 80 10000 2.68 70 23:53 07.05.2022
3826 Clear 14 1022 78 10000 2.57 360 22:51 07.05.2022
3827 Clear 14 1022 76 10000 2.06 280 22:33 07.05.2022
3828 Clear 16 1018 64 10000 2.57 270 21:34 07.05.2022
3829 Clear 17 1018 55 10000 3.58 320 20:55 07.05.2022
3830 Clear 18 1018 50 10000 4.12 260 19:58 07.05.2022
3831 Clouds 22 1018 56 10000 5.66 330 17:43 07.05.2022
3832 Clouds 22 1018 46 10000 4.63 310 15:53 07.05.2022
3833 Clear 22 1020 47 10000 3.58 267 14:20 07.05.2022
3834 Clear 20 1020 48 10000 3.6 270 10:57 07.05.2022
3835 Clear 18 1019 52 10000 3.13 219 09:38 07.05.2022
3836 Clear 14 1018 71 10000 1.34 200 07:52 07.05.2022
3837 Clear 13 1013 70 10000 1.34 262 06:43 07.05.2022
3838 Clear 13 1013 72 10000 1.34 220 05:22 07.05.2022
3839 Clear 12 1013 74 10000 1.03 170 02:21 07.05.2022
3840 Clear 13 1021 74 10000 1.54 150 23:38 06.05.2022
3841 Clear 14 1021 69 10000 1.34 71 22:32 06.05.2022
3842 Clear 15 1021 65 10000 1.03 0 21:44 06.05.2022
3843 Clear 18 1021 56 10000 3.6 280 20:35 06.05.2022
3844 Clear 19 1021 46 10000 3.13 279 19:40 06.05.2022
3845 Clear 19 1021 45 10000 1.79 320 19:18 06.05.2022
3846 Clear 19 1021 43 10000 2.24 350 18:23 06.05.2022
3847 Clear 20 1021 44 10000 1.54 0 16:53 06.05.2022
3848 Clear 20 1021 44 10000 3.09 250 15:42 06.05.2022
3849 Clear 19 1022 46 10000 3.58 288 14:53 06.05.2022
3850 Clouds 19 1022 53 10000 3.6 340 13:26 06.05.2022
3851 Clouds 19 1023 50 10000 3.09 300 12:40 06.05.2022
3852 Clouds 18 1022 51 10000 3.13 280 11:45 06.05.2022
3853 Clouds 16 1023 63 10000 2.24 66 10:34 06.05.2022
3854 Clear 16 1023 64 10000 1.34 293 09:46 06.05.2022
3855 Clear 13 1022 71 10000 1.79 288 08:43 06.05.2022
3856 Clear 9 1022 81 10000 1.34 260 07:26 06.05.2022
3857 Clear 8 1021 84 10000 1.34 10 05:48 06.05.2022
3858 Clear 8 1022 81 10000 2.24 6 02:54 06.05.2022
3859 Clear 9 1021 78 10000 2.24 34 01:57 06.05.2022
3860 Clear 11 1019 67 10000 2.06 320 22:45 05.05.2022
3861 Clear 11 1019 71 10000 2.06 320 22:45 05.05.2022
3862 Clear 13 1019 65 10000 2.24 338 21:45 05.05.2022
3863 Clear 16 1019 50 10000 4.47 304 20:27 05.05.2022
3864 Clear 18 1010 42 10000 3.58 300 18:36 05.05.2022
3865 Clouds 19 1010 50 10000 4.63 270 16:40 05.05.2022
3866 Clouds 19 1011 48 10000 3.58 289 14:55 05.05.2022
3867 Clouds 18 1018 56 10000 2.68 350 13:27 05.05.2022
3868 Clouds 18 1018 57 10000 5.14 340 12:55 05.05.2022
3869 Clouds 15 1018 70 10000 2.57 330 10:59 05.05.2022
3870 Clouds 14 1009 77 10000 3.13 1 09:40 05.05.2022
3871 Clear 12 1017 87 10000 2.68 330 08:30 05.05.2022
3872 Rain 12 1008 81 10000 4.63 340 05:44 05.05.2022
3873 Clear 13 1015 76 10000 1.79 26 02:20 05.05.2022
3874 Clear 13 1015 74 10000 1.03 0 01:35 05.05.2022
3875 Clear 14 1014 68 10000 2.57 50 23:57 04.05.2022
3876 Clear 14 1014 67 10000 3.13 56 22:54 04.05.2022
3877 Clear 15 1012 68 10000 2.57 60 21:59 04.05.2022
3878 Clear 16 1014 65 10000 2.68 54 21:30 04.05.2022
3879 Clear 17 1014 55 10000 3.13 63 20:42 04.05.2022
3880 Clear 18 1014 57 10000 2.06 70 19:59 04.05.2022
3881 Clear 18 1014 55 10000 2.24 65 19:35 04.05.2022
3882 Clear 19 1014 46 10000 2.68 58 18:23 04.05.2022
3883 Clear 19 1015 49 10000 1.54 100 17:59 04.05.2022
3884 Clear 20 1007 48 10000 2.06 0 16:30 04.05.2022
3885 Clear 20 1006 47 10000 3.13 122 15:32 04.05.2022
3886 Clear 19 1008 49 10000 2.24 190 14:38 04.05.2022
3887 Clear 20 1015 47 10000 1.54 0 14:19 04.05.2022
3888 Clouds 19 1016 52 10000 2.68 170 12:36 04.05.2022
3889 Clouds 18 1017 55 10000 1.34 23 11:28 04.05.2022
3890 Clear 15 1009 66 10000 1.34 51 09:57 04.05.2022
3891 Clear 13 1009 73 10000 1.34 325 09:20 04.05.2022
3892 Clear 11 1009 79 10000 1.03 0 07:51 04.05.2022
3893 Clear 9 1009 81 10000 0.51 80 04:45 04.05.2022
3894 Clear 10 1016 80 10000 1.03 110 02:33 04.05.2022
3895 Clear 10 1015 76 10000 1.03 0 23:20 03.05.2022
3896 Clear 12 1013 71 10000 3.09 20 21:53 03.05.2022
3897 Clear 14 1014 66 10000 3.6 20 21:31 03.05.2022
3898 Clouds 14 1010 61 10000 4.02 320 20:52 03.05.2022
3899 Clear 17 1013 56 10000 3.6 300 19:33 03.05.2022
3900 Clear 17 1013 57 10000 4.12 360 18:47 03.05.2022
3901 Clear 18 1014 49 10000 3.6 320 17:22 03.05.2022
3902 Clear 19 1001 43 10000 3.6 270 16:19 03.05.2022
3903 Clear 19 1001 38 10000 3.6 0 14:25 03.05.2022
3904 Clear 18 1015 40 10000 3.6 320 12:42 03.05.2022
3905 Clear 17 1016 43 10000 3.09 290 11:49 03.05.2022
3906 Clear 15 1015 51 10000 1.79 26 10:49 03.05.2022
3907 Clear 11 1008 66 10000 1.34 23 08:33 03.05.2022
3908 Clear 8 1006 78 10000 1.34 7 06:45 03.05.2022
3909 Clear 9 1014 78 10000 1.54 250 03:26 03.05.2022
3910 Clear 11 1015 71 10000 0.89 63 23:32 02.05.2022
3911 Clear 12 1015 67 10000 1.34 358 22:32 02.05.2022
3912 Clear 12 1010 66 10000 2.24 330 21:48 02.05.2022
3913 Clear 12 1010 64 10000 2.24 330 21:48 02.05.2022
3914 Clear 17 1014 54 10000 4.12 330 19:59 02.05.2022
3915 Clear 19 1007 45 10000 3.58 350 18:27 02.05.2022
3916 Clear 19 1004 45 10000 3.6 330 17:42 02.05.2022
3917 Clear 19 1005 44 10000 5.14 320 16:47 02.05.2022
3918 Clear 19 1005 43 10000 2.57 270 15:52 02.05.2022
3919 Clear 20 1007 42 10000 3.58 293 14:54 02.05.2022
3920 Clear 19 1006 41 10000 2.57 330 13:47 02.05.2022
3921 Clear 18 1018 44 10000 2.68 319 11:51 02.05.2022
3922 Clear 15 1018 48 10000 2.24 78 10:18 02.05.2022
3923 Clear 12 1018 62 10000 2.06 50 08:44 02.05.2022
3924 Clear 9 1019 79 10000 2.68 352 07:30 02.05.2022
3925 Clear 10 1020 71 10000 2.68 40 01:28 02.05.2022
3926 Clear 10 1020 73 10000 3.13 11 00:23 02.05.2022
3927 Clear 11 1020 69 10000 2.06 20 23:46 01.05.2022
3928 Clear 11 1019 72 10000 2.68 353 21:56 01.05.2022
3929 Clear 13 1011 63 10000 3.58 350 20:50 01.05.2022
3930 Clear 14 1011 60 10000 3.58 360 19:46 01.05.2022
3931 Clouds 15 1011 57 10000 5.36 22 18:54 01.05.2022
3932 Clouds 15 1011 55 10000 5.81 6 18:18 01.05.2022
3933 Clouds 16 1012 46 10000 5.66 10 16:55 01.05.2022
3934 Clouds 16 1012 46 10000 6.71 360 16:23 01.05.2022
3935 Clouds 16 1012 50 10000 5.81 360 15:23 01.05.2022
3936 Clear 15 1013 54 10000 5.14 350 13:42 01.05.2022
3937 Clear 15 1021 54 10000 4.12 20 10:50 01.05.2022
3938 Clear 12 1013 64 10000 4.92 11 08:51 01.05.2022
3939 Clear 10 1013 73 10000 3.13 27 07:53 01.05.2022
3940 Clear 9 1013 75 10000 4.12 20 03:26 01.05.2022
3941 Clear 11 1020 71 10000 3.13 35 23:23 30.04.2022
3942 Clear 14 1019 63 10000 6.26 40 21:44 30.04.2022
3943 Clear 16 1011 56 10000 5.66 360 20:36 30.04.2022
3944 Clear 18 1011 50 10000 4.12 350 19:41 30.04.2022
3945 Clear 17 1019 52 10000 4.12 350 19:41 30.04.2022
3946 Clear 19 1011 36 10000 3.09 270 17:44 30.04.2022
3947 Clear 20 1012 36 10000 2.06 340 16:42 30.04.2022
3948 Clear 20 1012 40 10000 2.24 272 15:24 30.04.2022
3949 Clear 19 1011 45 10000 2.68 269 14:34 30.04.2022
3950 Clear 17 1023 47 10000 1.79 45 12:42 30.04.2022
3951 Clear 15 1014 56 10000 1.79 273 11:33 30.04.2022
3952 Clear 14 1014 58 10000 1.79 270 10:43 30.04.2022
3953 Clear 12 1014 66 10000 1.34 110 09:25 30.04.2022
3954 Clear 10 1014 64 10000 1.34 110 06:43 30.04.2022
3955 Clear 11 1015 63 10000 2.06 50 01:53 30.04.2022
3956 Clear 13 1016 58 10000 2.06 50 23:37 29.04.2022
3957 Clear 13 1023 60 10000 2.24 113 22:31 29.04.2022
3958 Clear 14 1015 54 10000 2.24 77 21:34 29.04.2022
3959 Clear 15 1023 51 10000 2.24 60 20:49 29.04.2022
3960 Clear 17 1023 41 10000 2.68 70 19:45 29.04.2022
3961 Clear 19 1015 34 10000 1.79 311 17:55 29.04.2022
3962 Clear 19 1016 31 10000 2.06 310 17:21 29.04.2022
3963 Clear 20 1017 31 10000 2.24 170 15:49 29.04.2022
3964 Clear 19 1015 34 10000 2.57 300 14:22 29.04.2022
3965 Clear 18 1026 37 10000 1.03 0 13:21 29.04.2022
3966 Clear 17 1027 42 10000 1.79 274 11:49 29.04.2022
3967 Clear 12 1026 61 10000 1.03 0 08:51 29.04.2022
3968 Clear 7 1026 83 10000 1.34 60 07:28 29.04.2022
3969 Clear 7 1026 75 10000 0.51 70 06:39 29.04.2022
3970 Clear 6 1026 79 10000 1.03 170 04:53 29.04.2022
3971 Clear 8 1027 75 10000 1.79 64 00:45 29.04.2022
3972 Clear 10 1027 67 10000 2.57 70 23:28 28.04.2022
3973 Clear 11 1027 67 10000 2.57 300 22:44 28.04.2022
3974 Clear 11 1024 68 10000 2.24 320 21:47 28.04.2022
3975 Clear 12 1026 61 10000 3.13 306 21:21 28.04.2022
3976 Clear 15 1018 51 10000 4.12 290 20:35 28.04.2022
3977 Clear 16 1025 50 10000 4.12 290 19:45 28.04.2022
3978 Clear 16 1025 52 10000 4.02 290 19:23 28.04.2022
3979 Clear 17 1010 50 10000 4.63 280 18:36 28.04.2022
3980 Clear 18 1017 44 10000 5.66 280 17:32 28.04.2022
3981 Clear 18 1017 40 10000 4.63 270 16:41 28.04.2022
3982 Clear 18 1018 41 10000 4.92 282 16:19 28.04.2022
3983 Clear 18 1018 42 10000 4.12 280 15:40 28.04.2022
3984 Clear 17 1017 46 10000 5.14 300 14:38 28.04.2022
3985 Clouds 16 1026 49 10000 4.63 300 13:19 28.04.2022
3986 Clouds 15 1028 50 10000 3.6 0 11:59 28.04.2022
3987 Clear 14 1026 57 10000 2.68 358 10:47 28.04.2022
3988 Clear 13 1028 59 10000 2.68 358 10:26 28.04.2022
3989 Clear 10 1018 73 10000 1.54 340 08:59 28.04.2022
3990 Clouds 8 1018 77 10000 1.03 340 07:38 28.04.2022
3991 Clear 5 1025 84 10000 2.06 350 06:37 28.04.2022
3992 Clear 6 1025 84 10000 3.13 360 05:39 28.04.2022
3993 Clear 7 1024 79 10000 1.54 350 04:41 28.04.2022
3994 Clear 8 1024 74 10000 1.34 60 00:36 28.04.2022
3995 Clear 10 1021 64 10000 2.24 45 22:49 27.04.2022
3996 Clouds 11 1019 62 10000 3.58 330 21:58 27.04.2022
3997 Clear 13 1023 56 10000 3.58 330 21:29 27.04.2022
3998 Clear 15 1022 51 10000 2.68 321 20:44 27.04.2022
3999 Clear 16 1022 40 10000 4.63 290 19:41 27.04.2022
4000 Clear 16 1014 41 10000 4.63 290 19:22 27.04.2022
4001 Clear 16 1014 41 10000 4.63 290 19:22 27.04.2022
4002 Clear 16 1022 38 10000 5.14 300 18:38 27.04.2022
4003 Clear 17 1014 36 10000 5.14 350 17:26 27.04.2022
4004 Clear 17 1014 36 10000 5.36 332 15:56 27.04.2022
4005 Clear 16 1021 36 10000 3.58 310 12:34 27.04.2022
4006 Clear 16 1024 40 10000 3.6 350 11:23 27.04.2022
4007 Clear 14 1023 47 10000 4.47 355 10:26 27.04.2022
4008 Clear 9 1020 71 10000 1.34 12 07:41 27.04.2022
4009 Clear 8 1012 72 10000 1.79 0 06:36 27.04.2022
4010 Clear 10 1010 67 10000 4.12 20 02:25 27.04.2022
4011 Clear 11 1010 63 10000 4.92 28 01:18 27.04.2022
4012 Clear 12 1010 58 10000 5.81 6 00:27 27.04.2022
4013 Clear 12 1017 62 10000 3.13 25 23:24 26.04.2022
4014 Clear 13 1016 63 10000 1.79 20 22:44 26.04.2022
4015 Clear 13 1016 57 10000 3.13 10 21:57 26.04.2022
4016 Clear 13 1015 58 10000 2.24 50 21:18 26.04.2022
4017 Clear 14 1015 50 10000 3.58 57 20:36 26.04.2022
4018 Clear 16 1014 43 10000 2.24 30 19:44 26.04.2022
4019 Clear 16 1006 41 10000 2.24 40 19:24 26.04.2022
4020 Clear 17 1006 35 10000 2.06 0 18:20 26.04.2022
4021 Clear 17 1006 34 10000 2.06 340 17:38 26.04.2022
4022 Clear 17 1004 36 10000 2.06 0 14:59 26.04.2022
4023 Clear 17 1004 38 10000 2.06 300 13:38 26.04.2022
4024 Clear 15 1013 39 10000 2.57 110 12:35 26.04.2022
4025 Clear 14 1014 42 10000 2.06 0 11:20 26.04.2022
4026 Clear 13 1013 49 10000 3.09 100 10:30 26.04.2022
4027 Clear 8 1013 74 10000 2.68 91 08:32 26.04.2022
4028 Clear 5 1006 85 10000 0.51 30 04:39 26.04.2022
4029 Clear 6 1005 87 10000 1.79 80 03:59 26.04.2022
4030 Clear 7 1013 84 10000 1.34 70 00:46 26.04.2022
4031 Clear 8 1013 83 10000 2.68 70 23:48 25.04.2022
4032 Clear 9 1010 74 10000 3.58 50 21:51 25.04.2022
4033 Clear 10 1012 74 10000 3.13 53 21:25 25.04.2022
4034 Clouds 13 1011 68 10000 3.6 20 19:47 25.04.2022
4035 Clouds 14 1002 63 10000 4.92 58 18:31 25.04.2022
4036 Clouds 15 1002 61 10000 4.02 20 17:39 25.04.2022
4037 Clouds 14 1000 61 10000 3.58 20 16:35 25.04.2022
4038 Clouds 14 999 63 10000 3.6 350 15:21 25.04.2022
4039 Clouds 13 1001 62 10000 2.57 0 14:23 25.04.2022
4040 Clouds 12 1002 66 10000 5.36 352 12:47 25.04.2022
4041 Clouds 9 1001 80 10000 5.36 354 10:42 25.04.2022
4042 Clouds 8 1001 79 10000 5.81 32 09:41 25.04.2022
4043 Clouds 6 999 89 10000 4.63 30 07:38 25.04.2022
4044 Clouds 6 998 87 10000 4.12 20 05:54 25.04.2022
4045 Clouds 8 997 85 10000 4.63 10 01:28 25.04.2022
4046 Clouds 9 997 82 10000 6.26 21 23:54 24.04.2022
4047 Clouds 9 996 80 10000 5.66 360 23:24 24.04.2022
4048 Clouds 10 1003 84 10000 5.66 10 22:39 24.04.2022
4049 Clouds 11 1003 79 10000 4.02 20 21:56 24.04.2022
4050 Clouds 12 1002 76 10000 4.47 20 21:22 24.04.2022
4051 Clouds 13 1002 71 10000 4.47 20 20:46 24.04.2022
4052 Clouds 14 994 68 10000 5.36 12 20:20 24.04.2022
4053 Clouds 15 993 54 10000 5.81 40 18:38 24.04.2022
4054 Clear 16 993 43 10000 8.05 65 17:49 24.04.2022
4055 Clear 17 991 40 10000 6.69 50 17:21 24.04.2022
4056 Clear 17 993 40 10000 6.71 47 17:21 24.04.2022
4057 Clear 17 990 41 10000 8.75 40 16:51 24.04.2022
4058 Clear 17 990 40 10000 7.72 40 16:25 24.04.2022
4059 Clear 17 991 38 10000 8.23 40 15:39 24.04.2022
4060 Clear 17 991 45 10000 8.23 90 14:33 24.04.2022
4061 Clear 17 995 44 10000 8.75 90 13:27 24.04.2022
4062 Clouds 16 1002 46 10000 6.69 80 12:55 24.04.2022
4063 Clouds 16 1003 47 10000 5.66 80 11:50 24.04.2022
4064 Clear 14 1003 53 10000 6.69 70 10:47 24.04.2022
4065 Clear 12 994 61 10000 5.14 60 09:47 24.04.2022
4066 Clear 8 996 75 10000 4.63 60 07:55 24.04.2022
4067 Clear 6 996 79 10000 4.02 33 05:45 24.04.2022
4068 Clear 8 998 71 10000 4.12 50 02:30 24.04.2022
4069 Clear 10 998 65 10000 5.81 70 00:45 24.04.2022
4070 Clear 10 999 63 10000 5.36 45 23:52 23.04.2022
4071 Clear 11 999 63 10000 4.92 59 23:25 23.04.2022
4072 Clear 11 999 63 10000 4.92 59 23:25 23.04.2022
4073 Clear 12 998 62 10000 5.81 50 21:59 23.04.2022
4074 Clear 13 998 61 10000 5.81 50 21:41 23.04.2022
4075 Clear 13 1006 60 10000 5.36 50 21:22 23.04.2022
4076 Clear 16 1006 43 10000 4.92 80 19:56 23.04.2022
4077 Clear 16 999 43 10000 6.26 70 19:20 23.04.2022
4078 Clear 16 998 43 10000 5.81 93 18:54 23.04.2022
4079 Clear 17 999 42 10000 7.2 60 18:32 23.04.2022
4080 Clear 17 999 40 10000 6.71 63 17:46 23.04.2022
4081 Clear 17 996 40 10000 6.17 100 16:45 23.04.2022
4082 Clear 17 997 39 10000 6.17 100 15:51 23.04.2022
4083 Clear 17 998 40 10000 5.66 90 13:31 23.04.2022
4084 Clouds 15 1009 46 10000 5.36 93 11:29 23.04.2022
4085 Clear 12 1003 56 10000 5.36 70 09:41 23.04.2022
4086 Clear 8 1009 76 10000 3.6 70 08:18 23.04.2022
4087 Clear 6 1002 81 10000 4.12 60 03:57 23.04.2022
4088 Clear 7 1002 79 10000 3.6 60 02:36 23.04.2022
4089 Clear 8 1009 78 10000 3.58 48 23:37 22.04.2022
4090 Clear 9 1002 77 10000 2.68 75 23:18 22.04.2022
4091 Clouds 11 1002 71 10000 4.12 90 21:58 22.04.2022
4092 Clouds 11 1002 67 10000 6.69 100 21:39 22.04.2022
4093 Clouds 12 1001 67 10000 9.83 95 20:34 22.04.2022
4094 Clouds 13 1001 70 10000 6.71 70 19:26 22.04.2022
4095 Clouds 13 1001 72 10000 6.17 80 18:57 22.04.2022
4096 Clouds 13 1001 70 10000 6.17 80 18:26 22.04.2022
4097 Clouds 14 1000 69 10000 7.72 70 16:57 22.04.2022
4098 Clouds 13 1001 71 10000 7.2 90 15:59 22.04.2022
4099 Clouds 13 1000 73 10000 5.36 95 15:30 22.04.2022
4100 Clouds 12 1001 79 10000 4.63 90 14:38 22.04.2022
4101 Clouds 13 1001 76 10000 6.71 95 13:41 22.04.2022
4102 Clouds 13 1001 73 10000 5.81 82 12:48 22.04.2022
4103 Clouds 12 1000 77 10000 5.36 59 11:23 22.04.2022
4104 Clouds 11 1001 76 10000 5.66 50 10:57 22.04.2022
4105 Clouds 10 1001 77 10000 6.26 49 10:34 22.04.2022
4106 Clear 10 1001 77 10000 4.47 31 09:59 22.04.2022
4107 Clear 9 1001 79 10000 3.6 60 09:30 22.04.2022
4108 Clear 8 1001 81 10000 3.58 60 08:49 22.04.2022
4109 Clear 6 1001 87 10000 3.13 44 06:54 22.04.2022
4110 Clouds 9 1003 79 10000 3.6 20 01:34 22.04.2022
4111 Clouds 11 1003 83 10000 1.54 350 23:39 21.04.2022
4112 Clouds 11 1003 86 10000 1.34 329 22:48 21.04.2022
4113 Clouds 11 1001 85 10000 0.89 358 21:49 21.04.2022
4114 Clear 12 1003 83 10000 0.89 38 20:34 21.04.2022
4115 Clear 12 1004 80 10000 1.34 70 19:36 21.04.2022
4116 Clouds 12 1005 83 10000 3.09 50 18:32 21.04.2022
4117 Clouds 12 1005 83 10000 4.12 50 17:46 21.04.2022
4118 Clouds 12 1005 80 10000 4.02 78 16:21 21.04.2022
4119 Clouds 12 1005 71 10000 4.47 63 15:19 21.04.2022
4120 Clouds 12 1005 71 10000 4.47 65 14:31 21.04.2022
4121 Clouds 12 1005 76 10000 4.63 60 13:22 21.04.2022
4122 Clouds 11 1005 76 10000 4.63 50 12:29 21.04.2022
4123 Clouds 9 1004 81 10000 3.6 40 10:19 21.04.2022
4124 Clear 8 1004 83 10000 3.09 10 08:50 21.04.2022
4125 Clouds 7 1003 84 10000 3.6 20 06:55 21.04.2022
4126 Clouds 7 1004 79 10000 4.47 360 04:34 21.04.2022
4127 Clouds 8 1004 76 10000 3.6 10 03:24 21.04.2022
4128 Clouds 8 1004 75 10000 2.68 10 02:46 21.04.2022
4129 Clear 9 1004 69 10000 4.12 10 00:43 21.04.2022
4130 Clear 9 1012 66 10000 4.92 20 23:48 20.04.2022
4131 Clouds 9 1012 70 10000 4.92 20 23:21 20.04.2022
4132 Clouds 10 1012 66 10000 4.47 40 22:45 20.04.2022
4133 Clouds 10 1012 63 10000 4.47 20 22:18 20.04.2022
4134 Clouds 11 1012 59 10000 4.63 30 21:24 20.04.2022
4135 Clear 12 1005 57 10000 6.71 16 20:22 20.04.2022
4136 Clear 12 1010 59 10000 7.72 10 19:51 20.04.2022
4137 Clouds 14 1004 56 10000 7.2 10 18:55 20.04.2022
4138 Clouds 15 1004 53 10000 7.15 354 17:53 20.04.2022
4139 Clouds 15 1004 58 10000 6.71 303 16:40 20.04.2022
4140 Clouds 14 1005 59 10000 5.36 300 16:18 20.04.2022
4141 Clouds 12 1006 64 10000 2.57 230 13:50 20.04.2022
4142 Clouds 12 1007 59 10000 6.26 47 11:44 20.04.2022
4143 Clouds 12 1008 61 10000 4.12 20 10:56 20.04.2022
4144 Clouds 10 1008 65 10000 4.12 30 09:58 20.04.2022
4145 Clouds 10 1008 71 10000 4.02 44 09:24 20.04.2022
4146 Clear 8 1015 74 10000 3.13 27 08:20 20.04.2022
4147 Clouds 8 1007 80 10000 4.47 3 07:32 20.04.2022
4148 Clear 7 1007 76 10000 2.24 13 03:34 20.04.2022
4149 Clouds 7 1015 69 10000 2.24 20 00:22 20.04.2022
4150 Clouds 8 1015 65 10000 3.13 50 23:37 19.04.2022
4151 Clouds 9 1015 66 10000 4.12 30 22:25 19.04.2022
4152 Clouds 9 1013 65 10000 3.58 20 21:56 19.04.2022
4153 Clouds 10 1014 59 10000 4.92 30 21:23 19.04.2022
4154 Clear 11 1013 59 10000 4.02 40 20:45 19.04.2022
4155 Clear 12 1011 62 10000 4.02 30 19:56 19.04.2022
4156 Clear 13 1012 45 10000 4.92 60 18:49 19.04.2022
4157 Clear 13 1002 42 10000 4.63 70 17:40 19.04.2022
4158 Clear 13 1002 44 10000 5.14 50 16:43 19.04.2022
4159 Clear 13 998 45 10000 6.69 60 16:23 19.04.2022
4160 Clear 13 1002 42 10000 7.2 30 14:50 19.04.2022
4161 Clear 14 1005 41 10000 6.17 30 13:54 19.04.2022
4162 Clouds 13 1012 41 10000 6.69 30 12:50 19.04.2022
4163 Clouds 13 1012 42 10000 6.17 20 12:26 19.04.2022
4164 Clear 11 1013 48 10000 4.12 20 10:46 19.04.2022
4165 Clear 8 1006 62 10000 4.47 40 09:22 19.04.2022
4166 Clear 4 1005 69 10000 5.36 15 05:59 19.04.2022
4167 Clear 5 1006 63 10000 4.92 6 03:37 19.04.2022
4168 Clear 7 1007 55 10000 3.58 22 00:55 19.04.2022
4169 Clear 8 1007 49 10000 5.66 20 23:36 18.04.2022
4170 Clear 11 1015 49 10000 3.6 40 21:37 18.04.2022
4171 Clear 11 1015 52 10000 2.68 23 21:18 18.04.2022
4172 Clear 12 1004 50 10000 3.58 40 20:35 18.04.2022
4173 Clear 13 1014 45 10000 4.12 40 19:54 18.04.2022
4174 Clear 15 1004 41 10000 4.63 50 18:58 18.04.2022
4175 Clear 15 1007 41 10000 4.92 46 18:32 18.04.2022
4176 Clear 16 1005 37 10000 4.12 40 17:36 18.04.2022
4177 Clear 16 1005 36 10000 3.6 10 17:18 18.04.2022
4178 Clear 16 1005 35 10000 4.63 40 16:34 18.04.2022
4179 Clear 15 1006 37 10000 5.14 360 15:18 18.04.2022
4180 Clouds 15 1007 39 10000 2.68 0 13:42 18.04.2022
4181 Clouds 14 1018 43 10000 3.13 60 12:34 18.04.2022
4182 Clear 13 1019 46 10000 4.63 40 11:42 18.04.2022
4183 Clear 11 1020 54 10000 2.68 52 10:42 18.04.2022
4184 Clear 9 1019 63 10000 2.68 32 09:31 18.04.2022
4185 Clear 6 1013 75 10000 1.79 26 08:28 18.04.2022
4186 Clear 3 1013 81 10000 1.54 350 05:51 18.04.2022
4187 Clear 5 1023 71 10000 2.68 21 01:37 18.04.2022
4188 Clear 8 1023 63 10000 3.09 50 22:44 17.04.2022
4189 Clear 10 1023 60 10000 4.12 40 21:51 17.04.2022
4190 Clear 10 1016 58 10000 3.58 48 21:32 17.04.2022
4191 Clear 11 1023 55 10000 3.6 40 20:50 17.04.2022
4192 Clear 13 1024 49 10000 4.12 50 19:53 17.04.2022
4193 Clear 14 1016 42 10000 4.12 50 18:32 17.04.2022
4194 Clear 16 1015 35 10000 4.12 360 16:33 17.04.2022
4195 Clear 15 1016 34 10000 4.12 350 15:32 17.04.2022
4196 Clear 15 1016 35 10000 4.47 20 14:28 17.04.2022
4197 Clear 14 1028 39 10000 4.12 350 13:20 17.04.2022
4198 Clear 13 1028 41 10000 2.68 350 12:29 17.04.2022
4199 Clear 11 1030 47 10000 2.24 356 10:48 17.04.2022
4200 Clear 10 1032 47 10000 2.24 68 10:29 17.04.2022
4201 Clear 9 1030 57 10000 1.79 315 09:50 17.04.2022
4202 Clear 6 1023 64 10000 2.24 315 08:58 17.04.2022
4203 Clear 4 1030 71 10000 1.79 286 08:27 17.04.2022
4204 Clear 3 1024 67 10000 0.89 180 05:20 17.04.2022
4205 Clear 3 1032 62 10000 2.24 31 01:40 17.04.2022
4206 Clear 4 1032 58 10000 3.58 24 23:59 16.04.2022
4207 Clear 6 1032 53 10000 4.12 20 22:56 16.04.2022
4208 Clear 7 1031 47 10000 4.63 30 21:44 16.04.2022
4209 Clear 8 1031 44 10000 5.14 30 20:54 16.04.2022
4210 Clear 11 1023 39 10000 5.36 20 19:21 16.04.2022
4211 Clear 12 1023 38 10000 4.92 14 18:35 16.04.2022
4212 Clear 13 1021 36 10000 5.14 30 16:44 16.04.2022
4213 Clear 13 1021 38 10000 4.63 20 15:46 16.04.2022
4214 Clouds 13 1021 40 10000 5.66 30 14:58 16.04.2022
4215 Clouds 12 1022 42 10000 5.66 30 14:30 16.04.2022
4216 Clouds 12 1022 44 10000 5.14 40 13:48 16.04.2022
4217 Clouds 10 1032 50 10000 4.12 30 12:43 16.04.2022
4218 Clouds 9 1034 63 10000 5.81 45 11:33 16.04.2022
4219 Clouds 8 1025 69 10000 5.66 60 10:29 16.04.2022
4220 Clouds 6 1024 80 10000 5.36 36 09:36 16.04.2022
4221 Clouds 5 1024 83 10000 4.92 20 08:51 16.04.2022
4222 Clouds 3 1024 87 10000 4.63 50 07:21 16.04.2022
4223 Clouds 2 1023 86 10000 4.47 13 04:58 16.04.2022
4224 Clouds 4 1022 81 10000 6.17 10 01:47 16.04.2022
4225 Clouds 6 1021 82 10000 6.71 19 23:52 15.04.2022
4226 Clouds 6 1020 83 10000 5.66 360 22:48 15.04.2022
4227 Clouds 6 1020 84 10000 6.26 354 22:28 15.04.2022
4228 Clouds 7 1019 85 10000 6.26 12 21:25 15.04.2022
4229 Clouds 7 1019 86 10000 6.26 18 20:38 15.04.2022
4230 Clouds 7 1016 86 10000 5.66 360 19:46 15.04.2022
4231 Clouds 7 1016 86 10000 7.2 360 19:23 15.04.2022
4232 Clouds 8 1017 86 10000 6.26 352 18:42 15.04.2022
4233 Clouds 8 1017 86 10000 7.6 357 18:22 15.04.2022
4234 Clouds 8 1016 88 10000 7.6 330 17:27 15.04.2022
4235 Clouds 9 1015 89 10000 5.66 310 16:25 15.04.2022
4236 Drizzle 10 1015 90 10000 5.14 330 15:46 15.04.2022
4237 Drizzle 9 1014 90 10000 4.92 300 14:18 15.04.2022
4238 Rain 9 1014 90 10000 5.36 294 12:52 15.04.2022
4239 Drizzle 9 1014 88 10000 6.71 301 12:26 15.04.2022
4240 Clouds 9 1014 87 10000 6.71 305 11:51 15.04.2022
4241 Clouds 9 1013 86 10000 6.17 300 10:48 15.04.2022
4242 Clouds 9 1013 86 10000 6.17 290 10:21 15.04.2022
4243 Clouds 9 1019 87 10000 5.66 290 09:23 15.04.2022
4244 Clouds 9 1013 87 10000 5.66 290 08:49 15.04.2022
4245 Clouds 8 1018 87 10000 5.14 290 06:51 15.04.2022
4246 Clouds 8 1018 88 10000 8.05 297 04:49 15.04.2022
4247 Clouds 11 1011 90 8000 3.58 286 01:27 15.04.2022
4248 Clouds 12 1011 90 10000 4.12 220 23:29 14.04.2022
4249 Clouds 12 1011 90 10000 5.14 220 22:46 14.04.2022
4250 Clouds 12 1011 88 10000 4.47 228 22:27 14.04.2022
4251 Rain 12 1011 88 10000 2.68 263 21:53 14.04.2022
4252 Clouds 12 1018 88 10000 2.57 250 19:57 14.04.2022
4253 Clouds 13 1017 85 10000 1.03 0 19:22 14.04.2022
4254 Clouds 13 1010 86 10000 2.68 272 17:56 14.04.2022
4255 Clouds 13 1010 86 10000 2.68 280 17:27 14.04.2022
4256 Rain 13 1017 85 10000 4.12 300 16:33 14.04.2022
4257 Clouds 14 1017 83 10000 4.63 310 14:23 14.04.2022
4258 Clouds 15 1017 76 10000 5.14 320 13:31 14.04.2022
4259 Clouds 16 1017 71 10000 4.12 340 12:42 14.04.2022
4260 Clouds 16 1016 68 10000 5.14 340 12:22 14.04.2022
4261 Clear 16 1017 66 10000 4.92 352 11:23 14.04.2022
4262 Clear 16 1016 70 10000 3.09 340 10:36 14.04.2022
4263 Clear 16 1009 69 10000 2.57 350 09:56 14.04.2022
4264 Clear 13 1009 72 10000 2.68 35 08:40 14.04.2022
4265 Clear 11 1008 74 10000 3.58 360 06:51 14.04.2022
4266 Clear 12 1007 62 10000 1.34 110 02:53 14.04.2022
4267 Clear 13 1014 61 10000 2.57 100 22:56 13.04.2022
4268 Clear 15 1015 58 10000 2.68 86 21:44 13.04.2022
4269 Clear 16 1016 55 10000 1.34 131 20:55 13.04.2022
4270 Clear 18 1016 51 10000 2.06 150 20:22 13.04.2022
4271 Clear 20 1013 44 10000 2.57 150 19:32 13.04.2022
4272 Clear 22 1007 34 10000 2.24 140 18:20 13.04.2022
4273 Clear 22 1007 33 10000 3.6 160 17:24 13.04.2022
4274 Clear 22 1007 33 10000 4.02 168 16:34 13.04.2022
4275 Clear 21 1004 32 10000 3.6 160 15:38 13.04.2022
4276 Clear 21 1007 34 10000 4.92 152 14:51 13.04.2022
4277 Clear 20 1004 36 10000 4.12 140 14:26 13.04.2022
4278 Clear 20 1007 36 10000 5.36 120 13:28 13.04.2022
4279 Clear 18 1014 41 10000 4.47 113 12:25 13.04.2022
4280 Clear 18 1014 41 10000 4.47 113 12:25 13.04.2022
4281 Clear 15 1008 45 10000 4.63 140 10:54 13.04.2022
4282 Clear 12 1009 51 10000 3.6 130 09:44 13.04.2022
4283 Clear 9 1008 59 10000 4.63 120 08:43 13.04.2022
4284 Clear 6 1008 64 10000 4.02 93 06:52 13.04.2022
4285 Clear 6 1008 63 10000 4.12 100 06:26 13.04.2022
4286 Clear 7 1008 61 10000 4.12 100 05:36 13.04.2022
4287 Clear 10 1009 49 10000 4.47 102 00:23 13.04.2022
4288 Clear 11 1008 48 10000 4.63 110 23:46 12.04.2022
4289 Clear 12 1007 44 10000 5.14 110 22:19 12.04.2022
4290 Clear 13 1007 43 10000 4.12 100 21:29 12.04.2022
4291 Clear 13 1013 44 10000 4.12 100 20:41 12.04.2022
4292 Clear 15 1003 38 10000 5.81 112 19:53 12.04.2022
4293 Clear 15 1007 35 10000 5.14 100 19:32 12.04.2022
4294 Clear 16 1005 36 10000 5.14 100 18:42 12.04.2022
4295 Clear 17 1009 35 10000 5.81 104 17:30 12.04.2022
4296 Clear 17 1005 32 10000 5.14 110 16:23 12.04.2022
4297 Clear 16 1005 33 10000 5.14 110 15:33 12.04.2022
4298 Clouds 16 1003 35 10000 3.58 120 14:32 12.04.2022
4299 Clear 15 1009 35 10000 6.26 125 13:38 12.04.2022
4300 Clear 15 1009 37 10000 6.26 139 12:53 12.04.2022
4301 Clear 13 1016 41 10000 6.71 129 11:47 12.04.2022
4302 Clear 13 1017 45 10000 5.66 120 11:20 12.04.2022
4303 Clear 9 1010 58 10000 2.68 107 09:24 12.04.2022
4304 Clouds 5 1008 65 10000 2.68 94 07:59 12.04.2022
4305 Clear 3 1009 72 10000 1.79 60 06:33 12.04.2022
4306 Clear 3 1009 74 10000 3.09 80 05:35 12.04.2022
4307 Clear 4 1016 70 10000 2.57 90 00:59 12.04.2022
4308 Clear 5 1016 68 10000 1.79 113 22:53 11.04.2022
4309 Clear 6 1016 70 10000 1.54 100 21:49 11.04.2022
4310 Clear 8 1008 63 10000 2.24 114 21:18 11.04.2022
4311 Clear 9 1008 58 10000 1.79 300 20:30 11.04.2022
4312 Clear 10 1008 54 10000 2.24 300 19:56 11.04.2022
4313 Clear 12 1008 44 10000 2.68 290 19:22 11.04.2022
4314 Clear 12 1008 42 10000 3.13 280 18:49 11.04.2022
4315 Clear 12 1008 43 10000 2.68 296 17:57 11.04.2022
4316 Clear 13 1008 41 10000 4.47 290 16:57 11.04.2022
4317 Clear 13 1008 40 10000 4.12 310 16:25 11.04.2022
4318 Clouds 13 1009 40 10000 7.6 259 14:36 11.04.2022
4319 Clouds 11 1017 42 10000 4.12 270 12:54 11.04.2022
4320 Clouds 11 1018 43 10000 6.17 280 12:35 11.04.2022
4321 Clouds 10 1017 46 10000 4.63 300 11:42 11.04.2022
4322 Clouds 8 1018 60 10000 4.92 270 10:34 11.04.2022
4323 Clear 7 1017 68 10000 4.92 262 09:30 11.04.2022
4324 Clear 2 1017 85 10000 3.09 220 07:24 11.04.2022
4325 Clear 5 1010 75 10000 4.12 270 02:36 11.04.2022
4326 Clear 5 1009 77 10000 4.02 258 22:58 10.04.2022
4327 Clear 4 1009 77 10000 4.02 300 22:26 10.04.2022
4328 Clouds 5 1008 75 10000 4.02 287 21:35 10.04.2022
4329 Clouds 5 1008 78 10000 1.54 340 20:39 10.04.2022
4330 Clouds 6 1007 76 10000 5.81 294 19:53 10.04.2022
4331 Clouds 7 1007 71 10000 5.81 260 19:30 10.04.2022
4332 Clouds 7 1007 72 10000 5.14 320 18:46 10.04.2022
4333 Clouds 8 1006 70 10000 8.23 260 17:58 10.04.2022
4334 Clouds 8 1006 68 10000 8.49 270 17:58 10.04.2022
4335 Rain 8 1006 71 10000 8.94 251 17:39 10.04.2022
4336 Clouds 8 1006 68 10000 7.6 272 16:44 10.04.2022
4337 Clouds 9 1005 65 10000 9.83 264 15:37 10.04.2022
4338 Clouds 8 1006 67 10000 9.39 281 14:34 10.04.2022
4339 Clouds 8 1012 65 10000 8.94 285 12:41 10.04.2022
4340 Clouds 7 1011 69 10000 8.49 297 12:21 10.04.2022
4341 Clouds 6 1011 71 10000 9.83 281 11:29 10.04.2022
4342 Clouds 6 1005 73 10000 9.83 272 10:57 10.04.2022
4343 Clouds 5 1005 75 10000 7.6 271 10:20 10.04.2022
4344 Clouds 5 1005 79 10000 7.72 280 09:39 10.04.2022
4345 Clouds 4 1004 82 10000 6.69 270 08:24 10.04.2022
4346 Clouds 3 1004 80 10000 5.81 270 07:47 10.04.2022
4347 Clouds 3 1003 82 10000 6.17 270 06:19 10.04.2022
4348 Clear 3 1002 81 10000 6.17 250 02:37 10.04.2022
4349 Clouds 4 1001 76 10000 5.81 246 00:51 10.04.2022
4350 Clear 5 1001 75 10000 5.81 250 23:50 09.04.2022
4351 Clear 5 1000 75 10000 4.47 230 22:50 09.04.2022
4352 Clouds 6 1000 73 10000 3.6 240 21:48 09.04.2022
4353 Clouds 6 999 75 10000 4.63 270 20:57 09.04.2022
4354 Clouds 6 998 74 10000 5.66 260 20:26 09.04.2022
4355 Clouds 6 1004 75 10000 3.6 280 19:42 09.04.2022
4356 Clouds 7 998 74 10000 4.47 273 19:18 09.04.2022
4357 Clouds 7 998 74 10000 4.47 273 19:18 09.04.2022
4358 Clouds 7 995 73 10000 6.71 278 18:22 09.04.2022
4359 Clouds 7 996 73 10000 8.94 261 17:40 09.04.2022
4360 Clouds 9 995 68 10000 11.62 263 16:53 09.04.2022
4361 Clouds 9 994 66 10000 11.32 260 16:24 09.04.2022
4362 Clouds 9 1002 65 10000 9.26 280 15:43 09.04.2022
4363 Clouds 10 994 55 10000 9.77 270 14:44 09.04.2022
4364 Clouds 10 994 55 10000 9.77 270 14:44 09.04.2022
4365 Clouds 10 994 53 10000 11.18 263 14:23 09.04.2022
4366 Clouds 9 1002 56 10000 10.28 263 13:21 09.04.2022
4367 Clouds 9 1002 56 10000 9.77 290 12:51 09.04.2022
4368 Clouds 8 1001 63 10000 9.83 271 11:41 09.04.2022
4369 Clouds 6 993 71 10000 8.75 270 10:21 09.04.2022
4370 Clouds 6 1000 73 10000 8.05 281 09:52 09.04.2022
4371 Clouds 4 991 79 10000 6.26 255 08:57 09.04.2022
4372 Clouds 3 990 83 10000 5.36 263 07:44 09.04.2022
4373 Clear 4 985 80 10000 3.6 280 03:21 09.04.2022
4374 Clear 5 985 77 10000 2.68 228 00:30 09.04.2022
4375 Clear 5 985 76 10000 2.68 312 22:58 08.04.2022
4376 Clear 6 985 68 10000 4.12 250 21:35 08.04.2022
4377 Clear 7 985 64 10000 4.92 243 20:41 08.04.2022
4378 Clear 9 985 57 10000 4.12 250 19:41 08.04.2022
4379 Clear 9 985 56 10000 4.92 249 18:34 08.04.2022
4380 Clouds 9 985 55 10000 8.05 261 17:55 08.04.2022
4381 Clouds 10 984 55 10000 6.71 252 17:27 08.04.2022
4382 Clouds 10 984 54 10000 7.2 270 16:52 08.04.2022
4383 Clouds 10 985 53 10000 7.2 250 16:22 08.04.2022
4384 Clouds 9 983 56 10000 7.15 255 15:28 08.04.2022
4385 Clouds 9 986 58 10000 7.72 260 14:40 08.04.2022
4386 Clouds 9 994 58 10000 10.29 250 13:55 08.04.2022
4387 Clouds 9 986 58 10000 11.83 260 13:30 08.04.2022
4388 Clouds 8 994 62 10000 10.73 250 12:42 08.04.2022
4389 Clouds 7 995 69 10000 9.39 258 10:56 08.04.2022
4390 Clouds 5 984 83 9000 11.18 281 09:41 08.04.2022
4391 Clouds 5 991 81 10000 6.69 270 08:59 08.04.2022
4392 Clouds 6 982 78 10000 8.94 283 07:42 08.04.2022
4393 Clouds 6 989 80 10000 8.75 260 06:44 08.04.2022
4394 Clouds 7 975 80 10000 13.41 239 02:37 08.04.2022
4395 Clear 7 975 82 10000 8.75 240 00:29 08.04.2022
4396 Clouds 7 975 82 10000 10.29 250 23:42 07.04.2022
4397 Clouds 7 975 83 10000 9.39 279 22:41 07.04.2022
4398 Clouds 7 974 79 10000 7.6 274 22:23 07.04.2022
4399 Clear 8 974 72 10000 9.83 248 21:58 07.04.2022
4400 Clear 9 973 70 10000 10.73 230 21:30 07.04.2022
4401 Clouds 9 972 75 10000 9.39 227 20:42 07.04.2022
4402 Clouds 9 972 77 10000 7.6 221 19:51 07.04.2022
4403 Clouds 9 970 82 10000 9.39 242 17:43 07.04.2022
4404 Clouds 9 967 83 10000 11.32 270 17:22 07.04.2022
4405 Clouds 10 972 84 10000 11.32 200 16:34 07.04.2022
4406 Clouds 13 971 76 10000 10.73 200 15:47 07.04.2022
4407 Clouds 13 974 71 10000 12.96 197 13:59 07.04.2022
4408 Clouds 14 976 66 10000 11.32 210 13:24 07.04.2022
4409 Clouds 14 976 66 10000 11.32 210 13:24 07.04.2022
4410 Clouds 14 977 63 10000 10.8 220 11:53 07.04.2022
4411 Clouds 14 979 66 10000 11.32 220 10:55 07.04.2022
4412 Clouds 11 980 73 10000 9.39 202 09:28 07.04.2022
4413 Clear 9 981 77 10000 7.6 198 06:59 07.04.2022
4414 Clear 9 983 76 10000 7.72 210 05:32 07.04.2022
4415 Clouds 10 985 70 10000 7.2 220 02:37 07.04.2022
4416 Clouds 10 986 67 10000 5.66 230 00:44 07.04.2022
4417 Clouds 11 987 68 10000 8.05 222 23:36 06.04.2022
4418 Clouds 11 987 71 10000 4.63 220 22:45 06.04.2022
4419 Clouds 10 987 71 10000 5.14 220 22:21 06.04.2022
4420 Clouds 11 987 69 10000 5.36 206 20:53 06.04.2022
4421 Clouds 11 987 68 10000 5.14 230 20:26 06.04.2022
4422 Clouds 11 988 68 10000 6.26 229 19:48 06.04.2022
4423 Clouds 12 988 69 10000 8.49 234 18:48 06.04.2022
4424 Clouds 12 988 68 10000 8.23 230 17:51 06.04.2022
4425 Clouds 12 988 66 10000 9.83 238 17:21 06.04.2022
4426 Clouds 12 989 66 10000 8.75 240 16:34 06.04.2022
4427 Clouds 12 989 69 10000 9.26 230 15:46 06.04.2022
4428 Clouds 12 990 73 10000 10.29 230 13:57 06.04.2022
4429 Clouds 12 990 73 10000 11.18 236 12:37 06.04.2022
4430 Clouds 12 990 77 10000 7.72 250 11:48 06.04.2022
4431 Clouds 11 990 79 10000 7.72 230 10:43 06.04.2022
4432 Clouds 11 990 85 10000 6.69 230 10:19 06.04.2022
4433 Clouds 10 991 93 10000 6.17 230 09:27 06.04.2022
4434 Clouds 9 990 92 10000 6.26 242 08:30 06.04.2022
4435 Clouds 9 990 93 10000 5.66 250 07:38 06.04.2022
4436 Clouds 9 990 90 9000 7.15 238 02:57 06.04.2022
4437 Clouds 7 991 91 10000 4.63 260 23:51 05.04.2022
4438 Clouds 7 991 90 10000 5.81 237 22:28 05.04.2022
4439 Clouds 8 991 84 10000 3.6 210 21:18 05.04.2022
4440 Clouds 8 999 81 9000 4.02 232 20:25 05.04.2022
4441 Clouds 8 999 80 10000 5.36 257 19:26 05.04.2022
4442 Clouds 8 1000 76 10000 5.66 260 17:52 05.04.2022
4443 Clouds 9 1000 75 10000 8.94 251 16:51 05.04.2022
4444 Clouds 9 992 66 10000 6.69 270 15:53 05.04.2022
4445 Clouds 9 992 63 10000 7.2 270 15:33 05.04.2022
4446 Clouds 9 992 61 10000 6.69 270 14:27 05.04.2022
4447 Clouds 9 992 63 10000 8.05 283 12:56 05.04.2022
4448 Clouds 8 1000 64 10000 10.29 280 11:50 05.04.2022
4449 Clouds 8 1000 65 10000 9.39 296 11:32 05.04.2022
4450 Clouds 6 991 75 10000 10.28 283 09:52 05.04.2022
4451 Clouds 6 990 82 10000 5.36 274 08:52 05.04.2022
4452 Clouds 5 989 85 10000 4.63 260 06:58 05.04.2022
4453 Clouds 6 987 89 10000 8.75 240 01:51 05.04.2022
4454 Clouds 5 987 91 10000 10.73 247 22:42 04.04.2022
4455 Clouds 5 987 91 10000 10.8 240 22:24 04.04.2022
4456 Clouds 4 987 90 10000 11.83 230 21:21 04.04.2022
4457 Clouds 4 988 91 8000 12.35 230 20:49 04.04.2022
4458 Clouds 3 989 91 8000 11.83 230 19:57 04.04.2022
4459 Clouds 3 989 91 9000 12.52 229 19:26 04.04.2022
4460 Clouds 3 990 90 8000 13.41 212 18:33 04.04.2022
4461 Clouds 3 992 88 9000 13.41 213 16:37 04.04.2022
4462 Clouds 4 993 82 9000 14.4 230 15:47 04.04.2022
4463 Clouds 5 993 76 10000 16.54 233 15:29 04.04.2022
4464 Clear 6 1002 68 10000 15.43 230 14:46 04.04.2022
4465 Clouds 8 995 54 10000 12.52 227 13:31 04.04.2022
4466 Clouds 8 1004 58 10000 12.35 230 12:23 04.04.2022
4467 Clouds 7 999 62 10000 12.07 227 11:29 04.04.2022
4468 Clear 4 1001 76 10000 8.94 216 09:20 04.04.2022
4469 Clear 1 1004 81 10000 5.14 240 05:21 04.04.2022
4470 Clouds 3 1005 77 10000 4.92 242 01:36 04.04.2022
4471 Clouds 4 1007 73 10000 4.12 250 22:47 03.04.2022
4472 Clouds 4 1007 70 10000 2.68 238 21:48 03.04.2022
4473 Clouds 4 1007 70 10000 4.92 279 21:19 03.04.2022
4474 Clouds 6 1007 58 10000 4.02 248 19:52 03.04.2022
4475 Clouds 7 1006 60 10000 7.72 280 18:34 03.04.2022
4476 Clouds 7 1007 54 10000 8.23 280 17:49 03.04.2022
4477 Clouds 7 1006 49 10000 8.94 277 17:27 03.04.2022
4478 Clouds 8 1007 51 10000 7.2 290 16:48 03.04.2022
4479 Clouds 8 1007 40 10000 6.69 280 15:32 03.04.2022
4480 Clouds 7 1008 37 10000 6.26 276 13:58 03.04.2022
4481 Clouds 7 1008 38 10000 5.81 284 13:58 03.04.2022
4482 Clouds 7 1009 40 10000 4.47 319 12:58 03.04.2022
4483 Clouds 5 1017 49 10000 4.63 300 11:34 03.04.2022
4484 Clouds 2 1009 59 10000 3.13 267 09:41 03.04.2022
4485 Clear 1 1010 65 10000 3.13 276 08:57 03.04.2022
4486 Clouds -1 1009 69 10000 2.57 290 05:45 03.04.2022
4487 Clouds -1 1009 69 10000 2.68 287 05:45 03.04.2022
4488 Clear -2 1009 68 10000 3.6 330 02:55 03.04.2022
4489 Clear 0 1008 62 10000 5.36 5 23:35 02.04.2022
4490 Clear 1 1008 61 10000 6.17 360 22:43 02.04.2022
4491 Clear 2 1008 59 10000 6.71 351 21:55 02.04.2022
4492 Clouds 2 1007 59 10000 6.71 351 21:19 02.04.2022
4493 Clouds 3 1007 58 10000 6.17 10 20:36 02.04.2022
4494 Clouds 4 1005 54 10000 7.72 20 18:47 02.04.2022
4495 Clouds 5 1005 56 10000 8.75 20 18:19 02.04.2022
4496 Clouds 5 1005 53 10000 8.23 10 17:23 02.04.2022
4497 Clouds 5 1004 54 10000 8.49 2 15:44 02.04.2022
4498 Clouds 5 1004 57 10000 8.94 12 15:19 02.04.2022
4499 Clouds 6 1004 53 10000 8.23 20 14:31 02.04.2022
4500 Clouds 6 1000 47 10000 8.23 30 13:34 02.04.2022
4501 Clouds 6 1003 47 10000 8.49 28 12:21 02.04.2022
4502 Clouds 4 1003 62 10000 10.73 21 10:31 02.04.2022
4503 Clear 1 1003 72 10000 6.71 10 08:26 02.04.2022
4504 Clear 0 1002 71 10000 5.81 29 05:24 02.04.2022
4505 Clear 1 1001 66 10000 5.14 30 02:56 02.04.2022
4506 Clear 2 1000 57 10000 6.71 23 23:54 01.04.2022
4507 Clear 3 1000 56 10000 8.94 37 22:51 01.04.2022
4508 Clear 4 999 59 10000 9.77 20 21:27 01.04.2022
4509 Clear 4 998 58 10000 9.83 13 20:49 01.04.2022
4510 Clear 5 998 55 10000 8.05 20 19:50 01.04.2022
4511 Clear 6 997 45 10000 6.69 40 19:26 01.04.2022
4512 Clear 7 997 39 10000 8.75 50 18:42 01.04.2022
4513 Clear 8 996 32 10000 10.29 60 17:45 01.04.2022
4514 Clear 8 993 31 10000 8.75 50 16:34 01.04.2022
4515 Clear 8 993 30 10000 8.75 50 15:19 01.04.2022
4516 Clear 7 993 30 10000 9.77 50 14:18 01.04.2022
4517 Clear 7 993 32 10000 9.26 60 13:32 01.04.2022
4518 Clear 6 993 35 10000 9.77 50 12:32 01.04.2022
4519 Clear 5 996 39 10000 9.26 60 11:18 01.04.2022
4520 Clear 4 996 46 10000 8.75 60 10:18 01.04.2022
4521 Clear 1 995 52 10000 9.39 51 07:59 01.04.2022
4522 Clouds 2 994 50 10000 8.23 60 06:31 01.04.2022
4523 Clouds 2 994 47 10000 8.23 60 04:47 01.04.2022
4524 Clouds 3 994 47 10000 7.6 54 04:28 01.04.2022
4525 Clear 4 994 39 10000 8.23 70 01:54 01.04.2022
4526 Clouds 5 994 38 10000 10.73 66 22:58 31.03.2022
4527 Clouds 5 994 38 10000 10.73 66 22:58 31.03.2022
4528 Clouds 6 994 36 10000 9.26 80 21:50 31.03.2022
4529 Clear 6 994 34 10000 9.39 65 21:31 31.03.2022
4530 Clear 6 993 34 10000 8.49 88 20:29 31.03.2022
4531 Clear 7 993 34 10000 7.2 80 19:48 31.03.2022
4532 Clear 7 993 32 10000 8.05 89 18:43 31.03.2022
4533 Clouds 7 992 34 10000 8.75 80 17:49 31.03.2022
4534 Clouds 8 993 40 10000 8.05 70 16:37 31.03.2022
4535 Clouds 8 993 44 10000 8.23 90 15:43 31.03.2022
4536 Clouds 8 993 43 10000 8.94 99 15:19 31.03.2022
4537 Clouds 8 991 46 10000 7.72 80 14:35 31.03.2022
4538 Clear 6 1003 51 10000 8.49 71 11:43 31.03.2022
4539 Clear 5 1003 52 10000 8.49 72 11:20 31.03.2022
4540 Clear 2 994 62 10000 6.26 85 09:44 31.03.2022
4541 Clear 0 995 67 10000 5.81 65 07:59 31.03.2022
4542 Clear 1 994 65 10000 4.63 70 05:23 31.03.2022
4543 Clear 5 994 62 10000 3.6 60 23:43 30.03.2022
4544 Clear 6 994 55 10000 2.68 50 22:32 30.03.2022
4545 Clear 6 995 54 10000 3.6 100 21:39 30.03.2022
4546 Clear 6 994 55 10000 4.92 40 20:53 30.03.2022
4547 Clear 6 994 56 10000 6.71 46 20:20 30.03.2022
4548 Clear 6 994 56 10000 6.17 50 20:20 30.03.2022
4549 Clouds 7 994 52 10000 4.47 50 19:19 30.03.2022
4550 Clouds 8 994 52 10000 4.47 50 18:19 30.03.2022
4551 Clouds 8 994 53 10000 4.12 70 17:45 30.03.2022
4552 Clouds 9 994 54 10000 2.68 45 16:56 30.03.2022
4553 Clouds 9 994 53 10000 3.13 70 16:32 30.03.2022
4554 Clouds 9 995 50 10000 3.58 61 15:24 30.03.2022
4555 Clouds 9 995 52 10000 2.06 20 13:42 30.03.2022
4556 Clouds 9 996 50 10000 3.13 27 12:47 30.03.2022
4557 Clouds 8 1004 61 10000 2.24 113 11:27 30.03.2022
4558 Clouds 8 1004 61 10000 2.24 113 11:27 30.03.2022
4559 Clear 7 1004 67 10000 1.54 100 10:23 30.03.2022
4560 Clear 5 997 70 10000 0.51 0 09:23 30.03.2022
4561 Clear 3 997 76 10000 1.03 0 07:33 30.03.2022
4562 Clear 3 997 70 10000 1.34 224 05:41 30.03.2022
4563 Clear 4 998 65 10000 1.34 258 03:52 30.03.2022
4564 Clear 5 998 63 10000 3.58 360 00:41 30.03.2022
4565 Clear 6 997 62 10000 2.68 304 22:28 29.03.2022
4566 Clear 7 1005 58 10000 2.68 307 21:45 29.03.2022
4567 Clear 9 997 55 10000 4.63 300 20:53 29.03.2022
4568 Clear 9 997 52 10000 4.92 320 20:18 29.03.2022
4569 Clear 11 997 50 10000 5.36 301 18:55 29.03.2022
4570 Clear 11 997 48 10000 5.36 300 18:19 29.03.2022
4571 Clear 12 998 44 10000 8.05 279 17:35 29.03.2022
4572 Clouds 12 995 44 10000 7.72 260 16:57 29.03.2022
4573 Clouds 12 996 46 10000 7.2 260 15:57 29.03.2022
4574 Clouds 13 1000 43 10000 6.26 280 14:52 29.03.2022
4575 Clouds 12 997 45 10000 6.69 280 13:58 29.03.2022
4576 Clouds 11 1009 54 10000 6.17 280 12:51 29.03.2022
4577 Clouds 10 1009 58 10000 5.81 275 11:43 29.03.2022
4578 Clouds 8 1009 66 10000 6.17 300 10:30 29.03.2022
4579 Clouds 7 1012 76 10000 5.14 290 09:42 29.03.2022
4580 Clouds 6 1010 83 10000 4.47 310 07:35 29.03.2022
4581 Clouds 6 1011 85 10000 3.6 280 04:41 29.03.2022
4582 Clear 8 1005 75 10000 5.81 290 00:35 29.03.2022
4583 Clear 9 1005 72 10000 4.12 310 23:23 28.03.2022
4584 Clear 9 1013 73 10000 5.36 330 22:52 28.03.2022
4585 Clear 10 1005 70 10000 5.81 333 22:26 28.03.2022
4586 Clear 12 1013 64 10000 4.92 300 20:58 28.03.2022
4587 Clear 13 1006 61 10000 4.92 319 20:23 28.03.2022
4588 Clear 14 1005 58 10000 4.92 295 19:44 28.03.2022
4589 Clear 15 1005 54 10000 5.66 290 19:25 28.03.2022
4590 Clear 16 1006 53 10000 5.36 270 18:37 28.03.2022
4591 Clear 17 1006 55 10000 7.15 288 17:39 28.03.2022
4592 Clear 17 1005 47 10000 5.66 290 16:21 28.03.2022
4593 Clear 17 1009 49 10000 6.71 261 14:47 28.03.2022
4594 Clear 16 1007 52 10000 7.2 250 14:21 28.03.2022
4595 Clear 14 1019 57 10000 5.36 268 12:20 28.03.2022
4596 Clear 12 1020 64 10000 5.14 260 11:31 28.03.2022
4597 Clear 9 1020 75 10000 3.6 260 09:43 28.03.2022
4598 Clear 8 1020 81 10000 3.6 250 09:19 28.03.2022
4599 Clear 6 1014 84 10000 2.68 245 08:22 28.03.2022
4600 Clear 6 1014 82 10000 3.58 241 07:34 28.03.2022
4601 Clear 8 1015 72 10000 3.58 236 03:52 28.03.2022
4602 Clear 10 1018 64 10000 3.13 236 23:30 27.03.2022
4603 Clear 10 1017 68 10000 2.24 267 22:24 27.03.2022
4604 Clear 10 1018 68 10000 2.57 290 21:42 27.03.2022
4605 Clear 11 1018 63 10000 2.68 287 20:57 27.03.2022
4606 Clear 14 1017 56 10000 3.6 300 19:49 27.03.2022
4607 Clear 14 1018 57 10000 3.6 300 19:26 27.03.2022
4608 Clear 15 1018 52 10000 3.6 270 18:28 27.03.2022
4609 Clear 16 1018 51 10000 3.09 300 17:39 27.03.2022
4610 Clear 16 1016 46 10000 2.68 310 16:31 27.03.2022
4611 Clouds 16 1015 51 10000 1.54 0 15:25 27.03.2022
4612 Clouds 16 1021 53 10000 2.57 250 13:56 27.03.2022
4613 Clouds 14 1030 66 10000 1.79 310 12:38 27.03.2022
4614 Clouds 11 1028 76 10000 1.79 293 11:20 27.03.2022
4615 Clear 8 1021 84 10000 0.45 104 09:21 27.03.2022
4616 Clear 6 1020 84 10000 0.89 122 05:56 27.03.2022
4617 Clear 6 1022 82 10000 1.03 350 00:57 27.03.2022
4618 Clear 7 1022 80 10000 0.89 310 23:46 26.03.2022
4619 Clear 7 1021 79 10000 1.03 330 22:42 26.03.2022
4620 Clear 8 1021 79 10000 1.79 330 21:46 26.03.2022
4621 Clouds 8 1021 78 10000 2.24 330 21:25 26.03.2022
4622 Clouds 11 1020 76 10000 5.14 360 19:29 26.03.2022
4623 Clouds 12 1019 72 10000 5.36 333 17:54 26.03.2022
4624 Clouds 12 1019 73 10000 6.17 330 17:33 26.03.2022
4625 Clouds 12 1019 71 10000 8.23 320 16:27 26.03.2022
4626 Clouds 12 1019 69 10000 7.2 340 15:23 26.03.2022
4627 Clouds 14 1018 66 10000 8.23 300 13:54 26.03.2022
4628 Clouds 14 1018 65 10000 7.72 280 13:18 26.03.2022
4629 Clouds 14 1018 62 10000 8.49 290 11:41 26.03.2022
4630 Clouds 14 1018 62 10000 7.72 300 11:41 26.03.2022
4631 Clear 13 1025 65 10000 7.6 286 10:29 26.03.2022
4632 Clear 10 1025 70 10000 5.14 280 08:44 26.03.2022
4633 Clear 6 1018 75 10000 3.6 260 06:25 26.03.2022
4634 Clear 7 1018 71 10000 4.02 278 05:22 26.03.2022
4635 Clear 9 1019 61 10000 2.57 250 00:30 26.03.2022
4636 Clear 10 1019 64 10000 3.13 294 21:51 25.03.2022
4637 Clear 10 1026 59 10000 2.68 281 20:46 25.03.2022
4638 Clear 11 1018 61 10000 2.57 270 20:20 25.03.2022
4639 Clear 14 1026 56 10000 2.24 340 18:47 25.03.2022
4640 Clear 16 1017 50 10000 5.36 303 17:49 25.03.2022
4641 Clear 17 1016 49 10000 4.47 297 17:27 25.03.2022
4642 Clear 17 1018 43 10000 4.12 300 16:18 25.03.2022
4643 Clear 18 1016 42 10000 2.68 340 14:49 25.03.2022
4644 Clouds 17 1017 42 10000 4.12 310 13:24 25.03.2022
4645 Clear 13 1028 47 10000 2.24 293 10:26 25.03.2022
4646 Clear 11 1020 51 10000 2.24 279 09:28 25.03.2022
4647 Clear 8 1018 56 10000 1.34 315 08:24 25.03.2022
4648 Clear 6 1017 64 10000 0.89 266 07:28 25.03.2022
4649 Clear 6 1017 60 10000 1.43 342 06:29 25.03.2022
4650 Clear 7 1018 50 10000 0.89 356 01:32 25.03.2022
4651 Clear 8 1019 43 10000 1.79 28 22:53 24.03.2022
4652 Clear 9 1019 42 10000 1.54 40 21:52 24.03.2022
4653 Clear 9 1019 44 10000 2.68 60 20:40 24.03.2022
4654 Clear 9 1025 48 10000 2.57 70 19:48 24.03.2022
4655 Clear 15 1017 30 10000 2.06 20 17:50 24.03.2022
4656 Clear 15 1018 30 10000 2.24 33 17:23 24.03.2022
4657 Clear 16 1016 27 10000 2.57 40 15:45 24.03.2022
4658 Clear 16 1016 27 10000 2.24 23 14:50 24.03.2022
4659 Clear 16 1016 28 10000 1.79 360 14:20 24.03.2022
4660 Clear 16 1017 30 10000 2.06 0 13:24 24.03.2022
4661 Clear 14 1028 37 10000 1.79 0 11:52 24.03.2022
4662 Clear 10 1027 52 10000 1.34 45 10:18 24.03.2022
4663 Clear 8 1027 58 10000 1.79 70 09:22 24.03.2022
4664 Clear 3 1020 70 10000 1.79 60 06:55 24.03.2022
4665 Clear 5 1019 60 10000 0.89 7 04:34 24.03.2022
4666 Clear 7 1021 52 10000 3.13 35 23:21 23.03.2022
4667 Clear 9 1028 50 10000 4.47 29 21:53 23.03.2022
4668 Clear 10 1020 46 10000 4.63 30 21:20 23.03.2022
4669 Clear 12 1027 40 10000 4.12 40 19:46 23.03.2022
4670 Clear 13 1027 39 10000 4.47 29 19:25 23.03.2022
4671 Clear 17 1025 29 10000 4.12 40 17:39 23.03.2022
4672 Clear 18 1019 26 10000 2.68 330 16:53 23.03.2022
4673 Clear 19 1017 24 10000 2.68 23 14:57 23.03.2022
4674 Clear 19 1017 24 10000 2.24 338 14:38 23.03.2022
4675 Clear 18 1018 25 10000 1.79 20 13:22 23.03.2022
4676 Clear 13 1029 39 10000 1.34 135 10:37 23.03.2022
4677 Clear 7 1018 61 10000 2.57 70 07:56 23.03.2022
4678 Clear 5 1018 54 10000 1.79 102 05:40 23.03.2022
4679 Clear 7 1018 47 10000 1.79 71 01:41 23.03.2022
4680 Clear 8 1020 41 10000 1.79 91 00:24 23.03.2022
4681 Clear 9 1022 36 10000 3.13 104 21:36 22.03.2022
4682 Clear 10 1022 34 10000 2.06 80 20:57 22.03.2022
4683 Clear 10 1022 33 10000 2.06 100 19:59 22.03.2022
4684 Clear 12 1032 34 10000 2.24 91 19:25 22.03.2022
4685 Clear 12 1033 34 10000 2 137 18:45 22.03.2022
4686 Clear 17 1027 20 10000 2.57 140 17:43 22.03.2022
4687 Clear 17 1021 21 10000 3.6 130 16:37 22.03.2022
4688 Clear 17 1022 20 10000 3.6 130 15:40 22.03.2022
4689 Clear 17 1019 19 10000 3.09 130 15:19 22.03.2022
4690 Clear 17 1019 19 10000 3.09 160 14:42 22.03.2022
4691 Clear 16 1020 21 10000 2.68 135 13:42 22.03.2022
4692 Clear 14 1033 27 10000 3.6 160 11:53 22.03.2022
4693 Clear 12 1033 29 10000 5.66 150 10:54 22.03.2022
4694 Clear 8 1027 38 10000 3.13 135 09:21 22.03.2022
4695 Clear 3 1026 52 10000 2.68 122 07:30 22.03.2022
4696 Clear 3 1025 53 10000 3.09 120 03:57 22.03.2022
4697 Clear 5 1026 49 10000 3.6 120 00:50 22.03.2022
4698 Clear 6 1026 43 10000 3.6 120 22:48 21.03.2022
4699 Clear 8 1025 36 10000 3.13 100 21:37 21.03.2022
4700 Clear 8 1033 38 10000 3.6 100 20:44 21.03.2022
4701 Clear 8 1025 34 10000 3.58 92 20:23 21.03.2022
4702 Clear 8 1025 34 10000 3.58 92 20:23 21.03.2022
4703 Clear 9 1033 36 10000 3.13 110 19:47 21.03.2022
4704 Clear 10 1032 32 10000 3.09 110 18:59 21.03.2022
4705 Clear 13 1023 26 10000 5.81 147 17:36 21.03.2022
4706 Clear 14 1025 24 10000 6.26 136 16:59 21.03.2022
4707 Clear 14 1025 25 10000 5.81 132 16:33 21.03.2022
4708 Clear 14 1025 24 10000 7.2 150 15:43 21.03.2022
4709 Clear 14 1023 24 10000 6.17 130 14:45 21.03.2022
4710 Clear 13 1024 24 10000 6.17 160 13:20 21.03.2022
4711 Clear 12 1027 28 10000 6.71 133 11:59 21.03.2022
4712 Clear 11 1033 29 10000 8.49 153 11:28 21.03.2022
4713 Clear 8 1028 34 10000 6.69 140 09:51 21.03.2022
4714 Clear 3 1028 49 10000 4.63 100 07:53 21.03.2022
4715 Clear 2 1028 54 10000 4.92 114 06:29 21.03.2022
4716 Clear 4 1028 45 10000 4.47 117 02:23 21.03.2022
4717 Clear 6 1028 39 10000 4.02 117 22:57 20.03.2022
4718 Clear 7 1028 38 10000 3.6 120 22:36 20.03.2022
4719 Clear 7 1028 36 10000 5.36 110 21:40 20.03.2022
4720 Clear 8 1027 35 10000 5.81 104 20:58 20.03.2022
4721 Clear 8 1028 34 10000 5.66 110 20:36 20.03.2022
4722 Clear 9 1028 33 10000 6.71 117 19:55 20.03.2022
4723 Clear 9 1027 33 10000 5.36 96 19:24 20.03.2022
4724 Clear 11 1027 29 10000 7.2 110 17:50 20.03.2022
4725 Clear 12 1027 28 10000 9.77 110 17:28 20.03.2022
4726 Clear 12 1028 27 10000 8.75 120 16:40 20.03.2022
4727 Clear 13 1026 25 10000 9.26 110 14:53 20.03.2022
4728 Clear 12 1025 29 10000 8.75 110 13:46 20.03.2022
4729 Clear 11 1027 30 10000 6.69 110 12:21 20.03.2022
4730 Clear 8 1036 39 10000 7.2 110 10:39 20.03.2022
4731 Clear 4 1031 49 10000 6.71 96 08:35 20.03.2022
4732 Clear 2 1031 55 10000 5.66 80 06:55 20.03.2022
4733 Clear 3 1031 54 10000 5.14 80 03:59 20.03.2022
4734 Clear 4 1031 53 10000 5.14 80 00:59 20.03.2022
4735 Clear 4 1032 50 10000 5.14 80 00:36 20.03.2022
4736 Clear 5 1032 50 10000 4.12 80 22:56 19.03.2022
4737 Clear 6 1032 55 10000 4.12 80 21:27 19.03.2022
4738 Clear 7 1033 53 10000 4.12 80 20:28 19.03.2022
4739 Clear 9 1032 53 10000 6.26 80 18:44 19.03.2022
4740 Clear 9 1032 50 10000 5.66 80 18:23 19.03.2022
4741 Clouds 10 1031 49 10000 8.05 79 17:35 19.03.2022
4742 Clouds 11 1029 54 10000 8.23 80 15:43 19.03.2022
4743 Clouds 11 1030 58 10000 7.2 80 14:34 19.03.2022
4744 Clouds 11 1034 55 10000 9.26 60 12:59 19.03.2022
4745 Clouds 11 1034 54 10000 9.26 60 12:39 19.03.2022
4746 Clouds 10 1041 55 10000 9.77 60 11:51 19.03.2022
4747 Clear 9 1043 63 10000 6.26 27 10:45 19.03.2022
4748 Clear 2 1034 85 10000 4.02 20 06:29 19.03.2022
4749 Clear 4 1035 79 10000 5.36 12 03:24 19.03.2022
4750 Clouds 5 1043 77 10000 4.92 15 01:41 19.03.2022
4751 Clouds 7 1045 74 10000 4.12 20 23:43 18.03.2022
4752 Clouds 7 1043 71 10000 2.68 35 22:27 18.03.2022
4753 Clouds 7 1042 70 10000 1.79 35 21:37 18.03.2022
4754 Clear 8 1042 60 10000 2.68 60 19:51 18.03.2022
4755 Clear 9 1034 55 10000 4.02 50 19:21 18.03.2022
4756 Clear 12 1032 41 10000 4.47 24 17:50 18.03.2022
4757 Clouds 13 1030 38 10000 4.63 40 16:48 18.03.2022
4758 Clouds 13 1030 38 10000 4.12 30 15:26 18.03.2022
4759 Clouds 13 1030 44 10000 4.12 360 14:22 18.03.2022
4760 Clouds 12 1030 59 10000 3.6 40 12:27 18.03.2022
4761 Clouds 10 1040 66 10000 3.6 30 10:53 18.03.2022
4762 Clouds 7 1032 75 10000 5.36 360 09:30 18.03.2022
4763 Clouds 6 1031 75 10000 4.63 350 08:32 18.03.2022
4764 Clouds 6 1037 78 10000 4.63 360 06:37 18.03.2022
4765 Clouds 7 1027 81 10000 5.14 10 03:19 18.03.2022
4766 Clear 8 1026 80 10000 6.26 330 00:39 18.03.2022
4767 Clear 8 1025 81 10000 6.26 341 23:38 17.03.2022
4768 Clear 9 1025 78 10000 4.12 320 22:25 17.03.2022
4769 Clear 9 1024 81 10000 4.63 320 21:48 17.03.2022
4770 Clear 9 1024 79 10000 4.63 320 21:48 17.03.2022
4771 Clear 9 1023 79 10000 4.63 310 21:26 17.03.2022
4772 Clear 9 1031 79 10000 1.79 293 20:51 17.03.2022
4773 Clear 9 1019 75 10000 1.03 50 19:53 17.03.2022
4774 Clouds 10 1022 73 10000 2.06 60 19:32 17.03.2022
4775 Clear 10 1022 71 10000 1.79 96 18:49 17.03.2022
4776 Rain 11 1021 63 10000 2.06 160 17:26 17.03.2022
4777 Clear 12 1020 61 10000 4.12 150 15:52 17.03.2022
4778 Clear 12 1020 61 10000 4.63 150 15:34 17.03.2022
4779 Clear 12 1019 63 10000 4.63 150 14:55 17.03.2022
4780 Clear 11 1028 62 10000 5.14 140 13:22 17.03.2022
4781 Clear 11 1029 64 10000 3.6 140 12:38 17.03.2022
4782 Clouds 9 1009 69 10000 3.13 135 11:30 17.03.2022
4783 Clouds 8 1012 79 9000 4.12 140 10:38 17.03.2022
4784 Clouds 6 1015 85 6000 4.63 110 08:42 17.03.2022
4785 Clouds 5 1018 84 6000 3.6 110 07:57 17.03.2022
4786 Mist 4 1018 85 5000 3.13 117 05:48 17.03.2022
4787 Mist 4 1019 86 4300 3.13 99 03:46 17.03.2022
4788 Clouds 6 1019 86 6000 5.36 84 00:24 17.03.2022
4789 Clouds 5 1019 88 7000 4.12 90 22:52 16.03.2022
4790 Clouds 6 1019 87 7000 4.47 83 22:33 16.03.2022
4791 Clouds 6 1019 87 7000 4.92 80 21:55 16.03.2022
4792 Clouds 7 1018 84 9000 3.6 70 20:40 16.03.2022
4793 Clear 8 1019 80 10000 3.13 80 19:23 16.03.2022
4794 Clear 9 1020 73 10000 4.02 80 18:42 16.03.2022
4795 Clear 10 1019 72 10000 3.6 70 17:46 16.03.2022
4796 Clouds 11 1018 70 10000 4.12 60 17:28 16.03.2022
4797 Clouds 12 1018 68 10000 4.12 90 15:56 16.03.2022
4798 Clouds 12 1018 65 10000 3.09 70 14:38 16.03.2022
4799 Clouds 11 1014 72 10000 4.12 70 13:36 16.03.2022
4800 Clouds 11 1017 71 10000 3.13 73 12:43 16.03.2022
4801 Clouds 10 1012 68 10000 3.6 40 11:23 16.03.2022
4802 Clouds 9 1014 75 10000 3.6 50 10:32 16.03.2022
4803 Clear 10 1011 70 10000 4.12 50 09:56 16.03.2022
4804 Clouds 5 1018 87 10000 2.06 10 07:43 16.03.2022
4805 Clear 6 1014 80 10000 4.92 16 02:45 16.03.2022
4806 Clear 8 1014 74 10000 3.6 20 22:55 15.03.2022
4807 Clear 9 1014 75 10000 3.58 23 22:35 15.03.2022
4808 Clouds 9 1014 73 10000 2.68 30 20:59 15.03.2022
4809 Clear 10 1022 73 10000 2.06 30 19:39 15.03.2022
4810 Clear 11 1022 66 10000 1.54 80 17:46 15.03.2022
4811 Clouds 12 1015 64 10000 2.68 39 16:41 15.03.2022
4812 Clouds 13 1015 63 10000 0.89 135 15:38 15.03.2022
4813 Clouds 13 1016 65 10000 1.79 170 14:54 15.03.2022
4814 Clouds 13 1017 65 10000 1.79 143 13:56 15.03.2022
4815 Clouds 13 1025 68 10000 2.24 190 13:23 15.03.2022
4816 Clouds 11 1026 76 10000 2.24 203 11:34 15.03.2022
4817 Clouds 11 1027 81 10000 2.06 230 10:53 15.03.2022
4818 Clouds 8 1027 91 6000 2.06 220 09:24 15.03.2022
4819 Fog 6 1019 95 300 1.34 203 08:27 15.03.2022
4820 Fog 5 1019 92 100 2.06 190 07:38 15.03.2022
4821 Fog 5 1018 94 400 1.79 190 06:32 15.03.2022
4822 Clouds 8 1019 89 10000 4.12 230 00:58 15.03.2022
4823 Clouds 8 1019 90 9000 4.12 220 23:30 14.03.2022
4824 Clouds 8 1019 89 10000 4.12 230 22:50 14.03.2022
4825 Clouds 8 1019 88 8000 4.12 230 21:55 14.03.2022
4826 Clouds 8 1024 86 10000 3.6 230 20:59 14.03.2022
4827 Clouds 8 1018 84 10000 4.47 244 20:28 14.03.2022
4828 Clouds 9 1018 76 10000 5.66 240 19:33 14.03.2022
4829 Clouds 11 1023 44 10000 4.47 215 17:59 14.03.2022
4830 Clouds 11 1016 37 10000 5.36 196 17:41 14.03.2022
4831 Clear 12 1016 31 10000 6.71 183 16:37 14.03.2022
4832 Clear 13 1013 27 10000 5.14 190 14:58 14.03.2022
4833 Clear 13 1015 28 10000 5.66 220 13:58 14.03.2022
4834 Clear 10 1024 30 10000 4.63 170 11:27 14.03.2022
4835 Clear 8 1021 33 10000 4.92 135 09:58 14.03.2022
4836 Clear 8 1015 32 10000 4.92 135 09:58 14.03.2022
4837 Clear 7 1015 35 10000 5.14 120 09:38 14.03.2022
4838 Clear 7 1014 35 10000 5.36 127 09:18 14.03.2022
4839 Clear 5 1015 39 10000 4.63 120 08:46 14.03.2022
4840 Clear 2 1014 46 10000 3.6 110 07:19 14.03.2022
4841 Clear 3 1013 42 10000 5.14 100 04:22 14.03.2022
4842 Clear 5 1013 37 10000 6.26 93 01:46 14.03.2022
4843 Clear 5 1020 35 10000 4.92 120 00:35 14.03.2022
4844 Clear 8 1019 29 10000 5.81 105 21:56 13.03.2022
4845 Clear 8 1019 29 10000 7.2 110 21:27 13.03.2022
4846 Clear 8 1016 29 10000 6.69 100 20:49 13.03.2022
4847 Clear 9 1019 28 10000 3.6 90 20:26 13.03.2022
4848 Clear 9 1016 27 10000 4.63 90 19:42 13.03.2022
4849 Clear 9 1017 26 10000 5.14 110 19:23 13.03.2022
4850 Clear 9 1017 26 10000 5.14 110 19:23 13.03.2022
4851 Clear 11 1017 26 10000 5.66 110 18:49 13.03.2022
4852 Clear 11 1006 24 10000 6.17 110 18:26 13.03.2022
4853 Clear 13 1012 23 10000 6.26 112 17:39 13.03.2022
4854 Clear 13 1009 22 10000 6.26 111 16:48 13.03.2022
4855 Clear 13 1012 22 10000 6.71 111 16:27 13.03.2022
4856 Clear 13 1012 23 10000 6.71 118 15:44 13.03.2022
4857 Clear 13 1009 22 10000 7.2 120 14:49 13.03.2022
4858 Clear 12 1010 21 10000 8.23 110 13:30 13.03.2022
4859 Clear 11 1010 21 10000 7.2 120 12:37 13.03.2022
4860 Clear 11 1013 22 10000 6.17 120 11:51 13.03.2022
4861 Clear 10 1020 26 10000 6.17 120 11:30 13.03.2022
4862 Clear 8 1020 29 10000 8.05 127 10:46 13.03.2022
4863 Clear 6 1013 33 10000 7.15 118 09:53 13.03.2022
4864 Clear 5 1013 36 10000 4.63 100 09:29 13.03.2022
4865 Clear 3 1014 41 10000 4.12 100 08:40 13.03.2022
4866 Clear 1 1014 47 10000 4.63 100 07:37 13.03.2022
4867 Clear 0 1013 50 10000 6.26 110 05:39 13.03.2022
4868 Clear 1 1013 46 10000 3.6 110 02:27 13.03.2022
4869 Clear 4 1021 41 10000 4.12 120 23:31 12.03.2022
4870 Clear 5 1019 37 10000 4.63 110 21:49 12.03.2022
4871 Clear 6 1019 34 10000 5.66 110 20:29 12.03.2022
4872 Clear 7 1008 31 10000 3.6 90 19:47 12.03.2022
4873 Clear 8 1021 32 10000 6.26 120 18:55 12.03.2022
4874 Clear 9 1013 27 10000 6.17 110 18:21 12.03.2022
4875 Clear 11 1014 24 10000 7.15 124 17:23 12.03.2022
4876 Clear 12 1014 22 10000 7.2 130 16:23 12.03.2022
4877 Clear 12 1012 21 10000 6.17 120 15:22 12.03.2022
4878 Clear 11 1015 22 10000 4.47 120 14:27 12.03.2022
4879 Clear 10 1016 24 10000 6.17 150 12:45 12.03.2022
4880 Clear 9 1026 26 10000 5.36 133 11:56 12.03.2022
4881 Clear 8 1024 27 10000 6.26 143 11:34 12.03.2022
4882 Clear 7 1024 28 10000 5.66 150 10:52 12.03.2022
4883 Clear 4 1017 35 10000 5.36 138 09:44 12.03.2022
4884 Clear 2 1017 43 10000 5.66 130 08:53 12.03.2022
4885 Clear -1 1017 49 10000 4.92 107 07:19 12.03.2022
4886 Clear 0 1017 46 10000 5.66 110 02:34 12.03.2022
4887 Clear 2 1017 41 10000 5.36 128 23:52 11.03.2022
4888 Clear 3 1018 39 10000 5.14 130 22:52 11.03.2022
4889 Clear 3 1024 36 10000 6.69 120 21:35 11.03.2022
4890 Clear 4 1017 34 10000 7.15 123 20:54 11.03.2022
4891 Clear 4 1017 34 10000 7.15 127 20:29 11.03.2022
4892 Clear 5 1018 30 10000 7.2 120 19:42 11.03.2022
4893 Clear 5 1018 30 10000 7.2 120 19:20 11.03.2022
4894 Clear 8 1018 26 10000 9.26 110 17:29 11.03.2022
4895 Clear 8 1018 25 10000 8.94 135 16:27 11.03.2022
4896 Clear 8 1018 24 10000 9.77 120 15:53 11.03.2022
4897 Clear 9 1019 26 10000 9.83 133 14:19 11.03.2022
4898 Clear 7 1020 32 10000 7.15 132 12:44 11.03.2022
4899 Clear 6 1020 32 10000 7.72 100 12:21 11.03.2022
4900 Clear 5 1027 36 10000 8.05 109 11:51 11.03.2022
4901 Clear 2 1021 47 10000 7.6 119 09:40 11.03.2022
4902 Clear 0 1021 51 10000 9.26 110 08:56 11.03.2022
4903 Clear -1 1021 56 10000 7.6 115 08:21 11.03.2022
4904 Clear -2 1021 55 10000 6.71 108 07:40 11.03.2022
4905 Clear -2 1021 58 10000 5.14 110 05:44 11.03.2022
4906 Clear -1 1021 55 10000 5.36 119 03:41 11.03.2022
4907 Clear 2 1021 52 10000 7.15 120 23:36 10.03.2022
4908 Clear 2 1021 51 10000 6.71 113 22:30 10.03.2022
4909 Clear 3 1029 53 10000 6.71 104 21:27 10.03.2022
4910 Clear 4 1029 52 10000 7.15 100 20:55 10.03.2022
4911 Clear 5 1028 51 10000 5.36 84 19:43 10.03.2022
4912 Clear 6 1021 51 10000 5.36 109 18:40 10.03.2022
4913 Clear 8 1021 50 10000 6.26 113 17:19 10.03.2022
4914 Clear 9 1022 53 10000 6.69 130 15:50 10.03.2022
4915 Clear 9 1019 56 10000 7.2 130 14:44 10.03.2022
4916 Clouds 9 1022 59 10000 6.71 100 13:19 10.03.2022
4917 Clouds 9 1029 60 10000 7.15 118 11:57 10.03.2022
4918 Clear 8 1029 63 10000 4.92 111 10:53 10.03.2022
4919 Clear 4 1022 73 10000 4.12 110 09:18 10.03.2022
4920 Clear 0 1030 85 10000 4.47 108 07:33 10.03.2022
4921 Clear 2 1019 77 10000 2.06 90 04:36 10.03.2022
4922 Clear 3 1018 69 10000 1.54 60 01:46 10.03.2022
4923 Clear 4 1018 66 10000 3.13 41 23:18 09.03.2022
4924 Clear 3 1026 68 10000 2.68 77 21:49 09.03.2022
4925 Clear 4 1027 65 10000 2.68 81 21:27 09.03.2022
4926 Clear 6 1026 59 10000 3.09 80 19:44 09.03.2022
4927 Clear 8 1012 51 10000 3.13 88 18:33 09.03.2022
4928 Clear 11 1015 41 10000 2.57 80 17:27 09.03.2022
4929 Clear 12 1015 38 10000 3.13 58 16:31 09.03.2022
4930 Clear 12 1011 37 10000 3.09 10 15:19 09.03.2022
4931 Clear 12 1011 39 10000 2.24 23 13:53 09.03.2022
4932 Clear 11 1026 43 10000 1.54 0 12:47 09.03.2022
4933 Clear 11 1026 48 10000 2.24 338 11:53 09.03.2022
4934 Clear 10 1026 48 10000 1.54 270 11:35 09.03.2022
4935 Clear 8 1026 61 10000 1.34 265 10:26 09.03.2022
4936 Clear 5 1016 72 10000 1.03 260 08:54 09.03.2022
4937 Clear 2 1016 81 10000 1.79 231 07:38 09.03.2022
4938 Clear 2 1014 77 10000 0.89 134 02:46 09.03.2022
4939 Clear 2 1016 75 10000 1.79 230 00:42 09.03.2022
4940 Clear 3 1016 72 10000 1.54 250 22:47 08.03.2022
4941 Clear 3 1016 71 10000 2.24 256 22:26 08.03.2022
4942 Clear 3 1023 71 10000 0.89 270 21:23 08.03.2022
4943 Clear 4 1023 69 10000 0.89 240 20:35 08.03.2022
4944 Clear 5 1016 61 10000 2.06 250 19:35 08.03.2022
4945 Clear 6 1013 60 10000 2.24 244 18:44 08.03.2022
4946 Clear 9 1015 51 10000 1.79 251 17:30 08.03.2022
4947 Clouds 10 1012 44 10000 1.54 270 15:56 08.03.2022
4948 Clouds 10 1013 46 10000 1.54 0 14:19 08.03.2022
4949 Clouds 9 1023 50 10000 1.03 0 12:43 08.03.2022
4950 Clear 8 1025 52 10000 1.54 0 11:45 08.03.2022
4951 Clear 7 1025 60 10000 1.03 0 10:48 08.03.2022
4952 Clear 5 1024 70 10000 0.51 0 09:51 08.03.2022
4953 Clear 0 1017 88 10000 1.03 170 07:32 08.03.2022
4954 Clear -1 1016 87 10000 0.89 40 05:43 08.03.2022
4955 Clear 0 1025 74 10000 3.13 26 23:51 07.03.2022
4956 Clear 1 1019 73 10000 2.24 30 21:59 07.03.2022
4957 Clear 2 1023 72 10000 3.58 21 21:32 07.03.2022
4958 Clear 2 1022 68 10000 3.09 10 20:48 07.03.2022
4959 Clear 2 1024 71 10000 2.68 16 20:20 07.03.2022
4960 Clear 4 1022 65 10000 4.02 10 19:31 07.03.2022
4961 Clear 5 1021 58 10000 4.12 360 18:44 07.03.2022
4962 Clear 8 1019 58 10000 4.63 10 17:50 07.03.2022
4963 Clear 9 1014 49 10000 5.81 350 16:56 07.03.2022
4964 Clouds 9 1012 43 10000 4.63 340 15:50 07.03.2022
4965 Clouds 8 1013 49 10000 5.14 340 13:52 07.03.2022
4966 Clouds 8 1013 49 10000 5.14 340 13:52 07.03.2022
4967 Clouds 7 1014 56 10000 4.63 320 12:28 07.03.2022
4968 Clear 5 1024 69 10000 4.12 310 10:38 07.03.2022
4969 Clear 1 1016 81 10000 3.13 297 08:57 07.03.2022
4970 Clear -2 1016 80 10000 3.13 288 04:51 07.03.2022
4971 Clouds 1 1016 73 10000 1.34 340 00:23 07.03.2022
4972 Clouds 0 1024 74 10000 2.24 320 23:35 06.03.2022
4973 Clouds 0 1023 73 10000 1.34 270 22:52 06.03.2022
4974 Clouds 1 1024 73 10000 1.79 320 22:19 06.03.2022
4975 Clouds 1 1025 74 10000 1.34 358 20:50 06.03.2022
4976 Clouds 1 1023 73 10000 2.24 360 20:23 06.03.2022
4977 Clouds 1 1016 70 10000 2.68 350 19:21 06.03.2022
4978 Clouds 2 1015 68 10000 3.09 360 18:25 06.03.2022
4979 Clouds 2 1015 68 10000 3.58 353 18:25 06.03.2022
4980 Clouds 2 1014 67 10000 3.13 344 17:21 06.03.2022
4981 Clouds 2 1014 66 10000 4.47 3 16:43 06.03.2022
4982 Clouds 2 1015 63 10000 4.12 10 15:54 06.03.2022
4983 Clouds 2 1015 56 10000 4.63 20 14:57 06.03.2022
4984 Clouds 3 1015 55 10000 4.63 20 14:33 06.03.2022
4985 Clouds 2 1016 58 10000 3.58 360 13:30 06.03.2022
4986 Clouds 2 1016 60 10000 4.12 360 12:35 06.03.2022
4987 Clouds 2 1016 66 10000 4.12 20 11:21 06.03.2022
4988 Clouds 1 1016 65 10000 4.47 356 10:28 06.03.2022
4989 Clouds 1 1015 65 10000 2.24 60 08:40 06.03.2022
4990 Clouds 0 1015 66 10000 2.24 20 08:20 06.03.2022
4991 Clouds 0 1015 68 10000 2.68 10 06:22 06.03.2022
4992 Clouds 0 1016 73 10000 1.79 335 00:55 06.03.2022
4993 Clouds -1 1023 75 10000 1.79 90 00:33 06.03.2022
4994 Clouds -1 1023 75 10000 1.79 90 00:33 06.03.2022
4995 Clouds -1 1015 74 10000 0.89 6 23:41 05.03.2022
4996 Clouds -1 1016 76 10000 0.51 0 23:18 05.03.2022
4997 Clouds -1 1016 75 10000 1.34 70 22:25 05.03.2022
4998 Clouds -1 1015 74 10000 1.34 67 21:24 05.03.2022
4999 Clouds 0 1015 70 10000 2.68 80 19:53 05.03.2022
5000 Clouds 1 1015 69 10000 3.13 77 18:56 05.03.2022
5001 Clouds 2 1015 68 10000 3.13 70 18:34 05.03.2022
5002 Clouds 4 1015 65 10000 4.12 60 16:57 05.03.2022
5003 Clouds 5 1015 60 10000 3.58 65 15:43 05.03.2022
5004 Clouds 5 1012 57 10000 3.6 70 14:52 05.03.2022
5005 Clouds 5 1015 59 10000 3.6 50 14:34 05.03.2022
5006 Clouds 6 1015 62 10000 3.09 60 13:35 05.03.2022
5007 Clouds 5 1023 67 10000 2.06 110 11:55 05.03.2022
5008 Clear 5 1024 70 10000 2.68 100 11:20 05.03.2022
5009 Clear 3 1023 78 10000 2.24 105 10:23 05.03.2022
5010 Clear 1 1023 85 10000 2.68 61 09:28 05.03.2022
5011 Fog -1 1016 90 9000 0.89 60 07:59 05.03.2022
5012 Clear -2 1015 90 10000 1.34 46 05:47 05.03.2022
5013 Clear -2 1015 87 10000 2.57 40 04:38 05.03.2022
5014 Clouds 0 1016 80 10000 1.79 6 23:39 04.03.2022
5015 Clouds 0 1016 78 10000 1.03 250 22:44 04.03.2022
5016 Clouds 0 1015 78 10000 1.03 180 22:23 04.03.2022
5017 Clouds 0 1023 80 10000 1.03 120 21:39 04.03.2022
5018 Clouds 2 1023 77 10000 1.03 70 20:32 04.03.2022
5019 Clouds 3 1015 72 10000 1.34 52 19:36 04.03.2022
5020 Clouds 3 1022 70 10000 2.24 90 18:47 04.03.2022
5021 Clouds 3 1022 70 10000 0.45 70 18:47 04.03.2022
5022 Clouds 4 1015 66 10000 2.68 50 18:27 04.03.2022
5023 Clouds 4 1015 68 10000 3.13 10 17:29 04.03.2022
5024 Clouds 5 1014 63 10000 3.13 77 15:48 04.03.2022
5025 Clouds 5 1015 66 10000 2.68 50 14:45 04.03.2022
5026 Clouds 4 1015 69 10000 3.58 60 13:34 04.03.2022
5027 Clouds 4 1015 74 10000 4.02 80 11:59 04.03.2022
5028 Clouds 3 1022 80 10000 3.6 40 11:28 04.03.2022
5029 Clouds 3 1015 84 10000 4.63 30 10:24 04.03.2022
5030 Clouds 2 1014 89 10000 4.02 360 09:27 04.03.2022
5031 Clouds 0 1014 89 8000 2.57 320 07:48 04.03.2022
5032 Clouds 0 1013 89 10000 2.24 20 05:49 04.03.2022
5033 Clouds 1 1013 90 10000 3.6 20 01:23 04.03.2022
5034 Clear 0 1013 89 10000 2.24 0 23:35 03.03.2022
5035 Clear 0 1013 88 10000 1.79 330 22:18 03.03.2022
5036 Clear 0 1013 86 10000 1.79 350 21:36 03.03.2022
5037 Clear 1 1012 86 10000 1.54 320 20:45 03.03.2022
5038 Clouds 2 1012 84 10000 3.13 24 19:29 03.03.2022
5039 Clouds 2 1012 83 10000 3.13 16 18:26 03.03.2022
5040 Clouds 2 1021 82 10000 4.63 10 17:39 03.03.2022
5041 Clouds 3 1021 80 10000 4.63 10 17:18 03.03.2022
5042 Clouds 1 1021 86 10000 4.12 40 15:46 03.03.2022
5043 Clouds 1 1021 86 10000 5.14 20 14:45 03.03.2022
5044 Clouds 1 1021 86 10000 3.6 30 14:27 03.03.2022
5045 Clouds 0 1022 93 10000 3.6 20 12:43 03.03.2022
5046 Mist 0 1021 93 3200 4.63 30 11:31 03.03.2022
5047 Mist 1 1021 100 2000 4.63 20 10:39 03.03.2022
5048 Clear -1 1009 81 10000 3.58 32 08:44 03.03.2022
5049 Clear -1 1010 78 10000 2.24 30 06:58 03.03.2022
5050 Clear -1 1010 81 10000 2.24 21 06:33 03.03.2022
5051 Clear 0 1013 72 10000 0.51 0 00:43 03.03.2022
5052 Clear 1 1013 68 10000 1.79 51 23:28 02.03.2022
5053 Clear 1 1013 71 10000 0 0 22:48 02.03.2022
5054 Clear 1 1013 64 10000 0.51 80 21:25 02.03.2022
5055 Clear 1 1021 66 10000 1.79 99 20:40 02.03.2022
5056 Clear 2 1013 58 10000 1.54 100 19:56 02.03.2022
5057 Clear 2 1014 57 10000 2.57 80 19:33 02.03.2022
5058 Clear 3 1014 54 10000 0.45 353 18:44 02.03.2022
5059 Clear 5 1014 49 10000 1.34 155 17:57 02.03.2022
5060 Clear 7 1014 44 10000 0.89 146 17:21 02.03.2022
5061 Clouds 8 1009 39 10000 1.79 149 16:42 02.03.2022
5062 Clear 8 1013 37 10000 2.06 160 14:43 02.03.2022
5063 Clear 8 1016 46 10000 2.24 45 13:24 02.03.2022
5064 Clear 7 1017 51 10000 2.68 135 12:42 02.03.2022
5065 Clear 5 1025 61 10000 3.13 116 11:40 02.03.2022
5066 Clear 5 1025 62 10000 1.54 120 11:22 02.03.2022
5067 Clear 2 1018 70 10000 1.79 106 09:42 02.03.2022
5068 Clear 1 1018 76 10000 1.54 100 08:55 02.03.2022
5069 Clear -1 1018 75 10000 1.79 86 07:38 02.03.2022
5070 Clear -1 1018 75 10000 1.79 76 06:51 02.03.2022
5071 Clear -1 1020 74 10000 2.06 70 02:35 02.03.2022
5072 Clear 0 1020 67 10000 3.13 124 23:55 01.03.2022
5073 Clear 1 1021 67 10000 2.24 106 22:46 01.03.2022
5074 Clear 1 1021 68 10000 1.79 93 22:19 01.03.2022
5075 Clear 1 1020 65 10000 2.24 98 21:25 01.03.2022
5076 Clear 1 1028 66 10000 1.54 120 20:32 01.03.2022
5077 Clear 2 1020 61 10000 1.54 110 19:44 01.03.2022
5078 Clear 3 1021 58 10000 2.24 140 18:50 01.03.2022
5079 Clear 4 1021 55 10000 2.68 140 18:21 01.03.2022
5080 Clear 6 1021 44 10000 3.09 150 17:30 01.03.2022
5081 Clear 8 1022 40 10000 3.58 162 16:35 01.03.2022
5082 Clear 8 1021 37 10000 3.13 153 15:42 01.03.2022
5083 Clear 8 1022 37 10000 5.14 150 14:41 01.03.2022
5084 Clear 8 1022 39 10000 5.14 150 14:23 01.03.2022
5085 Clear 7 1023 41 10000 5.36 159 13:25 01.03.2022
5086 Clear 7 1023 42 10000 3.58 169 12:34 01.03.2022
5087 Clear 4 1030 53 10000 5.36 160 10:38 01.03.2022
5088 Clear 1 1025 64 10000 5.36 157 09:25 01.03.2022
5089 Clear -2 1026 67 10000 2.68 150 07:55 01.03.2022
5090 Clear -2 1025 73 10000 4.02 136 06:27 01.03.2022
5091 Clear -1 1026 70 10000 4.02 130 02:48 01.03.2022
5092 Clear -1 1027 69 10000 3.13 132 00:40 01.03.2022
5093 Clear 0 1027 67 10000 4.02 133 23:35 28.02.2022
5094 Clear 0 1027 65 10000 3.13 110 22:30 28.02.2022
5095 Clear 1 1027 63 10000 2.68 114 21:43 28.02.2022
5096 Clear 2 1027 66 10000 3.09 110 20:33 28.02.2022
5097 Clear 2 1027 67 10000 3.6 120 19:42 28.02.2022
5098 Clear 3 1026 68 10000 3.58 81 18:50 28.02.2022
5099 Clear 5 1026 60 10000 3.58 77 17:37 28.02.2022
5100 Clear 5 1026 59 10000 3.09 70 17:18 28.02.2022
5101 Clear 6 1026 58 10000 5.81 123 15:59 28.02.2022
5102 Clouds 6 1027 59 10000 4.02 111 14:32 28.02.2022
5103 Clouds 6 1027 65 10000 2.68 120 13:52 28.02.2022
5104 Clouds 6 1027 65 10000 2.68 120 13:52 28.02.2022
5105 Clouds 6 1027 68 10000 2.68 130 13:19 28.02.2022
5106 Clouds 4 1028 73 10000 3.09 80 11:59 28.02.2022
5107 Clouds 3 1037 79 10000 3.6 140 11:19 28.02.2022
5108 Clouds 2 1034 83 10000 2.24 23 10:22 28.02.2022
5109 Clouds 1 1028 85 10000 2.68 90 09:44 28.02.2022
5110 Clouds 1 1028 85 10000 2.57 90 08:54 28.02.2022
5111 Clouds 0 1027 89 10000 1.79 131 07:59 28.02.2022
5112 Clouds 0 1026 90 10000 2.24 95 06:31 28.02.2022
5113 Clouds 0 1027 89 10000 2.68 119 04:31 28.02.2022
5114 Mist 0 1028 90 4500 4.12 120 01:24 28.02.2022
5115 Fog 0 1028 90 500 2.68 90 22:55 27.02.2022
5116 Fog 0 1027 91 400 2.68 111 22:32 27.02.2022
5117 Fog 1 1026 92 250 2.06 80 21:42 27.02.2022
5118 Fog 1 1027 89 350 2.06 80 20:50 27.02.2022
5119 Fog 1 1027 88 350 2.57 70 20:18 27.02.2022
5120 Fog 2 1027 88 350 3.13 103 19:50 27.02.2022
5121 Fog 2 1027 88 500 3.6 70 19:22 27.02.2022
5122 Fog 2 1023 88 500 3.13 115 18:37 27.02.2022
5123 Fog 3 1023 86 1400 3.13 104 17:52 27.02.2022
5124 Clear 5 999 80 10000 2.42 84 16:30 27.02.2022
5125 Clear 6 1014 81 10000 2.42 84 15:39 27.02.2022
5126 Clear 7 1025 70 10000 1.79 134 12:43 27.02.2022
5127 Clear 7 1025 76 10000 1.79 74 12:25 27.02.2022
5128 Fog 4 1034 82 500 2.68 87 10:37 27.02.2022
5129 Fog 3 1028 83 900 2.57 60 09:58 27.02.2022
5130 Clouds 1 1029 90 8000 2.68 70 09:24 27.02.2022
5131 Clear 1 1028 89 10000 2.06 60 08:51 27.02.2022
5132 Clear -1 1028 88 10000 1.54 50 06:42 27.02.2022
5133 Clear 0 1027 88 10000 1.03 70 04:26 27.02.2022
5134 Clear 1 1028 85 10000 2.68 43 00:34 27.02.2022
5135 Clear 1 1027 83 10000 3.58 42 22:51 26.02.2022
5136 Clear 2 1027 83 10000 3.13 40 21:38 26.02.2022
5137 Clear 3 1027 81 10000 3.09 20 20:48 26.02.2022
5138 Clouds 3 1026 78 10000 3.13 57 19:59 26.02.2022
5139 Clouds 3 1026 78 10000 3.13 57 19:59 26.02.2022
5140 Clouds 4 1026 77 10000 3.13 34 19:37 26.02.2022
5141 Clouds 4 1025 74 10000 1.79 88 18:46 26.02.2022
5142 Clouds 6 1024 71 10000 2.57 20 17:42 26.02.2022
5143 Clouds 7 1024 70 10000 4.02 350 16:49 26.02.2022
5144 Clouds 7 1024 70 10000 3.6 360 15:49 26.02.2022
5145 Clouds 7 1024 69 10000 4.47 340 15:22 26.02.2022
5146 Clouds 7 1024 71 10000 5.36 357 14:53 26.02.2022
5147 Clouds 7 1024 72 10000 5.14 360 14:33 26.02.2022
5148 Clouds 7 1024 76 10000 3.6 10 13:19 26.02.2022
5149 Clouds 6 1024 77 10000 3.6 350 12:23 26.02.2022
5150 Clouds 6 1023 80 10000 5.14 330 11:28 26.02.2022
5151 Clouds 5 1023 82 10000 4.12 320 10:40 26.02.2022
5152 Clouds 5 1021 86 10000 4.92 287 08:55 26.02.2022
5153 Clouds 4 1019 87 10000 4.47 283 06:51 26.02.2022
5154 Clouds 4 1015 83 10000 6.69 290 01:27 26.02.2022
5155 Clouds 4 1012 90 10000 5.66 280 22:55 25.02.2022
5156 Clouds 4 1011 88 10000 7.15 259 21:44 25.02.2022
5157 Clouds 4 1011 88 10000 5.66 260 21:25 25.02.2022
5158 Clouds 4 1016 86 10000 4.12 230 20:33 25.02.2022
5159 Clouds 4 1016 86 10000 4.12 230 20:33 25.02.2022
5160 Clouds 4 1009 79 10000 7.72 230 19:21 25.02.2022
5161 Clouds 5 1008 79 10000 7.6 222 17:30 25.02.2022
5162 Clouds 5 1008 76 10000 8.94 228 16:35 25.02.2022
5163 Clouds 5 1008 78 10000 11.32 240 15:48 25.02.2022
5164 Clouds 5 1008 74 10000 8.94 236 15:22 25.02.2022
5165 Clouds 6 1007 69 10000 10.73 250 14:42 25.02.2022
5166 Clouds 6 1007 69 10000 9.77 230 14:18 25.02.2022
5167 Clouds 7 1007 64 10000 9.77 240 13:20 25.02.2022
5168 Clouds 6 1013 61 10000 10.28 235 11:30 25.02.2022
5169 Clouds 6 1013 65 10000 10.29 240 10:54 25.02.2022
5170 Clouds 6 1013 67 10000 9.83 238 10:23 25.02.2022
5171 Clear 4 1012 72 10000 8.05 241 09:35 25.02.2022
5172 Clear 2 1006 79 10000 7.15 235 07:44 25.02.2022
5173 Clouds 2 1005 78 10000 6.26 242 06:45 25.02.2022
5174 Clouds 3 1007 77 10000 6.71 248 05:37 25.02.2022
5175 Clouds 5 999 74 10000 10.73 259 00:31 25.02.2022
5176 Clouds 6 997 76 10000 13.41 270 22:30 24.02.2022
5177 Clouds 7 993 75 10000 10.28 239 21:43 24.02.2022
5178 Clouds 9 994 69 10000 7.72 210 21:21 24.02.2022
5179 Clear 9 992 71 10000 8.94 203 20:42 24.02.2022
5180 Clouds 9 995 71 10000 8.23 190 19:29 24.02.2022
5181 Clouds 10 995 69 10000 7.72 190 18:20 24.02.2022
5182 Clear 10 996 68 10000 8.05 195 17:52 24.02.2022
5183 Clear 10 997 67 10000 7.2 190 17:18 24.02.2022
5184 Clear 10 997 68 10000 7.2 200 16:25 24.02.2022
5185 Clear 10 998 68 10000 7.72 200 15:42 24.02.2022
5186 Clouds 10 1000 67 10000 7.6 189 14:45 24.02.2022
5187 Clear 9 1001 70 10000 7.15 207 13:57 24.02.2022
5188 Clear 9 1001 71 10000 6.71 190 13:35 24.02.2022
5189 Clear 8 1004 72 10000 7.15 208 11:32 24.02.2022
5190 Clear 7 1005 71 10000 6.26 209 10:31 24.02.2022
5191 Clouds 4 1006 76 10000 4.92 164 08:43 24.02.2022
5192 Clear 2 1007 79 10000 4.12 160 06:45 24.02.2022
5193 Clear 2 1008 80 10000 4.92 168 05:40 24.02.2022
5194 Clear 3 1012 78 10000 3.6 180 00:31 24.02.2022
5195 Clear 4 1012 74 10000 4.47 183 22:22 23.02.2022
5196 Clear 5 1013 73 10000 3.13 191 20:45 23.02.2022
5197 Clear 5 1014 70 10000 3.6 220 20:26 23.02.2022
5198 Clear 6 1014 74 10000 4.12 220 19:35 23.02.2022
5199 Clouds 7 1014 69 10000 4.12 240 18:26 23.02.2022
5200 Clouds 9 1014 65 10000 5.81 261 16:28 23.02.2022
5201 Clouds 10 1013 63 10000 9.26 280 14:22 23.02.2022
5202 Clouds 9 1020 67 10000 9.77 280 12:36 23.02.2022
5203 Clouds 8 1018 68 10000 9.77 280 11:23 23.02.2022
5204 Clouds 7 1017 74 10000 9.26 280 10:23 23.02.2022
5205 Clouds 6 1010 83 10000 9.39 269 08:55 23.02.2022
5206 Clouds 5 1009 83 10000 8.05 276 07:56 23.02.2022
5207 Clouds 6 1004 78 10000 8.94 278 03:29 23.02.2022
5208 Clouds 7 1000 88 10000 9.77 240 00:19 23.02.2022
5209 Clouds 6 1000 92 10000 7.2 230 23:34 22.02.2022
5210 Clouds 6 1000 90 10000 7.72 210 22:28 22.02.2022
5211 Clouds 6 1001 85 10000 8.23 220 21:48 22.02.2022
5212 Clouds 6 1001 84 10000 7.2 220 21:24 22.02.2022
5213 Clouds 6 1001 84 10000 8.05 210 20:49 22.02.2022
5214 Clouds 6 1001 83 10000 8.05 210 20:29 22.02.2022
5215 Clouds 6 1002 74 10000 6.71 212 19:34 22.02.2022
5216 Clear 6 1002 70 10000 5.81 222 18:58 22.02.2022
5217 Clear 7 1003 69 10000 6.26 240 17:36 22.02.2022
5218 Clear 7 1003 65 10000 5.36 244 17:18 22.02.2022
5219 Clouds 7 1004 63 10000 6.17 270 16:36 22.02.2022
5220 Clouds 7 1004 63 10000 8.05 265 15:38 22.02.2022
5221 Clouds 8 1004 62 10000 8.49 282 14:43 22.02.2022
5222 Clouds 6 1009 68 10000 8.75 290 11:54 22.02.2022
5223 Clouds 5 1009 77 10000 9.26 280 10:28 22.02.2022
5224 Clouds 4 1000 76 10000 9.39 287 07:52 22.02.2022
5225 Clouds 4 1000 76 10000 8.49 280 07:25 22.02.2022
5226 Clouds 5 994 89 10000 8.75 270 02:52 22.02.2022
5227 Clouds 4 992 88 10000 6.71 279 00:49 22.02.2022
5228 Clouds 4 990 86 10000 8.05 276 22:41 21.02.2022
5229 Clouds 4 988 90 10000 7.72 300 21:30 21.02.2022
5230 Clouds 4 986 89 10000 5.66 260 20:34 21.02.2022
5231 Clouds 4 987 89 10000 5.81 284 20:34 21.02.2022
5232 Clouds 3 985 87 10000 8.94 234 18:42 21.02.2022
5233 Clouds 5 984 72 10000 9.39 245 16:56 21.02.2022
5234 Clouds 6 985 67 10000 11.62 235 14:52 21.02.2022
5235 Clouds 6 985 68 10000 11.32 240 14:52 21.02.2022
5236 Clouds 6 985 64 10000 15.65 247 14:21 21.02.2022
5237 Clouds 6 985 67 10000 14.31 256 12:59 21.02.2022
5238 Clouds 6 985 69 10000 12.86 250 12:23 21.02.2022
5239 Clouds 6 992 72 10000 12.96 250 10:51 21.02.2022
5240 Clouds 5 991 77 10000 11.83 260 09:34 21.02.2022
5241 Clouds 8 978 82 6000 13.38 250 04:52 21.02.2022
5242 Clouds 8 984 89 10000 9.77 210 23:32 20.02.2022
5243 Clouds 8 983 89 10000 11.62 230 22:21 20.02.2022
5244 Clouds 8 985 89 10000 10.8 220 21:42 20.02.2022
5245 Clouds 8 986 90 10000 9.83 226 20:53 20.02.2022
5246 Clouds 8 986 90 10000 11.32 230 20:33 20.02.2022
5247 Clouds 8 989 91 10000 11.32 230 19:31 20.02.2022
5248 Clouds 8 989 91 10000 11.62 232 19:31 20.02.2022
5249 Clouds 8 990 90 10000 10.8 230 18:50 20.02.2022
5250 Clouds 8 990 90 10000 10.29 220 18:31 20.02.2022
5251 Clouds 8 990 90 10000 10.29 220 18:31 20.02.2022
5252 Clouds 8 991 91 10000 11.18 217 17:47 20.02.2022
5253 Clouds 6 993 93 10000 8.05 208 15:32 20.02.2022
5254 Clouds 5 994 92 10000 6.69 190 14:41 20.02.2022
5255 Clouds 5 996 88 10000 8.75 230 13:23 20.02.2022
5256 Clouds 6 998 83 10000 7.2 240 12:25 20.02.2022
5257 Clouds 5 999 85 10000 8.94 251 10:38 20.02.2022
5258 Clouds 5 999 86 10000 7.2 260 10:19 20.02.2022
5259 Clouds 3 998 89 10000 7.2 290 08:25 20.02.2022
5260 Clear 4 1000 77 10000 7.72 240 00:54 20.02.2022
5261 Clear 5 1000 73 10000 10.8 240 00:29 20.02.2022
5262 Clear 4 1001 66 10000 7.15 216 22:47 19.02.2022
5263 Clear 4 1001 65 10000 5.14 210 22:22 19.02.2022
5264 Clear 4 1002 63 10000 4.63 210 20:51 19.02.2022
5265 Clear 5 1002 64 10000 5.14 230 19:53 19.02.2022
5266 Clear 5 1002 63 10000 6.69 240 19:28 19.02.2022
5267 Clear 6 1002 62 10000 8.23 250 18:32 19.02.2022
5268 Clouds 6 1002 62 10000 10.8 260 17:35 19.02.2022
5269 Clouds 7 1001 62 10000 12.96 259 16:22 19.02.2022
5270 Clouds 8 1000 60 10000 13.89 270 14:56 19.02.2022
5271 Clouds 8 1000 61 10000 13.89 270 14:37 19.02.2022
5272 Clouds 7 999 66 10000 12.86 270 13:22 19.02.2022
5273 Clouds 6 997 73 10000 13.38 270 11:37 19.02.2022
5274 Clouds 6 994 72 10000 15.65 250 09:45 19.02.2022
5275 Clouds 6 988 62 10000 18.33 240 06:54 19.02.2022
5276 Clear 7 984 52 10000 15.2 239 03:38 19.02.2022
5277 Clear 8 981 62 10000 19.03 260 23:29 18.02.2022
5278 Clear 9 980 62 10000 13.41 243 21:50 18.02.2022
5279 Clouds 9 977 77 10000 17.49 250 20:51 18.02.2022
5280 Clear 9 978 87 10000 9.26 190 19:53 18.02.2022
5281 Clouds 9 980 89 10000 9.26 190 18:50 18.02.2022
5282 Clouds 8 980 90 10000 8.75 200 18:22 18.02.2022
5283 Clouds 8 980 88 10000 5.66 180 17:50 18.02.2022
5284 Clouds 6 990 85 10000 7.72 190 14:54 18.02.2022
5285 Clouds 7 991 82 10000 4.92 169 13:55 18.02.2022
5286 Clouds 7 993 77 10000 7.6 221 12:53 18.02.2022
5287 Clear 8 994 75 10000 7.2 220 12:32 18.02.2022
5288 Clear 8 995 76 10000 6.71 227 11:27 18.02.2022
5289 Clear 7 997 79 10000 6.26 223 10:23 18.02.2022
5290 Clear 4 998 78 10000 5.36 247 06:57 18.02.2022
5291 Clear 4 998 75 10000 6.71 263 05:40 18.02.2022
5292 Clouds 6 994 70 10000 11.62 275 23:31 17.02.2022
5293 Clouds 6 993 71 10000 10.29 270 21:45 17.02.2022
5294 Clouds 6 992 73 10000 12.52 276 21:19 17.02.2022
5295 Clouds 6 992 74 10000 10.73 282 20:37 17.02.2022
5296 Clouds 6 991 74 10000 16.09 274 19:49 17.02.2022
5297 Clouds 6 990 79 10000 10.29 280 18:44 17.02.2022
5298 Clouds 6 989 81 10000 12.35 290 17:50 17.02.2022
5299 Clouds 7 987 79 10000 13.89 280 16:29 17.02.2022
5300 Clouds 7 986 79 10000 14.4 290 15:38 17.02.2022
5301 Clouds 8 984 74 10000 19.22 279 14:26 17.02.2022
5302 Clouds 9 988 72 10000 21.61 270 12:38 17.02.2022
5303 Clouds 9 978 67 10000 18.01 280 11:23 17.02.2022
5304 Clouds 9 978 67 10000 18.01 280 11:23 17.02.2022
5305 Clouds 9 975 63 10000 16.99 261 08:53 17.02.2022
5306 Clouds 12 972 86 10000 13.89 240 02:26 17.02.2022
5307 Clouds 11 976 82 10000 13.41 211 23:21 16.02.2022
5308 Clouds 11 980 82 10000 10.29 220 21:44 16.02.2022
5309 Clouds 10 981 84 10000 9.26 220 19:57 16.02.2022
5310 Clouds 9 982 88 10000 8.94 220 18:39 16.02.2022
5311 Clouds 9 983 88 10000 10.73 220 17:53 16.02.2022
5312 Clouds 9 985 88 10000 10.8 220 15:40 16.02.2022
5313 Clouds 8 984 89 10000 10.29 220 15:19 16.02.2022
5314 Clouds 7 984 91 10000 3.58 180 13:31 16.02.2022
5315 Clouds 6 988 90 10000 9.77 210 12:20 16.02.2022
5316 Clouds 6 989 89 10000 8.75 210 11:28 16.02.2022
5317 Clouds 6 990 87 10000 8.75 210 10:34 16.02.2022
5318 Clouds 6 993 88 10000 7.72 220 08:20 16.02.2022
5319 Clouds 5 994 85 10000 8.05 200 06:29 16.02.2022
5320 Clear 5 999 81 10000 7.2 210 23:45 15.02.2022
5321 Clear 6 1000 83 10000 6.71 218 22:33 15.02.2022
5322 Clear 6 1000 85 10000 6.26 209 21:48 15.02.2022
5323 Clear 6 1000 84 10000 5.81 186 21:29 15.02.2022
5324 Clear 6 1001 80 10000 5.66 190 20:56 15.02.2022
5325 Clear 7 1001 82 10000 5.36 181 19:59 15.02.2022
5326 Clear 7 1001 77 10000 4.92 184 19:21 15.02.2022
5327 Clear 7 1001 72 10000 3.6 190 18:23 15.02.2022
5328 Clouds 8 1001 71 10000 3.6 200 17:50 15.02.2022
5329 Clouds 9 1006 68 10000 5.81 218 17:21 15.02.2022
5330 Clouds 9 1001 68 10000 5.14 240 15:32 15.02.2022
5331 Clouds 9 1008 66 10000 6.71 264 13:28 15.02.2022
5332 Clouds 9 1008 67 10000 5.66 270 12:59 15.02.2022
5333 Clouds 9 1007 68 10000 6.71 251 11:40 15.02.2022
5334 Clear 7 1006 78 10000 4.47 217 09:52 15.02.2022
5335 Clear 5 998 83 10000 4.12 220 06:59 15.02.2022
5336 Clear 5 998 81 10000 4.47 222 06:19 15.02.2022
5337 Clear 8 996 64 10000 4.92 186 23:34 14.02.2022
5338 Clouds 9 996 65 10000 4.63 180 21:55 14.02.2022
5339 Clouds 9 994 61 10000 4.92 190 20:51 14.02.2022
5340 Clear 10 995 63 10000 4.92 162 19:46 14.02.2022
5341 Clear 10 995 59 10000 4.92 174 19:26 14.02.2022
5342 Clear 11 995 61 10000 5.81 166 18:23 14.02.2022
5343 Clear 11 995 57 10000 5.66 160 17:27 14.02.2022
5344 Clear 12 994 55 10000 5.81 180 16:27 14.02.2022
5345 Clear 13 995 49 10000 7.2 200 14:43 14.02.2022
5346 Clear 12 995 47 10000 8.05 189 13:34 14.02.2022
5347 Clear 12 996 47 10000 7.72 190 12:58 14.02.2022
5348 Clear 10 996 47 10000 8.49 186 11:57 14.02.2022
5349 Clear 9 1004 49 10000 8.05 182 11:38 14.02.2022
5350 Clear 5 997 62 10000 5.36 159 09:37 14.02.2022
5351 Clear 4 997 67 10000 5.36 158 07:49 14.02.2022
5352 Clear 4 997 67 10000 5.14 160 07:24 14.02.2022
5353 Clear 5 1002 76 10000 4.12 170 22:48 13.02.2022
5354 Clear 5 1002 78 10000 4.47 162 22:30 13.02.2022
5355 Clear 5 1002 77 10000 4.63 170 21:57 13.02.2022
5356 Clear 5 1002 79 10000 4.12 160 21:23 13.02.2022
5357 Clear 5 1003 75 10000 4.63 170 20:27 13.02.2022
5358 Clear 5 1004 74 10000 5.14 170 19:18 13.02.2022
5359 Clear 5 1004 73 10000 4.12 170 18:41 13.02.2022
5360 Clear 7 1004 65 10000 4.47 190 17:22 13.02.2022
5361 Clear 8 1006 55 10000 6.71 190 15:51 13.02.2022
5362 Clear 8 1006 55 10000 6.69 190 14:50 13.02.2022
5363 Clear 7 1007 58 10000 7.2 210 13:29 13.02.2022
5364 Clear 6 1007 60 10000 7.15 214 12:42 13.02.2022
5365 Clear 4 1014 72 10000 5.81 183 10:46 13.02.2022
5366 Clear 3 1009 76 10000 4.92 187 10:27 13.02.2022
5367 Clear 0 1009 82 10000 5.14 170 08:57 13.02.2022
5368 Clear 0 1013 82 10000 4.47 166 02:50 13.02.2022
5369 Clear 0 1015 82 10000 5.36 162 00:33 13.02.2022
5370 Clear 1 1016 82 10000 5.36 176 22:58 12.02.2022
5371 Clear 1 1016 82 10000 5.14 170 22:33 12.02.2022
5372 Clear 1 1017 80 10000 3.6 150 21:18 12.02.2022
5373 Clear 1 1018 78 10000 3.6 150 20:25 12.02.2022
5374 Clear 1 1019 75 10000 3.58 170 19:18 12.02.2022
5375 Clear 2 1019 73 10000 3.58 143 18:41 12.02.2022
5376 Clear 2 1019 72 10000 3.58 180 18:23 12.02.2022
5377 Clouds 4 1019 70 10000 6.26 190 16:55 12.02.2022
5378 Clouds 4 1020 66 10000 6.26 173 16:25 12.02.2022
5379 Clouds 5 1020 66 10000 6.17 200 15:32 12.02.2022
5380 Clouds 5 1021 65 10000 5.66 200 14:30 12.02.2022
5381 Clouds 5 1023 67 10000 4.12 200 12:55 12.02.2022
5382 Clear 2 1030 85 10000 2.68 212 10:35 12.02.2022
5383 Clear 0 1024 90 10000 3.13 190 09:38 12.02.2022
5384 Clear -1 1025 89 10000 2.57 190 08:48 12.02.2022
5385 Clear -1 1024 86 10000 2.68 190 07:50 12.02.2022
5386 Clear -1 1024 87 10000 2.68 232 05:33 12.02.2022
5387 Clear -1 1024 87 10000 3.6 230 03:32 12.02.2022
5388 Clear 0 1024 89 10000 3.58 260 02:18 12.02.2022
5389 Clouds 2 1022 79 10000 5.66 330 22:28 11.02.2022
5390 Clouds 3 1021 75 10000 7.2 350 21:51 11.02.2022
5391 Clouds 4 1020 80 10000 6.17 300 20:40 11.02.2022
5392 Clouds 4 1018 84 10000 4.63 290 19:40 11.02.2022
5393 Clear 4 1018 84 10000 4.47 260 19:20 11.02.2022
5394 Clouds 5 1016 86 10000 4.47 252 17:48 11.02.2022
5395 Clouds 5 1015 85 10000 3.6 260 17:22 11.02.2022
5396 Clouds 5 1013 84 10000 5.14 270 16:22 11.02.2022
5397 Clouds 6 1019 84 10000 6.26 243 14:43 11.02.2022
5398 Clouds 6 1011 83 10000 6.26 239 14:21 11.02.2022
5399 Clouds 6 1011 78 10000 6.71 237 13:57 11.02.2022
5400 Clouds 6 1011 79 10000 7.15 227 13:39 11.02.2022
5401 Clouds 5 1011 83 10000 5.66 250 11:42 11.02.2022
5402 Clouds 4 1010 87 10000 4.12 230 09:58 11.02.2022
5403 Clouds 4 1009 89 10000 5.36 255 08:49 11.02.2022
5404 Clouds 4 1009 88 10000 3.6 240 08:27 11.02.2022
5405 Clouds 4 1009 89 10000 3.58 250 07:18 11.02.2022
5406 Clear 3 1009 93 10000 2.68 230 02:39 11.02.2022
5407 Clouds 3 1009 90 10000 2.68 234 02:18 11.02.2022
5408 Clear 5 1009 89 10000 4.47 230 22:53 10.02.2022
5409 Clouds 5 1009 91 10000 4.47 230 21:50 10.02.2022
5410 Clouds 5 1009 88 10000 5.36 231 21:18 10.02.2022
5411 Clouds 6 1009 89 10000 5.66 240 20:45 10.02.2022
5412 Clouds 5 1008 92 10000 3.6 250 19:26 10.02.2022
5413 Clouds 5 1009 89 10000 4.02 220 18:47 10.02.2022
5414 Clouds 6 1007 92 10000 2.57 310 17:27 10.02.2022
5415 Clouds 6 1008 90 10000 4.47 330 16:57 10.02.2022
5416 Clouds 7 1007 87 10000 7.6 260 15:59 10.02.2022
5417 Clouds 7 1007 87 10000 7.6 260 15:33 10.02.2022
5418 Clouds 9 1006 80 10000 5.36 278 14:49 10.02.2022
5419 Clouds 10 1006 81 10000 6.26 270 14:26 10.02.2022
5420 Clouds 10 1006 76 10000 6.26 264 13:30 10.02.2022
5421 Clouds 10 1007 75 10000 5.81 245 12:51 10.02.2022
5422 Clouds 10 1007 82 10000 5.81 236 11:34 10.02.2022
5423 Clouds 9 1007 82 10000 4.02 217 10:56 10.02.2022
5424 Clouds 9 1008 81 10000 4.92 210 10:18 10.02.2022
5425 Clouds 8 1008 83 10000 3.13 180 09:25 10.02.2022
5426 Clouds 8 1009 82 10000 3.13 190 07:36 10.02.2022
5427 Clouds 8 1010 82 10000 4.02 204 05:51 10.02.2022
5428 Clouds 9 1012 81 10000 4.92 230 01:52 10.02.2022
5429 Clouds 9 1012 84 10000 5.36 240 00:50 10.02.2022
5430 Clouds 9 1012 84 10000 4.92 240 00:29 10.02.2022
5431 Clouds 9 1013 84 10000 5.36 245 23:26 09.02.2022
5432 Clouds 9 1013 84 10000 6.26 247 22:37 09.02.2022
5433 Clouds 9 1013 84 10000 5.81 245 21:52 09.02.2022
5434 Clouds 9 1013 85 10000 5.36 240 21:32 09.02.2022
5435 Clouds 9 1013 86 10000 5.36 243 20:51 09.02.2022
5436 Clouds 9 1013 86 10000 5.14 250 20:31 09.02.2022
5437 Clouds 9 1013 87 10000 5.36 242 19:59 09.02.2022
5438 Clouds 9 1013 88 10000 6.17 250 19:38 09.02.2022
5439 Clouds 9 1012 88 10000 5.36 210 17:39 09.02.2022
5440 Clouds 9 1012 87 10000 5.81 273 16:53 09.02.2022
5441 Clouds 10 1012 85 10000 5.81 210 15:52 09.02.2022
5442 Clouds 10 1012 84 10000 6.26 250 14:42 09.02.2022
5443 Clouds 10 1013 81 10000 9.83 243 12:30 09.02.2022
5444 Clouds 10 1013 83 10000 8.23 240 11:19 09.02.2022
5445 Clouds 9 1013 84 10000 7.2 230 10:31 09.02.2022
5446 Clouds 9 1013 85 10000 6.71 225 09:42 09.02.2022
5447 Clouds 9 1013 86 10000 6.17 230 09:19 09.02.2022
5448 Clouds 9 1013 89 10000 7.15 231 07:56 09.02.2022
5449 Clouds 9 1014 94 10000 6.26 250 05:30 09.02.2022
5450 Clouds 9 1014 94 10000 8.05 251 03:50 09.02.2022
5451 Clouds 9 1014 94 10000 7.2 260 01:27 09.02.2022
5452 Drizzle 9 1014 94 10000 6.26 269 23:39 08.02.2022
5453 Clouds 9 1014 95 4500 7.6 256 22:51 08.02.2022
5454 Drizzle 9 1013 94 5000 7.2 260 22:22 08.02.2022
5455 Drizzle 9 1013 94 8000 8.05 265 21:50 08.02.2022
5456 Drizzle 9 1013 94 10000 7.2 270 21:21 08.02.2022
5457 Drizzle 9 1013 94 8000 7.72 270 20:45 08.02.2022
5458 Drizzle 9 1012 93 10000 8.23 270 19:52 08.02.2022
5459 Clouds 9 1012 93 10000 9.39 280 18:53 08.02.2022
5460 Clouds 9 1011 92 10000 8.23 270 17:50 08.02.2022
5461 Clouds 9 1011 92 10000 8.49 251 16:35 08.02.2022
5462 Clouds 8 1011 93 10000 10.73 265 15:39 08.02.2022
5463 Clouds 8 1010 92 10000 7.15 242 14:56 08.02.2022
5464 Clouds 7 1010 91 10000 9.26 240 13:29 08.02.2022
5465 Clouds 6 1010 90 10000 9.83 230 12:20 08.02.2022
5466 Clouds 5 1011 92 10000 8.75 240 10:45 08.02.2022
5467 Drizzle 5 1012 91 8000 8.94 240 09:46 08.02.2022
5468 Clouds 4 1012 86 10000 7.15 226 08:27 08.02.2022
5469 Clear 3 1013 86 10000 5.66 230 05:45 08.02.2022
5470 Clear 3 1014 86 10000 5.81 212 04:40 08.02.2022
5471 Clear 3 1014 89 10000 4.92 232 04:21 08.02.2022
5472 Clouds 3 1014 88 10000 5.36 239 03:36 08.02.2022
5473 Clouds 3 1014 86 10000 5.36 250 03:18 08.02.2022
5474 Clouds 3 1014 86 10000 5.36 250 03:18 08.02.2022
5475 Clouds 3 1014 84 10000 5.66 260 02:59 08.02.2022
5476 Clouds 3 1014 84 10000 5.66 260 02:36 08.02.2022
5477 Clouds 3 1014 84 10000 6.71 266 02:18 08.02.2022
5478 Clouds 3 1014 84 10000 6.26 260 01:44 08.02.2022
5479 Clouds 3 1014 84 10000 8.23 280 01:25 08.02.2022
5480 Clouds 3 1013 84 10000 6.71 272 00:55 08.02.2022
5481 Clouds 3 1013 83 10000 5.66 270 00:19 08.02.2022
5482 Clouds 3 1013 85 10000 5.66 270 23:43 07.02.2022
5483 Clouds 3 1013 84 10000 6.71 290 23:18 07.02.2022
5484 Clouds 3 1012 84 10000 6.71 270 22:59 07.02.2022
5485 Clouds 3 1012 81 10000 6.71 270 22:19 07.02.2022
5486 Clouds 4 1012 78 10000 7.2 280 21:50 07.02.2022
5487 Clouds 4 1011 75 10000 8.23 290 21:27 07.02.2022
5488 Clouds 4 1011 77 10000 7.72 280 20:45 07.02.2022
5489 Clouds 4 1011 74 10000 8.94 270 20:27 07.02.2022
5490 Clouds 4 1010 76 10000 8.23 280 19:47 07.02.2022
5491 Clear 5 1009 73 10000 7.72 280 18:35 07.02.2022
5492 Clouds 5 1005 73 10000 8.75 280 17:18 07.02.2022
5493 Clouds 5 1006 75 10000 8.49 312 16:46 07.02.2022
5494 Clouds 6 1005 74 10000 9.83 326 15:48 07.02.2022
5495 Clouds 6 1002 68 10000 9.77 300 13:58 07.02.2022
5496 Clouds 6 1002 73 10000 13.89 300 13:27 07.02.2022
5497 Clouds 6 1001 74 10000 11.18 292 12:18 07.02.2022
5498 Clouds 5 1001 78 10000 10.28 294 11:40 07.02.2022
5499 Clouds 5 999 82 10000 7.6 286 11:22 07.02.2022
5500 Clouds 4 1004 82 10000 9.39 295 10:41 07.02.2022
5501 Clouds 4 1004 86 10000 11.62 295 10:22 07.02.2022
5502 Clouds 4 998 85 10000 10.28 290 09:51 07.02.2022
5503 Clouds 4 997 85 10000 8.49 297 09:18 07.02.2022
5504 Clouds 3 995 87 10000 8.94 287 07:44 07.02.2022
5505 Clouds 3 992 87 10000 9.39 273 06:34 07.02.2022
5506 Clouds 3 997 83 10000 8.94 291 04:49 07.02.2022
5507 Clouds 3 986 84 10000 8.94 280 02:37 07.02.2022
5508 Clouds 4 984 87 10000 8.05 264 00:20 07.02.2022
5509 Clouds 4 984 91 10000 6.26 243 23:20 06.02.2022
5510 Clouds 5 984 91 8000 8.05 247 22:42 06.02.2022
5511 Clouds 4 984 91 10000 5.81 243 21:47 06.02.2022
5512 Clouds 4 984 90 10000 7.6 255 21:21 06.02.2022
5513 Clouds 4 984 90 10000 11.18 272 20:48 06.02.2022
5514 Clouds 5 984 91 10000 8.94 274 20:24 06.02.2022
5515 Clouds 4 983 92 10000 10.73 274 19:30 06.02.2022
5516 Rain 5 982 92 10000 12.52 252 18:34 06.02.2022
5517 Rain 6 982 92 10000 11.18 223 17:39 06.02.2022
5518 Rain 6 983 91 10000 13.86 218 16:52 06.02.2022
5519 Rain 6 983 90 10000 9.39 222 16:29 06.02.2022
5520 Rain 7 984 87 10000 10.73 229 15:47 06.02.2022
5521 Rain 7 984 87 10000 10.73 229 15:47 06.02.2022
5522 Rain 7 985 85 10000 9.83 223 15:25 06.02.2022
5523 Rain 7 987 84 10000 12.96 226 14:23 06.02.2022
5524 Rain 8 988 83 10000 13.41 224 13:23 06.02.2022
5525 Clouds 7 990 85 10000 11.62 234 12:34 06.02.2022
5526 Rain 6 992 90 10000 10.28 238 10:43 06.02.2022
5527 Clouds 5 993 90 10000 11.62 239 09:48 06.02.2022
5528 Rain 5 993 92 10000 11.18 238 08:42 06.02.2022
5529 Rain 5 994 90 10000 11.18 226 07:36 06.02.2022
5530 Clouds 4 996 88 10000 10.73 223 05:29 06.02.2022
5531 Clouds 5 1000 79 10000 9.39 220 02:26 06.02.2022
5532 Clouds 4 1002 83 10000 10.28 236 01:20 06.02.2022
5533 Rain 5 1003 77 10000 8.94 226 00:24 06.02.2022
5534 Clear 5 1004 72 10000 7.15 221 22:18 05.02.2022
5535 Clouds 5 1005 72 10000 6.71 225 20:48 05.02.2022
5536 Clouds 5 1006 71 10000 7.15 240 20:23 05.02.2022
5537 Clear 5 1006 70 10000 6.71 234 19:44 05.02.2022
5538 Clear 5 1006 71 10000 6.71 237 18:49 05.02.2022
5539 Clouds 5 1006 70 10000 6.26 256 17:37 05.02.2022
5540 Clouds 6 1006 71 10000 5.81 245 16:37 05.02.2022
5541 Clouds 6 1006 73 10000 10.73 270 15:33 05.02.2022
5542 Clouds 6 1006 71 10000 8.05 262 14:47 05.02.2022
5543 Clouds 6 1011 77 10000 12.07 264 12:46 05.02.2022
5544 Clouds 5 1005 83 10000 9.83 274 11:49 05.02.2022
5545 Clouds 4 1010 84 10000 10.73 257 10:46 05.02.2022
5546 Clouds 4 1004 86 10000 8.05 271 09:52 05.02.2022
5547 Clouds 3 1004 89 10000 7.6 278 09:29 05.02.2022
5548 Clouds 4 1002 85 10000 8.94 262 07:38 05.02.2022
5549 Clouds 4 1002 85 10000 6.26 258 06:56 05.02.2022
5550 Clouds 4 1000 86 10000 8.49 253 03:55 05.02.2022
5551 Clouds 3 998 90 10000 10.28 275 01:19 05.02.2022
5552 Clouds 4 998 85 10000 12.52 290 00:51 05.02.2022
5553 Clouds 5 1001 87 10000 15.2 293 23:38 04.02.2022
5554 Clouds 6 992 88 10000 10.73 218 23:20 04.02.2022
5555 Rain 7 992 81 10000 8.49 216 21:37 04.02.2022
5556 Rain 8 993 79 10000 10.28 218 21:18 04.02.2022
5557 Clouds 8 993 79 10000 10.28 219 20:50 04.02.2022
5558 Clear 8 994 80 10000 8.05 214 19:36 04.02.2022
5559 Clouds 8 995 81 10000 8.94 230 17:28 04.02.2022
5560 Clouds 8 1004 82 10000 8.05 225 15:39 04.02.2022
5561 Clouds 8 1004 84 10000 7.15 211 14:52 04.02.2022
5562 Clouds 8 999 87 10000 7.15 214 13:24 04.02.2022
5563 Clouds 7 999 88 10000 5.81 219 12:42 04.02.2022
5564 Clouds 7 1007 89 10000 6.26 212 11:41 04.02.2022
5565 Clouds 6 1007 90 10000 6.26 231 10:34 04.02.2022
5566 Clouds 5 1006 90 10000 3.58 220 08:34 04.02.2022
5567 Clouds 5 1001 94 10000 4.02 243 06:18 04.02.2022
5568 Clouds 6 1006 91 10000 3.58 250 02:42 04.02.2022
5569 Clouds 6 1008 91 10000 2.68 225 01:22 04.02.2022
5570 Drizzle 6 1007 92 6000 3.58 214 23:29 03.02.2022
5571 Clouds 7 1007 92 9000 4.02 215 22:33 03.02.2022
5572 Clouds 7 1008 94 6000 3.13 198 21:49 03.02.2022
5573 Clouds 7 1002 95 6000 3.58 210 20:38 03.02.2022
5574 Clouds 7 1003 93 6000 3.58 190 20:18 03.02.2022
5575 Clouds 7 1003 93 9000 3.58 217 19:30 03.02.2022
5576 Clouds 7 1004 93 7000 4.92 229 18:34 03.02.2022
5577 Clouds 7 1003 95 9000 3.58 220 17:32 03.02.2022
5578 Clouds 6 1004 95 7000 3.58 212 16:25 03.02.2022
5579 Drizzle 6 1005 94 8000 4.47 216 14:37 03.02.2022
5580 Rain 6 1006 91 10000 5.81 204 12:51 03.02.2022
5581 Clouds 5 1007 87 10000 4.02 191 10:45 03.02.2022
5582 Clear 2 1008 86 10000 2.68 209 08:36 03.02.2022
5583 Clear 2 1010 87 10000 2.24 227 04:27 03.02.2022
5584 Clear 2 1010 83 10000 3.13 272 00:31 03.02.2022
5585 Clear 2 1009 84 10000 4.47 287 23:36 02.02.2022
5586 Clouds 3 1009 83 10000 4.47 286 21:55 02.02.2022
5587 Clouds 3 1008 81 10000 4.92 296 21:31 02.02.2022
5588 Clouds 3 1008 83 10000 5.81 284 20:40 02.02.2022
5589 Clouds 4 1007 80 10000 3.58 276 19:58 02.02.2022
5590 Clouds 4 1007 78 10000 2.24 299 19:27 02.02.2022
5591 Clouds 4 1006 77 10000 5.36 307 18:39 02.02.2022
5592 Clouds 4 1005 73 10000 8.05 311 17:56 02.02.2022
5593 Clouds 5 1010 72 10000 9.83 302 17:19 02.02.2022
5594 Clouds 5 1009 67 10000 10.28 318 16:41 02.02.2022
5595 Clouds 6 1004 75 10000 10.28 301 12:57 02.02.2022
5596 Clouds 6 1004 76 10000 8.49 310 12:20 02.02.2022
5597 Clouds 6 996 78 10000 12.07 290 11:33 02.02.2022
5598 Rain 6 994 81 10000 11.18 289 09:47 02.02.2022
5599 Clouds 5 992 83 10000 11.18 287 07:35 02.02.2022
5600 Clouds 6 988 87 10000 10.73 286 22:52 01.02.2022
5601 Clouds 6 988 90 10000 8.94 288 21:51 01.02.2022
5602 Clouds 6 987 92 10000 9.83 261 20:35 01.02.2022
5603 Clouds 3 989 94 10000 9.39 235 17:44 01.02.2022
5604 Rain 3 990 93 9000 11.62 234 16:39 01.02.2022
5605 Rain 4 994 88 10000 9.39 230 14:47 01.02.2022
5606 Rain 4 998 86 10000 7.6 255 12:45 01.02.2022
5607 Clouds 3 1000 88 10000 7.6 249 11:34 01.02.2022
5608 Clouds 2 1002 87 10000 4.47 262 04:53 01.02.2022
5609 Clouds 1 1001 86 10000 3.58 313 23:42 31.01.2022
5610 Clouds 1 1001 86 10000 3.58 310 23:42 31.01.2022
5611 Clouds 1 1000 87 10000 3.58 300 23:21 31.01.2022
5612 Clouds 1 1000 86 10000 2.24 341 21:59 31.01.2022
5613 Clouds 1 999 85 10000 1.79 343 21:32 31.01.2022
5614 Clouds 2 998 82 10000 1.79 334 20:33 31.01.2022
5615 Clouds 2 998 81 10000 3.13 4 19:45 31.01.2022
5616 Clouds 3 996 80 10000 4.02 12 18:26 31.01.2022
5617 Clouds 3 996 81 10000 2.24 352 17:43 31.01.2022
5618 Clouds 4 995 79 10000 1.34 66 16:43 31.01.2022
5619 Clouds 4 994 77 10000 2.24 53 15:43 31.01.2022
5620 Clouds 4 1001 76 10000 2.24 71 14:22 31.01.2022
5621 Clouds 4 993 74 10000 1.79 127 12:39 31.01.2022
5622 Clouds 4 993 75 10000 2.24 146 11:58 31.01.2022
5623 Clouds 3 994 73 10000 2.24 154 10:50 31.01.2022
5624 Clouds 3 994 74 10000 3.58 183 10:32 31.01.2022
5625 Clouds 2 995 75 10000 3.13 193 09:27 31.01.2022
5626 Clouds 2 995 77 10000 4.02 183 08:52 31.01.2022
5627 Clouds 2 995 77 10000 4.02 183 08:52 31.01.2022
5628 Clear 2 996 79 10000 2.68 197 08:20 31.01.2022
5629 Rain 3 999 76 10000 3.58 229 06:21 31.01.2022
5630 Clouds 3 1003 77 10000 4.92 276 03:33 31.01.2022
5631 Clouds 4 1014 68 10000 8.49 271 23:20 30.01.2022
5632 Clouds 5 1013 65 10000 8.49 272 22:30 30.01.2022
5633 Clouds 5 1013 62 10000 7.15 283 21:43 30.01.2022
5634 Clouds 5 1009 63 10000 7.6 284 21:20 30.01.2022
5635 Clouds 5 1009 62 10000 8.05 292 20:50 30.01.2022
5636 Clouds 5 1009 62 10000 6.26 286 20:29 30.01.2022
5637 Clouds 5 1009 63 10000 8.05 304 19:53 30.01.2022
5638 Clouds 6 1009 62 10000 8.05 295 18:45 30.01.2022
5639 Clouds 6 1008 62 10000 8.49 280 18:21 30.01.2022
5640 Clouds 6 1008 63 10000 9.39 297 17:29 30.01.2022
5641 Clouds 6 1007 63 10000 10.28 299 16:41 30.01.2022
5642 Clouds 7 1007 64 10000 9.39 282 16:22 30.01.2022
5643 Clouds 7 1006 64 10000 9.83 300 15:53 30.01.2022
5644 Clouds 7 1006 64 10000 8.94 296 15:32 30.01.2022
5645 Clouds 7 1005 63 10000 10.28 310 14:47 30.01.2022
5646 Clouds 7 1005 64 10000 10.28 294 13:37 30.01.2022
5647 Clouds 7 1004 66 10000 12.52 284 12:41 30.01.2022
5648 Clouds 6 1002 69 10000 16.09 281 10:38 30.01.2022
5649 Clouds 6 1001 70 10000 13.86 286 09:57 30.01.2022
5650 Clouds 6 1000 70 10000 17.88 289 09:21 30.01.2022
5651 Clouds 6 999 74 10000 16.54 270 07:57 30.01.2022
5652 Clouds 6 998 75 10000 14.31 267 02:44 30.01.2022
5653 Clouds 6 999 75 10000 14.31 285 01:52 30.01.2022
5654 Clouds 6 999 78 10000 14.31 295 23:46 29.01.2022
5655 Clouds 7 998 78 10000 14.31 271 22:48 29.01.2022
5656 Rain 8 997 82 10000 16.99 283 21:28 29.01.2022
5657 Rain 9 996 89 10000 15.2 253 20:50 29.01.2022
5658 Rain 9 995 91 10000 12.07 260 19:51 29.01.2022
5659 Clouds 9 997 91 10000 14.31 246 19:30 29.01.2022
5660 Clouds 9 998 92 8000 13.41 257 18:43 29.01.2022
5661 Drizzle 9 999 89 10000 10.73 253 17:46 29.01.2022
5662 Drizzle 9 1000 90 10000 8.94 249 16:44 29.01.2022
5663 Clouds 8 1002 89 10000 9.83 260 15:25 29.01.2022
5664 Clouds 7 1003 93 10000 9.39 247 13:48 29.01.2022
5665 Drizzle 7 1004 95 10000 7.15 259 13:27 29.01.2022
5666 Drizzle 6 1005 95 9000 6.26 233 12:52 29.01.2022
5667 Drizzle 6 1006 95 10000 8.05 250 11:39 29.01.2022
5668 Clouds 4 1007 94 6000 8.94 240 10:32 29.01.2022
5669 Rain 4 1009 93 10000 7.6 218 08:19 29.01.2022
5670 Clouds 3 1017 81 10000 5.36 233 02:26 29.01.2022
5671 Clouds 3 1018 79 10000 4.47 209 00:32 29.01.2022
5672 Clear 3 1019 79 10000 3.58 262 23:31 28.01.2022
5673 Clear 4 1020 77 10000 4.02 280 22:47 28.01.2022
5674 Clear 4 1020 76 10000 5.36 274 22:19 28.01.2022
5675 Clear 4 1025 76 10000 4.47 287 20:41 28.01.2022
5676 Clear 4 1020 74 10000 3.58 304 19:57 28.01.2022
5677 Clear 4 1020 73 10000 5.36 304 18:52 28.01.2022
5678 Clear 5 1019 70 10000 4.92 294 17:53 28.01.2022
5679 Clouds 6 1017 68 10000 7.6 307 16:23 28.01.2022
5680 Clouds 7 1016 70 10000 8.05 298 14:54 28.01.2022
5681 Clouds 6 1015 68 10000 11.18 318 12:42 28.01.2022
5682 Clouds 6 1015 68 10000 8.49 305 11:50 28.01.2022
5683 Clouds 5 1019 70 10000 8.05 298 10:27 28.01.2022
5684 Clouds 5 1012 76 10000 10.28 297 09:47 28.01.2022
5685 Clouds 5 1009 76 10000 7.15 281 07:42 28.01.2022
5686 Clouds 5 1008 75 10000 11.62 299 06:29 28.01.2022
5687 Clouds 5 1005 78 10000 11.62 277 03:51 28.01.2022
5688 Clouds 5 1004 78 10000 13.86 290 02:27 28.01.2022
5689 Clouds 5 1003 80 10000 12.52 283 01:37 28.01.2022
5690 Clouds 5 1003 80 10000 12.52 283 01:37 28.01.2022
5691 Clouds 5 1003 81 10000 11.18 264 00:46 28.01.2022
5692 Clouds 5 1003 83 10000 10.73 280 22:20 27.01.2022
5693 Clouds 5 1003 84 10000 10.28 281 21:37 27.01.2022
5694 Clouds 6 1002 85 10000 12.07 260 20:59 27.01.2022
5695 Clouds 6 1002 85 10000 12.07 260 20:59 27.01.2022
5696 Clouds 6 1002 89 10000 9.39 261 19:45 27.01.2022
5697 Clouds 6 1003 91 10000 8.94 252 18:20 27.01.2022
5698 Clouds 6 1003 93 10000 7.6 236 16:55 27.01.2022
5699 Clouds 4 1004 94 5000 9.83 237 14:23 27.01.2022
5700 Drizzle 3 1012 93 2800 8.49 250 12:49 27.01.2022
5701 Drizzle 3 1012 93 2800 8.49 250 12:49 27.01.2022
5702 Drizzle 3 1012 93 2800 8.05 237 12:49 27.01.2022
5703 Drizzle 3 1006 92 3900 8.94 236 11:54 27.01.2022
5704 Clouds 4 1007 87 10000 8.94 242 09:48 27.01.2022
5705 Clouds 4 1008 88 10000 8.05 232 08:40 27.01.2022
5706 Clouds 4 1008 89 10000 8.94 232 07:53 27.01.2022
5707 Clouds 3 1012 92 10000 7.15 231 03:34 27.01.2022
5708 Clouds 3 1014 92 7000 7.6 257 00:24 27.01.2022
5709 Mist 3 1015 92 5000 7.15 259 22:28 26.01.2022
5710 Mist 3 1015 92 4500 6.26 261 21:44 26.01.2022
5711 Mist 2 1015 92 5000 6.26 257 20:52 26.01.2022
5712 Mist 2 1016 92 5000 5.81 262 20:32 26.01.2022
5713 Drizzle 2 1016 92 5000 6.26 249 19:49 26.01.2022
5714 Drizzle 2 1016 92 6000 7.15 243 18:48 26.01.2022
5715 Drizzle 2 1016 91 7000 6.26 257 18:24 26.01.2022
5716 Drizzle 2 1016 91 10000 5.81 259 17:34 26.01.2022
5717 Clouds 2 1017 91 10000 5.81 249 16:56 26.01.2022
5718 Drizzle 2 1017 91 10000 8.49 259 16:23 26.01.2022
5719 Drizzle 2 1018 93 10000 7.6 275 14:54 26.01.2022
5720 Drizzle 3 1019 92 10000 5.81 270 12:44 26.01.2022
5721 Drizzle 3 1019 91 10000 5.36 272 10:56 26.01.2022
5722 Drizzle 3 1019 91 8000 4.92 257 09:58 26.01.2022
5723 Drizzle 3 1019 91 8000 5.36 254 09:39 26.01.2022
5724 Clouds 3 1019 92 9000 5.36 261 07:28 26.01.2022
5725 Drizzle 4 1021 92 3000 4.92 266 00:26 26.01.2022
5726 Drizzle 4 1021 92 3200 5.36 279 23:43 25.01.2022
5727 Clouds 4 1021 92 10000 5.36 269 22:49 25.01.2022
5728 Clouds 4 1021 91 9000 4.47 267 22:19 25.01.2022
5729 Clouds 4 1021 92 8000 4.02 270 21:34 25.01.2022
5730 Drizzle 4 1021 92 4500 4.47 280 20:45 25.01.2022
5731 Drizzle 4 1022 92 4000 4.92 263 19:58 25.01.2022
5732 Drizzle 4 1022 92 4000 4.92 263 19:58 25.01.2022
5733 Drizzle 4 1021 92 4000 4.02 264 19:34 25.01.2022
5734 Drizzle 4 1022 91 5000 4.47 275 18:20 25.01.2022
5735 Drizzle 4 1021 92 5000 4.02 269 17:39 25.01.2022
5736 Drizzle 5 1020 92 5000 4.02 287 16:35 25.01.2022
5737 Drizzle 5 1021 92 6000 4.92 286 15:43 25.01.2022
5738 Drizzle 5 1021 92 7000 4.47 284 15:25 25.01.2022
5739 Drizzle 5 1021 91 9000 5.81 293 14:56 25.01.2022
5740 Drizzle 4 1022 91 6000 5.81 276 12:32 25.01.2022
5741 Clouds 4 1023 90 7000 4.02 260 09:58 25.01.2022
5742 Clouds 3 1022 92 8000 4.02 274 08:29 25.01.2022
5743 Clouds 3 1022 89 9000 3.13 264 07:28 25.01.2022
5744 Drizzle 3 1023 89 6000 3.58 296 05:55 25.01.2022
5745 Clouds 4 1024 94 8000 4.47 270 00:58 25.01.2022
5746 Drizzle 5 1024 94 4500 1.79 253 23:36 24.01.2022
5747 Drizzle 5 1024 94 4500 1.79 253 23:18 24.01.2022
5748 Drizzle 5 1024 94 4000 2.24 252 22:58 24.01.2022
5749 Mist 5 1024 94 4800 1.34 263 22:40 24.01.2022
5750 Drizzle 5 1023 94 3800 1.34 257 21:43 24.01.2022
5751 Drizzle 5 1024 91 3500 1.79 243 21:25 24.01.2022
5752 Clouds 5 1024 94 6000 1.79 259 20:28 24.01.2022
5753 Clouds 5 1024 95 8000 1.79 300 19:39 24.01.2022
5754 Clouds 5 1024 94 8000 2.24 298 18:50 24.01.2022
5755 Clouds 5 1024 95 7000 2.24 304 17:43 24.01.2022
5756 Clouds 5 1025 91 7000 3.58 291 17:23 24.01.2022
5757 Clouds 5 1025 90 10000 3.13 289 16:32 24.01.2022
5758 Clouds 5 1025 90 10000 3.58 308 15:52 24.01.2022
5759 Clouds 6 1025 89 10000 2.68 277 14:27 24.01.2022
5760 Clouds 6 1030 89 10000 4.02 261 12:36 24.01.2022
5761 Clouds 6 1030 89 10000 1.79 257 11:53 24.01.2022
5762 Clouds 6 1025 96 10000 2.68 280 10:24 24.01.2022
5763 Clouds 6 1026 95 8000 3.13 293 09:46 24.01.2022
5764 Mist 5 1025 93 5000 2.24 294 08:19 24.01.2022
5765 Drizzle 6 1025 95 1200 2.68 231 02:33 24.01.2022
5766 Drizzle 6 1025 95 2500 0.45 320 01:28 24.01.2022
5767 Drizzle 6 1025 95 2900 1.79 351 00:34 24.01.2022
5768 Mist 6 1025 95 2900 0.45 250 23:47 23.01.2022
5769 Mist 6 1025 95 2900 0.45 250 23:47 23.01.2022
5770 Drizzle 6 1025 95 6000 1.79 254 22:21 23.01.2022
5771 Drizzle 6 1025 95 8000 2.24 266 21:42 23.01.2022
5772 Clouds 6 1024 95 10000 1.34 262 21:24 23.01.2022
5773 Clouds 6 1024 95 10000 2.68 300 20:29 23.01.2022
5774 Drizzle 6 1024 94 10000 1.34 313 19:21 23.01.2022
5775 Clouds 6 1024 94 10000 2.68 324 18:44 23.01.2022
5776 Drizzle 6 1024 94 10000 2.24 314 17:28 23.01.2022
5777 Drizzle 6 1023 94 10000 2.24 313 16:38 23.01.2022
5778 Clouds 6 1023 94 10000 2.68 298 14:59 23.01.2022
5779 Drizzle 6 1023 94 10000 3.58 290 14:21 23.01.2022
5780 Drizzle 6 1023 95 10000 2.68 297 12:51 23.01.2022
5781 Drizzle 6 1023 95 8000 3.13 294 12:22 23.01.2022
5782 Drizzle 6 1023 95 9000 3.13 290 11:52 23.01.2022
5783 Drizzle 6 1023 95 8000 5.36 294 11:18 23.01.2022
5784 Clouds 6 1023 92 10000 3.58 290 10:27 23.01.2022
5785 Clouds 5 1023 95 10000 3.58 288 09:51 23.01.2022
5786 Drizzle 5 1023 92 6000 3.58 286 08:53 23.01.2022
5787 Clouds 5 1021 91 10000 4.92 286 05:56 23.01.2022
5788 Drizzle 4 1021 94 2700 2.24 266 01:52 23.01.2022
5789 Mist 4 1021 94 2000 2.24 261 01:26 23.01.2022
5790 Drizzle 4 1020 94 1500 0.89 244 00:23 23.01.2022
5791 Drizzle 4 1020 93 1300 1.79 178 23:56 22.01.2022
5792 Drizzle 3 1020 91 10000 1.34 210 22:46 22.01.2022
5793 Clouds 3 1020 89 10000 0.45 269 21:36 22.01.2022
5794 Clear 2 1027 89 10000 2.68 269 20:21 22.01.2022
5795 Clear 2 1026 87 10000 1.79 260 18:56 22.01.2022
5796 Clear 2 1026 86 10000 2.24 270 18:24 22.01.2022
5797 Clear 2 1026 86 10000 1.79 270 17:40 22.01.2022
5798 Clear 3 1027 81 10000 1.34 266 16:56 22.01.2022
5799 Clear 4 1019 80 10000 3.58 298 15:53 22.01.2022
5800 Clear 4 1019 79 10000 3.58 286 15:32 22.01.2022
5801 Clouds 4 1019 84 10000 2.24 314 13:51 22.01.2022
5802 Clouds 4 1019 85 10000 3.58 340 12:53 22.01.2022
5803 Clouds 4 1019 87 10000 3.58 333 12:29 22.01.2022
5804 Clouds 3 1019 89 10000 4.47 336 11:49 22.01.2022
5805 Clouds 3 1025 93 10000 1.79 316 10:31 22.01.2022
5806 Clouds 2 1017 95 10000 2.68 291 09:59 22.01.2022
5807 Clouds 2 1017 93 10000 2.68 321 08:53 22.01.2022
5808 Clouds 2 1016 93 10000 5.36 338 07:56 22.01.2022
5809 Clouds 3 1014 91 10000 6.26 332 04:53 22.01.2022
5810 Clouds 3 1012 92 9000 6.26 301 01:58 22.01.2022
5811 Mist 3 1012 92 4500 5.36 273 23:48 21.01.2022
5812 Clouds 2 1013 90 8000 4.47 265 22:41 21.01.2022
5813 Rain 2 1014 81 10000 5.81 265 20:45 21.01.2022
5814 Clear 1 1015 70 10000 4.47 286 18:41 21.01.2022
5815 Clouds 1 1015 66 10000 7.15 282 17:45 21.01.2022
5816 Clear 2 1014 67 10000 8.49 294 15:48 21.01.2022
5817 Clear 3 1014 66 10000 7.6 300 14:37 21.01.2022
5818 Clouds 2 1018 68 10000 4.02 300 12:42 21.01.2022
5819 Clear 0 1024 77 10000 6.71 304 11:29 21.01.2022
5820 Clear -1 1021 80 10000 6.71 286 10:27 21.01.2022
5821 Clear -3 1015 77 10000 4.92 262 08:50 21.01.2022
5822 Clear -3 1015 76 10000 5.81 275 07:37 21.01.2022
5823 Clouds -1 1013 73 10000 6.26 287 01:48 21.01.2022
5824 Clear -1 1012 84 10000 7.6 296 22:47 20.01.2022
5825 Clouds -1 1011 85 10000 5.81 283 21:48 20.01.2022
5826 Clouds -1 1011 85 2800 8.05 301 21:24 20.01.2022
5827 Clouds 0 1009 81 10000 5.36 310 19:46 20.01.2022
5828 Clouds 0 1008 78 10000 6.71 304 19:18 20.01.2022
5829 Clouds 0 1006 79 10000 5.81 300 17:36 20.01.2022
5830 Clouds 2 1006 69 10000 9.83 292 15:59 20.01.2022
5831 Clouds 3 1006 68 10000 8.94 281 15:29 20.01.2022
5832 Clouds 3 1005 69 10000 10.28 289 14:19 20.01.2022
5833 Clouds 3 1006 67 10000 10.28 294 12:48 20.01.2022
5834 Clouds 2 1006 72 10000 10.73 297 12:27 20.01.2022
5835 Clouds 2 1006 70 10000 9.39 282 10:59 20.01.2022
5836 Clouds 1 1005 73 10000 8.94 284 09:50 20.01.2022
5837 Clouds 1 1004 78 10000 10.73 305 08:45 20.01.2022
5838 Clouds 1 1002 89 10000 9.83 288 06:57 20.01.2022
5839 Rain 4 1002 92 10000 7.15 259 00:40 20.01.2022
5840 Clouds 4 1003 88 10000 8.49 257 22:38 19.01.2022
5841 Clouds 4 1004 86 10000 7.6 231 21:34 19.01.2022
5842 Clouds 4 1004 84 10000 8.05 242 20:58 19.01.2022
5843 Clouds 4 1004 84 10000 6.26 243 20:40 19.01.2022
5844 Clouds 4 1006 85 10000 4.02 255 18:59 19.01.2022
5845 Clouds 4 1007 87 10000 3.58 240 17:51 19.01.2022
5846 Clouds 4 1008 87 10000 4.92 232 17:18 19.01.2022
5847 Clouds 4 1008 87 10000 4.92 232 17:18 19.01.2022
5848 Clouds 4 1008 87 10000 4.92 232 17:18 19.01.2022
5849 Clouds 3 1009 88 10000 4.92 226 15:35 19.01.2022
5850 Clouds 4 1012 87 10000 5.81 207 13:26 19.01.2022
5851 Clouds 4 1021 86 10000 8.05 222 11:59 19.01.2022
5852 Clouds 4 1021 83 10000 7.15 224 11:38 19.01.2022
5853 Clear 4 1016 86 10000 3.13 196 09:49 19.01.2022
5854 Clear 3 1021 87 10000 3.58 193 09:22 19.01.2022
5855 Clouds 4 1024 84 10000 3.13 212 06:34 19.01.2022
5856 Clouds 5 1015 89 10000 3.13 255 00:33 19.01.2022
5857 Clouds 5 1025 86 10000 2.68 223 23:18 18.01.2022
5858 Clouds 5 1025 87 10000 3.13 227 21:55 18.01.2022
5859 Clouds 5 1026 90 10000 3.13 231 20:44 18.01.2022
5860 Clouds 5 1026 86 10000 4.47 238 19:52 18.01.2022
5861 Clouds 5 1026 86 10000 3.13 233 19:33 18.01.2022
5862 Clouds 5 1026 85 10000 2.68 231 18:36 18.01.2022
5863 Clouds 5 1026 84 10000 2.68 261 17:48 18.01.2022
5864 Clouds 5 1026 82 10000 3.58 280 16:33 18.01.2022
5865 Clouds 5 1027 80 10000 2.24 260 15:26 18.01.2022
5866 Clouds 6 1026 83 10000 3.58 272 14:54 18.01.2022
5867 Clouds 5 1027 83 10000 3.58 276 11:52 18.01.2022
5868 Clouds 3 1026 90 10000 3.13 256 10:41 18.01.2022
5869 Clouds 1 1024 88 10000 4.02 242 08:49 18.01.2022
5870 Clouds 0 1023 88 10000 2.68 249 07:46 18.01.2022
5871 Clear 0 1023 87 10000 4.02 270 02:31 18.01.2022
5872 Clear 1 1022 84 10000 5.36 253 23:22 17.01.2022
5873 Clear 1 1021 83 10000 4.02 307 22:19 17.01.2022
5874 Clear 2 1020 82 10000 4.92 305 21:32 17.01.2022
5875 Clear 2 1024 81 10000 4.02 281 19:56 17.01.2022
5876 Clear 3 1017 81 10000 4.47 277 18:29 17.01.2022
5877 Clear 3 1016 80 10000 6.26 323 17:24 17.01.2022
5878 Clouds 4 1014 78 10000 5.81 318 16:35 17.01.2022
5879 Clouds 4 1012 77 10000 6.71 312 14:59 17.01.2022
5880 Clouds 4 1012 78 10000 6.71 320 14:33 17.01.2022
5881 Clouds 4 1011 83 10000 10.73 2 13:20 17.01.2022
5882 Clouds 4 1010 85 10000 8.94 330 12:55 17.01.2022
5883 Clouds 5 1009 89 4500 13.41 328 11:48 17.01.2022
5884 Rain 6 1006 92 10000 13.86 264 10:21 17.01.2022
5885 Clouds 6 1006 90 10000 13.41 274 09:33 17.01.2022
5886 Clouds 6 1007 83 10000 13.41 264 07:23 17.01.2022
5887 Clouds 6 1009 89 10000 8.94 264 02:55 17.01.2022
5888 Clouds 5 1010 92 10000 8.05 268 00:55 17.01.2022
5889 Clouds 5 1010 91 8000 9.83 267 22:18 16.01.2022
5890 Drizzle 5 1010 92 10000 7.15 251 20:34 16.01.2022
5891 Clouds 4 1010 92 10000 6.71 256 18:51 16.01.2022
5892 Clouds 3 1010 90 7000 4.92 249 17:59 16.01.2022
5893 Drizzle 3 1010 93 7000 4.92 257 16:59 16.01.2022
5894 Clouds 3 1010 92 7000 5.81 250 16:31 16.01.2022
5895 Drizzle 2 1009 93 6000 6.26 248 14:31 16.01.2022
5896 Clouds 2 1010 92 10000 4.92 267 13:45 16.01.2022
5897 Clouds 2 1008 90 8000 0.45 293 12:44 16.01.2022
5898 Mist 1 1010 90 5000 4.47 217 11:40 16.01.2022
5899 Mist 1 1010 89 5000 4.47 226 10:53 16.01.2022
5900 Clouds 0 1010 88 9000 4.47 225 09:59 16.01.2022
5901 Clear 0 1011 89 10000 4.02 233 09:40 16.01.2022
5902 Clear -1 1010 89 10000 2.24 219 09:22 16.01.2022
5903 Clear 0 1011 88 10000 2.68 172 07:30 16.01.2022
5904 Clouds 2 1023 85 10000 1.79 222 00:38 16.01.2022
5905 Clouds 2 1017 81 10000 1.79 231 23:40 15.01.2022
5906 Clouds 2 1017 81 10000 3.13 253 21:23 15.01.2022
5907 Clouds 3 1023 81 10000 3.58 248 20:56 15.01.2022
5908 Clouds 3 1024 82 10000 3.13 254 20:38 15.01.2022
5909 Clouds 3 1017 87 10000 2.68 252 19:28 15.01.2022
5910 Clouds 3 1018 88 10000 1.79 259 18:37 15.01.2022
5911 Clouds 3 1019 88 10000 0.89 347 16:57 15.01.2022
5912 Clouds 3 1019 91 10000 2.24 335 15:42 15.01.2022
5913 Clouds 3 1020 90 10000 3.13 286 13:39 15.01.2022
5914 Clouds 2 1021 90 10000 2.68 295 11:46 15.01.2022
5915 Clouds 1 1020 95 7000 3.58 300 10:25 15.01.2022
5916 Fog 1 1020 91 300 3.13 265 06:40 15.01.2022
5917 Clouds 3 1021 86 10000 3.58 306 23:50 14.01.2022
5918 Clouds 5 1020 86 10000 3.58 331 21:41 14.01.2022
5919 Clouds 6 1020 83 10000 4.02 310 20:37 14.01.2022
5920 Clouds 6 1020 86 10000 4.02 304 19:58 14.01.2022
5921 Clouds 6 1019 90 10000 6.26 276 18:48 14.01.2022
5922 Drizzle 6 1019 91 10000 6.71 282 17:57 14.01.2022
5923 Drizzle 6 1019 92 4500 6.71 284 16:48 14.01.2022
5924 Drizzle 6 1019 91 6000 8.49 270 15:34 14.01.2022
5925 Clouds 6 1018 93 10000 6.71 278 14:38 14.01.2022
5926 Clouds 6 1018 91 10000 9.39 266 13:34 14.01.2022
5927 Clouds 6 1019 89 10000 8.05 266 12:24 14.01.2022
5928 Drizzle 5 1018 93 5000 8.05 270 10:50 14.01.2022
5929 Clouds 5 1019 93 8000 8.05 276 08:54 14.01.2022
5930 Mist 5 1019 94 4500 9.83 255 08:20 14.01.2022
5931 Clouds 5 1020 91 10000 5.36 261 03:55 14.01.2022
5932 Clouds 5 1022 86 10000 7.15 260 00:50 14.01.2022
5933 Clouds 5 1022 90 10000 8.05 266 22:35 13.01.2022
5934 Clouds 5 1023 87 10000 5.36 263 21:31 13.01.2022
5935 Clouds 5 1023 89 10000 6.71 271 20:56 13.01.2022
5936 Clouds 5 1024 88 10000 7.6 289 19:32 13.01.2022
5937 Clouds 5 1024 88 10000 7.6 289 18:57 13.01.2022
5938 Clouds 5 1024 90 10000 7.6 288 17:25 13.01.2022
5939 Clouds 5 1024 91 10000 7.6 277 16:19 13.01.2022
5940 Clouds 5 1024 89 10000 6.71 282 15:35 13.01.2022
5941 Clouds 5 1024 93 10000 5.81 261 13:48 13.01.2022
5942 Clouds 4 1025 95 8000 8.94 270 12:25 13.01.2022
5943 Mist 4 1025 96 3200 6.26 260 09:38 13.01.2022
5944 Mist 3 1025 93 2500 4.92 250 08:57 13.01.2022
5945 Mist 3 1025 96 3600 5.81 267 08:26 13.01.2022
5946 Clouds 3 1024 95 6000 5.36 266 07:22 13.01.2022
5947 Clouds 3 1024 94 9000 5.36 267 05:59 13.01.2022
5948 Clouds 4 1025 91 9000 6.26 279 05:19 13.01.2022
5949 Clouds 4 1026 93 10000 4.47 249 01:53 13.01.2022
5950 Clouds 3 1027 93 10000 4.47 235 00:49 13.01.2022
5951 Clouds 3 1025 89 10000 4.02 259 23:46 12.01.2022
5952 Clouds 3 1026 88 10000 4.02 261 22:59 12.01.2022
5953 Clouds 3 1025 89 10000 4.02 240 21:57 12.01.2022
5954 Clouds 3 1025 89 10000 4.02 240 21:57 12.01.2022
5955 Clouds 3 1026 90 10000 3.58 236 21:22 12.01.2022
5956 Clouds 3 1026 90 10000 3.58 278 20:56 12.01.2022
5957 Clouds 3 1026 90 10000 3.58 278 20:56 12.01.2022
5958 Clouds 3 1028 90 10000 2.68 253 19:43 12.01.2022
5959 Clouds 3 1027 90 8000 6.71 308 18:30 12.01.2022
5960 Drizzle 3 1027 93 900 2.24 260 17:20 12.01.2022
5961 Drizzle 3 1027 93 2000 3.58 280 16:32 12.01.2022
5962 Clouds 3 1027 91 10000 3.58 272 14:48 12.01.2022
5963 Clouds 3 1027 89 10000 4.02 264 13:19 12.01.2022
5964 Mist 1 1027 90 5000 2.68 230 10:56 12.01.2022
5965 Mist -1 1026 94 3000 3.13 200 08:43 12.01.2022
5966 Mist -1 1026 94 2700 2.68 205 07:50 12.01.2022
5967 Mist -1 1027 92 2700 2.24 190 07:31 12.01.2022
5968 Clouds -2 1026 90 10000 2.24 168 23:53 11.01.2022
5969 Clouds -2 1028 90 6000 2.68 220 22:56 11.01.2022
5970 Clouds -2 1028 90 6000 3.58 243 22:23 11.01.2022
5971 Clouds -2 1028 89 8000 1.34 205 21:25 11.01.2022
5972 Clear -2 1027 89 9000 2.24 189 20:21 11.01.2022
5973 Clear -2 1027 87 9000 1.79 232 18:43 11.01.2022
5974 Clear -2 1027 86 10000 3.13 248 17:35 11.01.2022
5975 Clear -1 1026 85 10000 3.13 229 16:38 11.01.2022
5976 Clear -1 1026 84 10000 2.68 236 15:56 11.01.2022
5977 Clouds 0 1026 84 10000 2.24 221 14:43 11.01.2022
5978 Clouds 0 1026 84 10000 2.24 235 14:43 11.01.2022
5979 Clouds 0 1027 86 10000 2.68 195 13:58 11.01.2022
5980 Clear -1 1027 86 10000 2.24 199 13:39 11.01.2022
5981 Clear -1 1027 87 10000 2.68 196 13:21 11.01.2022
5982 Clouds -1 1027 85 10000 2.24 176 12:22 11.01.2022
5983 Clouds -2 1027 88 10000 3.13 160 10:24 11.01.2022
5984 Clouds -2 1026 88 8000 3.58 110 07:35 11.01.2022
5985 Mist -2 1023 87 5000 3.58 107 01:47 11.01.2022
5986 Clouds -1 1022 86 6000 2.68 89 00:22 11.01.2022
5987 Clouds 0 1022 85 6000 2.68 81 23:37 10.01.2022
5988 Clouds 0 1021 85 6000 2.68 78 22:19 10.01.2022
5989 Clouds 0 1021 85 6000 1.79 67 21:55 10.01.2022
5990 Clouds 0 1021 85 6000 2.68 64 21:32 10.01.2022
5991 Clouds 1 1020 86 6000 1.34 81 20:58 10.01.2022
5992 Clouds 1 1020 86 6000 2.68 79 20:29 10.01.2022
5993 Clouds 1 1019 87 6000 2.68 78 19:48 10.01.2022
5994 Mist 2 1019 88 5000 4.02 69 19:23 10.01.2022
5995 Mist 2 1018 89 5000 1.34 68 18:55 10.01.2022
5996 Mist 2 1018 88 5000 1.79 78 18:37 10.01.2022
5997 Mist 4 1016 90 3300 2.24 75 16:48 10.01.2022
5998 Drizzle 4 1015 90 2800 3.13 60 16:20 10.01.2022
5999 Clouds 5 1013 92 6000 0.89 80 14:42 10.01.2022
6000 Clouds 5 1011 94 10000 1.79 296 12:50 10.01.2022
6001 Clouds 5 1010 94 10000 0.89 317 11:55 10.01.2022
6002 Clouds 4 1009 95 10000 2.24 305 10:48 10.01.2022
6003 Clouds 4 1008 92 10000 3.13 299 09:33 10.01.2022
6004 Clouds 4 1003 91 10000 2.68 271 05:51 10.01.2022
6005 Clouds 4 1000 90 10000 1.79 257 02:30 10.01.2022
6006 Clouds 4 998 95 10000 1.34 224 01:20 10.01.2022
6007 Clouds 4 997 95 10000 2.24 253 00:19 10.01.2022
6008 Drizzle 3 995 91 7000 2.24 212 22:47 09.01.2022
6009 Drizzle 3 995 93 5000 2.68 200 22:18 09.01.2022
6010 Drizzle 3 994 93 6000 3.58 214 21:41 09.01.2022
6011 Drizzle 3 994 92 6000 3.58 214 21:41 09.01.2022
6012 Drizzle 3 994 92 10000 3.58 235 21:22 09.01.2022
6013 Drizzle 3 994 91 10000 3.58 235 21:22 09.01.2022
6014 Drizzle 3 991 91 10000 0.45 158 20:46 09.01.2022
6015 Drizzle 3 990 90 9000 0.89 190 20:28 09.01.2022
6016 Clouds 3 992 86 10000 3.13 203 19:39 09.01.2022
6017 Clouds 3 992 85 10000 3.58 207 19:20 09.01.2022
6018 Clouds 3 991 83 10000 3.13 180 18:41 09.01.2022
6019 Clouds 3 991 83 10000 2.68 162 18:23 09.01.2022
6020 Clouds 3 990 80 10000 3.13 121 17:30 09.01.2022
6021 Clouds 3 990 80 10000 3.13 137 16:50 09.01.2022
6022 Clouds 3 989 79 10000 3.13 131 15:51 09.01.2022
6023 Clouds 3 989 78 10000 3.58 145 15:32 09.01.2022
6024 Clouds 3 988 77 10000 4.02 140 14:39 09.01.2022
6025 Clouds 3 988 76 10000 4.47 156 13:49 09.01.2022
6026 Clouds 2 987 79 10000 4.02 145 12:26 09.01.2022
6027 Clouds 2 987 79 10000 5.81 143 11:46 09.01.2022
6028 Clouds 1 986 81 10000 5.81 142 09:55 09.01.2022
6029 Clouds 0 986 82 10000 5.81 129 09:29 09.01.2022
6030 Clouds 0 986 83 10000 5.36 143 08:25 09.01.2022
6031 Clear 0 990 87 10000 4.47 141 01:43 09.01.2022
6032 Clear 0 990 87 10000 5.36 152 01:19 09.01.2022
6033 Clear 0 990 89 10000 2.68 135 23:38 08.01.2022
6034 Clear 1 994 86 10000 4.92 159 22:59 08.01.2022
6035 Clear 1 995 89 10000 5.36 166 21:33 08.01.2022
6036 Clear 2 996 88 10000 4.47 166 20:45 08.01.2022
6037 Clouds 2 996 85 10000 4.02 163 20:23 08.01.2022
6038 Clouds 2 997 85 10000 4.02 189 19:58 08.01.2022
6039 Clouds 2 999 87 10000 1.79 210 17:51 08.01.2022
6040 Clouds 2 999 88 10000 4.47 225 17:21 08.01.2022
6041 Clouds 3 1000 87 10000 3.13 212 15:47 08.01.2022
6042 Clouds 3 999 87 10000 3.13 224 14:41 08.01.2022
6043 Clouds 2 1000 92 10000 3.13 247 12:44 08.01.2022
6044 Clouds 1 1001 91 10000 2.68 196 10:59 08.01.2022
6045 Clouds 1 1001 90 10000 3.58 212 10:25 08.01.2022
6046 Clouds 1 1001 91 10000 1.79 195 09:47 08.01.2022
6047 Clouds 1 1000 91 10000 4.47 229 07:19 08.01.2022
6048 Rain 1 1001 94 10000 4.47 193 02:39 08.01.2022
6049 Clear 1 1001 92 10000 4.92 190 00:41 08.01.2022
6050 Clouds 2 1001 93 10000 4.02 195 22:47 07.01.2022
6051 Clouds 2 1002 93 10000 4.92 208 20:56 07.01.2022
6052 Rain 2 1002 93 10000 5.81 213 19:56 07.01.2022
6053 Snow 2 1002 92 9000 4.92 211 19:18 07.01.2022
6054 Drizzle 2 1002 92 10000 5.81 215 18:44 07.01.2022
6055 Clouds 2 1002 93 10000 4.47 199 17:26 07.01.2022
6056 Drizzle 2 1003 91 10000 5.81 213 16:30 07.01.2022
6057 Snow 3 1003 84 10000 9.39 224 13:54 07.01.2022
6058 Clouds 3 1003 82 10000 6.71 215 13:22 07.01.2022
6059 Clouds 3 1004 81 10000 5.81 205 12:49 07.01.2022
6060 Clear 0 1005 87 10000 6.71 186 09:37 07.01.2022
6061 Clear -1 1009 87 10000 2.24 180 02:56 07.01.2022
6062 Clear -1 1009 88 10000 2.68 217 01:54 07.01.2022
6063 Clear -1 1009 88 10000 3.13 207 01:28 07.01.2022
6064 Clear -1 1010 88 10000 3.13 203 00:59 07.01.2022
6065 Clear -1 1010 87 10000 2.24 193 23:53 06.01.2022
6066 Clear -1 1010 86 10000 3.58 216 21:34 06.01.2022
6067 Clouds 0 1010 83 10000 4.02 220 20:22 06.01.2022
6068 Clouds 0 1010 79 10000 3.58 212 19:45 06.01.2022
6069 Clear 0 1009 83 10000 3.13 203 18:34 06.01.2022
6070 Clear 0 1009 79 10000 1.79 238 17:41 06.01.2022
6071 Clear 1 1008 76 10000 1.79 266 16:57 06.01.2022
6072 Clear 2 1007 68 10000 4.02 280 15:49 06.01.2022
6073 Clear 3 1007 67 10000 5.81 293 15:27 06.01.2022
6074 Clear 3 1007 64 10000 4.47 301 14:55 06.01.2022
6075 Clear 3 1007 66 10000 6.26 292 14:19 06.01.2022
6076 Clouds 3 1006 73 10000 6.26 310 12:58 06.01.2022
6077 Clouds 2 1013 81 10000 6.71 291 11:50 06.01.2022
6078 Clouds 2 1012 81 10000 7.6 297 11:28 06.01.2022
6079 Clouds 0 1003 84 10000 5.81 270 08:59 06.01.2022
6080 Rain 4 994 84 10000 7.15 296 01:52 06.01.2022
6081 Clouds 4 993 83 10000 7.15 282 23:54 05.01.2022
6082 Clouds 4 992 84 10000 8.05 274 23:19 05.01.2022
6083 Clouds 4 991 87 10000 8.94 263 22:40 05.01.2022
6084 Clouds 4 991 88 10000 7.6 277 21:54 05.01.2022
6085 Clouds 4 990 89 10000 7.6 271 21:22 05.01.2022
6086 Rain 4 989 89 10000 8.49 243 20:21 05.01.2022
6087 Clouds 4 989 91 10000 8.94 238 19:27 05.01.2022
6088 Clouds 3 988 92 10000 8.49 237 17:50 05.01.2022
6089 Clouds 3 988 88 10000 11.18 226 16:56 05.01.2022
6090 Clouds 3 995 85 10000 11.62 221 15:46 05.01.2022
6091 Clouds 4 995 76 10000 9.39 235 14:50 05.01.2022
6092 Clouds 5 995 76 10000 10.73 245 13:33 05.01.2022
6093 Clouds 4 988 78 10000 8.94 230 11:59 05.01.2022
6094 Clear 3 987 88 10000 4.47 240 08:21 05.01.2022
6095 Clouds 3 987 87 10000 3.58 232 06:37 05.01.2022
6096 Clouds 3 986 88 10000 3.58 232 06:37 05.01.2022
6097 Clouds 4 986 88 10000 3.58 270 01:20 05.01.2022
6098 Clouds 5 986 87 10000 5.36 290 23:42 04.01.2022
6099 Clouds 5 986 88 10000 3.58 264 23:19 04.01.2022
6100 Clouds 6 985 89 10000 4.47 279 21:36 04.01.2022
6101 Clouds 6 984 88 10000 5.36 272 20:41 04.01.2022
6102 Clouds 7 983 93 10000 4.92 247 18:35 04.01.2022
6103 Clouds 6 991 91 10000 3.58 222 17:19 04.01.2022
6104 Clouds 7 983 92 10000 3.13 245 16:31 04.01.2022
6105 Clouds 7 983 92 10000 3.58 246 15:20 04.01.2022
6106 Rain 7 991 90 10000 2.68 222 14:37 04.01.2022
6107 Clouds 7 984 91 10000 1.79 220 13:55 04.01.2022
6108 Rain 7 985 91 10000 2.24 180 12:20 04.01.2022
6109 Clouds 7 986 90 10000 3.58 184 10:21 04.01.2022
6110 Clouds 6 987 91 10000 3.58 200 08:57 04.01.2022
6111 Clear 6 989 90 10000 3.13 182 06:28 04.01.2022
6112 Clouds 7 993 90 10000 4.02 195 00:43 04.01.2022
6113 Clouds 7 994 85 10000 5.36 235 23:54 03.01.2022
6114 Clouds 7 994 86 10000 5.36 226 22:22 03.01.2022
6115 Clouds 7 994 88 10000 5.36 226 21:39 03.01.2022
6116 Clouds 8 995 86 10000 6.26 215 20:41 03.01.2022
6117 Clear 8 996 82 10000 5.36 227 19:38 03.01.2022
6118 Clouds 9 996 80 10000 5.81 230 18:31 03.01.2022
6119 Clouds 9 996 79 10000 6.71 234 17:23 03.01.2022
6120 Clouds 10 996 78 10000 5.81 232 16:53 03.01.2022
6121 Clouds 10 998 80 10000 7.15 243 14:32 03.01.2022
6122 Clouds 10 998 83 10000 7.6 259 13:25 03.01.2022
6123 Clouds 10 999 86 10000 6.71 247 12:22 03.01.2022
6124 Clouds 9 999 89 10000 10.28 258 11:22 03.01.2022
6125 Clouds 8 999 89 8000 6.71 271 09:29 03.01.2022
6126 Clouds 8 997 90 10000 7.15 275 07:55 03.01.2022
6127 Clouds 9 994 91 10000 8.05 250 05:21 03.01.2022
6128 Clouds 10 999 83 10000 8.05 249 23:44 02.01.2022
6129 Clouds 10 997 85 10000 8.05 226 22:57 02.01.2022
6130 Clouds 11 999 84 10000 5.81 236 22:22 02.01.2022
6131 Clouds 11 999 81 10000 7.15 229 21:26 02.01.2022
6132 Clouds 11 996 85 10000 9.83 247 20:30 02.01.2022
6133 Clouds 11 996 85 10000 9.83 247 20:30 02.01.2022
6134 Clear 11 998 85 10000 8.94 238 19:49 02.01.2022
6135 Clouds 11 998 86 10000 8.94 237 19:25 02.01.2022
6136 Clouds 11 998 90 10000 8.05 248 18:31 02.01.2022
6137 Clouds 10 999 91 10000 7.15 235 17:43 02.01.2022
6138 Clouds 10 999 92 10000 6.71 237 17:21 02.01.2022
6139 Clouds 10 999 92 10000 6.71 227 16:33 02.01.2022
6140 Rain 10 999 93 10000 7.15 208 15:49 02.01.2022
6141 Rain 10 999 93 10000 7.15 208 15:49 02.01.2022
6142 Clouds 10 1001 93 10000 7.6 208 13:58 02.01.2022
6143 Clouds 10 1003 92 10000 4.47 216 12:34 02.01.2022
6144 Rain 11 1003 91 10000 6.26 214 11:56 02.01.2022
6145 Rain 10 1005 91 10000 5.36 214 10:59 02.01.2022
6146 Clouds 10 1005 91 10000 5.36 211 10:26 02.01.2022
6147 Clear 8 1006 90 10000 4.02 200 08:22 02.01.2022
6148 Clear 9 1010 88 10000 4.47 188 02:58 02.01.2022
6149 Clouds 11 1012 90 10000 4.02 184 23:56 01.01.2022
6150 Clouds 11 1012 89 10000 4.02 193 23:36 01.01.2022
6151 Clouds 11 1013 87 10000 5.36 205 22:44 01.01.2022
6152 Clouds 11 1013 87 10000 5.36 198 22:18 01.01.2022
6153 Clouds 11 1013 90 10000 3.58 217 21:43 01.01.2022
6154 Clouds 11 1012 88 10000 3.58 189 20:51 01.01.2022
6155 Clouds 11 1014 88 10000 4.02 216 19:55 01.01.2022
6156 Clouds 12 1014 87 10000 3.58 234 18:58 01.01.2022
6157 Clouds 12 1012 88 10000 4.02 220 17:56 01.01.2022
6158 Clouds 12 1014 91 10000 4.47 233 16:35 01.01.2022
6159 Clouds 12 1014 88 10000 3.58 267 15:57 01.01.2022
6160 Clouds 12 1014 87 10000 4.47 269 14:57 01.01.2022
6161 Clouds 13 1014 87 10000 6.26 273 13:42 01.01.2022
6162 Clouds 12 1014 90 10000 5.81 286 12:49 01.01.2022
6163 Clouds 12 1014 89 10000 8.05 264 11:47 01.01.2022
6164 Clouds 12 1014 88 10000 7.15 274 11:20 01.01.2022
6165 Clouds 12 1012 92 10000 7.15 260 09:49 01.01.2022
6166 Clouds 12 1012 90 10000 6.71 264 09:21 01.01.2022
6167 Clouds 12 1012 90 10000 7.15 270 08:25 01.01.2022
6168 Clouds 12 1011 90 10000 6.26 264 07:43 01.01.2022
6169 Clouds 12 1011 90 10000 6.26 265 06:46 01.01.2022
6170 Clouds 12 1010 91 10000 6.26 278 05:26 01.01.2022
6171 Clouds 12 1010 92 10000 6.71 263 04:37 01.01.2022
6172 Clouds 12 1006 94 10000 7.6 265 01:28 01.01.2022
6173 Drizzle 12 1004 94 9000 8.05 251 23:35 31.12.2021
6174 Clouds 12 1005 92 10000 8.94 285 21:53 31.12.2021
6175 Drizzle 12 1003 92 10000 8.05 278 20:37 31.12.2021
6176 Clouds 12 1001 94 10000 5.81 242 19:30 31.12.2021
6177 Rain 12 1013 87 10000 5.66 240 18:35 31.12.2021
6178 Rain 13 1001 86 10000 5.81 234 17:38 31.12.2021
6179 Rain 13 1001 84 10000 5.36 224 17:18 31.12.2021
6180 Clear 13 1002 82 10000 8.49 238 16:25 31.12.2021
6181 Clouds 13 1002 83 10000 7.15 245 15:57 31.12.2021
6182 Clouds 13 1002 83 10000 7.15 245 15:28 31.12.2021
6183 Clouds 13 1002 84 10000 7.6 231 14:56 31.12.2021
6184 Clouds 13 1002 85 10000 8.05 238 14:30 31.12.2021
6185 Clouds 13 1001 87 10000 7.6 239 13:36 31.12.2021
6186 Clouds 13 1002 87 10000 8.94 231 12:45 31.12.2021
6187 Clouds 13 1002 88 10000 5.81 242 11:51 31.12.2021
6188 Clouds 13 1002 88 10000 7.6 243 11:30 31.12.2021
6189 Clouds 13 1002 89 10000 7.15 243 10:38 31.12.2021
6190 Clouds 13 1002 90 10000 6.71 239 10:20 31.12.2021
6191 Clouds 13 1002 91 10000 7.15 247 09:33 31.12.2021
6192 Clouds 12 1002 91 10000 7.15 232 08:43 31.12.2021
6193 Clouds 12 1002 91 10000 6.26 241 07:31 31.12.2021
6194 Clouds 12 1004 93 10000 6.26 255 23:32 30.12.2021
6195 Clouds 12 1003 93 10000 6.71 265 22:38 30.12.2021
6196 Clouds 12 1003 93 10000 6.26 254 22:20 30.12.2021
6197 Clouds 12 1003 93 10000 7.15 262 21:37 30.12.2021
6198 Clouds 12 1003 93 10000 7.15 262 21:37 30.12.2021
6199 Clouds 12 1001 96 10000 6.71 261 20:48 30.12.2021
6200 Clouds 12 1002 93 10000 6.71 254 20:28 30.12.2021
6201 Clouds 12 1002 94 10000 7.6 255 19:48 30.12.2021
6202 Clouds 12 1001 96 4500 6.26 263 18:51 30.12.2021
6203 Drizzle 11 1002 94 8000 5.81 245 18:20 30.12.2021
6204 Drizzle 10 1000 97 3000 5.81 224 16:34 30.12.2021
6205 Drizzle 10 1001 93 3500 4.47 231 15:52 30.12.2021
6206 Drizzle 9 1001 94 3500 5.36 225 14:49 30.12.2021
6207 Drizzle 9 1001 95 4500 6.26 220 14:30 30.12.2021
6208 Rain 9 1001 95 10000 4.92 228 13:24 30.12.2021
6209 Clouds 8 1001 94 7000 3.13 194 11:35 30.12.2021
6210 Mist 8 1002 93 5000 4.02 227 10:27 30.12.2021
6211 Clouds 7 1001 93 6000 4.02 243 09:27 30.12.2021
6212 Mist 7 1000 94 5000 4.92 259 06:56 30.12.2021
6213 Drizzle 6 998 93 3500 3.58 234 04:56 30.12.2021
6214 Clouds 5 997 94 6000 3.13 180 03:40 30.12.2021
6215 Mist 5 997 94 5000 3.13 176 02:19 30.12.2021
6216 Mist 4 997 94 1400 1.79 128 23:37 29.12.2021
6217 Fog 4 996 97 600 1.79 162 22:35 29.12.2021
6218 Fog 4 996 97 200 1.79 198 21:55 29.12.2021
6219 Drizzle 4 997 94 300 1.79 163 20:57 29.12.2021
6220 Drizzle 4 996 97 900 1.79 209 20:26 29.12.2021
6221 Drizzle 5 997 93 3000 2.68 241 19:31 29.12.2021
6222 Mist 5 996 97 2300 0.89 236 18:36 29.12.2021
6223 Drizzle 5 995 97 2700 2.68 252 17:42 29.12.2021
6224 Drizzle 5 996 94 3500 1.79 265 17:23 29.12.2021
6225 Mist 5 995 97 4500 4.47 271 16:21 29.12.2021
6226 Drizzle 5 994 93 3500 3.13 248 15:21 29.12.2021
6227 Clouds 5 992 94 6000 3.13 225 12:57 29.12.2021
6228 Clouds 5 992 93 6000 3.13 227 12:34 29.12.2021
6229 Clouds 5 992 96 7000 2.24 211 11:23 29.12.2021
6230 Clouds 4 993 93 8000 3.13 230 09:35 29.12.2021
6231 Clouds 3 992 92 7000 2.24 237 07:45 29.12.2021
6232 Fog 3 991 92 3500 2.68 248 06:34 29.12.2021
6233 Fog 3 990 92 3500 2.24 197 05:57 29.12.2021
6234 Mist 2 990 91 5000 0.45 215 05:27 29.12.2021
6235 Mist 2 988 91 5000 1.34 109 01:27 29.12.2021
6236 Clouds 2 987 91 8000 2.68 140 23:59 28.12.2021
6237 Rain 2 987 91 9000 2.24 117 23:18 28.12.2021
6238 Rain 2 987 90 10000 3.58 127 22:26 28.12.2021
6239 Clouds 2 986 89 9000 3.58 131 21:56 28.12.2021
6240 Clouds 2 986 88 10000 3.58 134 21:35 28.12.2021
6241 Clouds 2 986 86 10000 4.47 126 20:33 28.12.2021
6242 Clouds 2 986 88 10000 5.36 126 18:59 28.12.2021
6243 Clouds 2 987 85 10000 5.81 129 18:29 28.12.2021
6244 Clouds 2 987 88 10000 6.26 124 17:48 28.12.2021
6245 Clear 1 988 85 10000 4.92 119 16:29 28.12.2021
6246 Clear 1 988 84 10000 4.92 113 15:45 28.12.2021
6247 Clear 1 988 87 10000 4.92 120 15:19 28.12.2021
6248 Clear 1 989 84 10000 3.58 118 14:45 28.12.2021
6249 Clouds 1 989 87 10000 4.92 129 14:20 28.12.2021
6250 Clouds 1 990 86 10000 4.47 125 13:42 28.12.2021
6251 Clouds 0 990 84 10000 5.36 104 13:24 28.12.2021
6252 Clouds 0 991 85 10000 4.92 118 12:39 28.12.2021
6253 Clouds -1 992 86 6000 5.36 136 11:33 28.12.2021
6254 Clouds -3 992 85 8000 5.36 111 07:41 28.12.2021
6255 Clouds -3 991 85 8000 4.02 119 06:41 28.12.2021
6256 Clouds -2 996 82 10000 4.47 101 23:43 27.12.2021
6257 Clouds -2 997 81 10000 4.47 112 22:59 27.12.2021
6258 Clouds -2 997 80 10000 5.36 124 21:38 27.12.2021
6259 Clouds -2 997 80 10000 3.58 114 20:57 27.12.2021
6260 Clouds -2 998 79 10000 5.36 110 19:58 27.12.2021
6261 Clouds -1 997 79 10000 5.36 91 19:39 27.12.2021
6262 Clouds -2 997 79 10000 4.47 107 18:23 27.12.2021
6263 Clouds -1 998 79 10000 5.36 124 17:46 27.12.2021
6264 Clouds -1 997 79 10000 5.36 118 16:40 27.12.2021
6265 Clouds -1 998 80 10000 3.58 123 15:52 27.12.2021
6266 Clouds -1 998 78 10000 5.81 111 14:33 27.12.2021
6267 Clouds -1 998 80 10000 4.92 106 13:39 27.12.2021
6268 Clouds -2 998 81 10000 4.92 119 12:40 27.12.2021
6269 Clouds -4 999 82 10000 3.58 117 10:32 27.12.2021
6270 Clouds -4 999 82 10000 4.47 107 09:47 27.12.2021
6271 Clouds -5 1000 80 10000 3.13 106 08:39 27.12.2021
6272 Clouds -5 1000 79 10000 4.92 94 07:32 27.12.2021
6273 Clear -7 1003 80 10000 2.68 102 02:24 27.12.2021
6274 Clear -7 1002 81 10000 4.02 71 00:23 27.12.2021
6275 Clear -7 1002 81 10000 2.24 84 23:41 26.12.2021
6276 Clear -7 1004 80 10000 3.58 95 22:47 26.12.2021
6277 Clear -6 1004 78 10000 4.02 95 21:29 26.12.2021
6278 Clear -6 1005 76 10000 3.58 99 19:49 26.12.2021
6279 Clear -5 1005 73 10000 4.02 106 18:25 26.12.2021
6280 Clear -5 1005 73 10000 4.47 80 17:44 26.12.2021
6281 Clear -2 1005 66 10000 3.13 90 14:38 26.12.2021
6282 Clear -3 1005 67 10000 3.13 97 13:43 26.12.2021
6283 Clear -3 1005 70 10000 2.68 96 13:21 26.12.2021
6284 Clear -3 1005 74 10000 3.58 100 12:34 26.12.2021
6285 Clear -4 1005 83 10000 2.68 110 11:18 26.12.2021
6286 Clear -8 1005 90 10000 1.79 70 09:30 26.12.2021
6287 Clear -8 1005 88 10000 1.79 73 08:44 26.12.2021
6288 Clear -8 1004 88 10000 0.89 73 08:23 26.12.2021
6289 Clear -7 1005 86 10000 0.45 73 01:45 26.12.2021
6290 Clear -6 1005 86 10000 0.45 95 00:28 26.12.2021
6291 Clear -6 1006 86 10000 0.45 70 23:35 25.12.2021
6292 Clear -6 1006 88 10000 2.68 179 22:29 25.12.2021
6293 Clear -7 1006 87 10000 1.34 149 21:29 25.12.2021
6294 Clear -6 1006 87 10000 0.51 290 20:18 25.12.2021
6295 Clear -6 1005 84 10000 0.89 272 19:18 25.12.2021
6296 Clear -6 1005 84 10000 2.68 240 18:29 25.12.2021
6297 Clear -5 1005 83 10000 1.79 185 16:49 25.12.2021
6298 Clear -3 1004 76 10000 0.45 131 15:34 25.12.2021
6299 Clear -2 1004 74 10000 0.89 256 14:23 25.12.2021
6300 Clouds -3 1002 78 10000 0.89 237 12:21 25.12.2021
6301 Clear -4 1004 86 10000 0.45 335 10:49 25.12.2021
6302 Clear -5 1003 88 10000 1.34 201 09:49 25.12.2021
6303 Clear -7 1002 87 10000 0.45 27 07:28 25.12.2021
6304 Clear -5 1000 84 10000 2.24 322 01:43 25.12.2021
6305 Clear -4 999 82 10000 3.58 11 00:22 25.12.2021
6306 Clouds -2 998 85 10000 5.36 357 22:26 24.12.2021
6307 Snow 1 993 93 10000 4.47 313 19:29 24.12.2021
6308 Snow 1 992 94 10000 3.58 294 18:57 24.12.2021
6309 Snow 1 991 95 10000 4.02 311 16:49 24.12.2021
6310 Rain 2 990 94 10000 5.36 325 15:52 24.12.2021
6311 Rain 2 989 94 10000 6.26 328 15:32 24.12.2021
6312 Rain 2 989 94 10000 6.26 327 14:36 24.12.2021
6313 Rain 3 988 94 10000 6.71 328 14:18 24.12.2021
6314 Clouds 4 987 94 10000 7.15 310 13:33 24.12.2021
6315 Clouds 4 987 95 10000 4.92 303 12:47 24.12.2021
6316 Drizzle 5 987 95 5000 4.92 271 11:47 24.12.2021
6317 Drizzle 5 987 95 10000 5.81 276 11:24 24.12.2021
6318 Drizzle 5 987 96 9000 4.47 257 10:45 24.12.2021
6319 Rain 5 987 96 7000 3.13 251 09:32 24.12.2021
6320 Drizzle 4 987 95 7000 4.47 235 08:23 24.12.2021
6321 Drizzle 4 987 95 7000 3.58 238 07:46 24.12.2021
6322 Rain 1 990 94 4300 4.47 234 01:30 24.12.2021
6323 Snow 1 991 93 5000 5.36 236 23:55 23.12.2021
6324 Snow 1 992 91 5000 5.81 232 22:56 23.12.2021
6325 Snow 1 992 93 5000 4.92 234 22:37 23.12.2021
6326 Snow 1 992 93 3500 4.92 215 22:18 23.12.2021
6327 Snow 0 993 93 1600 5.36 213 20:56 23.12.2021
6328 Snow 0 994 92 2500 3.13 223 19:47 23.12.2021
6329 Snow 0 996 87 1600 5.36 231 18:35 23.12.2021
6330 Snow 1 997 83 10000 3.13 178 17:56 23.12.2021
6331 Snow 1 998 80 10000 2.68 177 16:43 23.12.2021
6332 Clear 0 998 79 10000 2.68 188 16:23 23.12.2021
6333 Clouds 0 999 78 10000 1.79 225 15:31 23.12.2021
6334 Clear 1 1000 79 10000 3.13 183 14:52 23.12.2021
6335 Clear 1 1000 81 10000 3.58 185 14:30 23.12.2021
6336 Clear 0 1002 80 10000 4.02 151 12:54 23.12.2021
6337 Clear -1 1005 86 10000 3.58 161 10:52 23.12.2021
6338 Clear -2 1006 85 10000 4.47 162 09:42 23.12.2021
6339 Clear -2 1006 87 10000 4.47 120 08:59 23.12.2021
6340 Clear -2 1006 87 10000 4.02 141 08:59 23.12.2021
6341 Clear -2 1006 87 10000 4.47 120 08:59 23.12.2021
6342 Clear -2 1008 88 10000 3.13 160 06:55 23.12.2021
6343 Clear -3 1010 87 10000 3.13 167 04:33 23.12.2021
6344 Clear -2 1014 83 10000 1.79 148 23:26 22.12.2021
6345 Clear -2 1014 84 10000 2.68 151 22:47 22.12.2021
6346 Clear -2 1015 87 10000 2.24 180 21:56 22.12.2021
6347 Clear -2 1015 89 10000 2.24 175 21:29 22.12.2021
6348 Clear -2 1015 88 10000 2.24 180 20:47 22.12.2021
6349 Clear -2 1016 85 10000 2.68 179 20:26 22.12.2021
6350 Clear -1 1016 87 10000 3.13 172 19:32 22.12.2021
6351 Clear -1 1017 82 10000 2.68 190 17:55 22.12.2021
6352 Clear -1 1017 82 10000 2.68 187 17:34 22.12.2021
6353 Clear 1 1017 80 10000 3.13 183 15:42 22.12.2021
6354 Clear 2 1017 76 10000 2.68 189 13:37 22.12.2021
6355 Clear 2 1018 77 10000 3.13 229 12:41 22.12.2021
6356 Clear 1 1019 83 10000 3.13 227 10:46 22.12.2021
6357 Clear -1 1019 85 10000 0.45 234 09:40 22.12.2021
6358 Clouds -1 1018 84 10000 3.13 240 07:32 22.12.2021
6359 Clouds 0 1019 82 10000 2.68 244 05:50 22.12.2021
6360 Clouds 0 1019 83 10000 4.02 246 05:28 22.12.2021
6361 Clouds 0 1019 83 10000 1.79 237 04:54 22.12.2021
6362 Clouds 0 1019 88 10000 2.24 228 04:30 22.12.2021
6363 Clouds 0 1019 84 10000 2.24 228 04:30 22.12.2021
6364 Clouds 0 1019 85 10000 0.89 269 03:33 22.12.2021
6365 Clouds 0 1019 88 10000 3.58 283 00:57 22.12.2021
6366 Clouds 0 1018 89 10000 2.24 287 23:33 21.12.2021
6367 Clouds 0 1018 90 10000 2.24 325 22:29 21.12.2021
6368 Clouds 0 1018 90 10000 1.79 321 21:51 21.12.2021
6369 Clouds 0 1018 90 10000 1.79 297 21:24 21.12.2021
6370 Clouds 1 1018 89 10000 3.13 270 20:23 21.12.2021
6371 Clear 1 1018 86 10000 2.24 265 19:46 21.12.2021
6372 Clouds 0 1018 89 10000 2.68 269 19:26 21.12.2021
6373 Clouds 0 1017 90 10000 2.68 265 18:22 21.12.2021
6374 Clouds 1 1017 90 10000 2.68 278 17:51 21.12.2021
6375 Clouds 1 1017 89 10000 2.68 271 16:39 21.12.2021
6376 Clouds 1 1017 89 10000 2.24 274 15:33 21.12.2021
6377 Clouds 2 1017 87 10000 1.34 14 13:51 21.12.2021
6378 Clouds 2 1017 89 10000 0.89 283 13:32 21.12.2021
6379 Clouds 2 1017 89 10000 2.24 282 12:20 21.12.2021
6380 Clouds 2 1017 90 10000 2.68 276 10:38 21.12.2021
6381 Clouds 1 1017 91 10000 1.79 292 09:41 21.12.2021
6382 Clouds 1 1017 92 10000 1.79 348 08:39 21.12.2021
6383 Clouds 1 1017 92 8000 2.24 360 07:35 21.12.2021
6384 Clouds 1 1017 92 8000 2.68 292 06:56 21.12.2021
6385 Clear 1 1017 92 10000 4.02 259 03:24 21.12.2021
6386 Clouds 1 1017 89 10000 1.79 246 01:19 21.12.2021
6387 Clouds 1 1018 92 10000 1.79 260 23:54 20.12.2021
6388 Clouds 1 1018 91 10000 2.68 284 22:35 20.12.2021
6389 Clouds 1 1017 91 10000 2.24 287 21:48 20.12.2021
6390 Clouds 0 1017 91 10000 2.68 284 21:24 20.12.2021
6391 Clouds 0 1017 90 10000 2.68 294 20:50 20.12.2021
6392 Clouds 0 1017 90 10000 2.24 267 20:19 20.12.2021
6393 Clouds 1 1017 90 10000 2.24 276 19:36 20.12.2021
6394 Clouds 1 1017 90 10000 2.24 279 19:18 20.12.2021
6395 Clouds 2 1017 89 10000 1.79 323 18:28 20.12.2021
6396 Clouds 2 1016 89 10000 2.68 292 17:49 20.12.2021
6397 Clouds 3 1016 88 10000 3.13 294 16:45 20.12.2021
6398 Clouds 3 1016 86 10000 4.02 295 15:55 20.12.2021
6399 Clouds 3 1016 85 10000 4.02 299 15:31 20.12.2021
6400 Clouds 3 1015 85 10000 4.47 302 13:31 20.12.2021
6401 Clouds 3 1015 86 10000 4.02 301 11:47 20.12.2021
6402 Clouds 1 1015 90 10000 3.58 283 10:35 20.12.2021
6403 Clouds 0 1014 90 10000 4.02 294 09:38 20.12.2021
6404 Clouds 0 1014 88 10000 5.36 278 08:44 20.12.2021
6405 Clouds 0 1014 89 10000 3.58 296 08:00 20.12.2021
6406 Clear 0 1014 86 10000 4.47 296 07:32 20.12.2021
6407 Clear 0 1013 87 10000 4.47 294 06:32 20.12.2021
6408 Clear 0 1013 87 10000 4.47 306 06:32 20.12.2021
6409 Clear 2 1012 85 10000 4.47 318 00:20 20.12.2021
6410 Clear 3 1012 85 10000 4.47 336 22:56 19.12.2021
6411 Clouds 3 1012 86 10000 7.15 330 22:24 19.12.2021
6412 Clouds 4 1012 88 10000 5.36 333 21:32 19.12.2021
6413 Clouds 5 1011 90 10000 5.81 340 20:36 19.12.2021
6414 Clouds 5 1010 93 10000 6.71 323 19:53 19.12.2021
6415 Clouds 6 1009 91 10000 5.36 323 19:34 19.12.2021
6416 Clouds 6 1010 91 10000 6.71 308 18:37 19.12.2021
6417 Drizzle 6 1010 90 10000 7.6 320 17:53 19.12.2021
6418 Drizzle 6 1009 91 8000 5.36 322 17:28 19.12.2021
6419 Drizzle 7 1009 94 7000 5.81 299 16:27 19.12.2021
6420 Drizzle 6 1009 93 4300 5.81 300 15:52 19.12.2021
6421 Drizzle 6 1009 92 6000 7.6 285 15:24 19.12.2021
6422 Drizzle 6 1009 92 6000 7.6 285 14:45 19.12.2021
6423 Drizzle 6 1010 91 10000 8.94 294 13:27 19.12.2021
6424 Drizzle 6 1011 91 7000 6.26 307 12:52 19.12.2021
6425 Drizzle 6 1011 91 7000 7.15 290 12:28 19.12.2021
6426 Drizzle 6 1012 93 8000 7.6 292 11:33 19.12.2021
6427 Drizzle 6 1012 90 8000 7.6 296 10:49 19.12.2021
6428 Drizzle 6 1013 90 10000 7.6 303 10:22 19.12.2021
6429 Drizzle 7 1013 85 10000 5.81 308 08:46 19.12.2021
6430 Drizzle 7 1014 83 10000 8.94 300 06:30 19.12.2021
6431 Clouds 7 1017 87 10000 6.71 282 01:51 19.12.2021
6432 Clouds 7 1018 88 10000 8.05 297 00:54 19.12.2021
6433 Clouds 7 1017 90 10000 4.47 271 22:59 18.12.2021
6434 Clouds 7 1019 92 10000 4.02 260 22:24 18.12.2021
6435 Clouds 7 1020 90 10000 4.02 280 21:43 18.12.2021
6436 Clouds 7 1020 91 10000 4.92 269 21:22 18.12.2021
6437 Drizzle 7 1021 92 10000 4.47 272 20:26 18.12.2021
6438 Clouds 7 1021 91 9000 4.02 278 19:35 18.12.2021
6439 Drizzle 6 1022 94 10000 4.92 300 18:24 18.12.2021
6440 Drizzle 6 1022 95 6000 5.36 283 17:49 18.12.2021
6441 Drizzle 6 1023 92 10000 5.81 280 16:36 18.12.2021
6442 Drizzle 6 1023 92 10000 6.26 283 16:18 18.12.2021
6443 Drizzle 7 1023 91 9000 4.02 277 14:54 18.12.2021
6444 Drizzle 6 1029 90 10000 5.36 276 13:45 18.12.2021
6445 Drizzle 6 1026 92 3000 4.02 260 11:57 18.12.2021
6446 Clouds 5 1026 92 10000 5.36 278 09:54 18.12.2021
6447 Drizzle 5 1026 91 9000 6.26 278 09:31 18.12.2021
6448 Drizzle 5 1027 92 10000 3.58 283 08:36 18.12.2021
6449 Drizzle 5 1027 93 9000 3.13 280 07:24 18.12.2021
6450 Clouds 5 1028 90 10000 2.68 308 01:45 18.12.2021
6451 Clouds 5 1028 89 10000 3.13 319 23:51 17.12.2021
6452 Clouds 5 1028 89 10000 4.47 315 22:40 17.12.2021
6453 Clouds 5 1025 90 10000 4.92 334 21:49 17.12.2021
6454 Clouds 5 1033 88 10000 4.47 310 20:44 17.12.2021
6455 Clouds 5 1034 88 10000 3.58 310 19:57 17.12.2021
6456 Clouds 6 1035 86 10000 4.47 324 18:40 17.12.2021
6457 Clouds 6 1035 85 10000 3.58 325 17:59 17.12.2021
6458 Clouds 6 1027 86 10000 4.92 325 16:57 17.12.2021
6459 Clouds 6 1028 81 10000 4.92 306 16:28 17.12.2021
6460 Clouds 6 1028 81 10000 3.58 315 15:51 17.12.2021
6461 Clouds 6 1028 85 10000 4.47 311 14:43 17.12.2021
6462 Clouds 6 1028 83 10000 3.58 301 13:55 17.12.2021
6463 Clouds 6 1027 87 10000 3.58 339 12:38 17.12.2021
6464 Clouds 6 1028 90 10000 3.58 339 10:49 17.12.2021
6465 Clouds 5 1027 91 10000 4.92 337 09:51 17.12.2021
6466 Clouds 5 1027 88 10000 4.92 305 08:58 17.12.2021
6467 Clouds 5 1027 88 10000 5.36 318 08:19 17.12.2021
6468 Clouds 5 1027 89 10000 4.47 296 04:58 17.12.2021
6469 Clouds 5 1027 91 10000 4.92 295 02:51 17.12.2021
6470 Clouds 6 1027 93 10000 4.47 294 22:50 16.12.2021
6471 Clouds 6 1027 91 10000 4.47 290 22:22 16.12.2021
6472 Clouds 5 1027 91 10000 4.92 280 21:44 16.12.2021
6473 Clouds 5 1027 91 10000 4.47 278 20:48 16.12.2021
6474 Clear 6 1027 91 10000 4.92 274 20:22 16.12.2021
6475 Clear 5 1027 91 10000 3.58 264 19:31 16.12.2021
6476 Clear 6 1027 89 10000 2.24 277 18:33 16.12.2021
6477 Clear 6 1026 87 10000 3.13 266 17:48 16.12.2021
6478 Clouds 8 1025 85 10000 3.13 293 16:37 16.12.2021
6479 Clouds 8 1025 84 10000 4.02 289 16:18 16.12.2021
6480 Clouds 10 1024 87 10000 5.36 314 13:47 16.12.2021
6481 Clouds 9 1024 91 10000 4.02 316 12:30 16.12.2021
6482 Clouds 8 1024 91 10000 4.02 294 11:19 16.12.2021
6483 Clouds 8 1024 91 10000 4.47 313 10:44 16.12.2021
6484 Clouds 8 1023 91 8000 3.58 300 09:50 16.12.2021
6485 Drizzle 8 1022 89 10000 4.47 270 07:19 16.12.2021
6486 Clouds 8 1021 86 10000 4.47 274 06:18 16.12.2021
6487 Clouds 8 1019 88 10000 2.24 250 00:35 16.12.2021
6488 Clouds 8 1020 88 10000 4.02 249 23:20 15.12.2021
6489 Clouds 9 1020 88 10000 3.13 255 22:21 15.12.2021
6490 Clouds 9 1020 88 10000 5.36 249 21:45 15.12.2021
6491 Clouds 9 1020 88 10000 5.36 237 21:25 15.12.2021
6492 Clouds 9 1020 88 10000 4.47 245 19:54 15.12.2021
6493 Clouds 9 1020 88 10000 3.58 246 19:19 15.12.2021
6494 Clouds 9 1020 87 10000 3.13 232 18:26 15.12.2021
6495 Clouds 9 1020 88 10000 3.58 227 17:47 15.12.2021
6496 Clouds 9 1020 88 10000 4.02 229 17:21 15.12.2021
6497 Clouds 9 1025 88 10000 4.47 231 16:25 15.12.2021
6498 Clouds 9 1020 88 10000 4.02 250 15:42 15.12.2021
6499 Clouds 9 1020 89 10000 4.02 258 15:24 15.12.2021
6500 Clouds 9 1019 89 10000 3.58 249 13:58 15.12.2021
6501 Clouds 9 1025 89 10000 4.92 243 11:57 15.12.2021
6502 Clouds 8 1020 92 10000 4.92 228 10:23 15.12.2021
6503 Clouds 8 1019 92 9000 4.47 227 08:48 15.12.2021
6504 Mist 8 1018 92 5000 4.02 232 05:59 15.12.2021
6505 Mist 8 1018 92 2600 3.58 241 00:47 15.12.2021
6506 Mist 8 1018 93 2800 4.02 254 23:41 14.12.2021
6507 Mist 8 1018 95 2800 2.68 250 22:48 14.12.2021
6508 Mist 7 1015 96 3000 3.58 264 21:51 14.12.2021
6509 Mist 7 1017 95 5000 3.13 245 20:27 14.12.2021
6510 Mist 7 1017 95 5000 3.13 245 19:40 14.12.2021
6511 Clouds 7 1017 95 7000 3.13 247 18:42 14.12.2021
6512 Clouds 7 1017 92 8000 4.02 255 17:58 14.12.2021
6513 Clouds 7 1017 92 8000 4.02 255 17:58 14.12.2021
6514 Drizzle 7 1016 94 4800 3.13 248 17:27 14.12.2021
6515 Drizzle 7 1016 94 2000 2.24 259 16:38 14.12.2021
6516 Clouds 8 1015 92 10000 2.68 259 15:26 14.12.2021
6517 Clouds 8 1015 90 10000 4.02 239 13:31 14.12.2021
6518 Clouds 7 1016 89 10000 4.02 231 11:58 14.12.2021
6519 Clouds 7 1016 90 10000 3.58 237 11:23 14.12.2021
6520 Clouds 7 1016 92 10000 4.02 225 09:57 14.12.2021
6521 Clouds 7 1016 91 10000 3.13 232 09:35 14.12.2021
6522 Clouds 7 1016 91 10000 3.58 232 08:25 14.12.2021
6523 Clouds 7 1016 91 10000 4.02 229 07:43 14.12.2021
6524 Clouds 7 1017 96 7000 3.13 212 02:27 14.12.2021
6525 Clouds 8 1024 97 7000 1.34 220 22:55 13.12.2021
6526 Mist 8 1015 97 4200 2.24 220 21:53 13.12.2021
6527 Mist 8 1025 97 3100 3.58 213 21:18 13.12.2021
6528 Mist 8 1025 97 4800 2.68 210 20:38 13.12.2021
6529 Clouds 8 1018 97 7000 1.79 241 19:52 13.12.2021
6530 Mist 8 1017 97 2800 2.24 261 18:24 13.12.2021
6531 Drizzle 8 1015 98 1500 2.24 229 17:26 13.12.2021
6532 Drizzle 8 1017 96 1500 2.24 234 15:54 13.12.2021
6533 Mist 8 1017 96 1600 2.24 218 15:25 13.12.2021
6534 Drizzle 8 1017 96 1200 1.79 220 13:45 13.12.2021
6535 Drizzle 7 1017 96 700 1.34 206 12:49 13.12.2021
6536 Fog 7 1017 94 900 0.89 194 11:59 13.12.2021
6537 Mist 7 1017 96 1300 2.24 192 11:35 13.12.2021
6538 Mist 6 1017 93 1200 1.79 189 10:47 13.12.2021
6539 Fog 6 1017 94 700 2.68 218 09:41 13.12.2021
6540 Fog 5 1015 97 900 2.68 232 07:53 13.12.2021
6541 Mist 5 1015 96 4300 1.34 242 05:36 13.12.2021
6542 Mist 5 1014 96 5000 2.24 252 03:30 13.12.2021
6543 Mist 4 1013 95 5000 2.68 239 23:26 12.12.2021
6544 Drizzle 4 1013 93 4500 3.58 214 21:41 12.12.2021
6545 Drizzle 3 1013 93 4500 2.68 191 20:18 12.12.2021
6546 Clouds 3 1013 92 6000 2.24 218 18:43 12.12.2021
6547 Clouds 2 1013 92 10000 4.47 191 17:45 12.12.2021
6548 Clouds 2 1013 90 8000 2.68 175 16:28 12.12.2021
6549 Clouds 2 1013 89 10000 3.58 178 15:50 12.12.2021
6550 Clouds 2 1013 89 10000 4.02 176 15:26 12.12.2021
6551 Clouds 2 1013 89 10000 4.02 176 15:26 12.12.2021
6552 Clouds 2 1013 89 10000 3.58 163 14:37 12.12.2021
6553 Rain 2 1014 90 10000 2.68 204 13:33 12.12.2021
6554 Clouds 1 1014 90 8000 4.47 189 12:32 12.12.2021
6555 Rain 1 1014 90 8000 3.58 193 11:44 12.12.2021
6556 Clouds 1 1015 90 9000 3.58 208 11:25 12.12.2021
6557 Clouds 0 1015 91 8000 4.47 195 10:32 12.12.2021
6558 Clouds 0 1015 91 6000 4.47 194 09:39 12.12.2021
6559 Clouds -1 1015 91 6000 2.68 183 08:38 12.12.2021
6560 Clouds -1 1014 91 8000 2.68 238 06:34 12.12.2021
6561 Clouds -1 1014 90 9000 1.79 213 05:22 12.12.2021
6562 Clouds -1 1014 91 8000 1.79 189 03:57 12.12.2021
6563 Fog -1 1013 91 800 3.13 193 00:36 12.12.2021
6564 Fog -1 1012 92 900 3.58 203 22:24 11.12.2021
6565 Fog -1 1012 92 900 4.47 191 21:52 11.12.2021
6566 Fog -1 1011 92 1000 4.02 217 21:21 11.12.2021
6567 Mist 0 1010 91 1400 4.02 219 19:37 11.12.2021
6568 Mist 0 1010 92 3800 3.13 237 18:53 11.12.2021
6569 Mist 0 1010 91 4600 3.13 236 18:30 11.12.2021
6570 Mist 0 1009 91 5000 3.58 238 17:37 11.12.2021
6571 Clouds 0 1008 94 6000 3.13 243 15:55 11.12.2021
6572 Clouds 0 1008 91 6000 3.58 245 15:35 11.12.2021
6573 Mist 0 1006 94 1800 2.24 262 13:46 11.12.2021
6574 Mist 0 1004 94 4300 3.13 277 11:55 11.12.2021
6575 Mist 0 1003 94 1300 2.24 241 10:24 11.12.2021
6576 Fog 0 1002 95 400 1.34 224 09:37 11.12.2021
6577 Fog 0 996 96 600 0.89 34 03:25 11.12.2021
6578 Mist 0 994 95 1000 1.34 151 00:44 11.12.2021
6579 Fog 0 993 92 500 1.79 149 23:40 10.12.2021
6580 Fog 0 992 92 700 1.79 116 22:33 10.12.2021
6581 Fog 1 992 92 800 3.58 121 21:37 10.12.2021
6582 Mist 1 991 94 2500 1.34 102 19:55 10.12.2021
6583 Mist 1 990 94 2700 1.79 101 19:18 10.12.2021
6584 Mist 1 990 94 2900 2.68 87 17:31 10.12.2021
6585 Mist 1 989 91 3600 0.89 90 16:34 10.12.2021
6586 Mist 1 989 94 3300 1.79 115 15:43 10.12.2021
6587 Mist 1 989 94 2700 2.24 100 15:24 10.12.2021
6588 Mist 1 988 91 3000 3.13 95 14:29 10.12.2021
6589 Mist 1 988 91 3100 3.13 92 13:48 10.12.2021
6590 Mist 1 989 92 2000 3.13 157 12:55 10.12.2021
6591 Mist 1 989 92 2000 3.13 157 12:55 10.12.2021
6592 Mist 1 989 90 3100 3.13 132 11:36 10.12.2021
6593 Snow 0 989 91 2400 1.79 90 10:56 10.12.2021
6594 Mist 0 990 94 2200 1.34 96 09:36 10.12.2021
6595 Snow -1 991 93 1300 0.89 83 07:28 10.12.2021
6596 Snow -1 991 93 1800 1.79 176 04:57 10.12.2021
6597 Snow -1 994 92 1800 0.89 116 02:39 10.12.2021
6598 Snow -1 995 93 2500 1.34 108 23:42 09.12.2021
6599 Snow -1 996 93 2800 1.34 103 22:41 09.12.2021
6600 Snow -1 996 93 2800 0.45 96 22:22 09.12.2021
6601 Snow -1 996 93 2800 1.34 107 21:40 09.12.2021
6602 Mist -1 996 93 3200 0.89 114 20:36 09.12.2021
6603 Mist -1 997 92 4000 0.89 128 19:45 09.12.2021
6604 Mist -1 997 93 4700 1.34 113 19:20 09.12.2021
6605 Snow 0 997 89 4800 2.24 120 18:22 09.12.2021
6606 Mist -1 996 92 4800 1.79 99 17:48 09.12.2021
6607 Snow -1 997 91 4800 1.79 108 17:24 09.12.2021
6608 Snow -1 997 91 4800 1.79 85 16:41 09.12.2021
6609 Snow 0 997 88 5000 1.34 103 15:19 09.12.2021
6610 Snow 0 996 90 6000 2.24 123 14:43 09.12.2021
6611 Snow 0 996 88 4800 2.68 101 12:49 09.12.2021
6612 Mist -1 996 88 4600 3.13 125 12:24 09.12.2021
6613 Snow -1 997 90 1700 2.24 96 10:40 09.12.2021
6614 Mist -1 996 89 4600 3.13 80 08:19 09.12.2021
6615 Clouds -1 996 84 10000 4.92 88 03:59 09.12.2021
6616 Clouds -1 996 84 10000 5.36 93 01:43 09.12.2021
6617 Clouds -1 996 84 10000 4.47 98 23:40 08.12.2021
6618 Clouds 0 996 84 10000 4.92 88 23:20 08.12.2021
6619 Clouds 0 996 84 10000 4.47 101 22:43 08.12.2021
6620 Clouds 0 996 84 10000 5.36 90 21:39 08.12.2021
6621 Clouds 0 996 86 10000 5.36 121 20:59 08.12.2021
6622 Clouds 0 996 85 10000 6.71 120 19:57 08.12.2021
6623 Clouds 0 995 85 10000 6.26 101 19:33 08.12.2021
6624 Clouds 0 995 85 10000 6.26 96 18:30 08.12.2021
6625 Clouds 1 996 85 10000 6.71 111 17:24 08.12.2021
6626 Clear 1 995 84 10000 6.26 125 15:46 08.12.2021
6627 Clear 1 995 84 10000 6.71 120 15:23 08.12.2021
6628 Clear 1 995 84 10000 7.15 107 14:28 08.12.2021
6629 Clouds 0 996 87 10000 7.15 112 10:54 08.12.2021
6630 Clouds 0 996 88 10000 6.26 115 10:28 08.12.2021
6631 Clouds 0 997 88 10000 6.26 118 08:54 08.12.2021
6632 Clouds 0 997 88 10000 4.92 120 07:21 08.12.2021
6633 Clouds 0 998 92 10000 5.36 121 01:40 08.12.2021
6634 Clouds 0 1005 85 10000 4.47 120 23:33 07.12.2021
6635 Clouds 0 997 89 9000 2.68 120 21:40 07.12.2021
6636 Clouds 0 997 89 9000 4.02 120 21:18 07.12.2021
6637 Clouds 0 1001 88 10000 4.92 100 20:19 07.12.2021
6638 Clouds 0 1001 90 10000 5.36 117 18:42 07.12.2021
6639 Clouds 0 1003 89 10000 4.02 113 17:48 07.12.2021
6640 Clouds 0 1003 89 10000 3.13 130 17:19 07.12.2021
6641 Clouds 0 1004 90 10000 5.36 127 16:28 07.12.2021
6642 Clouds 0 1003 90 10000 4.92 134 15:23 07.12.2021
6643 Clouds 0 1003 87 10000 4.92 126 13:53 07.12.2021
6644 Clouds 0 1003 89 10000 5.36 117 12:49 07.12.2021
6645 Clouds 0 1004 88 10000 6.26 112 11:27 07.12.2021
6646 Clouds -1 1004 89 10000 5.81 116 10:33 07.12.2021
6647 Clouds -1 1002 90 10000 4.47 107 07:57 07.12.2021
6648 Clouds -1 1001 91 10000 5.81 115 05:59 07.12.2021
6649 Clouds -1 1001 90 10000 4.47 133 05:33 07.12.2021
6650 Clouds 0 1005 93 10000 1.79 140 23:47 06.12.2021
6651 Clouds 1 1005 89 10000 1.79 115 22:46 06.12.2021
6652 Clouds 1 1002 93 10000 0.89 122 22:23 06.12.2021
6653 Clouds 1 1002 92 10000 1.79 110 21:51 06.12.2021
6654 Clouds 0 999 93 10000 1.79 120 20:33 06.12.2021
6655 Clouds 0 1012 93 10000 1.34 110 19:56 06.12.2021
6656 Clouds 0 1012 92 10000 1.79 100 19:21 06.12.2021
6657 Clouds 0 1012 93 10000 1.79 70 18:28 06.12.2021
6658 Clouds 0 1012 93 10000 2.24 80 17:40 06.12.2021
6659 Clouds 1 1012 92 10000 0.89 120 16:48 06.12.2021
6660 Clouds 2 1004 92 10000 0.89 96 15:39 06.12.2021